<?xml version="1.0" encoding="UTF-8" standalone="no" ?>
<gpx xmlns="http://www.topografix.com/GPX/1/1" xmlns:xsi="http://www.w3.org/2001/XMLSchema-instance" xsi:schemaLocation="http://www.topografix.com/GPX/1/1 http://www.topografix.com/GPX/1/1/gpx.xsd" version="1.1" creator="VisuGPX - https://www.visugpx.com">
  <metadata>
    <name>Tour des Coulmes</name>
    <desc><![CDATA[Belle sortie vtt ! pas trop de paysage, quasiment tout le long en forêt !]]></desc>
  </metadata>
  <trk>
    <name><![CDATA[TourCoulmes]]></name>
    <trkseg>
      <trkpt lat="45.11617" lon="5.40352">
        <ele>1002</ele>
        <time>2015-09-05T12:14:20Z</time>
      </trkpt>
      <trkpt lat="45.11617" lon="5.40352">
        <ele>1002</ele>
        <time>2015-09-05T12:14:21Z</time>
      </trkpt>
      <trkpt lat="45.11609" lon="5.4036">
        <ele>1003</ele>
        <time>2015-09-05T12:15:47Z</time>
      </trkpt>
      <trkpt lat="45.116" lon="5.40358">
        <ele>1002.7</ele>
        <time>2015-09-05T12:15:52Z</time>
      </trkpt>
      <trkpt lat="45.11589" lon="5.40357">
        <ele>1002.6</ele>
        <time>2015-09-05T12:15:56Z</time>
      </trkpt>
      <trkpt lat="45.1158" lon="5.40359">
        <ele>1002.5</ele>
        <time>2015-09-05T12:15:59Z</time>
      </trkpt>
      <trkpt lat="45.11569" lon="5.40361">
        <ele>1002.4</ele>
        <time>2015-09-05T12:16:02Z</time>
      </trkpt>
      <trkpt lat="45.11555" lon="5.40364">
        <ele>1002.3</ele>
        <time>2015-09-05T12:16:05Z</time>
      </trkpt>
      <trkpt lat="45.11546" lon="5.40369">
        <ele>1002</ele>
        <time>2015-09-05T12:16:08Z</time>
      </trkpt>
      <trkpt lat="45.11537" lon="5.40376">
        <ele>1001.3</ele>
        <time>2015-09-05T12:16:12Z</time>
      </trkpt>
      <trkpt lat="45.11533" lon="5.40387">
        <ele>1000.6</ele>
        <time>2015-09-05T12:16:16Z</time>
      </trkpt>
      <trkpt lat="45.11534" lon="5.404">
        <ele>1000.1</ele>
        <time>2015-09-05T12:16:19Z</time>
      </trkpt>
      <trkpt lat="45.1154" lon="5.40418">
        <ele>999</ele>
        <time>2015-09-05T12:16:22Z</time>
      </trkpt>
      <trkpt lat="45.11545" lon="5.40433">
        <ele>998.2</ele>
        <time>2015-09-05T12:16:25Z</time>
      </trkpt>
      <trkpt lat="45.11549" lon="5.40449">
        <ele>997.2</ele>
        <time>2015-09-05T12:16:28Z</time>
      </trkpt>
      <trkpt lat="45.11548" lon="5.40463">
        <ele>995.5</ele>
        <time>2015-09-05T12:16:32Z</time>
      </trkpt>
      <trkpt lat="45.11542" lon="5.40473">
        <ele>994.1</ele>
        <time>2015-09-05T12:16:35Z</time>
      </trkpt>
      <trkpt lat="45.11532" lon="5.4048">
        <ele>992.8</ele>
        <time>2015-09-05T12:16:38Z</time>
      </trkpt>
      <trkpt lat="45.11523" lon="5.40486">
        <ele>991.9</ele>
        <time>2015-09-05T12:16:40Z</time>
      </trkpt>
      <trkpt lat="45.11513" lon="5.40494">
        <ele>990.6</ele>
        <time>2015-09-05T12:16:43Z</time>
      </trkpt>
      <trkpt lat="45.11505" lon="5.40502">
        <ele>989.5</ele>
        <time>2015-09-05T12:16:46Z</time>
      </trkpt>
      <trkpt lat="45.11497" lon="5.40507">
        <ele>987.2</ele>
        <time>2015-09-05T12:16:52Z</time>
      </trkpt>
      <trkpt lat="45.11492" lon="5.40519">
        <ele>983.8</ele>
        <time>2015-09-05T12:17:07Z</time>
      </trkpt>
      <trkpt lat="45.1149" lon="5.40533">
        <ele>983.3</ele>
        <time>2015-09-05T12:17:10Z</time>
      </trkpt>
      <trkpt lat="45.11487" lon="5.40547">
        <ele>983</ele>
        <time>2015-09-05T12:17:13Z</time>
      </trkpt>
      <trkpt lat="45.11485" lon="5.40561">
        <ele>982.7</ele>
        <time>2015-09-05T12:17:17Z</time>
      </trkpt>
      <trkpt lat="45.11484" lon="5.40575">
        <ele>982.8</ele>
        <time>2015-09-05T12:17:21Z</time>
      </trkpt>
      <trkpt lat="45.11486" lon="5.40588">
        <ele>983</ele>
        <time>2015-09-05T12:17:25Z</time>
      </trkpt>
      <trkpt lat="45.11487" lon="5.40602">
        <ele>983.4</ele>
        <time>2015-09-05T12:17:31Z</time>
      </trkpt>
      <trkpt lat="45.11481" lon="5.40613">
        <ele>984.6</ele>
        <time>2015-09-05T12:17:49Z</time>
      </trkpt>
      <trkpt lat="45.11473" lon="5.40618">
        <ele>985.1</ele>
        <time>2015-09-05T12:17:58Z</time>
      </trkpt>
      <trkpt lat="45.11463" lon="5.4062">
        <ele>985.3</ele>
        <time>2015-09-05T12:18:02Z</time>
      </trkpt>
      <trkpt lat="45.11454" lon="5.40621">
        <ele>985.4</ele>
        <time>2015-09-05T12:18:05Z</time>
      </trkpt>
      <trkpt lat="45.11442" lon="5.40621">
        <ele>985.6</ele>
        <time>2015-09-05T12:18:08Z</time>
      </trkpt>
      <trkpt lat="45.11431" lon="5.40621">
        <ele>985.7</ele>
        <time>2015-09-05T12:18:12Z</time>
      </trkpt>
      <trkpt lat="45.1142" lon="5.40623">
        <ele>985.8</ele>
        <time>2015-09-05T12:18:16Z</time>
      </trkpt>
      <trkpt lat="45.1141" lon="5.40623">
        <ele>986</ele>
        <time>2015-09-05T12:18:20Z</time>
      </trkpt>
      <trkpt lat="45.11399" lon="5.40624">
        <ele>986.2</ele>
        <time>2015-09-05T12:18:24Z</time>
      </trkpt>
      <trkpt lat="45.11387" lon="5.40624">
        <ele>986.4</ele>
        <time>2015-09-05T12:18:28Z</time>
      </trkpt>
      <trkpt lat="45.11377" lon="5.40628">
        <ele>986.5</ele>
        <time>2015-09-05T12:18:31Z</time>
      </trkpt>
      <trkpt lat="45.11367" lon="5.40634">
        <ele>986.6</ele>
        <time>2015-09-05T12:18:34Z</time>
      </trkpt>
      <trkpt lat="45.11357" lon="5.40641">
        <ele>986.6</ele>
        <time>2015-09-05T12:18:38Z</time>
      </trkpt>
      <trkpt lat="45.11346" lon="5.40642">
        <ele>987</ele>
        <time>2015-09-05T12:18:43Z</time>
      </trkpt>
      <trkpt lat="45.11337" lon="5.40649">
        <ele>987.5</ele>
        <time>2015-09-05T12:18:47Z</time>
      </trkpt>
      <trkpt lat="45.11328" lon="5.40649">
        <ele>988.6</ele>
        <time>2015-09-05T12:18:53Z</time>
      </trkpt>
      <trkpt lat="45.11319" lon="5.40654">
        <ele>990.5</ele>
        <time>2015-09-05T12:19:02Z</time>
      </trkpt>
      <trkpt lat="45.1131" lon="5.40661">
        <ele>992.6</ele>
        <time>2015-09-05T12:19:10Z</time>
      </trkpt>
      <trkpt lat="45.11303" lon="5.4067">
        <ele>994</ele>
        <time>2015-09-05T12:19:16Z</time>
      </trkpt>
      <trkpt lat="45.11294" lon="5.40675">
        <ele>995.3</ele>
        <time>2015-09-05T12:19:23Z</time>
      </trkpt>
      <trkpt lat="45.11287" lon="5.40686">
        <ele>996.2</ele>
        <time>2015-09-05T12:19:29Z</time>
      </trkpt>
      <trkpt lat="45.11281" lon="5.40696">
        <ele>996.6</ele>
        <time>2015-09-05T12:19:33Z</time>
      </trkpt>
      <trkpt lat="45.11273" lon="5.40702">
        <ele>997.2</ele>
        <time>2015-09-05T12:19:38Z</time>
      </trkpt>
      <trkpt lat="45.11265" lon="5.40712">
        <ele>997.8</ele>
        <time>2015-09-05T12:19:43Z</time>
      </trkpt>
      <trkpt lat="45.11256" lon="5.40719">
        <ele>998.6</ele>
        <time>2015-09-05T12:19:48Z</time>
      </trkpt>
      <trkpt lat="45.11247" lon="5.4072">
        <ele>999.4</ele>
        <time>2015-09-05T12:19:53Z</time>
      </trkpt>
      <trkpt lat="45.11235" lon="5.4072">
        <ele>1000.1</ele>
        <time>2015-09-05T12:19:57Z</time>
      </trkpt>
      <trkpt lat="45.11226" lon="5.40717">
        <ele>1000.6</ele>
        <time>2015-09-05T12:20:01Z</time>
      </trkpt>
      <trkpt lat="45.11217" lon="5.40714">
        <ele>1000.9</ele>
        <time>2015-09-05T12:20:04Z</time>
      </trkpt>
      <trkpt lat="45.11205" lon="5.40711">
        <ele>1001.4</ele>
        <time>2015-09-05T12:20:08Z</time>
      </trkpt>
      <trkpt lat="45.11196" lon="5.4071">
        <ele>1001.9</ele>
        <time>2015-09-05T12:20:11Z</time>
      </trkpt>
      <trkpt lat="45.11185" lon="5.40711">
        <ele>1002.7</ele>
        <time>2015-09-05T12:20:16Z</time>
      </trkpt>
      <trkpt lat="45.11174" lon="5.40711">
        <ele>1003.7</ele>
        <time>2015-09-05T12:20:21Z</time>
      </trkpt>
      <trkpt lat="45.11165" lon="5.40711">
        <ele>1004.9</ele>
        <time>2015-09-05T12:20:27Z</time>
      </trkpt>
      <trkpt lat="45.11155" lon="5.40711">
        <ele>1005.9</ele>
        <time>2015-09-05T12:20:33Z</time>
      </trkpt>
      <trkpt lat="45.11143" lon="5.40713">
        <ele>1006.5</ele>
        <time>2015-09-05T12:20:38Z</time>
      </trkpt>
      <trkpt lat="45.11134" lon="5.40715">
        <ele>1007.1</ele>
        <time>2015-09-05T12:20:42Z</time>
      </trkpt>
      <trkpt lat="45.11124" lon="5.40715">
        <ele>1007.6</ele>
        <time>2015-09-05T12:20:46Z</time>
      </trkpt>
      <trkpt lat="45.11114" lon="5.40715">
        <ele>1007.9</ele>
        <time>2015-09-05T12:20:49Z</time>
      </trkpt>
      <trkpt lat="45.11102" lon="5.40714">
        <ele>1008.3</ele>
        <time>2015-09-05T12:20:53Z</time>
      </trkpt>
      <trkpt lat="45.11091" lon="5.40716">
        <ele>1008.5</ele>
        <time>2015-09-05T12:20:57Z</time>
      </trkpt>
      <trkpt lat="45.1108" lon="5.40717">
        <ele>1008.6</ele>
        <time>2015-09-05T12:21:01Z</time>
      </trkpt>
      <trkpt lat="45.1107" lon="5.40718">
        <ele>1008.8</ele>
        <time>2015-09-05T12:21:05Z</time>
      </trkpt>
      <trkpt lat="45.11059" lon="5.40719">
        <ele>1009.2</ele>
        <time>2015-09-05T12:21:09Z</time>
      </trkpt>
      <trkpt lat="45.11049" lon="5.40719">
        <ele>1010</ele>
        <time>2015-09-05T12:21:13Z</time>
      </trkpt>
      <trkpt lat="45.11038" lon="5.40719">
        <ele>1010.8</ele>
        <time>2015-09-05T12:21:17Z</time>
      </trkpt>
      <trkpt lat="45.11027" lon="5.40723">
        <ele>1011.4</ele>
        <time>2015-09-05T12:21:21Z</time>
      </trkpt>
      <trkpt lat="45.11018" lon="5.40725">
        <ele>1012.1</ele>
        <time>2015-09-05T12:21:25Z</time>
      </trkpt>
      <trkpt lat="45.11007" lon="5.40728">
        <ele>1012.7</ele>
        <time>2015-09-05T12:21:29Z</time>
      </trkpt>
      <trkpt lat="45.10997" lon="5.40727">
        <ele>1013.1</ele>
        <time>2015-09-05T12:21:33Z</time>
      </trkpt>
      <trkpt lat="45.10987" lon="5.40726">
        <ele>1013.7</ele>
        <time>2015-09-05T12:21:38Z</time>
      </trkpt>
      <trkpt lat="45.10978" lon="5.40723">
        <ele>1014.6</ele>
        <time>2015-09-05T12:21:43Z</time>
      </trkpt>
      <trkpt lat="45.10968" lon="5.40721">
        <ele>1015.5</ele>
        <time>2015-09-05T12:21:49Z</time>
      </trkpt>
      <trkpt lat="45.10959" lon="5.4072">
        <ele>1016.1</ele>
        <time>2015-09-05T12:21:54Z</time>
      </trkpt>
      <trkpt lat="45.10949" lon="5.4072">
        <ele>1017</ele>
        <time>2015-09-05T12:22:00Z</time>
      </trkpt>
      <trkpt lat="45.10939" lon="5.40722">
        <ele>1017.8</ele>
        <time>2015-09-05T12:22:07Z</time>
      </trkpt>
      <trkpt lat="45.10929" lon="5.40722">
        <ele>1018.4</ele>
        <time>2015-09-05T12:22:13Z</time>
      </trkpt>
      <trkpt lat="45.1092" lon="5.4072">
        <ele>1019.3</ele>
        <time>2015-09-05T12:22:19Z</time>
      </trkpt>
      <trkpt lat="45.1091" lon="5.40721">
        <ele>1019.9</ele>
        <time>2015-09-05T12:22:24Z</time>
      </trkpt>
      <trkpt lat="45.109" lon="5.40723">
        <ele>1021.2</ele>
        <time>2015-09-05T12:22:31Z</time>
      </trkpt>
      <trkpt lat="45.1089" lon="5.40722">
        <ele>1022.3</ele>
        <time>2015-09-05T12:22:36Z</time>
      </trkpt>
      <trkpt lat="45.10879" lon="5.4072">
        <ele>1023.4</ele>
        <time>2015-09-05T12:22:42Z</time>
      </trkpt>
      <trkpt lat="45.1087" lon="5.40719">
        <ele>1024</ele>
        <time>2015-09-05T12:22:47Z</time>
      </trkpt>
      <trkpt lat="45.1086" lon="5.40716">
        <ele>1024.5</ele>
        <time>2015-09-05T12:22:51Z</time>
      </trkpt>
      <trkpt lat="45.10848" lon="5.40714">
        <ele>1025</ele>
        <time>2015-09-05T12:22:55Z</time>
      </trkpt>
      <trkpt lat="45.10837" lon="5.40712">
        <ele>1025.3</ele>
        <time>2015-09-05T12:22:59Z</time>
      </trkpt>
      <trkpt lat="45.10829" lon="5.40707">
        <ele>1025.5</ele>
        <time>2015-09-05T12:23:02Z</time>
      </trkpt>
      <trkpt lat="45.10818" lon="5.40703">
        <ele>1025.7</ele>
        <time>2015-09-05T12:23:06Z</time>
      </trkpt>
      <trkpt lat="45.10808" lon="5.40704">
        <ele>1026.1</ele>
        <time>2015-09-05T12:23:12Z</time>
      </trkpt>
      <trkpt lat="45.108" lon="5.40711">
        <ele>1026.8</ele>
        <time>2015-09-05T12:23:19Z</time>
      </trkpt>
      <trkpt lat="45.10792" lon="5.40718">
        <ele>1028.6</ele>
        <time>2015-09-05T12:23:31Z</time>
      </trkpt>
      <trkpt lat="45.10786" lon="5.40728">
        <ele>1030</ele>
        <time>2015-09-05T12:23:40Z</time>
      </trkpt>
      <trkpt lat="45.1078" lon="5.4074">
        <ele>1032.4</ele>
        <time>2015-09-05T12:23:57Z</time>
      </trkpt>
      <trkpt lat="45.10773" lon="5.40748">
        <ele>1033.6</ele>
        <time>2015-09-05T12:24:05Z</time>
      </trkpt>
      <trkpt lat="45.10765" lon="5.40755">
        <ele>1034.5</ele>
        <time>2015-09-05T12:24:12Z</time>
      </trkpt>
      <trkpt lat="45.10756" lon="5.4076">
        <ele>1036.1</ele>
        <time>2015-09-05T12:24:21Z</time>
      </trkpt>
      <trkpt lat="45.10746" lon="5.40763">
        <ele>1037.5</ele>
        <time>2015-09-05T12:24:30Z</time>
      </trkpt>
      <trkpt lat="45.10737" lon="5.40765">
        <ele>1038.1</ele>
        <time>2015-09-05T12:24:34Z</time>
      </trkpt>
      <trkpt lat="45.10728" lon="5.40764">
        <ele>1038.6</ele>
        <time>2015-09-05T12:24:39Z</time>
      </trkpt>
      <trkpt lat="45.10718" lon="5.40764">
        <ele>1039.1</ele>
        <time>2015-09-05T12:24:44Z</time>
      </trkpt>
      <trkpt lat="45.10708" lon="5.40762">
        <ele>1039.6</ele>
        <time>2015-09-05T12:24:49Z</time>
      </trkpt>
      <trkpt lat="45.10698" lon="5.40756">
        <ele>1040</ele>
        <time>2015-09-05T12:24:54Z</time>
      </trkpt>
      <trkpt lat="45.1069" lon="5.4075">
        <ele>1040.5</ele>
        <time>2015-09-05T12:24:59Z</time>
      </trkpt>
      <trkpt lat="45.10681" lon="5.40745">
        <ele>1040.9</ele>
        <time>2015-09-05T12:25:03Z</time>
      </trkpt>
      <trkpt lat="45.10673" lon="5.40738">
        <ele>1041.3</ele>
        <time>2015-09-05T12:25:08Z</time>
      </trkpt>
      <trkpt lat="45.10663" lon="5.40732">
        <ele>1041.9</ele>
        <time>2015-09-05T12:25:15Z</time>
      </trkpt>
      <trkpt lat="45.10655" lon="5.40725">
        <ele>1042.8</ele>
        <time>2015-09-05T12:25:21Z</time>
      </trkpt>
      <trkpt lat="45.10646" lon="5.40719">
        <ele>1044.2</ele>
        <time>2015-09-05T12:25:28Z</time>
      </trkpt>
      <trkpt lat="45.10637" lon="5.40717">
        <ele>1046.5</ele>
        <time>2015-09-05T12:25:39Z</time>
      </trkpt>
      <trkpt lat="45.10628" lon="5.40721">
        <ele>1048.9</ele>
        <time>2015-09-05T12:25:56Z</time>
      </trkpt>
      <trkpt lat="45.10619" lon="5.40718">
        <ele>1050.6</ele>
        <time>2015-09-05T12:26:05Z</time>
      </trkpt>
      <trkpt lat="45.10609" lon="5.40714">
        <ele>1051.8</ele>
        <time>2015-09-05T12:26:12Z</time>
      </trkpt>
      <trkpt lat="45.106" lon="5.40708">
        <ele>1053.2</ele>
        <time>2015-09-05T12:26:19Z</time>
      </trkpt>
      <trkpt lat="45.1059" lon="5.40703">
        <ele>1054.5</ele>
        <time>2015-09-05T12:26:26Z</time>
      </trkpt>
      <trkpt lat="45.10582" lon="5.40697">
        <ele>1055.5</ele>
        <time>2015-09-05T12:26:32Z</time>
      </trkpt>
      <trkpt lat="45.10573" lon="5.40694">
        <ele>1056.9</ele>
        <time>2015-09-05T12:26:39Z</time>
      </trkpt>
      <trkpt lat="45.10563" lon="5.40693">
        <ele>1058.5</ele>
        <time>2015-09-05T12:26:46Z</time>
      </trkpt>
      <trkpt lat="45.10554" lon="5.40695">
        <ele>1060.1</ele>
        <time>2015-09-05T12:26:52Z</time>
      </trkpt>
      <trkpt lat="45.10546" lon="5.40702">
        <ele>1061.7</ele>
        <time>2015-09-05T12:26:58Z</time>
      </trkpt>
      <trkpt lat="45.10539" lon="5.40711">
        <ele>1063.4</ele>
        <time>2015-09-05T12:27:05Z</time>
      </trkpt>
      <trkpt lat="45.10544" lon="5.40722">
        <ele>1065.7</ele>
        <time>2015-09-05T12:27:14Z</time>
      </trkpt>
      <trkpt lat="45.1055" lon="5.40733">
        <ele>1066.6</ele>
        <time>2015-09-05T12:27:24Z</time>
      </trkpt>
      <trkpt lat="45.10554" lon="5.40746">
        <ele>1068.6</ele>
        <time>2015-09-05T12:27:31Z</time>
      </trkpt>
      <trkpt lat="45.10549" lon="5.40757">
        <ele>1073.3</ele>
        <time>2015-09-05T12:27:52Z</time>
      </trkpt>
      <trkpt lat="45.10545" lon="5.40769">
        <ele>1076.2</ele>
        <time>2015-09-05T12:28:06Z</time>
      </trkpt>
      <trkpt lat="45.1054" lon="5.4078">
        <ele>1079.2</ele>
        <time>2015-09-05T12:28:27Z</time>
      </trkpt>
      <trkpt lat="45.10533" lon="5.40791">
        <ele>1080.3</ele>
        <time>2015-09-05T12:28:35Z</time>
      </trkpt>
      <trkpt lat="45.1053" lon="5.40803">
        <ele>1081.7</ele>
        <time>2015-09-05T12:28:43Z</time>
      </trkpt>
      <trkpt lat="45.10529" lon="5.40816">
        <ele>1084.2</ele>
        <time>2015-09-05T12:29:01Z</time>
      </trkpt>
      <trkpt lat="45.10524" lon="5.40827">
        <ele>1085.7</ele>
        <time>2015-09-05T12:29:11Z</time>
      </trkpt>
      <trkpt lat="45.10519" lon="5.40839">
        <ele>1087.1</ele>
        <time>2015-09-05T12:29:20Z</time>
      </trkpt>
      <trkpt lat="45.10519" lon="5.40852">
        <ele>1088.7</ele>
        <time>2015-09-05T12:29:30Z</time>
      </trkpt>
      <trkpt lat="45.10518" lon="5.40866">
        <ele>1090.9</ele>
        <time>2015-09-05T12:29:42Z</time>
      </trkpt>
      <trkpt lat="45.10518" lon="5.40879">
        <ele>1092.9</ele>
        <time>2015-09-05T12:29:52Z</time>
      </trkpt>
      <trkpt lat="45.10519" lon="5.40891">
        <ele>1094.9</ele>
        <time>2015-09-05T12:30:02Z</time>
      </trkpt>
      <trkpt lat="45.10523" lon="5.40904">
        <ele>1096.7</ele>
        <time>2015-09-05T12:30:11Z</time>
      </trkpt>
      <trkpt lat="45.10521" lon="5.40917">
        <ele>1098.8</ele>
        <time>2015-09-05T12:30:24Z</time>
      </trkpt>
      <trkpt lat="45.10519" lon="5.4093">
        <ele>1099.8</ele>
        <time>2015-09-05T12:30:31Z</time>
      </trkpt>
      <trkpt lat="45.1052" lon="5.40944">
        <ele>1101.3</ele>
        <time>2015-09-05T12:30:39Z</time>
      </trkpt>
      <trkpt lat="45.10523" lon="5.40956">
        <ele>1103.1</ele>
        <time>2015-09-05T12:30:48Z</time>
      </trkpt>
      <trkpt lat="45.10524" lon="5.4097">
        <ele>1105</ele>
        <time>2015-09-05T12:30:59Z</time>
      </trkpt>
      <trkpt lat="45.10521" lon="5.40982">
        <ele>1106.3</ele>
        <time>2015-09-05T12:31:09Z</time>
      </trkpt>
      <trkpt lat="45.1052" lon="5.40996">
        <ele>1107.3</ele>
        <time>2015-09-05T12:31:18Z</time>
      </trkpt>
      <trkpt lat="45.10518" lon="5.4101">
        <ele>1108.3</ele>
        <time>2015-09-05T12:31:27Z</time>
      </trkpt>
      <trkpt lat="45.10518" lon="5.41024">
        <ele>1109.2</ele>
        <time>2015-09-05T12:31:35Z</time>
      </trkpt>
      <trkpt lat="45.10516" lon="5.41037">
        <ele>1109.9</ele>
        <time>2015-09-05T12:31:42Z</time>
      </trkpt>
      <trkpt lat="45.10513" lon="5.4105">
        <ele>1110.8</ele>
        <time>2015-09-05T12:31:50Z</time>
      </trkpt>
      <trkpt lat="45.10509" lon="5.41063">
        <ele>1111.4</ele>
        <time>2015-09-05T12:31:57Z</time>
      </trkpt>
      <trkpt lat="45.10506" lon="5.41077">
        <ele>1111.8</ele>
        <time>2015-09-05T12:32:04Z</time>
      </trkpt>
      <trkpt lat="45.10506" lon="5.41091">
        <ele>1112.1</ele>
        <time>2015-09-05T12:32:09Z</time>
      </trkpt>
      <trkpt lat="45.10505" lon="5.41104">
        <ele>1112.4</ele>
        <time>2015-09-05T12:32:14Z</time>
      </trkpt>
      <trkpt lat="45.10505" lon="5.41117">
        <ele>1112.6</ele>
        <time>2015-09-05T12:32:18Z</time>
      </trkpt>
      <trkpt lat="45.10504" lon="5.4113">
        <ele>1112.8</ele>
        <time>2015-09-05T12:32:22Z</time>
      </trkpt>
      <trkpt lat="45.10509" lon="5.41144">
        <ele>1113</ele>
        <time>2015-09-05T12:32:27Z</time>
      </trkpt>
      <trkpt lat="45.10514" lon="5.41157">
        <ele>1113.2</ele>
        <time>2015-09-05T12:32:31Z</time>
      </trkpt>
      <trkpt lat="45.10518" lon="5.41169">
        <ele>1113.3</ele>
        <time>2015-09-05T12:32:35Z</time>
      </trkpt>
      <trkpt lat="45.10523" lon="5.41181">
        <ele>1113.5</ele>
        <time>2015-09-05T12:32:40Z</time>
      </trkpt>
      <trkpt lat="45.10528" lon="5.41192">
        <ele>1113.9</ele>
        <time>2015-09-05T12:32:46Z</time>
      </trkpt>
      <trkpt lat="45.10532" lon="5.41206">
        <ele>1114.2</ele>
        <time>2015-09-05T12:32:52Z</time>
      </trkpt>
      <trkpt lat="45.1053" lon="5.4122">
        <ele>1114.5</ele>
        <time>2015-09-05T12:32:57Z</time>
      </trkpt>
      <trkpt lat="45.10529" lon="5.41233">
        <ele>1114.7</ele>
        <time>2015-09-05T12:33:00Z</time>
      </trkpt>
      <trkpt lat="45.10528" lon="5.41247">
        <ele>1114.9</ele>
        <time>2015-09-05T12:33:03Z</time>
      </trkpt>
      <trkpt lat="45.10527" lon="5.41261">
        <ele>1115</ele>
        <time>2015-09-05T12:33:06Z</time>
      </trkpt>
      <trkpt lat="45.10524" lon="5.41277">
        <ele>1114.9</ele>
        <time>2015-09-05T12:33:09Z</time>
      </trkpt>
      <trkpt lat="45.10522" lon="5.41294">
        <ele>1114.3</ele>
        <time>2015-09-05T12:33:12Z</time>
      </trkpt>
      <trkpt lat="45.10522" lon="5.41312">
        <ele>1114.2</ele>
        <time>2015-09-05T12:33:15Z</time>
      </trkpt>
      <trkpt lat="45.10522" lon="5.41329">
        <ele>1113.7</ele>
        <time>2015-09-05T12:33:18Z</time>
      </trkpt>
      <trkpt lat="45.10519" lon="5.41342">
        <ele>1113.1</ele>
        <time>2015-09-05T12:33:20Z</time>
      </trkpt>
      <trkpt lat="45.10518" lon="5.41357">
        <ele>1112.7</ele>
        <time>2015-09-05T12:33:22Z</time>
      </trkpt>
      <trkpt lat="45.10517" lon="5.41373">
        <ele>1112.3</ele>
        <time>2015-09-05T12:33:25Z</time>
      </trkpt>
      <trkpt lat="45.10517" lon="5.41386">
        <ele>1112</ele>
        <time>2015-09-05T12:33:28Z</time>
      </trkpt>
      <trkpt lat="45.10516" lon="5.414">
        <ele>1111.9</ele>
        <time>2015-09-05T12:33:33Z</time>
      </trkpt>
      <trkpt lat="45.10512" lon="5.41415">
        <ele>1111.8</ele>
        <time>2015-09-05T12:33:38Z</time>
      </trkpt>
      <trkpt lat="45.10508" lon="5.41428">
        <ele>1111.6</ele>
        <time>2015-09-05T12:33:41Z</time>
      </trkpt>
      <trkpt lat="45.10503" lon="5.41445">
        <ele>1110.9</ele>
        <time>2015-09-05T12:33:44Z</time>
      </trkpt>
      <trkpt lat="45.10497" lon="5.41461">
        <ele>1110.1</ele>
        <time>2015-09-05T12:33:47Z</time>
      </trkpt>
      <trkpt lat="45.10491" lon="5.41474">
        <ele>1109.2</ele>
        <time>2015-09-05T12:33:50Z</time>
      </trkpt>
      <trkpt lat="45.10487" lon="5.41487">
        <ele>1107.9</ele>
        <time>2015-09-05T12:33:54Z</time>
      </trkpt>
      <trkpt lat="45.10482" lon="5.41501">
        <ele>1105.8</ele>
        <time>2015-09-05T12:34:01Z</time>
      </trkpt>
      <trkpt lat="45.10475" lon="5.41513">
        <ele>1104.9</ele>
        <time>2015-09-05T12:34:04Z</time>
      </trkpt>
      <trkpt lat="45.10469" lon="5.41527">
        <ele>1104</ele>
        <time>2015-09-05T12:34:07Z</time>
      </trkpt>
      <trkpt lat="45.10461" lon="5.41535">
        <ele>1103</ele>
        <time>2015-09-05T12:34:11Z</time>
      </trkpt>
      <trkpt lat="45.10455" lon="5.41546">
        <ele>1102.1</ele>
        <time>2015-09-05T12:34:19Z</time>
      </trkpt>
      <trkpt lat="45.10455" lon="5.4156">
        <ele>1102.5</ele>
        <time>2015-09-05T12:34:29Z</time>
      </trkpt>
      <trkpt lat="45.10455" lon="5.41573">
        <ele>1104.3</ele>
        <time>2015-09-05T12:34:42Z</time>
      </trkpt>
      <trkpt lat="45.10451" lon="5.41585">
        <ele>1106.8</ele>
        <time>2015-09-05T12:34:57Z</time>
      </trkpt>
      <trkpt lat="45.1045" lon="5.41598">
        <ele>1109</ele>
        <time>2015-09-05T12:35:09Z</time>
      </trkpt>
      <trkpt lat="45.1045" lon="5.41612">
        <ele>1110.7</ele>
        <time>2015-09-05T12:35:19Z</time>
      </trkpt>
      <trkpt lat="45.10446" lon="5.41624">
        <ele>1113.5</ele>
        <time>2015-09-05T12:35:35Z</time>
      </trkpt>
      <trkpt lat="45.10437" lon="5.41629">
        <ele>1115.9</ele>
        <time>2015-09-05T12:35:53Z</time>
      </trkpt>
      <trkpt lat="45.10427" lon="5.41631">
        <ele>1117</ele>
        <time>2015-09-05T12:36:02Z</time>
      </trkpt>
      <trkpt lat="45.10418" lon="5.4163">
        <ele>1118.9</ele>
        <time>2015-09-05T12:36:13Z</time>
      </trkpt>
      <trkpt lat="45.10409" lon="5.41628">
        <ele>1120.5</ele>
        <time>2015-09-05T12:36:20Z</time>
      </trkpt>
      <trkpt lat="45.10399" lon="5.41625">
        <ele>1123</ele>
        <time>2015-09-05T12:36:32Z</time>
      </trkpt>
      <trkpt lat="45.1039" lon="5.41624">
        <ele>1125.9</ele>
        <time>2015-09-05T12:36:47Z</time>
      </trkpt>
      <trkpt lat="45.10381" lon="5.41623">
        <ele>1129.9</ele>
        <time>2015-09-05T12:37:12Z</time>
      </trkpt>
      <trkpt lat="45.10371" lon="5.41622">
        <ele>1131</ele>
        <time>2015-09-05T12:37:20Z</time>
      </trkpt>
      <trkpt lat="45.10362" lon="5.41618">
        <ele>1132.6</ele>
        <time>2015-09-05T12:37:28Z</time>
      </trkpt>
      <trkpt lat="45.10354" lon="5.41612">
        <ele>1134.5</ele>
        <time>2015-09-05T12:37:38Z</time>
      </trkpt>
      <trkpt lat="45.10344" lon="5.41609">
        <ele>1136.6</ele>
        <time>2015-09-05T12:37:46Z</time>
      </trkpt>
      <trkpt lat="45.10336" lon="5.41602">
        <ele>1138.2</ele>
        <time>2015-09-05T12:37:53Z</time>
      </trkpt>
      <trkpt lat="45.10328" lon="5.41595">
        <ele>1140.3</ele>
        <time>2015-09-05T12:38:01Z</time>
      </trkpt>
      <trkpt lat="45.10318" lon="5.41589">
        <ele>1142.8</ele>
        <time>2015-09-05T12:38:10Z</time>
      </trkpt>
      <trkpt lat="45.1031" lon="5.41584">
        <ele>1145.1</ele>
        <time>2015-09-05T12:38:19Z</time>
      </trkpt>
      <trkpt lat="45.10302" lon="5.41578">
        <ele>1146.2</ele>
        <time>2015-09-05T12:38:25Z</time>
      </trkpt>
      <trkpt lat="45.10293" lon="5.4157">
        <ele>1146.9</ele>
        <time>2015-09-05T12:38:31Z</time>
      </trkpt>
      <trkpt lat="45.10285" lon="5.41563">
        <ele>1147.5</ele>
        <time>2015-09-05T12:38:37Z</time>
      </trkpt>
      <trkpt lat="45.10276" lon="5.41559">
        <ele>1148.6</ele>
        <time>2015-09-05T12:38:45Z</time>
      </trkpt>
      <trkpt lat="45.10266" lon="5.41558">
        <ele>1149.7</ele>
        <time>2015-09-05T12:38:52Z</time>
      </trkpt>
      <trkpt lat="45.10256" lon="5.41558">
        <ele>1151</ele>
        <time>2015-09-05T12:38:59Z</time>
      </trkpt>
      <trkpt lat="45.10247" lon="5.41555">
        <ele>1152.7</ele>
        <time>2015-09-05T12:39:07Z</time>
      </trkpt>
      <trkpt lat="45.10238" lon="5.41558">
        <ele>1155.6</ele>
        <time>2015-09-05T12:39:21Z</time>
      </trkpt>
      <trkpt lat="45.10229" lon="5.41563">
        <ele>1158.7</ele>
        <time>2015-09-05T12:39:38Z</time>
      </trkpt>
      <trkpt lat="45.10221" lon="5.41569">
        <ele>1159.4</ele>
        <time>2015-09-05T12:39:45Z</time>
      </trkpt>
      <trkpt lat="45.10211" lon="5.41574">
        <ele>1160.9</ele>
        <time>2015-09-05T12:39:56Z</time>
      </trkpt>
      <trkpt lat="45.10202" lon="5.41573">
        <ele>1162.2</ele>
        <time>2015-09-05T12:40:03Z</time>
      </trkpt>
      <trkpt lat="45.10193" lon="5.4157">
        <ele>1163.9</ele>
        <time>2015-09-05T12:40:10Z</time>
      </trkpt>
      <trkpt lat="45.10183" lon="5.4157">
        <ele>1165.3</ele>
        <time>2015-09-05T12:40:17Z</time>
      </trkpt>
      <trkpt lat="45.10173" lon="5.41573">
        <ele>1167.2</ele>
        <time>2015-09-05T12:40:26Z</time>
      </trkpt>
      <trkpt lat="45.10164" lon="5.41577">
        <ele>1168.3</ele>
        <time>2015-09-05T12:40:33Z</time>
      </trkpt>
      <trkpt lat="45.10155" lon="5.41585">
        <ele>1169.1</ele>
        <time>2015-09-05T12:40:39Z</time>
      </trkpt>
      <trkpt lat="45.10148" lon="5.41594">
        <ele>1169.4</ele>
        <time>2015-09-05T12:40:43Z</time>
      </trkpt>
      <trkpt lat="45.10139" lon="5.416">
        <ele>1169.5</ele>
        <time>2015-09-05T12:40:46Z</time>
      </trkpt>
      <trkpt lat="45.10129" lon="5.41604">
        <ele>1169.5</ele>
        <time>2015-09-05T12:40:49Z</time>
      </trkpt>
      <trkpt lat="45.10116" lon="5.41607">
        <ele>1169.3</ele>
        <time>2015-09-05T12:40:52Z</time>
      </trkpt>
      <trkpt lat="45.10106" lon="5.41609">
        <ele>1169</ele>
        <time>2015-09-05T12:40:54Z</time>
      </trkpt>
      <trkpt lat="45.10095" lon="5.41606">
        <ele>1168.5</ele>
        <time>2015-09-05T12:40:56Z</time>
      </trkpt>
      <trkpt lat="45.10086" lon="5.41603">
        <ele>1168.1</ele>
        <time>2015-09-05T12:40:58Z</time>
      </trkpt>
      <trkpt lat="45.10075" lon="5.41599">
        <ele>1164.5</ele>
        <time>2015-09-05T12:42:13Z</time>
      </trkpt>
      <trkpt lat="45.10066" lon="5.41596">
        <ele>1164.3</ele>
        <time>2015-09-05T12:42:15Z</time>
      </trkpt>
      <trkpt lat="45.10055" lon="5.41593">
        <ele>1164</ele>
        <time>2015-09-05T12:42:17Z</time>
      </trkpt>
      <trkpt lat="45.10043" lon="5.41593">
        <ele>1163.5</ele>
        <time>2015-09-05T12:42:19Z</time>
      </trkpt>
      <trkpt lat="45.10029" lon="5.41595">
        <ele>1162.6</ele>
        <time>2015-09-05T12:42:21Z</time>
      </trkpt>
      <trkpt lat="45.10016" lon="5.41597">
        <ele>1161.8</ele>
        <time>2015-09-05T12:42:23Z</time>
      </trkpt>
      <trkpt lat="45.10004" lon="5.41604">
        <ele>1161.1</ele>
        <time>2015-09-05T12:42:25Z</time>
      </trkpt>
      <trkpt lat="45.09989" lon="5.41609">
        <ele>1160.2</ele>
        <time>2015-09-05T12:42:27Z</time>
      </trkpt>
      <trkpt lat="45.09972" lon="5.41613">
        <ele>1159.2</ele>
        <time>2015-09-05T12:42:29Z</time>
      </trkpt>
      <trkpt lat="45.09956" lon="5.41618">
        <ele>1157.8</ele>
        <time>2015-09-05T12:42:31Z</time>
      </trkpt>
      <trkpt lat="45.09941" lon="5.4162">
        <ele>1156.7</ele>
        <time>2015-09-05T12:42:33Z</time>
      </trkpt>
      <trkpt lat="45.09927" lon="5.41622">
        <ele>1155.7</ele>
        <time>2015-09-05T12:42:35Z</time>
      </trkpt>
      <trkpt lat="45.09914" lon="5.41626">
        <ele>1154.8</ele>
        <time>2015-09-05T12:42:37Z</time>
      </trkpt>
      <trkpt lat="45.09901" lon="5.4163">
        <ele>1154.1</ele>
        <time>2015-09-05T12:42:39Z</time>
      </trkpt>
      <trkpt lat="45.09888" lon="5.41637">
        <ele>1153.2</ele>
        <time>2015-09-05T12:42:41Z</time>
      </trkpt>
      <trkpt lat="45.09874" lon="5.41648">
        <ele>1152.2</ele>
        <time>2015-09-05T12:42:43Z</time>
      </trkpt>
      <trkpt lat="45.0986" lon="5.41658">
        <ele>1151.4</ele>
        <time>2015-09-05T12:42:45Z</time>
      </trkpt>
      <trkpt lat="45.09849" lon="5.4167">
        <ele>1150.3</ele>
        <time>2015-09-05T12:42:47Z</time>
      </trkpt>
      <trkpt lat="45.09843" lon="5.4168">
        <ele>1148.2</ele>
        <time>2015-09-05T12:42:51Z</time>
      </trkpt>
      <trkpt lat="45.09835" lon="5.41692">
        <ele>1146.4</ele>
        <time>2015-09-05T12:42:55Z</time>
      </trkpt>
      <trkpt lat="45.09825" lon="5.41706">
        <ele>1144.5</ele>
        <time>2015-09-05T12:42:58Z</time>
      </trkpt>
      <trkpt lat="45.09816" lon="5.4171">
        <ele>1143.4</ele>
        <time>2015-09-05T12:43:00Z</time>
      </trkpt>
      <trkpt lat="45.09806" lon="5.41713">
        <ele>1142.3</ele>
        <time>2015-09-05T12:43:02Z</time>
      </trkpt>
      <trkpt lat="45.09796" lon="5.41718">
        <ele>1140.9</ele>
        <time>2015-09-05T12:43:04Z</time>
      </trkpt>
      <trkpt lat="45.09786" lon="5.41723">
        <ele>1139.6</ele>
        <time>2015-09-05T12:43:06Z</time>
      </trkpt>
      <trkpt lat="45.09777" lon="5.41739">
        <ele>1138.1</ele>
        <time>2015-09-05T12:43:08Z</time>
      </trkpt>
      <trkpt lat="45.09764" lon="5.41756">
        <ele>1136.7</ele>
        <time>2015-09-05T12:43:10Z</time>
      </trkpt>
      <trkpt lat="45.09756" lon="5.41763">
        <ele>1135.7</ele>
        <time>2015-09-05T12:43:11Z</time>
      </trkpt>
      <trkpt lat="45.09741" lon="5.41774">
        <ele>1133.9</ele>
        <time>2015-09-05T12:43:13Z</time>
      </trkpt>
      <trkpt lat="45.09727" lon="5.41783">
        <ele>1131.9</ele>
        <time>2015-09-05T12:43:15Z</time>
      </trkpt>
      <trkpt lat="45.0972" lon="5.41793">
        <ele>1130.1</ele>
        <time>2015-09-05T12:43:17Z</time>
      </trkpt>
      <trkpt lat="45.09714" lon="5.4181">
        <ele>1128.4</ele>
        <time>2015-09-05T12:43:19Z</time>
      </trkpt>
      <trkpt lat="45.09707" lon="5.4183">
        <ele>1127</ele>
        <time>2015-09-05T12:43:21Z</time>
      </trkpt>
      <trkpt lat="45.09702" lon="5.41841">
        <ele>1126</ele>
        <time>2015-09-05T12:43:22Z</time>
      </trkpt>
      <trkpt lat="45.09697" lon="5.41853">
        <ele>1125.1</ele>
        <time>2015-09-05T12:43:23Z</time>
      </trkpt>
      <trkpt lat="45.09691" lon="5.41865">
        <ele>1124.2</ele>
        <time>2015-09-05T12:43:24Z</time>
      </trkpt>
      <trkpt lat="45.09681" lon="5.41885">
        <ele>1122</ele>
        <time>2015-09-05T12:43:26Z</time>
      </trkpt>
      <trkpt lat="45.09672" lon="5.41904">
        <ele>1120.3</ele>
        <time>2015-09-05T12:43:28Z</time>
      </trkpt>
      <trkpt lat="45.09667" lon="5.41919">
        <ele>1118.8</ele>
        <time>2015-09-05T12:43:30Z</time>
      </trkpt>
      <trkpt lat="45.09662" lon="5.41933">
        <ele>1116.8</ele>
        <time>2015-09-05T12:43:33Z</time>
      </trkpt>
      <trkpt lat="45.09658" lon="5.41947">
        <ele>1113.2</ele>
        <time>2015-09-05T12:43:39Z</time>
      </trkpt>
      <trkpt lat="45.09652" lon="5.41935">
        <ele>1104.5</ele>
        <time>2015-09-05T12:44:20Z</time>
      </trkpt>
      <trkpt lat="45.09642" lon="5.41927">
        <ele>1104.3</ele>
        <time>2015-09-05T12:44:25Z</time>
      </trkpt>
      <trkpt lat="45.09635" lon="5.41916">
        <ele>1103.9</ele>
        <time>2015-09-05T12:44:29Z</time>
      </trkpt>
      <trkpt lat="45.09626" lon="5.41903">
        <ele>1103.6</ele>
        <time>2015-09-05T12:44:32Z</time>
      </trkpt>
      <trkpt lat="45.0962" lon="5.41893">
        <ele>1103.1</ele>
        <time>2015-09-05T12:44:34Z</time>
      </trkpt>
      <trkpt lat="45.09613" lon="5.41882">
        <ele>1102.6</ele>
        <time>2015-09-05T12:44:36Z</time>
      </trkpt>
      <trkpt lat="45.09606" lon="5.41873">
        <ele>1102.2</ele>
        <time>2015-09-05T12:44:38Z</time>
      </trkpt>
      <trkpt lat="45.09599" lon="5.41864">
        <ele>1101.8</ele>
        <time>2015-09-05T12:44:40Z</time>
      </trkpt>
      <trkpt lat="45.09588" lon="5.41852">
        <ele>1101.3</ele>
        <time>2015-09-05T12:44:43Z</time>
      </trkpt>
      <trkpt lat="45.09579" lon="5.41842">
        <ele>1101</ele>
        <time>2015-09-05T12:44:45Z</time>
      </trkpt>
      <trkpt lat="45.09571" lon="5.41832">
        <ele>1100.7</ele>
        <time>2015-09-05T12:44:47Z</time>
      </trkpt>
      <trkpt lat="45.09562" lon="5.41822">
        <ele>1100.4</ele>
        <time>2015-09-05T12:44:49Z</time>
      </trkpt>
      <trkpt lat="45.09554" lon="5.41816">
        <ele>1100.1</ele>
        <time>2015-09-05T12:44:51Z</time>
      </trkpt>
      <trkpt lat="45.09545" lon="5.4181">
        <ele>1099.9</ele>
        <time>2015-09-05T12:44:53Z</time>
      </trkpt>
      <trkpt lat="45.09536" lon="5.41804">
        <ele>1099.7</ele>
        <time>2015-09-05T12:44:55Z</time>
      </trkpt>
      <trkpt lat="45.09527" lon="5.41797">
        <ele>1099.5</ele>
        <time>2015-09-05T12:44:57Z</time>
      </trkpt>
      <trkpt lat="45.09519" lon="5.41789">
        <ele>1099.3</ele>
        <time>2015-09-05T12:44:59Z</time>
      </trkpt>
      <trkpt lat="45.09511" lon="5.41778">
        <ele>1099</ele>
        <time>2015-09-05T12:45:02Z</time>
      </trkpt>
      <trkpt lat="45.09505" lon="5.41769">
        <ele>1098.6</ele>
        <time>2015-09-05T12:45:06Z</time>
      </trkpt>
      <trkpt lat="45.09499" lon="5.41757">
        <ele>1098.3</ele>
        <time>2015-09-05T12:45:11Z</time>
      </trkpt>
      <trkpt lat="45.09493" lon="5.41744">
        <ele>1097.8</ele>
        <time>2015-09-05T12:45:19Z</time>
      </trkpt>
      <trkpt lat="45.09486" lon="5.41732">
        <ele>1097.6</ele>
        <time>2015-09-05T12:45:23Z</time>
      </trkpt>
      <trkpt lat="45.09478" lon="5.41725">
        <ele>1097.4</ele>
        <time>2015-09-05T12:45:27Z</time>
      </trkpt>
      <trkpt lat="45.09469" lon="5.4173">
        <ele>1097.1</ele>
        <time>2015-09-05T12:45:34Z</time>
      </trkpt>
      <trkpt lat="45.09462" lon="5.4174">
        <ele>1097.4</ele>
        <time>2015-09-05T12:45:41Z</time>
      </trkpt>
      <trkpt lat="45.09452" lon="5.41744">
        <ele>1098.1</ele>
        <time>2015-09-05T12:45:49Z</time>
      </trkpt>
      <trkpt lat="45.09442" lon="5.41743">
        <ele>1099.4</ele>
        <time>2015-09-05T12:45:57Z</time>
      </trkpt>
      <trkpt lat="45.09433" lon="5.41742">
        <ele>1101.1</ele>
        <time>2015-09-05T12:46:05Z</time>
      </trkpt>
      <trkpt lat="45.09424" lon="5.41745">
        <ele>1103.1</ele>
        <time>2015-09-05T12:46:14Z</time>
      </trkpt>
      <trkpt lat="45.09414" lon="5.41748">
        <ele>1105.3</ele>
        <time>2015-09-05T12:46:23Z</time>
      </trkpt>
      <trkpt lat="45.09405" lon="5.4175">
        <ele>1107.9</ele>
        <time>2015-09-05T12:46:33Z</time>
      </trkpt>
      <trkpt lat="45.09395" lon="5.41752">
        <ele>1110.1</ele>
        <time>2015-09-05T12:46:42Z</time>
      </trkpt>
      <trkpt lat="45.09386" lon="5.41755">
        <ele>1112.7</ele>
        <time>2015-09-05T12:46:51Z</time>
      </trkpt>
      <trkpt lat="45.09377" lon="5.41757">
        <ele>1116.5</ele>
        <time>2015-09-05T12:47:07Z</time>
      </trkpt>
      <trkpt lat="45.09368" lon="5.41757">
        <ele>1119.4</ele>
        <time>2015-09-05T12:47:21Z</time>
      </trkpt>
      <trkpt lat="45.09359" lon="5.41759">
        <ele>1121.1</ele>
        <time>2015-09-05T12:47:29Z</time>
      </trkpt>
      <trkpt lat="45.09348" lon="5.41759">
        <ele>1123.5</ele>
        <time>2015-09-05T12:47:45Z</time>
      </trkpt>
      <trkpt lat="45.09339" lon="5.41762">
        <ele>1124.6</ele>
        <time>2015-09-05T12:47:53Z</time>
      </trkpt>
      <trkpt lat="45.09329" lon="5.41766">
        <ele>1125.5</ele>
        <time>2015-09-05T12:48:00Z</time>
      </trkpt>
      <trkpt lat="45.09321" lon="5.41771">
        <ele>1126.4</ele>
        <time>2015-09-05T12:48:08Z</time>
      </trkpt>
      <trkpt lat="45.09311" lon="5.41775">
        <ele>1127.8</ele>
        <time>2015-09-05T12:48:16Z</time>
      </trkpt>
      <trkpt lat="45.09302" lon="5.41777">
        <ele>1129.1</ele>
        <time>2015-09-05T12:48:24Z</time>
      </trkpt>
      <trkpt lat="45.09292" lon="5.41777">
        <ele>1130.6</ele>
        <time>2015-09-05T12:48:33Z</time>
      </trkpt>
      <trkpt lat="45.09281" lon="5.41776">
        <ele>1132.2</ele>
        <time>2015-09-05T12:48:41Z</time>
      </trkpt>
      <trkpt lat="45.09272" lon="5.41773">
        <ele>1134.1</ele>
        <time>2015-09-05T12:48:50Z</time>
      </trkpt>
      <trkpt lat="45.09263" lon="5.41768">
        <ele>1135.7</ele>
        <time>2015-09-05T12:48:58Z</time>
      </trkpt>
      <trkpt lat="45.09254" lon="5.41767">
        <ele>1137.4</ele>
        <time>2015-09-05T12:49:06Z</time>
      </trkpt>
      <trkpt lat="45.09245" lon="5.4177">
        <ele>1139.3</ele>
        <time>2015-09-05T12:49:15Z</time>
      </trkpt>
      <trkpt lat="45.09238" lon="5.41778">
        <ele>1141.4</ele>
        <time>2015-09-05T12:49:25Z</time>
      </trkpt>
      <trkpt lat="45.09231" lon="5.41787">
        <ele>1142.8</ele>
        <time>2015-09-05T12:49:33Z</time>
      </trkpt>
      <trkpt lat="45.09223" lon="5.41795">
        <ele>1143.6</ele>
        <time>2015-09-05T12:49:40Z</time>
      </trkpt>
      <trkpt lat="45.09216" lon="5.41803">
        <ele>1144.4</ele>
        <time>2015-09-05T12:49:46Z</time>
      </trkpt>
      <trkpt lat="45.0921" lon="5.41813">
        <ele>1145.3</ele>
        <time>2015-09-05T12:49:52Z</time>
      </trkpt>
      <trkpt lat="45.09204" lon="5.41825">
        <ele>1146.1</ele>
        <time>2015-09-05T12:49:57Z</time>
      </trkpt>
      <trkpt lat="45.09199" lon="5.41837">
        <ele>1146.7</ele>
        <time>2015-09-05T12:50:02Z</time>
      </trkpt>
      <trkpt lat="45.09194" lon="5.41848">
        <ele>1147.3</ele>
        <time>2015-09-05T12:50:06Z</time>
      </trkpt>
      <trkpt lat="45.09188" lon="5.41859">
        <ele>1147.9</ele>
        <time>2015-09-05T12:50:12Z</time>
      </trkpt>
      <trkpt lat="45.09181" lon="5.41867">
        <ele>1148</ele>
        <time>2015-09-05T12:50:16Z</time>
      </trkpt>
      <trkpt lat="45.09174" lon="5.41876">
        <ele>1148.2</ele>
        <time>2015-09-05T12:50:21Z</time>
      </trkpt>
      <trkpt lat="45.09169" lon="5.41887">
        <ele>1148.9</ele>
        <time>2015-09-05T12:50:28Z</time>
      </trkpt>
      <trkpt lat="45.09162" lon="5.41896">
        <ele>1149.4</ele>
        <time>2015-09-05T12:50:35Z</time>
      </trkpt>
      <trkpt lat="45.09157" lon="5.41907">
        <ele>1150.2</ele>
        <time>2015-09-05T12:50:42Z</time>
      </trkpt>
      <trkpt lat="45.0915" lon="5.41918">
        <ele>1151</ele>
        <time>2015-09-05T12:50:50Z</time>
      </trkpt>
      <trkpt lat="45.09143" lon="5.41929">
        <ele>1152.1</ele>
        <time>2015-09-05T12:50:58Z</time>
      </trkpt>
      <trkpt lat="45.09138" lon="5.4194">
        <ele>1153.2</ele>
        <time>2015-09-05T12:51:05Z</time>
      </trkpt>
      <trkpt lat="45.09134" lon="5.41952">
        <ele>1154.7</ele>
        <time>2015-09-05T12:51:13Z</time>
      </trkpt>
      <trkpt lat="45.09129" lon="5.41962">
        <ele>1156.4</ele>
        <time>2015-09-05T12:51:22Z</time>
      </trkpt>
      <trkpt lat="45.09124" lon="5.41975">
        <ele>1157.8</ele>
        <time>2015-09-05T12:51:29Z</time>
      </trkpt>
      <trkpt lat="45.09118" lon="5.41986">
        <ele>1159</ele>
        <time>2015-09-05T12:51:36Z</time>
      </trkpt>
      <trkpt lat="45.09112" lon="5.41996">
        <ele>1160.4</ele>
        <time>2015-09-05T12:51:43Z</time>
      </trkpt>
      <trkpt lat="45.09106" lon="5.42006">
        <ele>1161.2</ele>
        <time>2015-09-05T12:51:48Z</time>
      </trkpt>
      <trkpt lat="45.09098" lon="5.42016">
        <ele>1161.8</ele>
        <time>2015-09-05T12:51:53Z</time>
      </trkpt>
      <trkpt lat="45.09091" lon="5.42027">
        <ele>1162.3</ele>
        <time>2015-09-05T12:51:58Z</time>
      </trkpt>
      <trkpt lat="45.09084" lon="5.42037">
        <ele>1162.9</ele>
        <time>2015-09-05T12:52:03Z</time>
      </trkpt>
      <trkpt lat="45.09077" lon="5.42048">
        <ele>1163.6</ele>
        <time>2015-09-05T12:52:09Z</time>
      </trkpt>
      <trkpt lat="45.0907" lon="5.42058">
        <ele>1164.5</ele>
        <time>2015-09-05T12:52:15Z</time>
      </trkpt>
      <trkpt lat="45.09062" lon="5.42066">
        <ele>1165.5</ele>
        <time>2015-09-05T12:52:21Z</time>
      </trkpt>
      <trkpt lat="45.09054" lon="5.42075">
        <ele>1166.6</ele>
        <time>2015-09-05T12:52:28Z</time>
      </trkpt>
      <trkpt lat="45.09046" lon="5.42083">
        <ele>1167.8</ele>
        <time>2015-09-05T12:52:36Z</time>
      </trkpt>
      <trkpt lat="45.0904" lon="5.42095">
        <ele>1168.9</ele>
        <time>2015-09-05T12:52:43Z</time>
      </trkpt>
      <trkpt lat="45.09034" lon="5.42105">
        <ele>1170</ele>
        <time>2015-09-05T12:52:50Z</time>
      </trkpt>
      <trkpt lat="45.09027" lon="5.42113">
        <ele>1171.1</ele>
        <time>2015-09-05T12:52:58Z</time>
      </trkpt>
      <trkpt lat="45.0902" lon="5.42123">
        <ele>1172.1</ele>
        <time>2015-09-05T12:53:06Z</time>
      </trkpt>
      <trkpt lat="45.09012" lon="5.42129">
        <ele>1173.2</ele>
        <time>2015-09-05T12:53:13Z</time>
      </trkpt>
      <trkpt lat="45.09002" lon="5.42125">
        <ele>1174.5</ele>
        <time>2015-09-05T12:53:21Z</time>
      </trkpt>
      <trkpt lat="45.08995" lon="5.42118">
        <ele>1175.8</ele>
        <time>2015-09-05T12:53:29Z</time>
      </trkpt>
      <trkpt lat="45.08985" lon="5.42117">
        <ele>1177.5</ele>
        <time>2015-09-05T12:53:37Z</time>
      </trkpt>
      <trkpt lat="45.08984" lon="5.42129">
        <ele>1179.8</ele>
        <time>2015-09-05T12:53:48Z</time>
      </trkpt>
      <trkpt lat="45.08982" lon="5.42143">
        <ele>1181.4</ele>
        <time>2015-09-05T12:53:57Z</time>
      </trkpt>
      <trkpt lat="45.0898" lon="5.42155">
        <ele>1182.7</ele>
        <time>2015-09-05T12:54:06Z</time>
      </trkpt>
      <trkpt lat="45.08978" lon="5.42168">
        <ele>1184.1</ele>
        <time>2015-09-05T12:54:15Z</time>
      </trkpt>
      <trkpt lat="45.08976" lon="5.42181">
        <ele>1185.9</ele>
        <time>2015-09-05T12:54:24Z</time>
      </trkpt>
      <trkpt lat="45.08971" lon="5.42193">
        <ele>1188.9</ele>
        <time>2015-09-05T12:54:39Z</time>
      </trkpt>
      <trkpt lat="45.08966" lon="5.42204">
        <ele>1192.2</ele>
        <time>2015-09-05T12:55:03Z</time>
      </trkpt>
      <trkpt lat="45.08959" lon="5.42213">
        <ele>1193.8</ele>
        <time>2015-09-05T12:55:12Z</time>
      </trkpt>
      <trkpt lat="45.08952" lon="5.42223">
        <ele>1195.4</ele>
        <time>2015-09-05T12:55:20Z</time>
      </trkpt>
      <trkpt lat="45.08946" lon="5.42232">
        <ele>1197.2</ele>
        <time>2015-09-05T12:55:29Z</time>
      </trkpt>
      <trkpt lat="45.08941" lon="5.42243">
        <ele>1199.2</ele>
        <time>2015-09-05T12:55:38Z</time>
      </trkpt>
      <trkpt lat="45.08933" lon="5.42251">
        <ele>1201.3</ele>
        <time>2015-09-05T12:55:47Z</time>
      </trkpt>
      <trkpt lat="45.08926" lon="5.42261">
        <ele>1203.3</ele>
        <time>2015-09-05T12:55:57Z</time>
      </trkpt>
      <trkpt lat="45.08921" lon="5.42273">
        <ele>1205.2</ele>
        <time>2015-09-05T12:56:07Z</time>
      </trkpt>
      <trkpt lat="45.08917" lon="5.42285">
        <ele>1206.8</ele>
        <time>2015-09-05T12:56:16Z</time>
      </trkpt>
      <trkpt lat="45.08911" lon="5.42295">
        <ele>1208.4</ele>
        <time>2015-09-05T12:56:25Z</time>
      </trkpt>
      <trkpt lat="45.08904" lon="5.42305">
        <ele>1210.1</ele>
        <time>2015-09-05T12:56:34Z</time>
      </trkpt>
      <trkpt lat="45.08894" lon="5.42313">
        <ele>1212.2</ele>
        <time>2015-09-05T12:56:44Z</time>
      </trkpt>
      <trkpt lat="45.08886" lon="5.42321">
        <ele>1214.1</ele>
        <time>2015-09-05T12:56:53Z</time>
      </trkpt>
      <trkpt lat="45.08878" lon="5.42329">
        <ele>1216.3</ele>
        <time>2015-09-05T12:57:04Z</time>
      </trkpt>
      <trkpt lat="45.08871" lon="5.42338">
        <ele>1217.8</ele>
        <time>2015-09-05T12:57:12Z</time>
      </trkpt>
      <trkpt lat="45.08863" lon="5.42349">
        <ele>1218.9</ele>
        <time>2015-09-05T12:57:20Z</time>
      </trkpt>
      <trkpt lat="45.08856" lon="5.42357">
        <ele>1220</ele>
        <time>2015-09-05T12:57:27Z</time>
      </trkpt>
      <trkpt lat="45.08848" lon="5.42364">
        <ele>1221.5</ele>
        <time>2015-09-05T12:57:36Z</time>
      </trkpt>
      <trkpt lat="45.0884" lon="5.42372">
        <ele>1222.7</ele>
        <time>2015-09-05T12:57:44Z</time>
      </trkpt>
      <trkpt lat="45.08839" lon="5.42385">
        <ele>1223.9</ele>
        <time>2015-09-05T12:57:51Z</time>
      </trkpt>
      <trkpt lat="45.08836" lon="5.42398">
        <ele>1225.2</ele>
        <time>2015-09-05T12:58:00Z</time>
      </trkpt>
      <trkpt lat="45.08832" lon="5.42411">
        <ele>1226.1</ele>
        <time>2015-09-05T12:58:09Z</time>
      </trkpt>
      <trkpt lat="45.08827" lon="5.42423">
        <ele>1226.7</ele>
        <time>2015-09-05T12:58:16Z</time>
      </trkpt>
      <trkpt lat="45.08819" lon="5.4243">
        <ele>1227.2</ele>
        <time>2015-09-05T12:58:23Z</time>
      </trkpt>
      <trkpt lat="45.08809" lon="5.42428">
        <ele>1227.9</ele>
        <time>2015-09-05T12:58:31Z</time>
      </trkpt>
      <trkpt lat="45.088" lon="5.42422">
        <ele>1228.8</ele>
        <time>2015-09-05T12:58:39Z</time>
      </trkpt>
      <trkpt lat="45.08792" lon="5.42417">
        <ele>1229.5</ele>
        <time>2015-09-05T12:58:45Z</time>
      </trkpt>
      <trkpt lat="45.08782" lon="5.42414">
        <ele>1230.5</ele>
        <time>2015-09-05T12:58:51Z</time>
      </trkpt>
      <trkpt lat="45.08773" lon="5.42417">
        <ele>1231.4</ele>
        <time>2015-09-05T12:58:57Z</time>
      </trkpt>
      <trkpt lat="45.08765" lon="5.42425">
        <ele>1232.3</ele>
        <time>2015-09-05T12:59:03Z</time>
      </trkpt>
      <trkpt lat="45.08757" lon="5.42434">
        <ele>1233.4</ele>
        <time>2015-09-05T12:59:10Z</time>
      </trkpt>
      <trkpt lat="45.08749" lon="5.4244">
        <ele>1234.6</ele>
        <time>2015-09-05T12:59:17Z</time>
      </trkpt>
      <trkpt lat="45.08741" lon="5.42446">
        <ele>1235.9</ele>
        <time>2015-09-05T12:59:24Z</time>
      </trkpt>
      <trkpt lat="45.08731" lon="5.42452">
        <ele>1237.2</ele>
        <time>2015-09-05T12:59:31Z</time>
      </trkpt>
      <trkpt lat="45.08725" lon="5.42461">
        <ele>1238.6</ele>
        <time>2015-09-05T12:59:39Z</time>
      </trkpt>
      <trkpt lat="45.08717" lon="5.42452">
        <ele>1240.2</ele>
        <time>2015-09-05T12:59:49Z</time>
      </trkpt>
      <trkpt lat="45.08711" lon="5.42442">
        <ele>1241</ele>
        <time>2015-09-05T12:59:55Z</time>
      </trkpt>
      <trkpt lat="45.08705" lon="5.42432">
        <ele>1242.1</ele>
        <time>2015-09-05T13:00:03Z</time>
      </trkpt>
      <trkpt lat="45.08705" lon="5.42418">
        <ele>1243.4</ele>
        <time>2015-09-05T13:00:12Z</time>
      </trkpt>
      <trkpt lat="45.08703" lon="5.42405">
        <ele>1245.4</ele>
        <time>2015-09-05T13:00:23Z</time>
      </trkpt>
      <trkpt lat="45.08699" lon="5.42392">
        <ele>1246.7</ele>
        <time>2015-09-05T13:00:31Z</time>
      </trkpt>
      <trkpt lat="45.08697" lon="5.42378">
        <ele>1247.7</ele>
        <time>2015-09-05T13:00:39Z</time>
      </trkpt>
      <trkpt lat="45.08692" lon="5.42366">
        <ele>1248.4</ele>
        <time>2015-09-05T13:00:46Z</time>
      </trkpt>
      <trkpt lat="45.08691" lon="5.42353">
        <ele>1249.3</ele>
        <time>2015-09-05T13:00:54Z</time>
      </trkpt>
      <trkpt lat="45.0869" lon="5.4234">
        <ele>1250.5</ele>
        <time>2015-09-05T13:01:01Z</time>
      </trkpt>
      <trkpt lat="45.08691" lon="5.42327">
        <ele>1252</ele>
        <time>2015-09-05T13:01:09Z</time>
      </trkpt>
      <trkpt lat="45.08688" lon="5.42314">
        <ele>1253.6</ele>
        <time>2015-09-05T13:01:18Z</time>
      </trkpt>
      <trkpt lat="45.08687" lon="5.423">
        <ele>1255.5</ele>
        <time>2015-09-05T13:01:26Z</time>
      </trkpt>
      <trkpt lat="45.08684" lon="5.42287">
        <ele>1256.7</ele>
        <time>2015-09-05T13:01:32Z</time>
      </trkpt>
      <trkpt lat="45.08684" lon="5.42274">
        <ele>1260</ele>
        <time>2015-09-05T13:01:52Z</time>
      </trkpt>
      <trkpt lat="45.08685" lon="5.42262">
        <ele>1261.8</ele>
        <time>2015-09-05T13:02:05Z</time>
      </trkpt>
      <trkpt lat="45.08685" lon="5.42249">
        <ele>1264</ele>
        <time>2015-09-05T13:02:18Z</time>
      </trkpt>
      <trkpt lat="45.08685" lon="5.42235">
        <ele>1266.2</ele>
        <time>2015-09-05T13:02:31Z</time>
      </trkpt>
      <trkpt lat="45.08679" lon="5.42225">
        <ele>1268.3</ele>
        <time>2015-09-05T13:02:42Z</time>
      </trkpt>
      <trkpt lat="45.08673" lon="5.42213">
        <ele>1270.3</ele>
        <time>2015-09-05T13:02:54Z</time>
      </trkpt>
      <trkpt lat="45.08665" lon="5.42205">
        <ele>1271.9</ele>
        <time>2015-09-05T13:03:03Z</time>
      </trkpt>
      <trkpt lat="45.08659" lon="5.42197">
        <ele>1273</ele>
        <time>2015-09-05T13:03:11Z</time>
      </trkpt>
      <trkpt lat="45.0865" lon="5.42189">
        <ele>1273.7</ele>
        <time>2015-09-05T13:03:17Z</time>
      </trkpt>
      <trkpt lat="45.08641" lon="5.42183">
        <ele>1274.4</ele>
        <time>2015-09-05T13:03:23Z</time>
      </trkpt>
      <trkpt lat="45.08632" lon="5.42178">
        <ele>1274.9</ele>
        <time>2015-09-05T13:03:29Z</time>
      </trkpt>
      <trkpt lat="45.08622" lon="5.42175">
        <ele>1275</ele>
        <time>2015-09-05T13:03:34Z</time>
      </trkpt>
      <trkpt lat="45.0861" lon="5.42172">
        <ele>1275</ele>
        <time>2015-09-05T13:03:38Z</time>
      </trkpt>
      <trkpt lat="45.08596" lon="5.42173">
        <ele>1274.7</ele>
        <time>2015-09-05T13:03:41Z</time>
      </trkpt>
      <trkpt lat="45.08586" lon="5.42175">
        <ele>1274.4</ele>
        <time>2015-09-05T13:03:43Z</time>
      </trkpt>
      <trkpt lat="45.08577" lon="5.42178">
        <ele>1274</ele>
        <time>2015-09-05T13:03:45Z</time>
      </trkpt>
      <trkpt lat="45.08566" lon="5.42183">
        <ele>1273.2</ele>
        <time>2015-09-05T13:03:48Z</time>
      </trkpt>
      <trkpt lat="45.08555" lon="5.42189">
        <ele>1271.4</ele>
        <time>2015-09-05T13:03:52Z</time>
      </trkpt>
      <trkpt lat="45.08543" lon="5.42196">
        <ele>1270</ele>
        <time>2015-09-05T13:03:55Z</time>
      </trkpt>
      <trkpt lat="45.08535" lon="5.42202">
        <ele>1268.9</ele>
        <time>2015-09-05T13:03:57Z</time>
      </trkpt>
      <trkpt lat="45.08524" lon="5.42208">
        <ele>1267</ele>
        <time>2015-09-05T13:04:00Z</time>
      </trkpt>
      <trkpt lat="45.08516" lon="5.42217">
        <ele>1264.8</ele>
        <time>2015-09-05T13:04:03Z</time>
      </trkpt>
      <trkpt lat="45.08507" lon="5.42227">
        <ele>1262.5</ele>
        <time>2015-09-05T13:04:06Z</time>
      </trkpt>
      <trkpt lat="45.085" lon="5.42237">
        <ele>1260.9</ele>
        <time>2015-09-05T13:04:08Z</time>
      </trkpt>
      <trkpt lat="45.0849" lon="5.42247">
        <ele>1258.5</ele>
        <time>2015-09-05T13:04:11Z</time>
      </trkpt>
      <trkpt lat="45.0848" lon="5.42254">
        <ele>1255.9</ele>
        <time>2015-09-05T13:04:14Z</time>
      </trkpt>
      <trkpt lat="45.08472" lon="5.42262">
        <ele>1253.3</ele>
        <time>2015-09-05T13:04:16Z</time>
      </trkpt>
      <trkpt lat="45.08462" lon="5.42271">
        <ele>1250.3</ele>
        <time>2015-09-05T13:04:19Z</time>
      </trkpt>
      <trkpt lat="45.08449" lon="5.42273">
        <ele>1247.8</ele>
        <time>2015-09-05T13:04:22Z</time>
      </trkpt>
      <trkpt lat="45.08439" lon="5.42276">
        <ele>1246.1</ele>
        <time>2015-09-05T13:04:24Z</time>
      </trkpt>
      <trkpt lat="45.08428" lon="5.42279">
        <ele>1244.2</ele>
        <time>2015-09-05T13:04:26Z</time>
      </trkpt>
      <trkpt lat="45.08417" lon="5.42278">
        <ele>1242.5</ele>
        <time>2015-09-05T13:04:28Z</time>
      </trkpt>
      <trkpt lat="45.08408" lon="5.42273">
        <ele>1240.9</ele>
        <time>2015-09-05T13:04:30Z</time>
      </trkpt>
      <trkpt lat="45.08397" lon="5.42268">
        <ele>1238.8</ele>
        <time>2015-09-05T13:04:32Z</time>
      </trkpt>
      <trkpt lat="45.08384" lon="5.42264">
        <ele>1237.2</ele>
        <time>2015-09-05T13:04:34Z</time>
      </trkpt>
      <trkpt lat="45.08372" lon="5.42264">
        <ele>1236.3</ele>
        <time>2015-09-05T13:04:36Z</time>
      </trkpt>
      <trkpt lat="45.08361" lon="5.42264">
        <ele>1235.6</ele>
        <time>2015-09-05T13:04:38Z</time>
      </trkpt>
      <trkpt lat="45.0835" lon="5.42264">
        <ele>1234.6</ele>
        <time>2015-09-05T13:04:40Z</time>
      </trkpt>
      <trkpt lat="45.08337" lon="5.42265">
        <ele>1233.4</ele>
        <time>2015-09-05T13:04:42Z</time>
      </trkpt>
      <trkpt lat="45.08326" lon="5.42266">
        <ele>1232.7</ele>
        <time>2015-09-05T13:04:44Z</time>
      </trkpt>
      <trkpt lat="45.08316" lon="5.4227">
        <ele>1231.5</ele>
        <time>2015-09-05T13:04:46Z</time>
      </trkpt>
      <trkpt lat="45.08307" lon="5.42274">
        <ele>1230.1</ele>
        <time>2015-09-05T13:04:48Z</time>
      </trkpt>
      <trkpt lat="45.08298" lon="5.42281">
        <ele>1228.9</ele>
        <time>2015-09-05T13:04:50Z</time>
      </trkpt>
      <trkpt lat="45.0829" lon="5.42288">
        <ele>1227.5</ele>
        <time>2015-09-05T13:04:52Z</time>
      </trkpt>
      <trkpt lat="45.08283" lon="5.42297">
        <ele>1226.1</ele>
        <time>2015-09-05T13:04:54Z</time>
      </trkpt>
      <trkpt lat="45.08274" lon="5.42304">
        <ele>1223.9</ele>
        <time>2015-09-05T13:04:57Z</time>
      </trkpt>
      <trkpt lat="45.08264" lon="5.42308">
        <ele>1221.7</ele>
        <time>2015-09-05T13:05:00Z</time>
      </trkpt>
      <trkpt lat="45.08257" lon="5.42318">
        <ele>1219.7</ele>
        <time>2015-09-05T13:05:03Z</time>
      </trkpt>
      <trkpt lat="45.08259" lon="5.42332">
        <ele>1216.8</ele>
        <time>2015-09-05T13:05:09Z</time>
      </trkpt>
      <trkpt lat="45.0826" lon="5.42346">
        <ele>1215</ele>
        <time>2015-09-05T13:05:14Z</time>
      </trkpt>
      <trkpt lat="45.08259" lon="5.4236">
        <ele>1213.9</ele>
        <time>2015-09-05T13:05:17Z</time>
      </trkpt>
      <trkpt lat="45.08258" lon="5.42374">
        <ele>1213</ele>
        <time>2015-09-05T13:05:20Z</time>
      </trkpt>
      <trkpt lat="45.08255" lon="5.42386">
        <ele>1211.9</ele>
        <time>2015-09-05T13:05:25Z</time>
      </trkpt>
      <trkpt lat="45.0825" lon="5.42397">
        <ele>1211.1</ele>
        <time>2015-09-05T13:05:31Z</time>
      </trkpt>
      <trkpt lat="45.08245" lon="5.42409">
        <ele>1210.1</ele>
        <time>2015-09-05T13:05:37Z</time>
      </trkpt>
      <trkpt lat="45.0824" lon="5.4242">
        <ele>1208.2</ele>
        <time>2015-09-05T13:05:45Z</time>
      </trkpt>
      <trkpt lat="45.08236" lon="5.42433">
        <ele>1205.6</ele>
        <time>2015-09-05T13:05:55Z</time>
      </trkpt>
      <trkpt lat="45.0823" lon="5.42448">
        <ele>1204.5</ele>
        <time>2015-09-05T13:05:59Z</time>
      </trkpt>
      <trkpt lat="45.08225" lon="5.42461">
        <ele>1203.2</ele>
        <time>2015-09-05T13:06:02Z</time>
      </trkpt>
      <trkpt lat="45.08217" lon="5.42474">
        <ele>1201.6</ele>
        <time>2015-09-05T13:06:05Z</time>
      </trkpt>
      <trkpt lat="45.08207" lon="5.42484">
        <ele>1199.4</ele>
        <time>2015-09-05T13:06:08Z</time>
      </trkpt>
      <trkpt lat="45.08199" lon="5.42491">
        <ele>1197.4</ele>
        <time>2015-09-05T13:06:11Z</time>
      </trkpt>
      <trkpt lat="45.08199" lon="5.42505">
        <ele>1195</ele>
        <time>2015-09-05T13:06:15Z</time>
      </trkpt>
      <trkpt lat="45.08197" lon="5.42522">
        <ele>1192.7</ele>
        <time>2015-09-05T13:06:19Z</time>
      </trkpt>
      <trkpt lat="45.08194" lon="5.42534">
        <ele>1190.8</ele>
        <time>2015-09-05T13:06:22Z</time>
      </trkpt>
      <trkpt lat="45.08192" lon="5.42548">
        <ele>1188.9</ele>
        <time>2015-09-05T13:06:25Z</time>
      </trkpt>
      <trkpt lat="45.08196" lon="5.42569">
        <ele>1187</ele>
        <time>2015-09-05T13:06:28Z</time>
      </trkpt>
      <trkpt lat="45.08194" lon="5.42587">
        <ele>1185.7</ele>
        <time>2015-09-05T13:06:30Z</time>
      </trkpt>
      <trkpt lat="45.0819" lon="5.42599">
        <ele>1183.7</ele>
        <time>2015-09-05T13:06:34Z</time>
      </trkpt>
      <trkpt lat="45.08184" lon="5.42611">
        <ele>1181.8</ele>
        <time>2015-09-05T13:06:39Z</time>
      </trkpt>
      <trkpt lat="45.08179" lon="5.42623">
        <ele>1180.6</ele>
        <time>2015-09-05T13:06:43Z</time>
      </trkpt>
      <trkpt lat="45.08181" lon="5.42637">
        <ele>1179.7</ele>
        <time>2015-09-05T13:06:46Z</time>
      </trkpt>
      <trkpt lat="45.08186" lon="5.42649">
        <ele>1178.8</ele>
        <time>2015-09-05T13:06:48Z</time>
      </trkpt>
      <trkpt lat="45.08191" lon="5.42667">
        <ele>1177.6</ele>
        <time>2015-09-05T13:06:51Z</time>
      </trkpt>
      <trkpt lat="45.08194" lon="5.42683">
        <ele>1176.5</ele>
        <time>2015-09-05T13:06:54Z</time>
      </trkpt>
      <trkpt lat="45.08189" lon="5.42696">
        <ele>1175.5</ele>
        <time>2015-09-05T13:06:58Z</time>
      </trkpt>
      <trkpt lat="45.08181" lon="5.42705">
        <ele>1174.5</ele>
        <time>2015-09-05T13:07:03Z</time>
      </trkpt>
      <trkpt lat="45.08173" lon="5.42714">
        <ele>1174.2</ele>
        <time>2015-09-05T13:07:08Z</time>
      </trkpt>
      <trkpt lat="45.08165" lon="5.42719">
        <ele>1174.3</ele>
        <time>2015-09-05T13:07:13Z</time>
      </trkpt>
      <trkpt lat="45.08154" lon="5.42718">
        <ele>1174.6</ele>
        <time>2015-09-05T13:07:19Z</time>
      </trkpt>
      <trkpt lat="45.08142" lon="5.42716">
        <ele>1174.6</ele>
        <time>2015-09-05T13:07:23Z</time>
      </trkpt>
      <trkpt lat="45.0813" lon="5.42715">
        <ele>1174.2</ele>
        <time>2015-09-05T13:07:26Z</time>
      </trkpt>
      <trkpt lat="45.08118" lon="5.42716">
        <ele>1173.7</ele>
        <time>2015-09-05T13:07:29Z</time>
      </trkpt>
      <trkpt lat="45.08104" lon="5.42717">
        <ele>1172.9</ele>
        <time>2015-09-05T13:07:32Z</time>
      </trkpt>
      <trkpt lat="45.08093" lon="5.42714">
        <ele>1172.5</ele>
        <time>2015-09-05T13:07:34Z</time>
      </trkpt>
      <trkpt lat="45.08082" lon="5.42711">
        <ele>1172</ele>
        <time>2015-09-05T13:07:36Z</time>
      </trkpt>
      <trkpt lat="45.08073" lon="5.42708">
        <ele>1171.6</ele>
        <time>2015-09-05T13:07:38Z</time>
      </trkpt>
      <trkpt lat="45.08063" lon="5.42705">
        <ele>1170.4</ele>
        <time>2015-09-05T13:07:41Z</time>
      </trkpt>
      <trkpt lat="45.0805" lon="5.42702">
        <ele>1169.2</ele>
        <time>2015-09-05T13:07:44Z</time>
      </trkpt>
      <trkpt lat="45.08041" lon="5.42695">
        <ele>1168.3</ele>
        <time>2015-09-05T13:07:47Z</time>
      </trkpt>
      <trkpt lat="45.0803" lon="5.42696">
        <ele>1167.1</ele>
        <time>2015-09-05T13:07:51Z</time>
      </trkpt>
      <trkpt lat="45.08023" lon="5.42705">
        <ele>1165.9</ele>
        <time>2015-09-05T13:07:56Z</time>
      </trkpt>
      <trkpt lat="45.08016" lon="5.42717">
        <ele>1165.2</ele>
        <time>2015-09-05T13:08:00Z</time>
      </trkpt>
      <trkpt lat="45.08011" lon="5.42729">
        <ele>1164.6</ele>
        <time>2015-09-05T13:08:04Z</time>
      </trkpt>
      <trkpt lat="45.08004" lon="5.42738">
        <ele>1164.2</ele>
        <time>2015-09-05T13:08:07Z</time>
      </trkpt>
      <trkpt lat="45.07996" lon="5.42751">
        <ele>1163.7</ele>
        <time>2015-09-05T13:08:11Z</time>
      </trkpt>
      <trkpt lat="45.07988" lon="5.42757">
        <ele>1163.2</ele>
        <time>2015-09-05T13:08:14Z</time>
      </trkpt>
      <trkpt lat="45.07978" lon="5.42764">
        <ele>1162.3</ele>
        <time>2015-09-05T13:08:20Z</time>
      </trkpt>
      <trkpt lat="45.07968" lon="5.42768">
        <ele>1161.4</ele>
        <time>2015-09-05T13:08:23Z</time>
      </trkpt>
      <trkpt lat="45.07954" lon="5.42771">
        <ele>1161</ele>
        <time>2015-09-05T13:08:26Z</time>
      </trkpt>
      <trkpt lat="45.07945" lon="5.42777">
        <ele>1160.5</ele>
        <time>2015-09-05T13:08:29Z</time>
      </trkpt>
      <trkpt lat="45.07936" lon="5.42786">
        <ele>1160.1</ele>
        <time>2015-09-05T13:08:33Z</time>
      </trkpt>
      <trkpt lat="45.07925" lon="5.42789">
        <ele>1159.8</ele>
        <time>2015-09-05T13:08:37Z</time>
      </trkpt>
      <trkpt lat="45.07913" lon="5.42788">
        <ele>1159.5</ele>
        <time>2015-09-05T13:08:40Z</time>
      </trkpt>
      <trkpt lat="45.07903" lon="5.42793">
        <ele>1159.3</ele>
        <time>2015-09-05T13:08:43Z</time>
      </trkpt>
      <trkpt lat="45.07892" lon="5.42801">
        <ele>1159.1</ele>
        <time>2015-09-05T13:08:47Z</time>
      </trkpt>
      <trkpt lat="45.07881" lon="5.42806">
        <ele>1159.2</ele>
        <time>2015-09-05T13:08:51Z</time>
      </trkpt>
      <trkpt lat="45.07873" lon="5.42813">
        <ele>1159.1</ele>
        <time>2015-09-05T13:08:55Z</time>
      </trkpt>
      <trkpt lat="45.07866" lon="5.42822">
        <ele>1159</ele>
        <time>2015-09-05T13:08:58Z</time>
      </trkpt>
      <trkpt lat="45.07858" lon="5.42832">
        <ele>1158.9</ele>
        <time>2015-09-05T13:09:01Z</time>
      </trkpt>
      <trkpt lat="45.07848" lon="5.4284">
        <ele>1158.6</ele>
        <time>2015-09-05T13:09:04Z</time>
      </trkpt>
      <trkpt lat="45.07838" lon="5.4284">
        <ele>1158.4</ele>
        <time>2015-09-05T13:09:06Z</time>
      </trkpt>
      <trkpt lat="45.07829" lon="5.42839">
        <ele>1157.6</ele>
        <time>2015-09-05T13:09:08Z</time>
      </trkpt>
      <trkpt lat="45.0782" lon="5.42836">
        <ele>1156.8</ele>
        <time>2015-09-05T13:09:10Z</time>
      </trkpt>
      <trkpt lat="45.07811" lon="5.42836">
        <ele>1156.1</ele>
        <time>2015-09-05T13:09:12Z</time>
      </trkpt>
      <trkpt lat="45.07802" lon="5.42836">
        <ele>1155.2</ele>
        <time>2015-09-05T13:09:14Z</time>
      </trkpt>
      <trkpt lat="45.07793" lon="5.42839">
        <ele>1154.3</ele>
        <time>2015-09-05T13:09:16Z</time>
      </trkpt>
      <trkpt lat="45.07783" lon="5.42841">
        <ele>1153.3</ele>
        <time>2015-09-05T13:09:18Z</time>
      </trkpt>
      <trkpt lat="45.0777" lon="5.42838">
        <ele>1151.8</ele>
        <time>2015-09-05T13:09:21Z</time>
      </trkpt>
      <trkpt lat="45.07759" lon="5.42836">
        <ele>1150.3</ele>
        <time>2015-09-05T13:09:24Z</time>
      </trkpt>
      <trkpt lat="45.07749" lon="5.42834">
        <ele>1149.1</ele>
        <time>2015-09-05T13:09:26Z</time>
      </trkpt>
      <trkpt lat="45.07738" lon="5.42831">
        <ele>1147.9</ele>
        <time>2015-09-05T13:09:28Z</time>
      </trkpt>
      <trkpt lat="45.07727" lon="5.42826">
        <ele>1146.4</ele>
        <time>2015-09-05T13:09:30Z</time>
      </trkpt>
      <trkpt lat="45.07716" lon="5.42821">
        <ele>1145</ele>
        <time>2015-09-05T13:09:32Z</time>
      </trkpt>
      <trkpt lat="45.07706" lon="5.42818">
        <ele>1143.5</ele>
        <time>2015-09-05T13:09:34Z</time>
      </trkpt>
      <trkpt lat="45.07697" lon="5.42816">
        <ele>1142.3</ele>
        <time>2015-09-05T13:09:36Z</time>
      </trkpt>
      <trkpt lat="45.07688" lon="5.42811">
        <ele>1140.8</ele>
        <time>2015-09-05T13:09:38Z</time>
      </trkpt>
      <trkpt lat="45.07681" lon="5.42802">
        <ele>1139.1</ele>
        <time>2015-09-05T13:09:40Z</time>
      </trkpt>
      <trkpt lat="45.07671" lon="5.42795">
        <ele>1136.9</ele>
        <time>2015-09-05T13:09:43Z</time>
      </trkpt>
      <trkpt lat="45.07661" lon="5.42794">
        <ele>1134.4</ele>
        <time>2015-09-05T13:09:47Z</time>
      </trkpt>
      <trkpt lat="45.07655" lon="5.42785">
        <ele>1132.9</ele>
        <time>2015-09-05T13:09:50Z</time>
      </trkpt>
      <trkpt lat="45.0765" lon="5.42774">
        <ele>1130.6</ele>
        <time>2015-09-05T13:09:54Z</time>
      </trkpt>
      <trkpt lat="45.07642" lon="5.42784">
        <ele>1125.6</ele>
        <time>2015-09-05T13:10:09Z</time>
      </trkpt>
      <trkpt lat="45.07638" lon="5.42795">
        <ele>1124.7</ele>
        <time>2015-09-05T13:10:12Z</time>
      </trkpt>
      <trkpt lat="45.07632" lon="5.42809">
        <ele>1123.2</ele>
        <time>2015-09-05T13:10:16Z</time>
      </trkpt>
      <trkpt lat="45.07629" lon="5.42826">
        <ele>1121.9</ele>
        <time>2015-09-05T13:10:19Z</time>
      </trkpt>
      <trkpt lat="45.07622" lon="5.42838">
        <ele>1120.3</ele>
        <time>2015-09-05T13:10:22Z</time>
      </trkpt>
      <trkpt lat="45.07613" lon="5.42849">
        <ele>1118.6</ele>
        <time>2015-09-05T13:10:25Z</time>
      </trkpt>
      <trkpt lat="45.07606" lon="5.42861">
        <ele>1116.9</ele>
        <time>2015-09-05T13:10:28Z</time>
      </trkpt>
      <trkpt lat="45.07603" lon="5.42878">
        <ele>1115</ele>
        <time>2015-09-05T13:10:31Z</time>
      </trkpt>
      <trkpt lat="45.07605" lon="5.42892">
        <ele>1113.8</ele>
        <time>2015-09-05T13:10:33Z</time>
      </trkpt>
      <trkpt lat="45.07607" lon="5.42911">
        <ele>1112.7</ele>
        <time>2015-09-05T13:10:35Z</time>
      </trkpt>
      <trkpt lat="45.07605" lon="5.42928">
        <ele>1111.5</ele>
        <time>2015-09-05T13:10:37Z</time>
      </trkpt>
      <trkpt lat="45.07605" lon="5.42942">
        <ele>1109.9</ele>
        <time>2015-09-05T13:10:39Z</time>
      </trkpt>
      <trkpt lat="45.07611" lon="5.42954">
        <ele>1108.7</ele>
        <time>2015-09-05T13:10:41Z</time>
      </trkpt>
      <trkpt lat="45.07615" lon="5.42969">
        <ele>1107.8</ele>
        <time>2015-09-05T13:10:43Z</time>
      </trkpt>
      <trkpt lat="45.07616" lon="5.42985">
        <ele>1106.8</ele>
        <time>2015-09-05T13:10:45Z</time>
      </trkpt>
      <trkpt lat="45.07621" lon="5.43002">
        <ele>1105.9</ele>
        <time>2015-09-05T13:10:47Z</time>
      </trkpt>
      <trkpt lat="45.07627" lon="5.43018">
        <ele>1104.7</ele>
        <time>2015-09-05T13:10:49Z</time>
      </trkpt>
      <trkpt lat="45.07633" lon="5.43031">
        <ele>1103.6</ele>
        <time>2015-09-05T13:10:51Z</time>
      </trkpt>
      <trkpt lat="45.07635" lon="5.43045">
        <ele>1101.6</ele>
        <time>2015-09-05T13:10:54Z</time>
      </trkpt>
      <trkpt lat="45.07631" lon="5.43061">
        <ele>1099.5</ele>
        <time>2015-09-05T13:10:57Z</time>
      </trkpt>
      <trkpt lat="45.0763" lon="5.43076">
        <ele>1097.4</ele>
        <time>2015-09-05T13:11:00Z</time>
      </trkpt>
      <trkpt lat="45.07627" lon="5.4309">
        <ele>1094.7</ele>
        <time>2015-09-05T13:11:05Z</time>
      </trkpt>
      <trkpt lat="45.07621" lon="5.43105">
        <ele>1093.3</ele>
        <time>2015-09-05T13:11:08Z</time>
      </trkpt>
      <trkpt lat="45.07615" lon="5.43115">
        <ele>1092.5</ele>
        <time>2015-09-05T13:11:10Z</time>
      </trkpt>
      <trkpt lat="45.07607" lon="5.43122">
        <ele>1091.4</ele>
        <time>2015-09-05T13:11:12Z</time>
      </trkpt>
      <trkpt lat="45.07598" lon="5.43127">
        <ele>1090.5</ele>
        <time>2015-09-05T13:11:14Z</time>
      </trkpt>
      <trkpt lat="45.07585" lon="5.43135">
        <ele>1088.7</ele>
        <time>2015-09-05T13:11:17Z</time>
      </trkpt>
      <trkpt lat="45.07576" lon="5.4314">
        <ele>1087.4</ele>
        <time>2015-09-05T13:11:19Z</time>
      </trkpt>
      <trkpt lat="45.07567" lon="5.43147">
        <ele>1086</ele>
        <time>2015-09-05T13:11:21Z</time>
      </trkpt>
      <trkpt lat="45.0756" lon="5.43156">
        <ele>1084.1</ele>
        <time>2015-09-05T13:11:23Z</time>
      </trkpt>
      <trkpt lat="45.07555" lon="5.43169">
        <ele>1081.8</ele>
        <time>2015-09-05T13:11:26Z</time>
      </trkpt>
      <trkpt lat="45.07551" lon="5.43181">
        <ele>1072.5</ele>
        <time>2015-09-05T13:11:57Z</time>
      </trkpt>
      <trkpt lat="45.0755" lon="5.43197">
        <ele>1071.6</ele>
        <time>2015-09-05T13:12:03Z</time>
      </trkpt>
      <trkpt lat="45.07548" lon="5.4321">
        <ele>1070.9</ele>
        <time>2015-09-05T13:12:07Z</time>
      </trkpt>
      <trkpt lat="45.07547" lon="5.43227">
        <ele>1070.2</ele>
        <time>2015-09-05T13:12:11Z</time>
      </trkpt>
      <trkpt lat="45.07548" lon="5.43241">
        <ele>1069.7</ele>
        <time>2015-09-05T13:12:14Z</time>
      </trkpt>
      <trkpt lat="45.07546" lon="5.43256">
        <ele>1068.9</ele>
        <time>2015-09-05T13:12:18Z</time>
      </trkpt>
      <trkpt lat="45.07543" lon="5.43269">
        <ele>1068.1</ele>
        <time>2015-09-05T13:12:25Z</time>
      </trkpt>
      <trkpt lat="45.07535" lon="5.43276">
        <ele>1067.7</ele>
        <time>2015-09-05T13:12:32Z</time>
      </trkpt>
      <trkpt lat="45.07528" lon="5.43284">
        <ele>1067.6</ele>
        <time>2015-09-05T13:12:36Z</time>
      </trkpt>
      <trkpt lat="45.07523" lon="5.43297">
        <ele>1067.4</ele>
        <time>2015-09-05T13:12:40Z</time>
      </trkpt>
      <trkpt lat="45.07516" lon="5.43307">
        <ele>1067</ele>
        <time>2015-09-05T13:12:50Z</time>
      </trkpt>
      <trkpt lat="45.07507" lon="5.43313">
        <ele>1066.7</ele>
        <time>2015-09-05T13:12:55Z</time>
      </trkpt>
      <trkpt lat="45.075" lon="5.43324">
        <ele>1066.3</ele>
        <time>2015-09-05T13:12:58Z</time>
      </trkpt>
      <trkpt lat="45.07491" lon="5.43333">
        <ele>1065.9</ele>
        <time>2015-09-05T13:13:01Z</time>
      </trkpt>
      <trkpt lat="45.07482" lon="5.43343">
        <ele>1065.3</ele>
        <time>2015-09-05T13:13:05Z</time>
      </trkpt>
      <trkpt lat="45.07473" lon="5.43349">
        <ele>1064.5</ele>
        <time>2015-09-05T13:13:09Z</time>
      </trkpt>
      <trkpt lat="45.07463" lon="5.4335">
        <ele>1064</ele>
        <time>2015-09-05T13:13:12Z</time>
      </trkpt>
      <trkpt lat="45.07452" lon="5.43347">
        <ele>1063.2</ele>
        <time>2015-09-05T13:13:14Z</time>
      </trkpt>
      <trkpt lat="45.07439" lon="5.43347">
        <ele>1061.6</ele>
        <time>2015-09-05T13:13:16Z</time>
      </trkpt>
      <trkpt lat="45.07429" lon="5.43347">
        <ele>1060.7</ele>
        <time>2015-09-05T13:13:18Z</time>
      </trkpt>
      <trkpt lat="45.07418" lon="5.43348">
        <ele>1060.1</ele>
        <time>2015-09-05T13:13:20Z</time>
      </trkpt>
      <trkpt lat="45.07407" lon="5.43348">
        <ele>1059.2</ele>
        <time>2015-09-05T13:13:22Z</time>
      </trkpt>
      <trkpt lat="45.07397" lon="5.43352">
        <ele>1054.8</ele>
        <time>2015-09-05T13:13:38Z</time>
      </trkpt>
      <trkpt lat="45.07386" lon="5.43351">
        <ele>1053.8</ele>
        <time>2015-09-05T13:13:42Z</time>
      </trkpt>
      <trkpt lat="45.07375" lon="5.43353">
        <ele>1052.3</ele>
        <time>2015-09-05T13:13:45Z</time>
      </trkpt>
      <trkpt lat="45.07364" lon="5.43356">
        <ele>1051.1</ele>
        <time>2015-09-05T13:13:48Z</time>
      </trkpt>
      <trkpt lat="45.07354" lon="5.43354">
        <ele>1049.5</ele>
        <time>2015-09-05T13:13:51Z</time>
      </trkpt>
      <trkpt lat="45.07343" lon="5.43354">
        <ele>1047.1</ele>
        <time>2015-09-05T13:13:55Z</time>
      </trkpt>
      <trkpt lat="45.07334" lon="5.43356">
        <ele>1045</ele>
        <time>2015-09-05T13:13:58Z</time>
      </trkpt>
      <trkpt lat="45.07327" lon="5.43365">
        <ele>1043.1</ele>
        <time>2015-09-05T13:14:01Z</time>
      </trkpt>
      <trkpt lat="45.07324" lon="5.4338">
        <ele>1041.2</ele>
        <time>2015-09-05T13:14:04Z</time>
      </trkpt>
      <trkpt lat="45.0732" lon="5.43392">
        <ele>1039.7</ele>
        <time>2015-09-05T13:14:06Z</time>
      </trkpt>
      <trkpt lat="45.07314" lon="5.43407">
        <ele>1037.6</ele>
        <time>2015-09-05T13:14:09Z</time>
      </trkpt>
      <trkpt lat="45.07311" lon="5.43421">
        <ele>1035.6</ele>
        <time>2015-09-05T13:14:12Z</time>
      </trkpt>
      <trkpt lat="45.07305" lon="5.43434">
        <ele>1033.5</ele>
        <time>2015-09-05T13:14:15Z</time>
      </trkpt>
      <trkpt lat="45.073" lon="5.43445">
        <ele>1032.3</ele>
        <time>2015-09-05T13:14:17Z</time>
      </trkpt>
      <trkpt lat="45.07292" lon="5.43455">
        <ele>1030.4</ele>
        <time>2015-09-05T13:14:20Z</time>
      </trkpt>
      <trkpt lat="45.07283" lon="5.43459">
        <ele>1028.3</ele>
        <time>2015-09-05T13:14:23Z</time>
      </trkpt>
      <trkpt lat="45.07273" lon="5.43463">
        <ele>1026</ele>
        <time>2015-09-05T13:14:26Z</time>
      </trkpt>
      <trkpt lat="45.07262" lon="5.43468">
        <ele>1023.5</ele>
        <time>2015-09-05T13:14:29Z</time>
      </trkpt>
      <trkpt lat="45.07253" lon="5.43475">
        <ele>1020.3</ele>
        <time>2015-09-05T13:14:33Z</time>
      </trkpt>
      <trkpt lat="45.07245" lon="5.43483">
        <ele>1018</ele>
        <time>2015-09-05T13:14:36Z</time>
      </trkpt>
      <trkpt lat="45.07237" lon="5.43473">
        <ele>1014.8</ele>
        <time>2015-09-05T13:14:40Z</time>
      </trkpt>
      <trkpt lat="45.07237" lon="5.4349">
        <ele>1010.7</ele>
        <time>2015-09-05T13:14:46Z</time>
      </trkpt>
      <trkpt lat="45.07242" lon="5.43501">
        <ele>1008.5</ele>
        <time>2015-09-05T13:14:49Z</time>
      </trkpt>
      <trkpt lat="45.07247" lon="5.43517">
        <ele>1006.1</ele>
        <time>2015-09-05T13:14:52Z</time>
      </trkpt>
      <trkpt lat="45.07252" lon="5.43529">
        <ele>1004.6</ele>
        <time>2015-09-05T13:14:54Z</time>
      </trkpt>
      <trkpt lat="45.07258" lon="5.43543">
        <ele>1002.3</ele>
        <time>2015-09-05T13:14:57Z</time>
      </trkpt>
      <trkpt lat="45.0726" lon="5.43558">
        <ele>1000</ele>
        <time>2015-09-05T13:15:00Z</time>
      </trkpt>
      <trkpt lat="45.07262" lon="5.43572">
        <ele>996.8</ele>
        <time>2015-09-05T13:15:04Z</time>
      </trkpt>
      <trkpt lat="45.07263" lon="5.43585">
        <ele>994.6</ele>
        <time>2015-09-05T13:15:07Z</time>
      </trkpt>
      <trkpt lat="45.0726" lon="5.43603">
        <ele>990.7</ele>
        <time>2015-09-05T13:15:13Z</time>
      </trkpt>
      <trkpt lat="45.07265" lon="5.43616">
        <ele>989</ele>
        <time>2015-09-05T13:15:16Z</time>
      </trkpt>
      <trkpt lat="45.07266" lon="5.43629">
        <ele>987.2</ele>
        <time>2015-09-05T13:15:19Z</time>
      </trkpt>
      <trkpt lat="45.07264" lon="5.43644">
        <ele>985.5</ele>
        <time>2015-09-05T13:15:22Z</time>
      </trkpt>
      <trkpt lat="45.07256" lon="5.43658">
        <ele>983.8</ele>
        <time>2015-09-05T13:15:25Z</time>
      </trkpt>
      <trkpt lat="45.07248" lon="5.43671">
        <ele>981.7</ele>
        <time>2015-09-05T13:15:28Z</time>
      </trkpt>
      <trkpt lat="45.07244" lon="5.43684">
        <ele>980.4</ele>
        <time>2015-09-05T13:15:30Z</time>
      </trkpt>
      <trkpt lat="45.07237" lon="5.43694">
        <ele>978.2</ele>
        <time>2015-09-05T13:15:33Z</time>
      </trkpt>
      <trkpt lat="45.07236" lon="5.43708">
        <ele>976.5</ele>
        <time>2015-09-05T13:15:36Z</time>
      </trkpt>
      <trkpt lat="45.07238" lon="5.43722">
        <ele>975.3</ele>
        <time>2015-09-05T13:15:38Z</time>
      </trkpt>
      <trkpt lat="45.0724" lon="5.43741">
        <ele>973.5</ele>
        <time>2015-09-05T13:15:41Z</time>
      </trkpt>
      <trkpt lat="45.07245" lon="5.43756">
        <ele>971.8</ele>
        <time>2015-09-05T13:15:44Z</time>
      </trkpt>
      <trkpt lat="45.07248" lon="5.43769">
        <ele>966.8</ele>
        <time>2015-09-05T13:15:54Z</time>
      </trkpt>
      <trkpt lat="45.07251" lon="5.43785">
        <ele>965.6</ele>
        <time>2015-09-05T13:15:57Z</time>
      </trkpt>
      <trkpt lat="45.07252" lon="5.43799">
        <ele>964.4</ele>
        <time>2015-09-05T13:16:00Z</time>
      </trkpt>
      <trkpt lat="45.07258" lon="5.43815">
        <ele>962.8</ele>
        <time>2015-09-05T13:16:04Z</time>
      </trkpt>
      <trkpt lat="45.07262" lon="5.4383">
        <ele>961.5</ele>
        <time>2015-09-05T13:16:07Z</time>
      </trkpt>
      <trkpt lat="45.07264" lon="5.43847">
        <ele>959.9</ele>
        <time>2015-09-05T13:16:10Z</time>
      </trkpt>
      <trkpt lat="45.07271" lon="5.43862">
        <ele>958</ele>
        <time>2015-09-05T13:16:13Z</time>
      </trkpt>
      <trkpt lat="45.07274" lon="5.43875">
        <ele>956.4</ele>
        <time>2015-09-05T13:16:16Z</time>
      </trkpt>
      <trkpt lat="45.07282" lon="5.43886">
        <ele>953.5</ele>
        <time>2015-09-05T13:16:22Z</time>
      </trkpt>
      <trkpt lat="45.07292" lon="5.4389">
        <ele>951.4</ele>
        <time>2015-09-05T13:16:25Z</time>
      </trkpt>
      <trkpt lat="45.073" lon="5.43897">
        <ele>949.5</ele>
        <time>2015-09-05T13:16:28Z</time>
      </trkpt>
      <trkpt lat="45.07302" lon="5.43913">
        <ele>947.7</ele>
        <time>2015-09-05T13:16:31Z</time>
      </trkpt>
      <trkpt lat="45.07308" lon="5.43925">
        <ele>945.8</ele>
        <time>2015-09-05T13:16:34Z</time>
      </trkpt>
      <trkpt lat="45.07317" lon="5.43939">
        <ele>943.7</ele>
        <time>2015-09-05T13:16:37Z</time>
      </trkpt>
      <trkpt lat="45.07323" lon="5.43951">
        <ele>942.5</ele>
        <time>2015-09-05T13:16:39Z</time>
      </trkpt>
      <trkpt lat="45.07328" lon="5.43963">
        <ele>941.3</ele>
        <time>2015-09-05T13:16:41Z</time>
      </trkpt>
      <trkpt lat="45.07338" lon="5.43975">
        <ele>939.5</ele>
        <time>2015-09-05T13:16:44Z</time>
      </trkpt>
      <trkpt lat="45.07344" lon="5.43988">
        <ele>938.4</ele>
        <time>2015-09-05T13:16:46Z</time>
      </trkpt>
      <trkpt lat="45.07349" lon="5.44006">
        <ele>937.2</ele>
        <time>2015-09-05T13:16:48Z</time>
      </trkpt>
      <trkpt lat="45.07353" lon="5.44021">
        <ele>936.1</ele>
        <time>2015-09-05T13:16:50Z</time>
      </trkpt>
      <trkpt lat="45.07356" lon="5.44035">
        <ele>934.9</ele>
        <time>2015-09-05T13:16:52Z</time>
      </trkpt>
      <trkpt lat="45.07359" lon="5.44047">
        <ele>933.2</ele>
        <time>2015-09-05T13:16:55Z</time>
      </trkpt>
      <trkpt lat="45.07359" lon="5.44064">
        <ele>930.3</ele>
        <time>2015-09-05T13:16:59Z</time>
      </trkpt>
      <trkpt lat="45.07361" lon="5.44081">
        <ele>928.5</ele>
        <time>2015-09-05T13:17:02Z</time>
      </trkpt>
      <trkpt lat="45.07364" lon="5.44093">
        <ele>926.7</ele>
        <time>2015-09-05T13:17:05Z</time>
      </trkpt>
      <trkpt lat="45.07365" lon="5.44112">
        <ele>924.1</ele>
        <time>2015-09-05T13:17:09Z</time>
      </trkpt>
      <trkpt lat="45.07368" lon="5.44127">
        <ele>922</ele>
        <time>2015-09-05T13:17:12Z</time>
      </trkpt>
      <trkpt lat="45.07372" lon="5.44139">
        <ele>920.6</ele>
        <time>2015-09-05T13:17:14Z</time>
      </trkpt>
      <trkpt lat="45.07377" lon="5.4415">
        <ele>919</ele>
        <time>2015-09-05T13:17:16Z</time>
      </trkpt>
      <trkpt lat="45.07379" lon="5.44162">
        <ele>916.4</ele>
        <time>2015-09-05T13:17:19Z</time>
      </trkpt>
      <trkpt lat="45.07379" lon="5.44176">
        <ele>914.7</ele>
        <time>2015-09-05T13:17:21Z</time>
      </trkpt>
      <trkpt lat="45.07378" lon="5.4419">
        <ele>913</ele>
        <time>2015-09-05T13:17:23Z</time>
      </trkpt>
      <trkpt lat="45.07377" lon="5.44205">
        <ele>910.9</ele>
        <time>2015-09-05T13:17:25Z</time>
      </trkpt>
      <trkpt lat="45.07379" lon="5.44225">
        <ele>908.8</ele>
        <time>2015-09-05T13:17:27Z</time>
      </trkpt>
      <trkpt lat="45.07382" lon="5.4424">
        <ele>906.9</ele>
        <time>2015-09-05T13:17:29Z</time>
      </trkpt>
      <trkpt lat="45.07384" lon="5.44257">
        <ele>905.2</ele>
        <time>2015-09-05T13:17:31Z</time>
      </trkpt>
      <trkpt lat="45.07388" lon="5.44272">
        <ele>903.5</ele>
        <time>2015-09-05T13:17:33Z</time>
      </trkpt>
      <trkpt lat="45.07393" lon="5.44283">
        <ele>901.6</ele>
        <time>2015-09-05T13:17:35Z</time>
      </trkpt>
      <trkpt lat="45.07397" lon="5.44295">
        <ele>899.7</ele>
        <time>2015-09-05T13:17:37Z</time>
      </trkpt>
      <trkpt lat="45.07403" lon="5.44307">
        <ele>896.8</ele>
        <time>2015-09-05T13:17:40Z</time>
      </trkpt>
      <trkpt lat="45.07408" lon="5.44323">
        <ele>894.1</ele>
        <time>2015-09-05T13:17:43Z</time>
      </trkpt>
      <trkpt lat="45.07416" lon="5.44332">
        <ele>891.3</ele>
        <time>2015-09-05T13:17:46Z</time>
      </trkpt>
      <trkpt lat="45.07424" lon="5.44344">
        <ele>888.9</ele>
        <time>2015-09-05T13:17:49Z</time>
      </trkpt>
      <trkpt lat="45.07428" lon="5.4436">
        <ele>886.4</ele>
        <time>2015-09-05T13:17:52Z</time>
      </trkpt>
      <trkpt lat="45.07432" lon="5.44374">
        <ele>884.2</ele>
        <time>2015-09-05T13:17:55Z</time>
      </trkpt>
      <trkpt lat="45.0744" lon="5.44385">
        <ele>882</ele>
        <time>2015-09-05T13:17:58Z</time>
      </trkpt>
      <trkpt lat="45.07443" lon="5.44403">
        <ele>879.7</ele>
        <time>2015-09-05T13:18:01Z</time>
      </trkpt>
      <trkpt lat="45.07448" lon="5.44416">
        <ele>877.5</ele>
        <time>2015-09-05T13:18:04Z</time>
      </trkpt>
      <trkpt lat="45.07454" lon="5.4443">
        <ele>875.4</ele>
        <time>2015-09-05T13:18:07Z</time>
      </trkpt>
      <trkpt lat="45.07459" lon="5.44445">
        <ele>873</ele>
        <time>2015-09-05T13:18:10Z</time>
      </trkpt>
      <trkpt lat="45.07462" lon="5.44461">
        <ele>871.5</ele>
        <time>2015-09-05T13:18:12Z</time>
      </trkpt>
      <trkpt lat="45.07467" lon="5.44478">
        <ele>870</ele>
        <time>2015-09-05T13:18:14Z</time>
      </trkpt>
      <trkpt lat="45.07471" lon="5.44499">
        <ele>868.6</ele>
        <time>2015-09-05T13:18:16Z</time>
      </trkpt>
      <trkpt lat="45.0748" lon="5.44513">
        <ele>867.3</ele>
        <time>2015-09-05T13:18:18Z</time>
      </trkpt>
      <trkpt lat="45.07492" lon="5.44521">
        <ele>866</ele>
        <time>2015-09-05T13:18:20Z</time>
      </trkpt>
      <trkpt lat="45.075" lon="5.44529">
        <ele>864.8</ele>
        <time>2015-09-05T13:18:22Z</time>
      </trkpt>
      <trkpt lat="45.07512" lon="5.44537">
        <ele>863.5</ele>
        <time>2015-09-05T13:18:24Z</time>
      </trkpt>
      <trkpt lat="45.07523" lon="5.44552">
        <ele>861.9</ele>
        <time>2015-09-05T13:18:26Z</time>
      </trkpt>
      <trkpt lat="45.07535" lon="5.44568">
        <ele>860.4</ele>
        <time>2015-09-05T13:18:28Z</time>
      </trkpt>
      <trkpt lat="45.07547" lon="5.44578">
        <ele>859.2</ele>
        <time>2015-09-05T13:18:30Z</time>
      </trkpt>
      <trkpt lat="45.07554" lon="5.44585">
        <ele>858</ele>
        <time>2015-09-05T13:18:32Z</time>
      </trkpt>
      <trkpt lat="45.07567" lon="5.4459">
        <ele>856.1</ele>
        <time>2015-09-05T13:18:35Z</time>
      </trkpt>
      <trkpt lat="45.07577" lon="5.44593">
        <ele>854.5</ele>
        <time>2015-09-05T13:18:38Z</time>
      </trkpt>
      <trkpt lat="45.07588" lon="5.446">
        <ele>852.7</ele>
        <time>2015-09-05T13:18:42Z</time>
      </trkpt>
      <trkpt lat="45.07597" lon="5.44605">
        <ele>851.6</ele>
        <time>2015-09-05T13:18:44Z</time>
      </trkpt>
      <trkpt lat="45.07605" lon="5.44621">
        <ele>850</ele>
        <time>2015-09-05T13:18:47Z</time>
      </trkpt>
      <trkpt lat="45.07612" lon="5.44632">
        <ele>849</ele>
        <time>2015-09-05T13:18:49Z</time>
      </trkpt>
      <trkpt lat="45.07616" lon="5.44648">
        <ele>847.9</ele>
        <time>2015-09-05T13:18:51Z</time>
      </trkpt>
      <trkpt lat="45.07622" lon="5.44659">
        <ele>846.8</ele>
        <time>2015-09-05T13:18:53Z</time>
      </trkpt>
      <trkpt lat="45.07626" lon="5.44674">
        <ele>845.6</ele>
        <time>2015-09-05T13:18:55Z</time>
      </trkpt>
      <trkpt lat="45.07632" lon="5.44689">
        <ele>844.3</ele>
        <time>2015-09-05T13:18:57Z</time>
      </trkpt>
      <trkpt lat="45.07636" lon="5.44705">
        <ele>843.1</ele>
        <time>2015-09-05T13:18:59Z</time>
      </trkpt>
      <trkpt lat="45.07642" lon="5.44718">
        <ele>841.3</ele>
        <time>2015-09-05T13:19:02Z</time>
      </trkpt>
      <trkpt lat="45.07651" lon="5.44726">
        <ele>839.5</ele>
        <time>2015-09-05T13:19:06Z</time>
      </trkpt>
      <trkpt lat="45.07661" lon="5.44735">
        <ele>838</ele>
        <time>2015-09-05T13:19:10Z</time>
      </trkpt>
      <trkpt lat="45.07672" lon="5.44741">
        <ele>836.9</ele>
        <time>2015-09-05T13:19:14Z</time>
      </trkpt>
      <trkpt lat="45.07685" lon="5.44744">
        <ele>835.8</ele>
        <time>2015-09-05T13:19:18Z</time>
      </trkpt>
      <trkpt lat="45.07695" lon="5.44747">
        <ele>835.2</ele>
        <time>2015-09-05T13:19:20Z</time>
      </trkpt>
      <trkpt lat="45.07707" lon="5.44748">
        <ele>834.4</ele>
        <time>2015-09-05T13:19:23Z</time>
      </trkpt>
      <trkpt lat="45.07717" lon="5.44754">
        <ele>833.5</ele>
        <time>2015-09-05T13:19:26Z</time>
      </trkpt>
      <trkpt lat="45.07725" lon="5.44762">
        <ele>832.8</ele>
        <time>2015-09-05T13:19:29Z</time>
      </trkpt>
      <trkpt lat="45.07735" lon="5.4476">
        <ele>832.1</ele>
        <time>2015-09-05T13:19:32Z</time>
      </trkpt>
      <trkpt lat="45.07746" lon="5.44759">
        <ele>831.4</ele>
        <time>2015-09-05T13:19:36Z</time>
      </trkpt>
      <trkpt lat="45.07756" lon="5.44761">
        <ele>831</ele>
        <time>2015-09-05T13:19:39Z</time>
      </trkpt>
      <trkpt lat="45.07764" lon="5.44768">
        <ele>830.5</ele>
        <time>2015-09-05T13:19:42Z</time>
      </trkpt>
      <trkpt lat="45.07771" lon="5.44777">
        <ele>830.1</ele>
        <time>2015-09-05T13:19:45Z</time>
      </trkpt>
      <trkpt lat="45.07778" lon="5.4479">
        <ele>829.6</ele>
        <time>2015-09-05T13:19:48Z</time>
      </trkpt>
      <trkpt lat="45.07787" lon="5.44803">
        <ele>829.3</ele>
        <time>2015-09-05T13:19:50Z</time>
      </trkpt>
      <trkpt lat="45.07792" lon="5.44818">
        <ele>826.2</ele>
        <time>2015-09-05T13:19:54Z</time>
      </trkpt>
      <trkpt lat="45.07799" lon="5.44833">
        <ele>826.2</ele>
        <time>2015-09-05T13:19:58Z</time>
      </trkpt>
      <trkpt lat="45.07809" lon="5.44841">
        <ele>826.1</ele>
        <time>2015-09-05T13:20:01Z</time>
      </trkpt>
      <trkpt lat="45.07818" lon="5.44851">
        <ele>825.9</ele>
        <time>2015-09-05T13:20:04Z</time>
      </trkpt>
      <trkpt lat="45.07826" lon="5.44863">
        <ele>825.8</ele>
        <time>2015-09-05T13:20:07Z</time>
      </trkpt>
      <trkpt lat="45.07834" lon="5.44871">
        <ele>825.8</ele>
        <time>2015-09-05T13:20:10Z</time>
      </trkpt>
      <trkpt lat="45.07842" lon="5.44882">
        <ele>825.9</ele>
        <time>2015-09-05T13:20:14Z</time>
      </trkpt>
      <trkpt lat="45.07841" lon="5.44895">
        <ele>825.8</ele>
        <time>2015-09-05T13:20:18Z</time>
      </trkpt>
      <trkpt lat="45.07847" lon="5.44905">
        <ele>825</ele>
        <time>2015-09-05T13:20:23Z</time>
      </trkpt>
      <trkpt lat="45.0785" lon="5.44919">
        <ele>824.1</ele>
        <time>2015-09-05T13:20:27Z</time>
      </trkpt>
      <trkpt lat="45.07855" lon="5.4493">
        <ele>823</ele>
        <time>2015-09-05T13:20:31Z</time>
      </trkpt>
      <trkpt lat="45.07863" lon="5.44938">
        <ele>822.1</ele>
        <time>2015-09-05T13:20:34Z</time>
      </trkpt>
      <trkpt lat="45.0787" lon="5.44948">
        <ele>821.2</ele>
        <time>2015-09-05T13:20:36Z</time>
      </trkpt>
      <trkpt lat="45.07877" lon="5.44959">
        <ele>820.4</ele>
        <time>2015-09-05T13:20:38Z</time>
      </trkpt>
      <trkpt lat="45.07883" lon="5.44972">
        <ele>819.1</ele>
        <time>2015-09-05T13:20:41Z</time>
      </trkpt>
      <trkpt lat="45.07886" lon="5.44985">
        <ele>818.3</ele>
        <time>2015-09-05T13:20:43Z</time>
      </trkpt>
      <trkpt lat="45.0789" lon="5.45">
        <ele>817.5</ele>
        <time>2015-09-05T13:20:45Z</time>
      </trkpt>
      <trkpt lat="45.07893" lon="5.45013">
        <ele>816.5</ele>
        <time>2015-09-05T13:20:47Z</time>
      </trkpt>
      <trkpt lat="45.07896" lon="5.45026">
        <ele>815.4</ele>
        <time>2015-09-05T13:20:49Z</time>
      </trkpt>
      <trkpt lat="45.07901" lon="5.45045">
        <ele>813.6</ele>
        <time>2015-09-05T13:20:51Z</time>
      </trkpt>
      <trkpt lat="45.07905" lon="5.45057">
        <ele>812.1</ele>
        <time>2015-09-05T13:20:53Z</time>
      </trkpt>
      <trkpt lat="45.0791" lon="5.45071">
        <ele>810.8</ele>
        <time>2015-09-05T13:20:55Z</time>
      </trkpt>
      <trkpt lat="45.07917" lon="5.45092">
        <ele>809.5</ele>
        <time>2015-09-05T13:20:57Z</time>
      </trkpt>
      <trkpt lat="45.07923" lon="5.45107">
        <ele>808.2</ele>
        <time>2015-09-05T13:20:59Z</time>
      </trkpt>
      <trkpt lat="45.07928" lon="5.45121">
        <ele>806.3</ele>
        <time>2015-09-05T13:21:02Z</time>
      </trkpt>
      <trkpt lat="45.07935" lon="5.4513">
        <ele>805.1</ele>
        <time>2015-09-05T13:21:04Z</time>
      </trkpt>
      <trkpt lat="45.07945" lon="5.45141">
        <ele>803.1</ele>
        <time>2015-09-05T13:21:07Z</time>
      </trkpt>
      <trkpt lat="45.07953" lon="5.4515">
        <ele>801.9</ele>
        <time>2015-09-05T13:21:09Z</time>
      </trkpt>
      <trkpt lat="45.07961" lon="5.4516">
        <ele>800.7</ele>
        <time>2015-09-05T13:21:11Z</time>
      </trkpt>
      <trkpt lat="45.07969" lon="5.45169">
        <ele>799.5</ele>
        <time>2015-09-05T13:21:13Z</time>
      </trkpt>
      <trkpt lat="45.07978" lon="5.45182">
        <ele>797.6</ele>
        <time>2015-09-05T13:21:16Z</time>
      </trkpt>
      <trkpt lat="45.07987" lon="5.45193">
        <ele>795.8</ele>
        <time>2015-09-05T13:21:19Z</time>
      </trkpt>
      <trkpt lat="45.07999" lon="5.45202">
        <ele>793.8</ele>
        <time>2015-09-05T13:21:22Z</time>
      </trkpt>
      <trkpt lat="45.08007" lon="5.45211">
        <ele>792.5</ele>
        <time>2015-09-05T13:21:24Z</time>
      </trkpt>
      <trkpt lat="45.08012" lon="5.45223">
        <ele>790.7</ele>
        <time>2015-09-05T13:21:27Z</time>
      </trkpt>
      <trkpt lat="45.08017" lon="5.4524">
        <ele>789.1</ele>
        <time>2015-09-05T13:21:30Z</time>
      </trkpt>
      <trkpt lat="45.08022" lon="5.45252">
        <ele>787.8</ele>
        <time>2015-09-05T13:21:32Z</time>
      </trkpt>
      <trkpt lat="45.08026" lon="5.45266">
        <ele>786.7</ele>
        <time>2015-09-05T13:21:34Z</time>
      </trkpt>
      <trkpt lat="45.08032" lon="5.4528">
        <ele>785.4</ele>
        <time>2015-09-05T13:21:36Z</time>
      </trkpt>
      <trkpt lat="45.08039" lon="5.45298">
        <ele>784.2</ele>
        <time>2015-09-05T13:21:38Z</time>
      </trkpt>
      <trkpt lat="45.08043" lon="5.45316">
        <ele>783.1</ele>
        <time>2015-09-05T13:21:40Z</time>
      </trkpt>
      <trkpt lat="45.08047" lon="5.45328">
        <ele>781.9</ele>
        <time>2015-09-05T13:21:42Z</time>
      </trkpt>
      <trkpt lat="45.08054" lon="5.4534">
        <ele>781</ele>
        <time>2015-09-05T13:21:44Z</time>
      </trkpt>
      <trkpt lat="45.08061" lon="5.45353">
        <ele>779.8</ele>
        <time>2015-09-05T13:21:46Z</time>
      </trkpt>
      <trkpt lat="45.0807" lon="5.45363">
        <ele>777.8</ele>
        <time>2015-09-05T13:21:50Z</time>
      </trkpt>
      <trkpt lat="45.08078" lon="5.45372">
        <ele>776</ele>
        <time>2015-09-05T13:21:53Z</time>
      </trkpt>
      <trkpt lat="45.08085" lon="5.45381">
        <ele>774.9</ele>
        <time>2015-09-05T13:21:55Z</time>
      </trkpt>
      <trkpt lat="45.08094" lon="5.45392">
        <ele>773.8</ele>
        <time>2015-09-05T13:21:57Z</time>
      </trkpt>
      <trkpt lat="45.08103" lon="5.45402">
        <ele>772.6</ele>
        <time>2015-09-05T13:21:59Z</time>
      </trkpt>
      <trkpt lat="45.08114" lon="5.45415">
        <ele>771.2</ele>
        <time>2015-09-05T13:22:01Z</time>
      </trkpt>
      <trkpt lat="45.08124" lon="5.45429">
        <ele>769.4</ele>
        <time>2015-09-05T13:22:03Z</time>
      </trkpt>
      <trkpt lat="45.08131" lon="5.4544">
        <ele>768.2</ele>
        <time>2015-09-05T13:22:05Z</time>
      </trkpt>
      <trkpt lat="45.08137" lon="5.45453">
        <ele>766.7</ele>
        <time>2015-09-05T13:22:07Z</time>
      </trkpt>
      <trkpt lat="45.08145" lon="5.45468">
        <ele>765.6</ele>
        <time>2015-09-05T13:22:09Z</time>
      </trkpt>
      <trkpt lat="45.08154" lon="5.45481">
        <ele>763.5</ele>
        <time>2015-09-05T13:22:12Z</time>
      </trkpt>
      <trkpt lat="45.08162" lon="5.45494">
        <ele>761.6</ele>
        <time>2015-09-05T13:22:15Z</time>
      </trkpt>
      <trkpt lat="45.08172" lon="5.45506">
        <ele>760.2</ele>
        <time>2015-09-05T13:22:17Z</time>
      </trkpt>
      <trkpt lat="45.08181" lon="5.45516">
        <ele>758.8</ele>
        <time>2015-09-05T13:22:19Z</time>
      </trkpt>
      <trkpt lat="45.0819" lon="5.45526">
        <ele>757.5</ele>
        <time>2015-09-05T13:22:21Z</time>
      </trkpt>
      <trkpt lat="45.082" lon="5.45536">
        <ele>756.2</ele>
        <time>2015-09-05T13:22:23Z</time>
      </trkpt>
      <trkpt lat="45.0821" lon="5.45544">
        <ele>754.8</ele>
        <time>2015-09-05T13:22:25Z</time>
      </trkpt>
      <trkpt lat="45.08218" lon="5.45552">
        <ele>753.5</ele>
        <time>2015-09-05T13:22:27Z</time>
      </trkpt>
      <trkpt lat="45.08226" lon="5.4556">
        <ele>751.3</ele>
        <time>2015-09-05T13:22:30Z</time>
      </trkpt>
      <trkpt lat="45.08235" lon="5.45571">
        <ele>749.8</ele>
        <time>2015-09-05T13:22:32Z</time>
      </trkpt>
      <trkpt lat="45.08244" lon="5.45582">
        <ele>747.4</ele>
        <time>2015-09-05T13:22:35Z</time>
      </trkpt>
      <trkpt lat="45.0825" lon="5.45592">
        <ele>745.4</ele>
        <time>2015-09-05T13:22:37Z</time>
      </trkpt>
      <trkpt lat="45.08259" lon="5.45602">
        <ele>743.3</ele>
        <time>2015-09-05T13:22:40Z</time>
      </trkpt>
      <trkpt lat="45.08268" lon="5.45611">
        <ele>741.4</ele>
        <time>2015-09-05T13:22:43Z</time>
      </trkpt>
      <trkpt lat="45.08279" lon="5.45619">
        <ele>739</ele>
        <time>2015-09-05T13:22:46Z</time>
      </trkpt>
      <trkpt lat="45.08292" lon="5.45626">
        <ele>737.7</ele>
        <time>2015-09-05T13:22:49Z</time>
      </trkpt>
      <trkpt lat="45.08303" lon="5.45636">
        <ele>736.5</ele>
        <time>2015-09-05T13:22:51Z</time>
      </trkpt>
      <trkpt lat="45.08314" lon="5.45642">
        <ele>735.4</ele>
        <time>2015-09-05T13:22:53Z</time>
      </trkpt>
      <trkpt lat="45.08325" lon="5.45647">
        <ele>734.3</ele>
        <time>2015-09-05T13:22:55Z</time>
      </trkpt>
      <trkpt lat="45.08336" lon="5.45656">
        <ele>733.1</ele>
        <time>2015-09-05T13:22:57Z</time>
      </trkpt>
      <trkpt lat="45.08345" lon="5.45666">
        <ele>731.9</ele>
        <time>2015-09-05T13:22:59Z</time>
      </trkpt>
      <trkpt lat="45.08352" lon="5.45676">
        <ele>730.9</ele>
        <time>2015-09-05T13:23:01Z</time>
      </trkpt>
      <trkpt lat="45.08362" lon="5.45684">
        <ele>729</ele>
        <time>2015-09-05T13:23:04Z</time>
      </trkpt>
      <trkpt lat="45.08372" lon="5.45688">
        <ele>728</ele>
        <time>2015-09-05T13:23:06Z</time>
      </trkpt>
      <trkpt lat="45.08384" lon="5.4569">
        <ele>726.8</ele>
        <time>2015-09-05T13:23:08Z</time>
      </trkpt>
      <trkpt lat="45.08392" lon="5.45697">
        <ele>725.7</ele>
        <time>2015-09-05T13:23:10Z</time>
      </trkpt>
      <trkpt lat="45.084" lon="5.45705">
        <ele>724.8</ele>
        <time>2015-09-05T13:23:12Z</time>
      </trkpt>
      <trkpt lat="45.08409" lon="5.45712">
        <ele>723.9</ele>
        <time>2015-09-05T13:23:14Z</time>
      </trkpt>
      <trkpt lat="45.08418" lon="5.45724">
        <ele>722.1</ele>
        <time>2015-09-05T13:23:17Z</time>
      </trkpt>
      <trkpt lat="45.08427" lon="5.45738">
        <ele>720.5</ele>
        <time>2015-09-05T13:23:20Z</time>
      </trkpt>
      <trkpt lat="45.08434" lon="5.45747">
        <ele>719.3</ele>
        <time>2015-09-05T13:23:22Z</time>
      </trkpt>
      <trkpt lat="45.08439" lon="5.45758">
        <ele>718.2</ele>
        <time>2015-09-05T13:23:24Z</time>
      </trkpt>
      <trkpt lat="45.08447" lon="5.45766">
        <ele>717.3</ele>
        <time>2015-09-05T13:23:26Z</time>
      </trkpt>
      <trkpt lat="45.08457" lon="5.45772">
        <ele>716.3</ele>
        <time>2015-09-05T13:23:28Z</time>
      </trkpt>
      <trkpt lat="45.08466" lon="5.4578">
        <ele>714.6</ele>
        <time>2015-09-05T13:23:31Z</time>
      </trkpt>
      <trkpt lat="45.08475" lon="5.45784">
        <ele>712.3</ele>
        <time>2015-09-05T13:23:36Z</time>
      </trkpt>
      <trkpt lat="45.08485" lon="5.45786">
        <ele>710.3</ele>
        <time>2015-09-05T13:23:41Z</time>
      </trkpt>
      <trkpt lat="45.08493" lon="5.45792">
        <ele>709.4</ele>
        <time>2015-09-05T13:23:44Z</time>
      </trkpt>
      <trkpt lat="45.08499" lon="5.45807">
        <ele>708.4</ele>
        <time>2015-09-05T13:23:47Z</time>
      </trkpt>
      <trkpt lat="45.08502" lon="5.45825">
        <ele>707.7</ele>
        <time>2015-09-05T13:23:49Z</time>
      </trkpt>
      <trkpt lat="45.08506" lon="5.45841">
        <ele>706.8</ele>
        <time>2015-09-05T13:23:51Z</time>
      </trkpt>
      <trkpt lat="45.08508" lon="5.45855">
        <ele>705.9</ele>
        <time>2015-09-05T13:23:53Z</time>
      </trkpt>
      <trkpt lat="45.08509" lon="5.45873">
        <ele>704.5</ele>
        <time>2015-09-05T13:23:56Z</time>
      </trkpt>
      <trkpt lat="45.08503" lon="5.45887">
        <ele>702.7</ele>
        <time>2015-09-05T13:23:59Z</time>
      </trkpt>
      <trkpt lat="45.08497" lon="5.45896">
        <ele>699.3</ele>
        <time>2015-09-05T13:24:04Z</time>
      </trkpt>
      <trkpt lat="45.08486" lon="5.45897">
        <ele>694.4</ele>
        <time>2015-09-05T13:24:11Z</time>
      </trkpt>
      <trkpt lat="45.08476" lon="5.45889">
        <ele>692.3</ele>
        <time>2015-09-05T13:24:14Z</time>
      </trkpt>
      <trkpt lat="45.08469" lon="5.45881">
        <ele>690.5</ele>
        <time>2015-09-05T13:24:16Z</time>
      </trkpt>
      <trkpt lat="45.0846" lon="5.45875">
        <ele>688.9</ele>
        <time>2015-09-05T13:24:18Z</time>
      </trkpt>
      <trkpt lat="45.0845" lon="5.4587">
        <ele>687.3</ele>
        <time>2015-09-05T13:24:20Z</time>
      </trkpt>
      <trkpt lat="45.08442" lon="5.45865">
        <ele>685.7</ele>
        <time>2015-09-05T13:24:22Z</time>
      </trkpt>
      <trkpt lat="45.08435" lon="5.45854">
        <ele>683.2</ele>
        <time>2015-09-05T13:24:25Z</time>
      </trkpt>
      <trkpt lat="45.08427" lon="5.45847">
        <ele>680.6</ele>
        <time>2015-09-05T13:24:28Z</time>
      </trkpt>
      <trkpt lat="45.0843" lon="5.45861">
        <ele>674.4</ele>
        <time>2015-09-05T13:24:36Z</time>
      </trkpt>
      <trkpt lat="45.08435" lon="5.45872">
        <ele>671.5</ele>
        <time>2015-09-05T13:24:40Z</time>
      </trkpt>
      <trkpt lat="45.0844" lon="5.45883">
        <ele>669.4</ele>
        <time>2015-09-05T13:24:43Z</time>
      </trkpt>
      <trkpt lat="45.08447" lon="5.45894">
        <ele>666.8</ele>
        <time>2015-09-05T13:24:47Z</time>
      </trkpt>
      <trkpt lat="45.08453" lon="5.45906">
        <ele>663.6</ele>
        <time>2015-09-05T13:24:52Z</time>
      </trkpt>
      <trkpt lat="45.0846" lon="5.45915">
        <ele>654.5</ele>
        <time>2015-09-05T13:25:25Z</time>
      </trkpt>
      <trkpt lat="45.08459" lon="5.45929">
        <ele>654.4</ele>
        <time>2015-09-05T13:25:27Z</time>
      </trkpt>
      <trkpt lat="45.08467" lon="5.45935">
        <ele>654.6</ele>
        <time>2015-09-05T13:25:32Z</time>
      </trkpt>
      <trkpt lat="45.08473" lon="5.45946">
        <ele>654.5</ele>
        <time>2015-09-05T13:25:36Z</time>
      </trkpt>
      <trkpt lat="45.08485" lon="5.45953">
        <ele>654.5</ele>
        <time>2015-09-05T13:25:38Z</time>
      </trkpt>
      <trkpt lat="45.08492" lon="5.45962">
        <ele>654.5</ele>
        <time>2015-09-05T13:25:40Z</time>
      </trkpt>
      <trkpt lat="45.085" lon="5.45969">
        <ele>654.5</ele>
        <time>2015-09-05T13:25:43Z</time>
      </trkpt>
      <trkpt lat="45.08505" lon="5.45982">
        <ele>654.5</ele>
        <time>2015-09-05T13:25:48Z</time>
      </trkpt>
      <trkpt lat="45.08513" lon="5.45991">
        <ele>654.5</ele>
        <time>2015-09-05T13:25:52Z</time>
      </trkpt>
      <trkpt lat="45.08522" lon="5.45997">
        <ele>654.5</ele>
        <time>2015-09-05T13:25:54Z</time>
      </trkpt>
      <trkpt lat="45.0853" lon="5.46003">
        <ele>654.5</ele>
        <time>2015-09-05T13:25:56Z</time>
      </trkpt>
      <trkpt lat="45.08542" lon="5.4601">
        <ele>654.5</ele>
        <time>2015-09-05T13:25:59Z</time>
      </trkpt>
      <trkpt lat="45.08554" lon="5.46016">
        <ele>654.5</ele>
        <time>2015-09-05T13:26:02Z</time>
      </trkpt>
      <trkpt lat="45.08564" lon="5.46019">
        <ele>654.5</ele>
        <time>2015-09-05T13:26:05Z</time>
      </trkpt>
      <trkpt lat="45.08574" lon="5.46022">
        <ele>655.8</ele>
        <time>2015-09-05T13:26:08Z</time>
      </trkpt>
      <trkpt lat="45.08584" lon="5.46031">
        <ele>655.8</ele>
        <time>2015-09-05T13:26:11Z</time>
      </trkpt>
      <trkpt lat="45.08593" lon="5.46035">
        <ele>655.8</ele>
        <time>2015-09-05T13:26:14Z</time>
      </trkpt>
      <trkpt lat="45.08602" lon="5.46042">
        <ele>655.7</ele>
        <time>2015-09-05T13:26:17Z</time>
      </trkpt>
      <trkpt lat="45.08611" lon="5.46049">
        <ele>655.7</ele>
        <time>2015-09-05T13:26:20Z</time>
      </trkpt>
      <trkpt lat="45.08619" lon="5.46056">
        <ele>655.7</ele>
        <time>2015-09-05T13:26:23Z</time>
      </trkpt>
      <trkpt lat="45.08626" lon="5.46067">
        <ele>655.6</ele>
        <time>2015-09-05T13:26:26Z</time>
      </trkpt>
      <trkpt lat="45.08633" lon="5.46079">
        <ele>655.6</ele>
        <time>2015-09-05T13:26:29Z</time>
      </trkpt>
      <trkpt lat="45.08637" lon="5.46094">
        <ele>655.6</ele>
        <time>2015-09-05T13:26:33Z</time>
      </trkpt>
      <trkpt lat="45.08642" lon="5.46106">
        <ele>655.7</ele>
        <time>2015-09-05T13:26:36Z</time>
      </trkpt>
      <trkpt lat="45.08649" lon="5.46119">
        <ele>655.7</ele>
        <time>2015-09-05T13:26:40Z</time>
      </trkpt>
      <trkpt lat="45.08657" lon="5.46131">
        <ele>655.8</ele>
        <time>2015-09-05T13:26:43Z</time>
      </trkpt>
      <trkpt lat="45.08664" lon="5.46143">
        <ele>655.8</ele>
        <time>2015-09-05T13:26:46Z</time>
      </trkpt>
      <trkpt lat="45.08669" lon="5.46157">
        <ele>655.9</ele>
        <time>2015-09-05T13:26:49Z</time>
      </trkpt>
      <trkpt lat="45.08673" lon="5.46173">
        <ele>655.9</ele>
        <time>2015-09-05T13:26:52Z</time>
      </trkpt>
      <trkpt lat="45.08675" lon="5.46189">
        <ele>655.9</ele>
        <time>2015-09-05T13:26:55Z</time>
      </trkpt>
      <trkpt lat="45.08674" lon="5.46204">
        <ele>656</ele>
        <time>2015-09-05T13:26:58Z</time>
      </trkpt>
      <trkpt lat="45.08672" lon="5.46218">
        <ele>656</ele>
        <time>2015-09-05T13:27:01Z</time>
      </trkpt>
      <trkpt lat="45.08671" lon="5.46231">
        <ele>656.1</ele>
        <time>2015-09-05T13:27:04Z</time>
      </trkpt>
      <trkpt lat="45.08671" lon="5.46247">
        <ele>656.3</ele>
        <time>2015-09-05T13:27:07Z</time>
      </trkpt>
      <trkpt lat="45.08672" lon="5.46262">
        <ele>656.5</ele>
        <time>2015-09-05T13:27:10Z</time>
      </trkpt>
      <trkpt lat="45.08675" lon="5.46277">
        <ele>656.8</ele>
        <time>2015-09-05T13:27:13Z</time>
      </trkpt>
      <trkpt lat="45.08678" lon="5.4629">
        <ele>657</ele>
        <time>2015-09-05T13:27:16Z</time>
      </trkpt>
      <trkpt lat="45.08683" lon="5.46303">
        <ele>657.3</ele>
        <time>2015-09-05T13:27:19Z</time>
      </trkpt>
      <trkpt lat="45.08688" lon="5.46315">
        <ele>657.5</ele>
        <time>2015-09-05T13:27:22Z</time>
      </trkpt>
      <trkpt lat="45.08693" lon="5.46328">
        <ele>657.7</ele>
        <time>2015-09-05T13:27:25Z</time>
      </trkpt>
      <trkpt lat="45.08698" lon="5.4634">
        <ele>658</ele>
        <time>2015-09-05T13:27:28Z</time>
      </trkpt>
      <trkpt lat="45.08703" lon="5.46353">
        <ele>658.3</ele>
        <time>2015-09-05T13:27:31Z</time>
      </trkpt>
      <trkpt lat="45.08708" lon="5.46366">
        <ele>658.5</ele>
        <time>2015-09-05T13:27:34Z</time>
      </trkpt>
      <trkpt lat="45.08712" lon="5.4638">
        <ele>658.7</ele>
        <time>2015-09-05T13:27:37Z</time>
      </trkpt>
      <trkpt lat="45.08715" lon="5.46393">
        <ele>659</ele>
        <time>2015-09-05T13:27:40Z</time>
      </trkpt>
      <trkpt lat="45.08719" lon="5.46407">
        <ele>659.2</ele>
        <time>2015-09-05T13:27:43Z</time>
      </trkpt>
      <trkpt lat="45.08721" lon="5.46422">
        <ele>659.3</ele>
        <time>2015-09-05T13:27:46Z</time>
      </trkpt>
      <trkpt lat="45.08724" lon="5.46436">
        <ele>659.5</ele>
        <time>2015-09-05T13:27:49Z</time>
      </trkpt>
      <trkpt lat="45.08727" lon="5.46451">
        <ele>659.6</ele>
        <time>2015-09-05T13:27:52Z</time>
      </trkpt>
      <trkpt lat="45.08729" lon="5.46468">
        <ele>659.7</ele>
        <time>2015-09-05T13:27:55Z</time>
      </trkpt>
      <trkpt lat="45.08729" lon="5.46483">
        <ele>659.8</ele>
        <time>2015-09-05T13:27:58Z</time>
      </trkpt>
      <trkpt lat="45.08726" lon="5.46498">
        <ele>660</ele>
        <time>2015-09-05T13:28:01Z</time>
      </trkpt>
      <trkpt lat="45.08724" lon="5.46512">
        <ele>660.3</ele>
        <time>2015-09-05T13:28:04Z</time>
      </trkpt>
      <trkpt lat="45.08723" lon="5.46526">
        <ele>660.8</ele>
        <time>2015-09-05T13:28:07Z</time>
      </trkpt>
      <trkpt lat="45.08722" lon="5.46541">
        <ele>661.1</ele>
        <time>2015-09-05T13:28:10Z</time>
      </trkpt>
      <trkpt lat="45.08722" lon="5.46555">
        <ele>661.4</ele>
        <time>2015-09-05T13:28:13Z</time>
      </trkpt>
      <trkpt lat="45.08724" lon="5.46569">
        <ele>661.6</ele>
        <time>2015-09-05T13:28:16Z</time>
      </trkpt>
      <trkpt lat="45.08728" lon="5.46583">
        <ele>661.8</ele>
        <time>2015-09-05T13:28:19Z</time>
      </trkpt>
      <trkpt lat="45.08733" lon="5.46595">
        <ele>662</ele>
        <time>2015-09-05T13:28:22Z</time>
      </trkpt>
      <trkpt lat="45.08738" lon="5.46608">
        <ele>662.2</ele>
        <time>2015-09-05T13:28:25Z</time>
      </trkpt>
      <trkpt lat="45.08743" lon="5.46619">
        <ele>662.4</ele>
        <time>2015-09-05T13:28:28Z</time>
      </trkpt>
      <trkpt lat="45.0875" lon="5.46633">
        <ele>662.6</ele>
        <time>2015-09-05T13:28:32Z</time>
      </trkpt>
      <trkpt lat="45.08756" lon="5.46646">
        <ele>663</ele>
        <time>2015-09-05T13:28:35Z</time>
      </trkpt>
      <trkpt lat="45.08763" lon="5.4666">
        <ele>663.2</ele>
        <time>2015-09-05T13:28:38Z</time>
      </trkpt>
      <trkpt lat="45.08769" lon="5.46672">
        <ele>663.5</ele>
        <time>2015-09-05T13:28:41Z</time>
      </trkpt>
      <trkpt lat="45.08775" lon="5.46684">
        <ele>663.7</ele>
        <time>2015-09-05T13:28:44Z</time>
      </trkpt>
      <trkpt lat="45.08779" lon="5.46698">
        <ele>663.9</ele>
        <time>2015-09-05T13:28:47Z</time>
      </trkpt>
      <trkpt lat="45.08785" lon="5.46712">
        <ele>664</ele>
        <time>2015-09-05T13:28:50Z</time>
      </trkpt>
      <trkpt lat="45.0879" lon="5.46727">
        <ele>664.2</ele>
        <time>2015-09-05T13:28:53Z</time>
      </trkpt>
      <trkpt lat="45.08794" lon="5.46741">
        <ele>665.9</ele>
        <time>2015-09-05T13:28:56Z</time>
      </trkpt>
      <trkpt lat="45.08799" lon="5.46754">
        <ele>665.8</ele>
        <time>2015-09-05T13:28:59Z</time>
      </trkpt>
      <trkpt lat="45.08805" lon="5.46767">
        <ele>665.6</ele>
        <time>2015-09-05T13:29:02Z</time>
      </trkpt>
      <trkpt lat="45.08811" lon="5.46781">
        <ele>665.4</ele>
        <time>2015-09-05T13:29:05Z</time>
      </trkpt>
      <trkpt lat="45.08817" lon="5.46794">
        <ele>665.3</ele>
        <time>2015-09-05T13:29:08Z</time>
      </trkpt>
      <trkpt lat="45.08822" lon="5.46809">
        <ele>665.2</ele>
        <time>2015-09-05T13:29:11Z</time>
      </trkpt>
      <trkpt lat="45.08826" lon="5.46824">
        <ele>665.1</ele>
        <time>2015-09-05T13:29:14Z</time>
      </trkpt>
      <trkpt lat="45.08831" lon="5.46836">
        <ele>665</ele>
        <time>2015-09-05T13:29:17Z</time>
      </trkpt>
      <trkpt lat="45.0884" lon="5.46843">
        <ele>665</ele>
        <time>2015-09-05T13:29:20Z</time>
      </trkpt>
      <trkpt lat="45.08849" lon="5.4685">
        <ele>664.9</ele>
        <time>2015-09-05T13:29:23Z</time>
      </trkpt>
      <trkpt lat="45.08859" lon="5.46855">
        <ele>664.9</ele>
        <time>2015-09-05T13:29:26Z</time>
      </trkpt>
      <trkpt lat="45.08867" lon="5.4686">
        <ele>664.9</ele>
        <time>2015-09-05T13:29:29Z</time>
      </trkpt>
      <trkpt lat="45.08875" lon="5.46866">
        <ele>664.9</ele>
        <time>2015-09-05T13:29:33Z</time>
      </trkpt>
      <trkpt lat="45.08884" lon="5.46872">
        <ele>664.9</ele>
        <time>2015-09-05T13:29:36Z</time>
      </trkpt>
      <trkpt lat="45.08892" lon="5.46876">
        <ele>665</ele>
        <time>2015-09-05T13:29:38Z</time>
      </trkpt>
      <trkpt lat="45.08905" lon="5.46882">
        <ele>665.1</ele>
        <time>2015-09-05T13:29:41Z</time>
      </trkpt>
      <trkpt lat="45.08916" lon="5.4689">
        <ele>665.2</ele>
        <time>2015-09-05T13:29:44Z</time>
      </trkpt>
      <trkpt lat="45.08926" lon="5.46904">
        <ele>665.3</ele>
        <time>2015-09-05T13:29:47Z</time>
      </trkpt>
      <trkpt lat="45.08933" lon="5.4691">
        <ele>665.3</ele>
        <time>2015-09-05T13:29:49Z</time>
      </trkpt>
      <trkpt lat="45.08942" lon="5.46916">
        <ele>665.4</ele>
        <time>2015-09-05T13:29:51Z</time>
      </trkpt>
      <trkpt lat="45.08949" lon="5.46924">
        <ele>665.4</ele>
        <time>2015-09-05T13:29:53Z</time>
      </trkpt>
      <trkpt lat="45.08956" lon="5.46939">
        <ele>665.5</ele>
        <time>2015-09-05T13:29:56Z</time>
      </trkpt>
      <trkpt lat="45.08961" lon="5.46956">
        <ele>665.5</ele>
        <time>2015-09-05T13:29:59Z</time>
      </trkpt>
      <trkpt lat="45.08966" lon="5.46968">
        <ele>665.6</ele>
        <time>2015-09-05T13:30:01Z</time>
      </trkpt>
      <trkpt lat="45.0897" lon="5.46985">
        <ele>665.6</ele>
        <time>2015-09-05T13:30:04Z</time>
      </trkpt>
      <trkpt lat="45.08972" lon="5.47001">
        <ele>665.7</ele>
        <time>2015-09-05T13:30:07Z</time>
      </trkpt>
      <trkpt lat="45.08972" lon="5.47018">
        <ele>665.7</ele>
        <time>2015-09-05T13:30:10Z</time>
      </trkpt>
      <trkpt lat="45.08969" lon="5.47035">
        <ele>665.7</ele>
        <time>2015-09-05T13:30:13Z</time>
      </trkpt>
      <trkpt lat="45.08965" lon="5.47051">
        <ele>665.8</ele>
        <time>2015-09-05T13:30:16Z</time>
      </trkpt>
      <trkpt lat="45.08963" lon="5.47065">
        <ele>665.8</ele>
        <time>2015-09-05T13:30:19Z</time>
      </trkpt>
      <trkpt lat="45.08957" lon="5.4708">
        <ele>665.9</ele>
        <time>2015-09-05T13:30:22Z</time>
      </trkpt>
      <trkpt lat="45.08956" lon="5.47093">
        <ele>666.1</ele>
        <time>2015-09-05T13:30:25Z</time>
      </trkpt>
      <trkpt lat="45.0896" lon="5.47107">
        <ele>666.4</ele>
        <time>2015-09-05T13:30:29Z</time>
      </trkpt>
      <trkpt lat="45.08971" lon="5.47106">
        <ele>666.9</ele>
        <time>2015-09-05T13:30:34Z</time>
      </trkpt>
      <trkpt lat="45.08981" lon="5.47102">
        <ele>667.2</ele>
        <time>2015-09-05T13:30:38Z</time>
      </trkpt>
      <trkpt lat="45.08991" lon="5.47095">
        <ele>667.6</ele>
        <time>2015-09-05T13:30:42Z</time>
      </trkpt>
      <trkpt lat="45.08997" lon="5.47083">
        <ele>668</ele>
        <time>2015-09-05T13:30:46Z</time>
      </trkpt>
      <trkpt lat="45.09001" lon="5.47071">
        <ele>668.3</ele>
        <time>2015-09-05T13:30:50Z</time>
      </trkpt>
      <trkpt lat="45.09002" lon="5.47057">
        <ele>668.7</ele>
        <time>2015-09-05T13:30:54Z</time>
      </trkpt>
      <trkpt lat="45.09002" lon="5.47042">
        <ele>669.1</ele>
        <time>2015-09-05T13:30:58Z</time>
      </trkpt>
      <trkpt lat="45.09002" lon="5.47027">
        <ele>669.4</ele>
        <time>2015-09-05T13:31:02Z</time>
      </trkpt>
      <trkpt lat="45.09002" lon="5.47011">
        <ele>669.8</ele>
        <time>2015-09-05T13:31:06Z</time>
      </trkpt>
      <trkpt lat="45.09" lon="5.46996">
        <ele>670.2</ele>
        <time>2015-09-05T13:31:10Z</time>
      </trkpt>
      <trkpt lat="45.08998" lon="5.46981">
        <ele>670.8</ele>
        <time>2015-09-05T13:31:14Z</time>
      </trkpt>
      <trkpt lat="45.08996" lon="5.46967">
        <ele>671.5</ele>
        <time>2015-09-05T13:31:18Z</time>
      </trkpt>
      <trkpt lat="45.08995" lon="5.46952">
        <ele>672.3</ele>
        <time>2015-09-05T13:31:22Z</time>
      </trkpt>
      <trkpt lat="45.08996" lon="5.46937">
        <ele>673.2</ele>
        <time>2015-09-05T13:31:27Z</time>
      </trkpt>
      <trkpt lat="45.09004" lon="5.46926">
        <ele>674.4</ele>
        <time>2015-09-05T13:31:32Z</time>
      </trkpt>
      <trkpt lat="45.09013" lon="5.46927">
        <ele>675.3</ele>
        <time>2015-09-05T13:31:36Z</time>
      </trkpt>
      <trkpt lat="45.09022" lon="5.46929">
        <ele>676.2</ele>
        <time>2015-09-05T13:31:40Z</time>
      </trkpt>
      <trkpt lat="45.09031" lon="5.46932">
        <ele>677</ele>
        <time>2015-09-05T13:31:44Z</time>
      </trkpt>
      <trkpt lat="45.09041" lon="5.46936">
        <ele>677.9</ele>
        <time>2015-09-05T13:31:49Z</time>
      </trkpt>
      <trkpt lat="45.09051" lon="5.4694">
        <ele>679</ele>
        <time>2015-09-05T13:31:54Z</time>
      </trkpt>
      <trkpt lat="45.09061" lon="5.46941">
        <ele>679.8</ele>
        <time>2015-09-05T13:31:58Z</time>
      </trkpt>
      <trkpt lat="45.09071" lon="5.46947">
        <ele>680.9</ele>
        <time>2015-09-05T13:32:03Z</time>
      </trkpt>
      <trkpt lat="45.09081" lon="5.46951">
        <ele>682.2</ele>
        <time>2015-09-05T13:32:08Z</time>
      </trkpt>
      <trkpt lat="45.09091" lon="5.46955">
        <ele>683.2</ele>
        <time>2015-09-05T13:32:13Z</time>
      </trkpt>
      <trkpt lat="45.09101" lon="5.4696">
        <ele>684.2</ele>
        <time>2015-09-05T13:32:18Z</time>
      </trkpt>
      <trkpt lat="45.0911" lon="5.46966">
        <ele>686.3</ele>
        <time>2015-09-05T13:32:23Z</time>
      </trkpt>
      <trkpt lat="45.0912" lon="5.46966">
        <ele>687</ele>
        <time>2015-09-05T13:32:27Z</time>
      </trkpt>
      <trkpt lat="45.0913" lon="5.4697">
        <ele>687.7</ele>
        <time>2015-09-05T13:32:32Z</time>
      </trkpt>
      <trkpt lat="45.0914" lon="5.46973">
        <ele>688.5</ele>
        <time>2015-09-05T13:32:37Z</time>
      </trkpt>
      <trkpt lat="45.09149" lon="5.46976">
        <ele>689</ele>
        <time>2015-09-05T13:32:41Z</time>
      </trkpt>
      <trkpt lat="45.0916" lon="5.46978">
        <ele>690</ele>
        <time>2015-09-05T13:32:46Z</time>
      </trkpt>
      <trkpt lat="45.0917" lon="5.46983">
        <ele>691</ele>
        <time>2015-09-05T13:32:51Z</time>
      </trkpt>
      <trkpt lat="45.09178" lon="5.46991">
        <ele>691.6</ele>
        <time>2015-09-05T13:32:54Z</time>
      </trkpt>
      <trkpt lat="45.09187" lon="5.46996">
        <ele>692.4</ele>
        <time>2015-09-05T13:32:58Z</time>
      </trkpt>
      <trkpt lat="45.09197" lon="5.47">
        <ele>693.3</ele>
        <time>2015-09-05T13:33:03Z</time>
      </trkpt>
      <trkpt lat="45.09206" lon="5.46999">
        <ele>694.1</ele>
        <time>2015-09-05T13:33:07Z</time>
      </trkpt>
      <trkpt lat="45.09217" lon="5.46998">
        <ele>695.1</ele>
        <time>2015-09-05T13:33:12Z</time>
      </trkpt>
      <trkpt lat="45.09227" lon="5.46999">
        <ele>696</ele>
        <time>2015-09-05T13:33:17Z</time>
      </trkpt>
      <trkpt lat="45.09237" lon="5.46999">
        <ele>696.7</ele>
        <time>2015-09-05T13:33:21Z</time>
      </trkpt>
      <trkpt lat="45.09247" lon="5.46999">
        <ele>697.4</ele>
        <time>2015-09-05T13:33:25Z</time>
      </trkpt>
      <trkpt lat="45.09257" lon="5.47003">
        <ele>698.3</ele>
        <time>2015-09-05T13:33:30Z</time>
      </trkpt>
      <trkpt lat="45.09267" lon="5.4701">
        <ele>699.2</ele>
        <time>2015-09-05T13:33:35Z</time>
      </trkpt>
      <trkpt lat="45.09276" lon="5.47019">
        <ele>700.1</ele>
        <time>2015-09-05T13:33:40Z</time>
      </trkpt>
      <trkpt lat="45.09284" lon="5.47027">
        <ele>701</ele>
        <time>2015-09-05T13:33:44Z</time>
      </trkpt>
      <trkpt lat="45.09291" lon="5.47035">
        <ele>701.7</ele>
        <time>2015-09-05T13:33:48Z</time>
      </trkpt>
      <trkpt lat="45.09299" lon="5.47043">
        <ele>702.6</ele>
        <time>2015-09-05T13:33:52Z</time>
      </trkpt>
      <trkpt lat="45.09306" lon="5.47052">
        <ele>703.4</ele>
        <time>2015-09-05T13:33:56Z</time>
      </trkpt>
      <trkpt lat="45.09313" lon="5.47061">
        <ele>704.2</ele>
        <time>2015-09-05T13:34:00Z</time>
      </trkpt>
      <trkpt lat="45.09318" lon="5.47072">
        <ele>704.9</ele>
        <time>2015-09-05T13:34:04Z</time>
      </trkpt>
      <trkpt lat="45.09324" lon="5.47083">
        <ele>705.7</ele>
        <time>2015-09-05T13:34:08Z</time>
      </trkpt>
      <trkpt lat="45.09329" lon="5.47094">
        <ele>706.6</ele>
        <time>2015-09-05T13:34:12Z</time>
      </trkpt>
      <trkpt lat="45.09334" lon="5.47106">
        <ele>707.3</ele>
        <time>2015-09-05T13:34:16Z</time>
      </trkpt>
      <trkpt lat="45.09338" lon="5.47119">
        <ele>707.9</ele>
        <time>2015-09-05T13:34:20Z</time>
      </trkpt>
      <trkpt lat="45.09341" lon="5.47132">
        <ele>708.6</ele>
        <time>2015-09-05T13:34:24Z</time>
      </trkpt>
      <trkpt lat="45.09343" lon="5.47144">
        <ele>709.1</ele>
        <time>2015-09-05T13:34:28Z</time>
      </trkpt>
      <trkpt lat="45.09347" lon="5.47157">
        <ele>709.8</ele>
        <time>2015-09-05T13:34:32Z</time>
      </trkpt>
      <trkpt lat="45.09352" lon="5.47168">
        <ele>710.6</ele>
        <time>2015-09-05T13:34:36Z</time>
      </trkpt>
      <trkpt lat="45.09359" lon="5.47179">
        <ele>711.6</ele>
        <time>2015-09-05T13:34:41Z</time>
      </trkpt>
      <trkpt lat="45.09369" lon="5.47184">
        <ele>712.6</ele>
        <time>2015-09-05T13:34:46Z</time>
      </trkpt>
      <trkpt lat="45.09379" lon="5.47183">
        <ele>713.4</ele>
        <time>2015-09-05T13:34:50Z</time>
      </trkpt>
      <trkpt lat="45.09387" lon="5.47176">
        <ele>714.2</ele>
        <time>2015-09-05T13:34:54Z</time>
      </trkpt>
      <trkpt lat="45.09394" lon="5.47165">
        <ele>715.1</ele>
        <time>2015-09-05T13:34:58Z</time>
      </trkpt>
      <trkpt lat="45.09397" lon="5.47153">
        <ele>715.9</ele>
        <time>2015-09-05T13:35:02Z</time>
      </trkpt>
      <trkpt lat="45.09398" lon="5.4714">
        <ele>716.7</ele>
        <time>2015-09-05T13:35:06Z</time>
      </trkpt>
      <trkpt lat="45.09399" lon="5.47127">
        <ele>717.5</ele>
        <time>2015-09-05T13:35:10Z</time>
      </trkpt>
      <trkpt lat="45.09399" lon="5.47111">
        <ele>718.5</ele>
        <time>2015-09-05T13:35:15Z</time>
      </trkpt>
      <trkpt lat="45.09398" lon="5.47095">
        <ele>719.5</ele>
        <time>2015-09-05T13:35:20Z</time>
      </trkpt>
      <trkpt lat="45.09396" lon="5.47083">
        <ele>720.2</ele>
        <time>2015-09-05T13:35:24Z</time>
      </trkpt>
      <trkpt lat="45.09393" lon="5.4707">
        <ele>720.9</ele>
        <time>2015-09-05T13:35:28Z</time>
      </trkpt>
      <trkpt lat="45.09387" lon="5.47057">
        <ele>721.8</ele>
        <time>2015-09-05T13:35:33Z</time>
      </trkpt>
      <trkpt lat="45.0938" lon="5.47044">
        <ele>722.6</ele>
        <time>2015-09-05T13:35:38Z</time>
      </trkpt>
      <trkpt lat="45.09375" lon="5.47034">
        <ele>723.2</ele>
        <time>2015-09-05T13:35:42Z</time>
      </trkpt>
      <trkpt lat="45.0937" lon="5.47023">
        <ele>723.9</ele>
        <time>2015-09-05T13:35:46Z</time>
      </trkpt>
      <trkpt lat="45.09366" lon="5.47011">
        <ele>724.7</ele>
        <time>2015-09-05T13:35:50Z</time>
      </trkpt>
      <trkpt lat="45.09364" lon="5.46999">
        <ele>725.3</ele>
        <time>2015-09-05T13:35:54Z</time>
      </trkpt>
      <trkpt lat="45.0936" lon="5.46984">
        <ele>726.1</ele>
        <time>2015-09-05T13:35:59Z</time>
      </trkpt>
      <trkpt lat="45.09358" lon="5.46971">
        <ele>726.7</ele>
        <time>2015-09-05T13:36:03Z</time>
      </trkpt>
      <trkpt lat="45.09354" lon="5.46959">
        <ele>727.4</ele>
        <time>2015-09-05T13:36:07Z</time>
      </trkpt>
      <trkpt lat="45.0935" lon="5.46947">
        <ele>728</ele>
        <time>2015-09-05T13:36:11Z</time>
      </trkpt>
      <trkpt lat="45.09344" lon="5.46937">
        <ele>728.8</ele>
        <time>2015-09-05T13:36:15Z</time>
      </trkpt>
      <trkpt lat="45.09337" lon="5.46928">
        <ele>729.4</ele>
        <time>2015-09-05T13:36:19Z</time>
      </trkpt>
      <trkpt lat="45.09328" lon="5.46918">
        <ele>730.2</ele>
        <time>2015-09-05T13:36:24Z</time>
      </trkpt>
      <trkpt lat="45.0932" lon="5.46907">
        <ele>731.1</ele>
        <time>2015-09-05T13:36:29Z</time>
      </trkpt>
      <trkpt lat="45.09319" lon="5.46892">
        <ele>732.2</ele>
        <time>2015-09-05T13:36:34Z</time>
      </trkpt>
      <trkpt lat="45.09328" lon="5.46884">
        <ele>733.4</ele>
        <time>2015-09-05T13:36:39Z</time>
      </trkpt>
      <trkpt lat="45.09337" lon="5.46883">
        <ele>734.4</ele>
        <time>2015-09-05T13:36:43Z</time>
      </trkpt>
      <trkpt lat="45.09346" lon="5.4688">
        <ele>734.8</ele>
        <time>2015-09-05T13:36:47Z</time>
      </trkpt>
      <trkpt lat="45.09357" lon="5.46881">
        <ele>737.3</ele>
        <time>2015-09-05T13:36:52Z</time>
      </trkpt>
      <trkpt lat="45.09366" lon="5.46883">
        <ele>736.7</ele>
        <time>2015-09-05T13:36:57Z</time>
      </trkpt>
      <trkpt lat="45.09376" lon="5.46888">
        <ele>738</ele>
        <time>2015-09-05T13:37:02Z</time>
      </trkpt>
      <trkpt lat="45.09384" lon="5.46895">
        <ele>738.1</ele>
        <time>2015-09-05T13:37:07Z</time>
      </trkpt>
      <trkpt lat="45.09393" lon="5.46902">
        <ele>739.5</ele>
        <time>2015-09-05T13:37:12Z</time>
      </trkpt>
      <trkpt lat="45.09402" lon="5.46911">
        <ele>740.9</ele>
        <time>2015-09-05T13:37:17Z</time>
      </trkpt>
      <trkpt lat="45.0941" lon="5.46918">
        <ele>741.9</ele>
        <time>2015-09-05T13:37:21Z</time>
      </trkpt>
      <trkpt lat="45.0942" lon="5.46925">
        <ele>743.1</ele>
        <time>2015-09-05T13:37:26Z</time>
      </trkpt>
      <trkpt lat="45.0943" lon="5.46933">
        <ele>744.1</ele>
        <time>2015-09-05T13:37:31Z</time>
      </trkpt>
      <trkpt lat="45.09438" lon="5.46938">
        <ele>744.9</ele>
        <time>2015-09-05T13:37:35Z</time>
      </trkpt>
      <trkpt lat="45.09448" lon="5.46944">
        <ele>746</ele>
        <time>2015-09-05T13:37:40Z</time>
      </trkpt>
      <trkpt lat="45.09458" lon="5.46946">
        <ele>746.8</ele>
        <time>2015-09-05T13:37:44Z</time>
      </trkpt>
      <trkpt lat="45.09467" lon="5.46948">
        <ele>747.6</ele>
        <time>2015-09-05T13:37:48Z</time>
      </trkpt>
      <trkpt lat="45.09476" lon="5.46951">
        <ele>748.4</ele>
        <time>2015-09-05T13:37:52Z</time>
      </trkpt>
      <trkpt lat="45.09486" lon="5.46953">
        <ele>749.2</ele>
        <time>2015-09-05T13:37:56Z</time>
      </trkpt>
      <trkpt lat="45.09496" lon="5.46955">
        <ele>752.1</ele>
        <time>2015-09-05T13:38:31Z</time>
      </trkpt>
      <trkpt lat="45.09506" lon="5.46961">
        <ele>752.4</ele>
        <time>2015-09-05T13:38:36Z</time>
      </trkpt>
      <trkpt lat="45.09517" lon="5.46964">
        <ele>752.8</ele>
        <time>2015-09-05T13:38:41Z</time>
      </trkpt>
      <trkpt lat="45.09526" lon="5.46966">
        <ele>753.3</ele>
        <time>2015-09-05T13:38:45Z</time>
      </trkpt>
      <trkpt lat="45.09534" lon="5.4697">
        <ele>753.9</ele>
        <time>2015-09-05T13:38:49Z</time>
      </trkpt>
      <trkpt lat="45.09543" lon="5.46973">
        <ele>754.5</ele>
        <time>2015-09-05T13:38:53Z</time>
      </trkpt>
      <trkpt lat="45.09552" lon="5.46975">
        <ele>755</ele>
        <time>2015-09-05T13:38:57Z</time>
      </trkpt>
      <trkpt lat="45.09561" lon="5.4698">
        <ele>755.7</ele>
        <time>2015-09-05T13:39:01Z</time>
      </trkpt>
      <trkpt lat="45.0957" lon="5.46986">
        <ele>756.6</ele>
        <time>2015-09-05T13:39:06Z</time>
      </trkpt>
      <trkpt lat="45.0958" lon="5.46993">
        <ele>757.5</ele>
        <time>2015-09-05T13:39:11Z</time>
      </trkpt>
      <trkpt lat="45.09588" lon="5.47">
        <ele>758.1</ele>
        <time>2015-09-05T13:39:15Z</time>
      </trkpt>
      <trkpt lat="45.09596" lon="5.47009">
        <ele>758.7</ele>
        <time>2015-09-05T13:39:20Z</time>
      </trkpt>
      <trkpt lat="45.09604" lon="5.47015">
        <ele>759.4</ele>
        <time>2015-09-05T13:39:24Z</time>
      </trkpt>
      <trkpt lat="45.09613" lon="5.47023">
        <ele>760.1</ele>
        <time>2015-09-05T13:39:28Z</time>
      </trkpt>
      <trkpt lat="45.09621" lon="5.4703">
        <ele>760.7</ele>
        <time>2015-09-05T13:39:32Z</time>
      </trkpt>
      <trkpt lat="45.09628" lon="5.47039">
        <ele>761.4</ele>
        <time>2015-09-05T13:39:36Z</time>
      </trkpt>
      <trkpt lat="45.09635" lon="5.47048">
        <ele>762.2</ele>
        <time>2015-09-05T13:39:40Z</time>
      </trkpt>
      <trkpt lat="45.0964" lon="5.47059">
        <ele>763.1</ele>
        <time>2015-09-05T13:39:44Z</time>
      </trkpt>
      <trkpt lat="45.09645" lon="5.4707">
        <ele>763.9</ele>
        <time>2015-09-05T13:39:48Z</time>
      </trkpt>
      <trkpt lat="45.0965" lon="5.47082">
        <ele>764.7</ele>
        <time>2015-09-05T13:39:52Z</time>
      </trkpt>
      <trkpt lat="45.09655" lon="5.47094">
        <ele>765.5</ele>
        <time>2015-09-05T13:39:56Z</time>
      </trkpt>
      <trkpt lat="45.09659" lon="5.47106">
        <ele>766.3</ele>
        <time>2015-09-05T13:40:00Z</time>
      </trkpt>
      <trkpt lat="45.09664" lon="5.47118">
        <ele>767</ele>
        <time>2015-09-05T13:40:04Z</time>
      </trkpt>
      <trkpt lat="45.0967" lon="5.47131">
        <ele>767.6</ele>
        <time>2015-09-05T13:40:08Z</time>
      </trkpt>
      <trkpt lat="45.09675" lon="5.47145">
        <ele>768.2</ele>
        <time>2015-09-05T13:40:12Z</time>
      </trkpt>
      <trkpt lat="45.09682" lon="5.47158">
        <ele>768.9</ele>
        <time>2015-09-05T13:40:16Z</time>
      </trkpt>
      <trkpt lat="45.09688" lon="5.47172">
        <ele>769.6</ele>
        <time>2015-09-05T13:40:20Z</time>
      </trkpt>
      <trkpt lat="45.09694" lon="5.47186">
        <ele>770.2</ele>
        <time>2015-09-05T13:40:24Z</time>
      </trkpt>
      <trkpt lat="45.097" lon="5.472">
        <ele>770.7</ele>
        <time>2015-09-05T13:40:28Z</time>
      </trkpt>
      <trkpt lat="45.09706" lon="5.47213">
        <ele>771.2</ele>
        <time>2015-09-05T13:40:32Z</time>
      </trkpt>
      <trkpt lat="45.09712" lon="5.47227">
        <ele>771.7</ele>
        <time>2015-09-05T13:40:36Z</time>
      </trkpt>
      <trkpt lat="45.09719" lon="5.47241">
        <ele>772.2</ele>
        <time>2015-09-05T13:40:40Z</time>
      </trkpt>
      <trkpt lat="45.09725" lon="5.47255">
        <ele>772.5</ele>
        <time>2015-09-05T13:40:44Z</time>
      </trkpt>
      <trkpt lat="45.09728" lon="5.4727">
        <ele>772.9</ele>
        <time>2015-09-05T13:40:48Z</time>
      </trkpt>
      <trkpt lat="45.09729" lon="5.47285">
        <ele>773.4</ele>
        <time>2015-09-05T13:40:52Z</time>
      </trkpt>
      <trkpt lat="45.09729" lon="5.473">
        <ele>773.9</ele>
        <time>2015-09-05T13:40:56Z</time>
      </trkpt>
      <trkpt lat="45.0973" lon="5.47316">
        <ele>774.2</ele>
        <time>2015-09-05T13:41:00Z</time>
      </trkpt>
      <trkpt lat="45.09732" lon="5.47331">
        <ele>774.7</ele>
        <time>2015-09-05T13:41:04Z</time>
      </trkpt>
      <trkpt lat="45.09735" lon="5.47346">
        <ele>775</ele>
        <time>2015-09-05T13:41:08Z</time>
      </trkpt>
      <trkpt lat="45.09739" lon="5.47362">
        <ele>775.3</ele>
        <time>2015-09-05T13:41:12Z</time>
      </trkpt>
      <trkpt lat="45.09744" lon="5.47374">
        <ele>775.7</ele>
        <time>2015-09-05T13:41:16Z</time>
      </trkpt>
      <trkpt lat="45.09753" lon="5.47383">
        <ele>776.1</ele>
        <time>2015-09-05T13:41:20Z</time>
      </trkpt>
      <trkpt lat="45.09763" lon="5.47389">
        <ele>776.6</ele>
        <time>2015-09-05T13:41:24Z</time>
      </trkpt>
      <trkpt lat="45.09774" lon="5.47391">
        <ele>777.1</ele>
        <time>2015-09-05T13:41:28Z</time>
      </trkpt>
      <trkpt lat="45.09785" lon="5.47395">
        <ele>777.5</ele>
        <time>2015-09-05T13:41:32Z</time>
      </trkpt>
      <trkpt lat="45.09795" lon="5.474">
        <ele>777.8</ele>
        <time>2015-09-05T13:41:36Z</time>
      </trkpt>
      <trkpt lat="45.09805" lon="5.47407">
        <ele>778.2</ele>
        <time>2015-09-05T13:41:40Z</time>
      </trkpt>
      <trkpt lat="45.09815" lon="5.47414">
        <ele>778.6</ele>
        <time>2015-09-05T13:41:44Z</time>
      </trkpt>
      <trkpt lat="45.09825" lon="5.47422">
        <ele>778.9</ele>
        <time>2015-09-05T13:41:48Z</time>
      </trkpt>
      <trkpt lat="45.09835" lon="5.4743">
        <ele>779.3</ele>
        <time>2015-09-05T13:41:52Z</time>
      </trkpt>
      <trkpt lat="45.09844" lon="5.47437">
        <ele>779.7</ele>
        <time>2015-09-05T13:41:56Z</time>
      </trkpt>
      <trkpt lat="45.09855" lon="5.47445">
        <ele>780.1</ele>
        <time>2015-09-05T13:42:00Z</time>
      </trkpt>
      <trkpt lat="45.09864" lon="5.47454">
        <ele>780.5</ele>
        <time>2015-09-05T13:42:04Z</time>
      </trkpt>
      <trkpt lat="45.09872" lon="5.47466">
        <ele>780.9</ele>
        <time>2015-09-05T13:42:08Z</time>
      </trkpt>
      <trkpt lat="45.09877" lon="5.47477">
        <ele>781.1</ele>
        <time>2015-09-05T13:42:11Z</time>
      </trkpt>
      <trkpt lat="45.09882" lon="5.47492">
        <ele>781.5</ele>
        <time>2015-09-05T13:42:15Z</time>
      </trkpt>
      <trkpt lat="45.09885" lon="5.47507">
        <ele>781.9</ele>
        <time>2015-09-05T13:42:19Z</time>
      </trkpt>
      <trkpt lat="45.09889" lon="5.47521">
        <ele>782.3</ele>
        <time>2015-09-05T13:42:23Z</time>
      </trkpt>
      <trkpt lat="45.09896" lon="5.47532">
        <ele>782.8</ele>
        <time>2015-09-05T13:42:27Z</time>
      </trkpt>
      <trkpt lat="45.09904" lon="5.47538">
        <ele>783.4</ele>
        <time>2015-09-05T13:42:31Z</time>
      </trkpt>
      <trkpt lat="45.09916" lon="5.47536">
        <ele>783.9</ele>
        <time>2015-09-05T13:42:35Z</time>
      </trkpt>
      <trkpt lat="45.09925" lon="5.4753">
        <ele>784.2</ele>
        <time>2015-09-05T13:42:38Z</time>
      </trkpt>
      <trkpt lat="45.09934" lon="5.47521">
        <ele>784.6</ele>
        <time>2015-09-05T13:42:42Z</time>
      </trkpt>
      <trkpt lat="45.09943" lon="5.47511">
        <ele>784.9</ele>
        <time>2015-09-05T13:42:46Z</time>
      </trkpt>
      <trkpt lat="45.09952" lon="5.47501">
        <ele>785.2</ele>
        <time>2015-09-05T13:42:50Z</time>
      </trkpt>
      <trkpt lat="45.09963" lon="5.47494">
        <ele>785.6</ele>
        <time>2015-09-05T13:42:54Z</time>
      </trkpt>
      <trkpt lat="45.09974" lon="5.4749">
        <ele>786.1</ele>
        <time>2015-09-05T13:42:58Z</time>
      </trkpt>
      <trkpt lat="45.09986" lon="5.47491">
        <ele>786.6</ele>
        <time>2015-09-05T13:43:02Z</time>
      </trkpt>
      <trkpt lat="45.09996" lon="5.47495">
        <ele>787</ele>
        <time>2015-09-05T13:43:06Z</time>
      </trkpt>
      <trkpt lat="45.10006" lon="5.47502">
        <ele>787.4</ele>
        <time>2015-09-05T13:43:10Z</time>
      </trkpt>
      <trkpt lat="45.10014" lon="5.47511">
        <ele>787.9</ele>
        <time>2015-09-05T13:43:15Z</time>
      </trkpt>
      <trkpt lat="45.10022" lon="5.47522">
        <ele>788.3</ele>
        <time>2015-09-05T13:43:20Z</time>
      </trkpt>
      <trkpt lat="45.1003" lon="5.47532">
        <ele>788.7</ele>
        <time>2015-09-05T13:43:24Z</time>
      </trkpt>
      <trkpt lat="45.10038" lon="5.47539">
        <ele>788.9</ele>
        <time>2015-09-05T13:43:27Z</time>
      </trkpt>
      <trkpt lat="45.10048" lon="5.47539">
        <ele>789.3</ele>
        <time>2015-09-05T13:43:30Z</time>
      </trkpt>
      <trkpt lat="45.10058" lon="5.47535">
        <ele>789.7</ele>
        <time>2015-09-05T13:43:34Z</time>
      </trkpt>
      <trkpt lat="45.10068" lon="5.47527">
        <ele>790.2</ele>
        <time>2015-09-05T13:43:38Z</time>
      </trkpt>
      <trkpt lat="45.10078" lon="5.47518">
        <ele>790.7</ele>
        <time>2015-09-05T13:43:42Z</time>
      </trkpt>
      <trkpt lat="45.10089" lon="5.47511">
        <ele>791.2</ele>
        <time>2015-09-05T13:43:46Z</time>
      </trkpt>
      <trkpt lat="45.101" lon="5.47505">
        <ele>791.6</ele>
        <time>2015-09-05T13:43:50Z</time>
      </trkpt>
      <trkpt lat="45.10111" lon="5.475">
        <ele>792</ele>
        <time>2015-09-05T13:43:54Z</time>
      </trkpt>
      <trkpt lat="45.10122" lon="5.47497">
        <ele>792.5</ele>
        <time>2015-09-05T13:43:58Z</time>
      </trkpt>
      <trkpt lat="45.10132" lon="5.47494">
        <ele>792.7</ele>
        <time>2015-09-05T13:44:01Z</time>
      </trkpt>
      <trkpt lat="45.1014" lon="5.47488">
        <ele>793</ele>
        <time>2015-09-05T13:44:04Z</time>
      </trkpt>
      <trkpt lat="45.10147" lon="5.47479">
        <ele>793.3</ele>
        <time>2015-09-05T13:44:07Z</time>
      </trkpt>
      <trkpt lat="45.10154" lon="5.47468">
        <ele>793.7</ele>
        <time>2015-09-05T13:44:10Z</time>
      </trkpt>
      <trkpt lat="45.10157" lon="5.47455">
        <ele>794</ele>
        <time>2015-09-05T13:44:13Z</time>
      </trkpt>
      <trkpt lat="45.10159" lon="5.47442">
        <ele>794.3</ele>
        <time>2015-09-05T13:44:16Z</time>
      </trkpt>
      <trkpt lat="45.1016" lon="5.47429">
        <ele>794.7</ele>
        <time>2015-09-05T13:44:19Z</time>
      </trkpt>
      <trkpt lat="45.10159" lon="5.47415">
        <ele>795</ele>
        <time>2015-09-05T13:44:22Z</time>
      </trkpt>
      <trkpt lat="45.10157" lon="5.47402">
        <ele>795.3</ele>
        <time>2015-09-05T13:44:25Z</time>
      </trkpt>
      <trkpt lat="45.10154" lon="5.47389">
        <ele>795.6</ele>
        <time>2015-09-05T13:44:28Z</time>
      </trkpt>
      <trkpt lat="45.10153" lon="5.47375">
        <ele>795.9</ele>
        <time>2015-09-05T13:44:31Z</time>
      </trkpt>
      <trkpt lat="45.10152" lon="5.47361">
        <ele>796.2</ele>
        <time>2015-09-05T13:44:34Z</time>
      </trkpt>
      <trkpt lat="45.10153" lon="5.47347">
        <ele>796.5</ele>
        <time>2015-09-05T13:44:37Z</time>
      </trkpt>
      <trkpt lat="45.10154" lon="5.47333">
        <ele>796.7</ele>
        <time>2015-09-05T13:44:40Z</time>
      </trkpt>
      <trkpt lat="45.10155" lon="5.47319">
        <ele>797.1</ele>
        <time>2015-09-05T13:44:43Z</time>
      </trkpt>
      <trkpt lat="45.10156" lon="5.47304">
        <ele>797.4</ele>
        <time>2015-09-05T13:44:46Z</time>
      </trkpt>
      <trkpt lat="45.10157" lon="5.47291">
        <ele>797.7</ele>
        <time>2015-09-05T13:44:49Z</time>
      </trkpt>
      <trkpt lat="45.10158" lon="5.47277">
        <ele>798</ele>
        <time>2015-09-05T13:44:52Z</time>
      </trkpt>
      <trkpt lat="45.10162" lon="5.47263">
        <ele>798.4</ele>
        <time>2015-09-05T13:44:55Z</time>
      </trkpt>
      <trkpt lat="45.10168" lon="5.47252">
        <ele>798.8</ele>
        <time>2015-09-05T13:44:58Z</time>
      </trkpt>
      <trkpt lat="45.10175" lon="5.47242">
        <ele>799</ele>
        <time>2015-09-05T13:45:01Z</time>
      </trkpt>
      <trkpt lat="45.10183" lon="5.47233">
        <ele>799.4</ele>
        <time>2015-09-05T13:45:04Z</time>
      </trkpt>
      <trkpt lat="45.10191" lon="5.47226">
        <ele>799.9</ele>
        <time>2015-09-05T13:45:07Z</time>
      </trkpt>
      <trkpt lat="45.102" lon="5.47219">
        <ele>800.3</ele>
        <time>2015-09-05T13:45:10Z</time>
      </trkpt>
      <trkpt lat="45.10209" lon="5.47213">
        <ele>800.7</ele>
        <time>2015-09-05T13:45:13Z</time>
      </trkpt>
      <trkpt lat="45.10219" lon="5.47212">
        <ele>801</ele>
        <time>2015-09-05T13:45:16Z</time>
      </trkpt>
      <trkpt lat="45.10229" lon="5.47214">
        <ele>801.3</ele>
        <time>2015-09-05T13:45:19Z</time>
      </trkpt>
      <trkpt lat="45.10237" lon="5.4722">
        <ele>801.7</ele>
        <time>2015-09-05T13:45:22Z</time>
      </trkpt>
      <trkpt lat="45.10246" lon="5.47225">
        <ele>802.1</ele>
        <time>2015-09-05T13:45:25Z</time>
      </trkpt>
      <trkpt lat="45.10254" lon="5.4723">
        <ele>802.5</ele>
        <time>2015-09-05T13:45:28Z</time>
      </trkpt>
      <trkpt lat="45.10263" lon="5.47236">
        <ele>802.9</ele>
        <time>2015-09-05T13:45:31Z</time>
      </trkpt>
      <trkpt lat="45.10272" lon="5.47243">
        <ele>803.2</ele>
        <time>2015-09-05T13:45:34Z</time>
      </trkpt>
      <trkpt lat="45.10281" lon="5.4725">
        <ele>803.5</ele>
        <time>2015-09-05T13:45:37Z</time>
      </trkpt>
      <trkpt lat="45.10289" lon="5.47259">
        <ele>799.1</ele>
        <time>2015-09-05T13:45:40Z</time>
      </trkpt>
      <trkpt lat="45.10297" lon="5.47267">
        <ele>800.1</ele>
        <time>2015-09-05T13:45:43Z</time>
      </trkpt>
      <trkpt lat="45.10304" lon="5.47275">
        <ele>800.9</ele>
        <time>2015-09-05T13:45:46Z</time>
      </trkpt>
      <trkpt lat="45.10312" lon="5.47283">
        <ele>801.7</ele>
        <time>2015-09-05T13:45:49Z</time>
      </trkpt>
      <trkpt lat="45.1032" lon="5.47291">
        <ele>802.5</ele>
        <time>2015-09-05T13:45:52Z</time>
      </trkpt>
      <trkpt lat="45.10329" lon="5.47298">
        <ele>803.1</ele>
        <time>2015-09-05T13:45:55Z</time>
      </trkpt>
      <trkpt lat="45.10338" lon="5.47303">
        <ele>803.7</ele>
        <time>2015-09-05T13:45:58Z</time>
      </trkpt>
      <trkpt lat="45.10347" lon="5.47308">
        <ele>804.2</ele>
        <time>2015-09-05T13:46:01Z</time>
      </trkpt>
      <trkpt lat="45.10356" lon="5.47313">
        <ele>804.6</ele>
        <time>2015-09-05T13:46:04Z</time>
      </trkpt>
      <trkpt lat="45.10365" lon="5.47317">
        <ele>805</ele>
        <time>2015-09-05T13:46:07Z</time>
      </trkpt>
      <trkpt lat="45.10374" lon="5.47321">
        <ele>805.5</ele>
        <time>2015-09-05T13:46:10Z</time>
      </trkpt>
      <trkpt lat="45.10383" lon="5.47324">
        <ele>806.6</ele>
        <time>2015-09-05T13:46:13Z</time>
      </trkpt>
      <trkpt lat="45.10393" lon="5.47325">
        <ele>807.1</ele>
        <time>2015-09-05T13:46:16Z</time>
      </trkpt>
      <trkpt lat="45.10402" lon="5.47325">
        <ele>807.8</ele>
        <time>2015-09-05T13:46:20Z</time>
      </trkpt>
      <trkpt lat="45.10402" lon="5.47339">
        <ele>808.6</ele>
        <time>2015-09-05T13:46:29Z</time>
      </trkpt>
      <trkpt lat="45.10403" lon="5.47352">
        <ele>809.3</ele>
        <time>2015-09-05T13:46:36Z</time>
      </trkpt>
      <trkpt lat="45.10407" lon="5.47365">
        <ele>810.3</ele>
        <time>2015-09-05T13:46:43Z</time>
      </trkpt>
      <trkpt lat="45.10411" lon="5.47377">
        <ele>811.5</ele>
        <time>2015-09-05T13:46:50Z</time>
      </trkpt>
      <trkpt lat="45.10415" lon="5.4739">
        <ele>812.8</ele>
        <time>2015-09-05T13:46:57Z</time>
      </trkpt>
      <trkpt lat="45.10419" lon="5.47403">
        <ele>814.2</ele>
        <time>2015-09-05T13:47:04Z</time>
      </trkpt>
      <trkpt lat="45.10422" lon="5.47415">
        <ele>815.9</ele>
        <time>2015-09-05T13:47:11Z</time>
      </trkpt>
      <trkpt lat="45.10425" lon="5.47428">
        <ele>817.8</ele>
        <time>2015-09-05T13:47:19Z</time>
      </trkpt>
      <trkpt lat="45.1043" lon="5.4744">
        <ele>819.2</ele>
        <time>2015-09-05T13:47:26Z</time>
      </trkpt>
      <trkpt lat="45.10438" lon="5.47448">
        <ele>820.6</ele>
        <time>2015-09-05T13:47:33Z</time>
      </trkpt>
      <trkpt lat="45.10448" lon="5.47449">
        <ele>821.7</ele>
        <time>2015-09-05T13:47:39Z</time>
      </trkpt>
      <trkpt lat="45.10457" lon="5.47449">
        <ele>823</ele>
        <time>2015-09-05T13:47:45Z</time>
      </trkpt>
      <trkpt lat="45.10466" lon="5.4745">
        <ele>824.3</ele>
        <time>2015-09-05T13:47:51Z</time>
      </trkpt>
      <trkpt lat="45.10475" lon="5.47451">
        <ele>825.6</ele>
        <time>2015-09-05T13:47:57Z</time>
      </trkpt>
      <trkpt lat="45.10485" lon="5.47451">
        <ele>826.9</ele>
        <time>2015-09-05T13:48:03Z</time>
      </trkpt>
      <trkpt lat="45.10494" lon="5.47453">
        <ele>828.1</ele>
        <time>2015-09-05T13:48:09Z</time>
      </trkpt>
      <trkpt lat="45.10503" lon="5.47453">
        <ele>829.5</ele>
        <time>2015-09-05T13:48:15Z</time>
      </trkpt>
      <trkpt lat="45.10512" lon="5.47448">
        <ele>830.8</ele>
        <time>2015-09-05T13:48:21Z</time>
      </trkpt>
      <trkpt lat="45.1052" lon="5.4744">
        <ele>832.1</ele>
        <time>2015-09-05T13:48:27Z</time>
      </trkpt>
      <trkpt lat="45.10524" lon="5.47428">
        <ele>833.2</ele>
        <time>2015-09-05T13:48:33Z</time>
      </trkpt>
      <trkpt lat="45.10525" lon="5.47414">
        <ele>834.5</ele>
        <time>2015-09-05T13:48:39Z</time>
      </trkpt>
      <trkpt lat="45.10529" lon="5.47403">
        <ele>835.8</ele>
        <time>2015-09-05T13:48:45Z</time>
      </trkpt>
      <trkpt lat="45.10537" lon="5.47395">
        <ele>837.1</ele>
        <time>2015-09-05T13:48:51Z</time>
      </trkpt>
      <trkpt lat="45.10546" lon="5.47396">
        <ele>838.8</ele>
        <time>2015-09-05T13:48:57Z</time>
      </trkpt>
      <trkpt lat="45.10556" lon="5.474">
        <ele>840.7</ele>
        <time>2015-09-05T13:49:04Z</time>
      </trkpt>
      <trkpt lat="45.10565" lon="5.47406">
        <ele>842.1</ele>
        <time>2015-09-05T13:49:11Z</time>
      </trkpt>
      <trkpt lat="45.10574" lon="5.47412">
        <ele>843.5</ele>
        <time>2015-09-05T13:49:18Z</time>
      </trkpt>
      <trkpt lat="45.10582" lon="5.47419">
        <ele>844.8</ele>
        <time>2015-09-05T13:49:24Z</time>
      </trkpt>
      <trkpt lat="45.10591" lon="5.47428">
        <ele>846.5</ele>
        <time>2015-09-05T13:49:32Z</time>
      </trkpt>
      <trkpt lat="45.10601" lon="5.47432">
        <ele>847.7</ele>
        <time>2015-09-05T13:49:38Z</time>
      </trkpt>
      <trkpt lat="45.1061" lon="5.47434">
        <ele>849.1</ele>
        <time>2015-09-05T13:49:44Z</time>
      </trkpt>
      <trkpt lat="45.1062" lon="5.47437">
        <ele>850.3</ele>
        <time>2015-09-05T13:49:50Z</time>
      </trkpt>
      <trkpt lat="45.10631" lon="5.47436">
        <ele>851.8</ele>
        <time>2015-09-05T13:49:56Z</time>
      </trkpt>
      <trkpt lat="45.10641" lon="5.47437">
        <ele>853.1</ele>
        <time>2015-09-05T13:50:02Z</time>
      </trkpt>
      <trkpt lat="45.1065" lon="5.47437">
        <ele>852.7</ele>
        <time>2015-09-05T13:50:07Z</time>
      </trkpt>
      <trkpt lat="45.10661" lon="5.47439">
        <ele>853.8</ele>
        <time>2015-09-05T13:50:12Z</time>
      </trkpt>
      <trkpt lat="45.10671" lon="5.47441">
        <ele>854.6</ele>
        <time>2015-09-05T13:50:16Z</time>
      </trkpt>
      <trkpt lat="45.10681" lon="5.47445">
        <ele>855.2</ele>
        <time>2015-09-05T13:50:20Z</time>
      </trkpt>
      <trkpt lat="45.10691" lon="5.47449">
        <ele>855.6</ele>
        <time>2015-09-05T13:50:24Z</time>
      </trkpt>
      <trkpt lat="45.10699" lon="5.47455">
        <ele>856</ele>
        <time>2015-09-05T13:50:28Z</time>
      </trkpt>
      <trkpt lat="45.10708" lon="5.47462">
        <ele>856.4</ele>
        <time>2015-09-05T13:50:32Z</time>
      </trkpt>
      <trkpt lat="45.10716" lon="5.47469">
        <ele>856.8</ele>
        <time>2015-09-05T13:50:36Z</time>
      </trkpt>
      <trkpt lat="45.10723" lon="5.47477">
        <ele>857.3</ele>
        <time>2015-09-05T13:50:40Z</time>
      </trkpt>
      <trkpt lat="45.10732" lon="5.47487">
        <ele>857.8</ele>
        <time>2015-09-05T13:50:45Z</time>
      </trkpt>
      <trkpt lat="45.10739" lon="5.47496">
        <ele>858.2</ele>
        <time>2015-09-05T13:50:49Z</time>
      </trkpt>
      <trkpt lat="45.10745" lon="5.47504">
        <ele>858.6</ele>
        <time>2015-09-05T13:50:53Z</time>
      </trkpt>
      <trkpt lat="45.10753" lon="5.47516">
        <ele>859.2</ele>
        <time>2015-09-05T13:50:58Z</time>
      </trkpt>
      <trkpt lat="45.10761" lon="5.47526">
        <ele>859.9</ele>
        <time>2015-09-05T13:51:03Z</time>
      </trkpt>
      <trkpt lat="45.10769" lon="5.47534">
        <ele>860.5</ele>
        <time>2015-09-05T13:51:08Z</time>
      </trkpt>
      <trkpt lat="45.10776" lon="5.47543">
        <ele>861.4</ele>
        <time>2015-09-05T13:51:14Z</time>
      </trkpt>
      <trkpt lat="45.10783" lon="5.47554">
        <ele>862.3</ele>
        <time>2015-09-05T13:51:20Z</time>
      </trkpt>
      <trkpt lat="45.1079" lon="5.47565">
        <ele>863.1</ele>
        <time>2015-09-05T13:51:26Z</time>
      </trkpt>
      <trkpt lat="45.10796" lon="5.47577">
        <ele>864</ele>
        <time>2015-09-05T13:51:32Z</time>
      </trkpt>
      <trkpt lat="45.10801" lon="5.47589">
        <ele>864.8</ele>
        <time>2015-09-05T13:51:38Z</time>
      </trkpt>
      <trkpt lat="45.10807" lon="5.47601">
        <ele>865.7</ele>
        <time>2015-09-05T13:51:44Z</time>
      </trkpt>
      <trkpt lat="45.10811" lon="5.47614">
        <ele>866.6</ele>
        <time>2015-09-05T13:51:50Z</time>
      </trkpt>
      <trkpt lat="45.10816" lon="5.47625">
        <ele>867.6</ele>
        <time>2015-09-05T13:51:56Z</time>
      </trkpt>
      <trkpt lat="45.10823" lon="5.47636">
        <ele>868.8</ele>
        <time>2015-09-05T13:52:03Z</time>
      </trkpt>
      <trkpt lat="45.10831" lon="5.47644">
        <ele>867.7</ele>
        <time>2015-09-05T13:52:09Z</time>
      </trkpt>
      <trkpt lat="45.1084" lon="5.47651">
        <ele>869.8</ele>
        <time>2015-09-05T13:52:16Z</time>
      </trkpt>
      <trkpt lat="45.10848" lon="5.47657">
        <ele>871.7</ele>
        <time>2015-09-05T13:52:23Z</time>
      </trkpt>
      <trkpt lat="45.10858" lon="5.47663">
        <ele>873.5</ele>
        <time>2015-09-05T13:52:30Z</time>
      </trkpt>
      <trkpt lat="45.10867" lon="5.47667">
        <ele>875.2</ele>
        <time>2015-09-05T13:52:37Z</time>
      </trkpt>
      <trkpt lat="45.10876" lon="5.47671">
        <ele>876.6</ele>
        <time>2015-09-05T13:52:43Z</time>
      </trkpt>
      <trkpt lat="45.10885" lon="5.47676">
        <ele>878.1</ele>
        <time>2015-09-05T13:52:49Z</time>
      </trkpt>
      <trkpt lat="45.10894" lon="5.47681">
        <ele>879.5</ele>
        <time>2015-09-05T13:52:55Z</time>
      </trkpt>
      <trkpt lat="45.10902" lon="5.47684">
        <ele>880.9</ele>
        <time>2015-09-05T13:53:01Z</time>
      </trkpt>
      <trkpt lat="45.10911" lon="5.47686">
        <ele>882.3</ele>
        <time>2015-09-05T13:53:07Z</time>
      </trkpt>
      <trkpt lat="45.10914" lon="5.477">
        <ele>884</ele>
        <time>2015-09-05T13:53:16Z</time>
      </trkpt>
      <trkpt lat="45.1091" lon="5.47713">
        <ele>885.6</ele>
        <time>2015-09-05T13:53:24Z</time>
      </trkpt>
      <trkpt lat="45.1091" lon="5.47727">
        <ele>887.6</ele>
        <time>2015-09-05T13:53:35Z</time>
      </trkpt>
      <trkpt lat="45.10912" lon="5.47739">
        <ele>889.8</ele>
        <time>2015-09-05T13:53:48Z</time>
      </trkpt>
      <trkpt lat="45.10921" lon="5.47743">
        <ele>891.3</ele>
        <time>2015-09-05T13:53:56Z</time>
      </trkpt>
      <trkpt lat="45.1093" lon="5.47743">
        <ele>892.6</ele>
        <time>2015-09-05T13:54:03Z</time>
      </trkpt>
      <trkpt lat="45.1094" lon="5.47743">
        <ele>893.4</ele>
        <time>2015-09-05T13:54:11Z</time>
      </trkpt>
      <trkpt lat="45.10948" lon="5.47749">
        <ele>894.5</ele>
        <time>2015-09-05T13:54:34Z</time>
      </trkpt>
      <trkpt lat="45.10958" lon="5.4775">
        <ele>894.6</ele>
        <time>2015-09-05T13:54:44Z</time>
      </trkpt>
      <trkpt lat="45.10968" lon="5.47748">
        <ele>894.7</ele>
        <time>2015-09-05T13:54:51Z</time>
      </trkpt>
      <trkpt lat="45.10977" lon="5.47743">
        <ele>895.1</ele>
        <time>2015-09-05T13:55:00Z</time>
      </trkpt>
      <trkpt lat="45.10983" lon="5.47732">
        <ele>896.7</ele>
        <time>2015-09-05T13:55:28Z</time>
      </trkpt>
      <trkpt lat="45.10985" lon="5.47718">
        <ele>897</ele>
        <time>2015-09-05T13:55:37Z</time>
      </trkpt>
      <trkpt lat="45.10984" lon="5.47705">
        <ele>897.5</ele>
        <time>2015-09-05T13:55:46Z</time>
      </trkpt>
      <trkpt lat="45.10989" lon="5.47692">
        <ele>898.6</ele>
        <time>2015-09-05T13:55:55Z</time>
      </trkpt>
      <trkpt lat="45.10994" lon="5.47681">
        <ele>899.6</ele>
        <time>2015-09-05T13:56:03Z</time>
      </trkpt>
      <trkpt lat="45.10999" lon="5.47669">
        <ele>900.6</ele>
        <time>2015-09-05T13:56:11Z</time>
      </trkpt>
      <trkpt lat="45.11005" lon="5.47658">
        <ele>902</ele>
        <time>2015-09-05T13:56:19Z</time>
      </trkpt>
      <trkpt lat="45.11014" lon="5.47654">
        <ele>903.1</ele>
        <time>2015-09-05T13:56:26Z</time>
      </trkpt>
      <trkpt lat="45.11023" lon="5.47651">
        <ele>903.9</ele>
        <time>2015-09-05T13:56:33Z</time>
      </trkpt>
      <trkpt lat="45.11033" lon="5.47652">
        <ele>904.8</ele>
        <time>2015-09-05T13:56:41Z</time>
      </trkpt>
      <trkpt lat="45.11042" lon="5.47654">
        <ele>906</ele>
        <time>2015-09-05T13:56:48Z</time>
      </trkpt>
      <trkpt lat="45.11051" lon="5.47658">
        <ele>907.2</ele>
        <time>2015-09-05T13:56:55Z</time>
      </trkpt>
      <trkpt lat="45.1106" lon="5.4766">
        <ele>908.5</ele>
        <time>2015-09-05T13:57:01Z</time>
      </trkpt>
      <trkpt lat="45.11069" lon="5.47664">
        <ele>912</ele>
        <time>2015-09-05T13:57:22Z</time>
      </trkpt>
      <trkpt lat="45.11074" lon="5.47676">
        <ele>913.8</ele>
        <time>2015-09-05T13:57:33Z</time>
      </trkpt>
      <trkpt lat="45.1108" lon="5.47685">
        <ele>916.5</ele>
        <time>2015-09-05T13:57:59Z</time>
      </trkpt>
      <trkpt lat="45.11087" lon="5.47695">
        <ele>917.7</ele>
        <time>2015-09-05T13:58:07Z</time>
      </trkpt>
      <trkpt lat="45.11094" lon="5.47703">
        <ele>918.8</ele>
        <time>2015-09-05T13:58:16Z</time>
      </trkpt>
      <trkpt lat="45.11101" lon="5.47712">
        <ele>920.1</ele>
        <time>2015-09-05T13:58:26Z</time>
      </trkpt>
      <trkpt lat="45.11108" lon="5.47721">
        <ele>921</ele>
        <time>2015-09-05T13:58:33Z</time>
      </trkpt>
      <trkpt lat="45.11115" lon="5.47731">
        <ele>922.2</ele>
        <time>2015-09-05T13:58:41Z</time>
      </trkpt>
      <trkpt lat="45.11123" lon="5.47739">
        <ele>923.6</ele>
        <time>2015-09-05T13:58:49Z</time>
      </trkpt>
      <trkpt lat="45.11131" lon="5.47748">
        <ele>924.7</ele>
        <time>2015-09-05T13:58:57Z</time>
      </trkpt>
      <trkpt lat="45.11138" lon="5.47756">
        <ele>925.4</ele>
        <time>2015-09-05T13:59:04Z</time>
      </trkpt>
      <trkpt lat="45.11144" lon="5.47767">
        <ele>926</ele>
        <time>2015-09-05T13:59:12Z</time>
      </trkpt>
      <trkpt lat="45.11151" lon="5.47779">
        <ele>927.4</ele>
        <time>2015-09-05T14:07:10Z</time>
      </trkpt>
      <trkpt lat="45.11161" lon="5.47787">
        <ele>927.2</ele>
        <time>2015-09-05T14:07:13Z</time>
      </trkpt>
      <trkpt lat="45.11172" lon="5.47789">
        <ele>926.9</ele>
        <time>2015-09-05T14:07:17Z</time>
      </trkpt>
      <trkpt lat="45.11184" lon="5.47784">
        <ele>926.4</ele>
        <time>2015-09-05T14:07:28Z</time>
      </trkpt>
      <trkpt lat="45.11194" lon="5.47784">
        <ele>926.2</ele>
        <time>2015-09-05T14:07:33Z</time>
      </trkpt>
      <trkpt lat="45.11203" lon="5.47782">
        <ele>926.5</ele>
        <time>2015-09-05T14:07:40Z</time>
      </trkpt>
      <trkpt lat="45.11212" lon="5.4778">
        <ele>927.5</ele>
        <time>2015-09-05T14:07:57Z</time>
      </trkpt>
      <trkpt lat="45.11221" lon="5.4778">
        <ele>928.2</ele>
        <time>2015-09-05T14:08:06Z</time>
      </trkpt>
      <trkpt lat="45.11231" lon="5.47784">
        <ele>928.9</ele>
        <time>2015-09-05T14:08:16Z</time>
      </trkpt>
      <trkpt lat="45.1124" lon="5.47788">
        <ele>929.2</ele>
        <time>2015-09-05T14:08:24Z</time>
      </trkpt>
      <trkpt lat="45.1125" lon="5.47793">
        <ele>929.4</ele>
        <time>2015-09-05T14:08:30Z</time>
      </trkpt>
      <trkpt lat="45.11257" lon="5.47802">
        <ele>929.9</ele>
        <time>2015-09-05T14:08:36Z</time>
      </trkpt>
      <trkpt lat="45.11265" lon="5.47813">
        <ele>930.5</ele>
        <time>2015-09-05T14:08:41Z</time>
      </trkpt>
      <trkpt lat="45.11271" lon="5.47823">
        <ele>931</ele>
        <time>2015-09-05T14:08:45Z</time>
      </trkpt>
      <trkpt lat="45.11278" lon="5.47832">
        <ele>931.8</ele>
        <time>2015-09-05T14:08:52Z</time>
      </trkpt>
      <trkpt lat="45.11284" lon="5.47841">
        <ele>933.4</ele>
        <time>2015-09-05T14:09:03Z</time>
      </trkpt>
      <trkpt lat="45.11291" lon="5.47852">
        <ele>934.9</ele>
        <time>2015-09-05T14:09:12Z</time>
      </trkpt>
      <trkpt lat="45.11301" lon="5.47857">
        <ele>936.2</ele>
        <time>2015-09-05T14:09:20Z</time>
      </trkpt>
      <trkpt lat="45.11308" lon="5.47864">
        <ele>937.3</ele>
        <time>2015-09-05T14:09:28Z</time>
      </trkpt>
      <trkpt lat="45.11315" lon="5.47875">
        <ele>938.2</ele>
        <time>2015-09-05T14:09:36Z</time>
      </trkpt>
      <trkpt lat="45.11321" lon="5.47887">
        <ele>939.2</ele>
        <time>2015-09-05T14:09:43Z</time>
      </trkpt>
      <trkpt lat="45.11327" lon="5.47897">
        <ele>939.6</ele>
        <time>2015-09-05T14:09:47Z</time>
      </trkpt>
      <trkpt lat="45.11332" lon="5.47909">
        <ele>940.3</ele>
        <time>2015-09-05T14:09:52Z</time>
      </trkpt>
      <trkpt lat="45.11338" lon="5.47921">
        <ele>941.2</ele>
        <time>2015-09-05T14:09:59Z</time>
      </trkpt>
      <trkpt lat="45.11346" lon="5.47928">
        <ele>942.3</ele>
        <time>2015-09-05T14:10:06Z</time>
      </trkpt>
      <trkpt lat="45.11355" lon="5.47935">
        <ele>943.3</ele>
        <time>2015-09-05T14:10:13Z</time>
      </trkpt>
      <trkpt lat="45.11363" lon="5.47944">
        <ele>944.2</ele>
        <time>2015-09-05T14:10:19Z</time>
      </trkpt>
      <trkpt lat="45.11369" lon="5.47953">
        <ele>945</ele>
        <time>2015-09-05T14:10:25Z</time>
      </trkpt>
      <trkpt lat="45.11377" lon="5.47962">
        <ele>946.8</ele>
        <time>2015-09-05T14:10:34Z</time>
      </trkpt>
      <trkpt lat="45.11384" lon="5.47971">
        <ele>949</ele>
        <time>2015-09-05T14:10:54Z</time>
      </trkpt>
      <trkpt lat="45.11391" lon="5.47979">
        <ele>950.4</ele>
        <time>2015-09-05T14:11:05Z</time>
      </trkpt>
      <trkpt lat="45.11399" lon="5.47986">
        <ele>951.9</ele>
        <time>2015-09-05T14:11:17Z</time>
      </trkpt>
      <trkpt lat="45.11407" lon="5.47995">
        <ele>953.5</ele>
        <time>2015-09-05T14:11:29Z</time>
      </trkpt>
      <trkpt lat="45.11415" lon="5.48002">
        <ele>955.2</ele>
        <time>2015-09-05T14:11:45Z</time>
      </trkpt>
      <trkpt lat="45.1142" lon="5.48013">
        <ele>956.1</ele>
        <time>2015-09-05T14:11:54Z</time>
      </trkpt>
      <trkpt lat="45.11428" lon="5.48022">
        <ele>957.2</ele>
        <time>2015-09-05T14:12:02Z</time>
      </trkpt>
      <trkpt lat="45.11433" lon="5.48032">
        <ele>958.2</ele>
        <time>2015-09-05T14:12:10Z</time>
      </trkpt>
      <trkpt lat="45.11442" lon="5.4804">
        <ele>959.1</ele>
        <time>2015-09-05T14:12:18Z</time>
      </trkpt>
      <trkpt lat="45.11449" lon="5.48049">
        <ele>960.4</ele>
        <time>2015-09-05T14:12:28Z</time>
      </trkpt>
      <trkpt lat="45.11457" lon="5.48056">
        <ele>961.3</ele>
        <time>2015-09-05T14:12:36Z</time>
      </trkpt>
      <trkpt lat="45.11467" lon="5.4806">
        <ele>962.3</ele>
        <time>2015-09-05T14:12:44Z</time>
      </trkpt>
      <trkpt lat="45.11476" lon="5.48061">
        <ele>963.5</ele>
        <time>2015-09-05T14:12:51Z</time>
      </trkpt>
      <trkpt lat="45.11485" lon="5.48065">
        <ele>964.6</ele>
        <time>2015-09-05T14:12:58Z</time>
      </trkpt>
      <trkpt lat="45.11495" lon="5.48066">
        <ele>965.5</ele>
        <time>2015-09-05T14:13:04Z</time>
      </trkpt>
      <trkpt lat="45.11504" lon="5.48067">
        <ele>966.8</ele>
        <time>2015-09-05T14:13:12Z</time>
      </trkpt>
      <trkpt lat="45.11514" lon="5.48069">
        <ele>968</ele>
        <time>2015-09-05T14:13:20Z</time>
      </trkpt>
      <trkpt lat="45.11524" lon="5.48072">
        <ele>969.1</ele>
        <time>2015-09-05T14:13:27Z</time>
      </trkpt>
      <trkpt lat="45.11535" lon="5.48073">
        <ele>969.9</ele>
        <time>2015-09-05T14:13:33Z</time>
      </trkpt>
      <trkpt lat="45.11546" lon="5.48074">
        <ele>970.6</ele>
        <time>2015-09-05T14:13:38Z</time>
      </trkpt>
      <trkpt lat="45.11554" lon="5.48079">
        <ele>971.1</ele>
        <time>2015-09-05T14:13:43Z</time>
      </trkpt>
      <trkpt lat="45.11563" lon="5.48084">
        <ele>971.6</ele>
        <time>2015-09-05T14:13:49Z</time>
      </trkpt>
      <trkpt lat="45.11574" lon="5.48088">
        <ele>972.5</ele>
        <time>2015-09-05T14:13:55Z</time>
      </trkpt>
      <trkpt lat="45.11582" lon="5.48094">
        <ele>973.1</ele>
        <time>2015-09-05T14:13:59Z</time>
      </trkpt>
      <trkpt lat="45.11594" lon="5.48098">
        <ele>973.9</ele>
        <time>2015-09-05T14:14:04Z</time>
      </trkpt>
      <trkpt lat="45.11603" lon="5.481">
        <ele>974.8</ele>
        <time>2015-09-05T14:14:09Z</time>
      </trkpt>
      <trkpt lat="45.11614" lon="5.48104">
        <ele>975.8</ele>
        <time>2015-09-05T14:14:15Z</time>
      </trkpt>
      <trkpt lat="45.11624" lon="5.48105">
        <ele>976.8</ele>
        <time>2015-09-05T14:14:21Z</time>
      </trkpt>
      <trkpt lat="45.11634" lon="5.48108">
        <ele>977.5</ele>
        <time>2015-09-05T14:14:26Z</time>
      </trkpt>
      <trkpt lat="45.11643" lon="5.48112">
        <ele>978.5</ele>
        <time>2015-09-05T14:14:33Z</time>
      </trkpt>
      <trkpt lat="45.11652" lon="5.48114">
        <ele>979.3</ele>
        <time>2015-09-05T14:14:37Z</time>
      </trkpt>
      <trkpt lat="45.11662" lon="5.48117">
        <ele>980.3</ele>
        <time>2015-09-05T14:14:43Z</time>
      </trkpt>
      <trkpt lat="45.11671" lon="5.48117">
        <ele>981.4</ele>
        <time>2015-09-05T14:14:48Z</time>
      </trkpt>
      <trkpt lat="45.11681" lon="5.48117">
        <ele>982.3</ele>
        <time>2015-09-05T14:14:53Z</time>
      </trkpt>
      <trkpt lat="45.11692" lon="5.48117">
        <ele>983.1</ele>
        <time>2015-09-05T14:14:59Z</time>
      </trkpt>
      <trkpt lat="45.11702" lon="5.48114">
        <ele>983.8</ele>
        <time>2015-09-05T14:15:04Z</time>
      </trkpt>
      <trkpt lat="45.11711" lon="5.4811">
        <ele>984.1</ele>
        <time>2015-09-05T14:15:08Z</time>
      </trkpt>
      <trkpt lat="45.11721" lon="5.48106">
        <ele>984.4</ele>
        <time>2015-09-05T14:15:12Z</time>
      </trkpt>
      <trkpt lat="45.11732" lon="5.48102">
        <ele>984.7</ele>
        <time>2015-09-05T14:15:17Z</time>
      </trkpt>
      <trkpt lat="45.11742" lon="5.48099">
        <ele>984.9</ele>
        <time>2015-09-05T14:15:21Z</time>
      </trkpt>
      <trkpt lat="45.11751" lon="5.48094">
        <ele>985</ele>
        <time>2015-09-05T14:15:25Z</time>
      </trkpt>
      <trkpt lat="45.11761" lon="5.4809">
        <ele>985.2</ele>
        <time>2015-09-05T14:15:29Z</time>
      </trkpt>
      <trkpt lat="45.11771" lon="5.48083">
        <ele>985.5</ele>
        <time>2015-09-05T14:15:34Z</time>
      </trkpt>
      <trkpt lat="45.11781" lon="5.48077">
        <ele>986</ele>
        <time>2015-09-05T14:15:39Z</time>
      </trkpt>
      <trkpt lat="45.11792" lon="5.48072">
        <ele>986.6</ele>
        <time>2015-09-05T14:15:44Z</time>
      </trkpt>
      <trkpt lat="45.11801" lon="5.48065">
        <ele>987.1</ele>
        <time>2015-09-05T14:15:49Z</time>
      </trkpt>
      <trkpt lat="45.1181" lon="5.48056">
        <ele>987.6</ele>
        <time>2015-09-05T14:15:54Z</time>
      </trkpt>
      <trkpt lat="45.11818" lon="5.48049">
        <ele>987.9</ele>
        <time>2015-09-05T14:15:58Z</time>
      </trkpt>
      <trkpt lat="45.11829" lon="5.48044">
        <ele>988.4</ele>
        <time>2015-09-05T14:16:03Z</time>
      </trkpt>
      <trkpt lat="45.11838" lon="5.48045">
        <ele>989.2</ele>
        <time>2015-09-05T14:16:08Z</time>
      </trkpt>
      <trkpt lat="45.11847" lon="5.48046">
        <ele>989.9</ele>
        <time>2015-09-05T14:16:13Z</time>
      </trkpt>
      <trkpt lat="45.11857" lon="5.48048">
        <ele>990.7</ele>
        <time>2015-09-05T14:16:18Z</time>
      </trkpt>
      <trkpt lat="45.11866" lon="5.48054">
        <ele>991.5</ele>
        <time>2015-09-05T14:16:23Z</time>
      </trkpt>
      <trkpt lat="45.11873" lon="5.48064">
        <ele>992.3</ele>
        <time>2015-09-05T14:16:28Z</time>
      </trkpt>
      <trkpt lat="45.1188" lon="5.48075">
        <ele>993.1</ele>
        <time>2015-09-05T14:16:33Z</time>
      </trkpt>
      <trkpt lat="45.11887" lon="5.48087">
        <ele>993.8</ele>
        <time>2015-09-05T14:16:38Z</time>
      </trkpt>
      <trkpt lat="45.11892" lon="5.48098">
        <ele>994.2</ele>
        <time>2015-09-05T14:16:42Z</time>
      </trkpt>
      <trkpt lat="45.11895" lon="5.48111">
        <ele>994.6</ele>
        <time>2015-09-05T14:16:47Z</time>
      </trkpt>
      <trkpt lat="45.11896" lon="5.48126">
        <ele>994.9</ele>
        <time>2015-09-05T14:16:52Z</time>
      </trkpt>
      <trkpt lat="45.11899" lon="5.48139">
        <ele>995.4</ele>
        <time>2015-09-05T14:16:57Z</time>
      </trkpt>
      <trkpt lat="45.11904" lon="5.48152">
        <ele>996.1</ele>
        <time>2015-09-05T14:17:02Z</time>
      </trkpt>
      <trkpt lat="45.11911" lon="5.48162">
        <ele>996.2</ele>
        <time>2015-09-05T14:17:07Z</time>
      </trkpt>
      <trkpt lat="45.11918" lon="5.48172">
        <ele>996.8</ele>
        <time>2015-09-05T14:17:12Z</time>
      </trkpt>
      <trkpt lat="45.11926" lon="5.4818">
        <ele>997.3</ele>
        <time>2015-09-05T14:17:17Z</time>
      </trkpt>
      <trkpt lat="45.11936" lon="5.48188">
        <ele>997.9</ele>
        <time>2015-09-05T14:17:22Z</time>
      </trkpt>
      <trkpt lat="45.11945" lon="5.48194">
        <ele>998.4</ele>
        <time>2015-09-05T14:17:27Z</time>
      </trkpt>
      <trkpt lat="45.11956" lon="5.48194">
        <ele>998.8</ele>
        <time>2015-09-05T14:17:32Z</time>
      </trkpt>
      <trkpt lat="45.11966" lon="5.48193">
        <ele>999.2</ele>
        <time>2015-09-05T14:17:36Z</time>
      </trkpt>
      <trkpt lat="45.11976" lon="5.48188">
        <ele>999.5</ele>
        <time>2015-09-05T14:17:40Z</time>
      </trkpt>
      <trkpt lat="45.11986" lon="5.48184">
        <ele>999.7</ele>
        <time>2015-09-05T14:17:43Z</time>
      </trkpt>
      <trkpt lat="45.11994" lon="5.4818">
        <ele>1001.2</ele>
        <time>2015-09-05T14:17:46Z</time>
      </trkpt>
      <trkpt lat="45.12006" lon="5.48174">
        <ele>1001.4</ele>
        <time>2015-09-05T14:17:50Z</time>
      </trkpt>
      <trkpt lat="45.12016" lon="5.48169">
        <ele>1001.6</ele>
        <time>2015-09-05T14:17:53Z</time>
      </trkpt>
      <trkpt lat="45.12027" lon="5.48164">
        <ele>1001.6</ele>
        <time>2015-09-05T14:17:56Z</time>
      </trkpt>
      <trkpt lat="45.12037" lon="5.48159">
        <ele>1001.6</ele>
        <time>2015-09-05T14:17:59Z</time>
      </trkpt>
      <trkpt lat="45.12049" lon="5.48155">
        <ele>1001.6</ele>
        <time>2015-09-05T14:18:02Z</time>
      </trkpt>
      <trkpt lat="45.1206" lon="5.48149">
        <ele>1001.6</ele>
        <time>2015-09-05T14:18:05Z</time>
      </trkpt>
      <trkpt lat="45.1207" lon="5.48143">
        <ele>1001.6</ele>
        <time>2015-09-05T14:18:08Z</time>
      </trkpt>
      <trkpt lat="45.12078" lon="5.48136">
        <ele>1001.7</ele>
        <time>2015-09-05T14:18:11Z</time>
      </trkpt>
      <trkpt lat="45.12088" lon="5.48129">
        <ele>1001.7</ele>
        <time>2015-09-05T14:18:14Z</time>
      </trkpt>
      <trkpt lat="45.12099" lon="5.48123">
        <ele>1001.8</ele>
        <time>2015-09-05T14:18:17Z</time>
      </trkpt>
      <trkpt lat="45.12109" lon="5.48117">
        <ele>1001.8</ele>
        <time>2015-09-05T14:18:20Z</time>
      </trkpt>
      <trkpt lat="45.1212" lon="5.48114">
        <ele>1001.9</ele>
        <time>2015-09-05T14:18:23Z</time>
      </trkpt>
      <trkpt lat="45.1213" lon="5.48112">
        <ele>1002.1</ele>
        <time>2015-09-05T14:18:26Z</time>
      </trkpt>
      <trkpt lat="45.12139" lon="5.48112">
        <ele>1002.2</ele>
        <time>2015-09-05T14:18:29Z</time>
      </trkpt>
      <trkpt lat="45.12149" lon="5.48114">
        <ele>1002.3</ele>
        <time>2015-09-05T14:18:32Z</time>
      </trkpt>
      <trkpt lat="45.12159" lon="5.48116">
        <ele>1002.5</ele>
        <time>2015-09-05T14:18:35Z</time>
      </trkpt>
      <trkpt lat="45.12169" lon="5.48116">
        <ele>1002.7</ele>
        <time>2015-09-05T14:18:38Z</time>
      </trkpt>
      <trkpt lat="45.12178" lon="5.48111">
        <ele>1002.9</ele>
        <time>2015-09-05T14:18:41Z</time>
      </trkpt>
      <trkpt lat="45.12185" lon="5.48102">
        <ele>1003.1</ele>
        <time>2015-09-05T14:18:44Z</time>
      </trkpt>
      <trkpt lat="45.1219" lon="5.48088">
        <ele>1003.4</ele>
        <time>2015-09-05T14:18:48Z</time>
      </trkpt>
      <trkpt lat="45.12197" lon="5.48078">
        <ele>1003.7</ele>
        <time>2015-09-05T14:18:53Z</time>
      </trkpt>
      <trkpt lat="45.1219" lon="5.48088">
        <ele>1004.4</ele>
        <time>2015-09-05T14:19:06Z</time>
      </trkpt>
      <trkpt lat="45.12188" lon="5.48101">
        <ele>1004.5</ele>
        <time>2015-09-05T14:19:11Z</time>
      </trkpt>
      <trkpt lat="45.12197" lon="5.48103">
        <ele>1004.7</ele>
        <time>2015-09-05T14:19:18Z</time>
      </trkpt>
      <trkpt lat="45.12206" lon="5.48099">
        <ele>1005.6</ele>
        <time>2015-09-05T14:19:26Z</time>
      </trkpt>
      <trkpt lat="45.12215" lon="5.481">
        <ele>1007.7</ele>
        <time>2015-09-05T14:19:37Z</time>
      </trkpt>
      <trkpt lat="45.12224" lon="5.48102">
        <ele>1009.6</ele>
        <time>2015-09-05T14:19:47Z</time>
      </trkpt>
      <trkpt lat="45.12234" lon="5.48103">
        <ele>1010.6</ele>
        <time>2015-09-05T14:19:55Z</time>
      </trkpt>
      <trkpt lat="45.12244" lon="5.48103">
        <ele>1011.4</ele>
        <time>2015-09-05T14:20:03Z</time>
      </trkpt>
      <trkpt lat="45.12254" lon="5.48103">
        <ele>1012.3</ele>
        <time>2015-09-05T14:20:11Z</time>
      </trkpt>
      <trkpt lat="45.12264" lon="5.48102">
        <ele>1013.2</ele>
        <time>2015-09-05T14:20:19Z</time>
      </trkpt>
      <trkpt lat="45.12274" lon="5.481">
        <ele>1014.4</ele>
        <time>2015-09-05T14:20:27Z</time>
      </trkpt>
      <trkpt lat="45.12284" lon="5.481">
        <ele>1015.3</ele>
        <time>2015-09-05T14:20:34Z</time>
      </trkpt>
      <trkpt lat="45.12293" lon="5.48101">
        <ele>1016.1</ele>
        <time>2015-09-05T14:20:41Z</time>
      </trkpt>
      <trkpt lat="45.12302" lon="5.48104">
        <ele>1016.9</ele>
        <time>2015-09-05T14:20:48Z</time>
      </trkpt>
      <trkpt lat="45.12311" lon="5.48106">
        <ele>1017.8</ele>
        <time>2015-09-05T14:20:56Z</time>
      </trkpt>
      <trkpt lat="45.1232" lon="5.48109">
        <ele>1018.7</ele>
        <time>2015-09-05T14:21:04Z</time>
      </trkpt>
      <trkpt lat="45.12329" lon="5.48113">
        <ele>1019.8</ele>
        <time>2015-09-05T14:21:13Z</time>
      </trkpt>
      <trkpt lat="45.12339" lon="5.48114">
        <ele>1020.9</ele>
        <time>2015-09-05T14:21:23Z</time>
      </trkpt>
      <trkpt lat="45.12348" lon="5.48118">
        <ele>1022.5</ele>
        <time>2015-09-05T14:21:34Z</time>
      </trkpt>
      <trkpt lat="45.12356" lon="5.48125">
        <ele>1023.8</ele>
        <time>2015-09-05T14:21:43Z</time>
      </trkpt>
      <trkpt lat="45.12363" lon="5.48135">
        <ele>1025.2</ele>
        <time>2015-09-05T14:21:53Z</time>
      </trkpt>
      <trkpt lat="45.12371" lon="5.48141">
        <ele>1027.8</ele>
        <time>2015-09-05T14:22:15Z</time>
      </trkpt>
      <trkpt lat="45.1238" lon="5.48143">
        <ele>1028.8</ele>
        <time>2015-09-05T14:22:24Z</time>
      </trkpt>
      <trkpt lat="45.12389" lon="5.48143">
        <ele>1030.9</ele>
        <time>2015-09-05T14:22:48Z</time>
      </trkpt>
      <trkpt lat="45.12398" lon="5.48143">
        <ele>1031.7</ele>
        <time>2015-09-05T14:22:56Z</time>
      </trkpt>
      <trkpt lat="45.12408" lon="5.48144">
        <ele>1033</ele>
        <time>2015-09-05T14:23:06Z</time>
      </trkpt>
      <trkpt lat="45.12417" lon="5.48146">
        <ele>1035</ele>
        <time>2015-09-05T14:23:17Z</time>
      </trkpt>
      <trkpt lat="45.12427" lon="5.48147">
        <ele>1036.4</ele>
        <time>2015-09-05T14:23:26Z</time>
      </trkpt>
      <trkpt lat="45.12437" lon="5.48146">
        <ele>1037.8</ele>
        <time>2015-09-05T14:23:34Z</time>
      </trkpt>
      <trkpt lat="45.12447" lon="5.48145">
        <ele>1039.6</ele>
        <time>2015-09-05T14:23:44Z</time>
      </trkpt>
      <trkpt lat="45.12456" lon="5.48144">
        <ele>1040.7</ele>
        <time>2015-09-05T14:23:52Z</time>
      </trkpt>
      <trkpt lat="45.12465" lon="5.48146">
        <ele>1042</ele>
        <time>2015-09-05T14:24:00Z</time>
      </trkpt>
      <trkpt lat="45.12474" lon="5.48149">
        <ele>1043.6</ele>
        <time>2015-09-05T14:24:09Z</time>
      </trkpt>
      <trkpt lat="45.12484" lon="5.48152">
        <ele>1045.1</ele>
        <time>2015-09-05T14:24:18Z</time>
      </trkpt>
      <trkpt lat="45.12493" lon="5.48157">
        <ele>1046.6</ele>
        <time>2015-09-05T14:24:27Z</time>
      </trkpt>
      <trkpt lat="45.12502" lon="5.4816">
        <ele>1048.1</ele>
        <time>2015-09-05T14:24:37Z</time>
      </trkpt>
      <trkpt lat="45.12512" lon="5.48163">
        <ele>1050.6</ele>
        <time>2015-09-05T14:24:48Z</time>
      </trkpt>
      <trkpt lat="45.12521" lon="5.48168">
        <ele>1051.3</ele>
        <time>2015-09-05T14:24:57Z</time>
      </trkpt>
      <trkpt lat="45.12531" lon="5.48172">
        <ele>1051.4</ele>
        <time>2015-09-05T14:25:01Z</time>
      </trkpt>
      <trkpt lat="45.12541" lon="5.48177">
        <ele>1051.5</ele>
        <time>2015-09-05T14:25:05Z</time>
      </trkpt>
      <trkpt lat="45.1255" lon="5.4818">
        <ele>1051.5</ele>
        <time>2015-09-05T14:25:09Z</time>
      </trkpt>
      <trkpt lat="45.12561" lon="5.48182">
        <ele>1051.6</ele>
        <time>2015-09-05T14:25:14Z</time>
      </trkpt>
      <trkpt lat="45.12571" lon="5.48183">
        <ele>1051.9</ele>
        <time>2015-09-05T14:25:18Z</time>
      </trkpt>
      <trkpt lat="45.12581" lon="5.48185">
        <ele>1052.1</ele>
        <time>2015-09-05T14:25:22Z</time>
      </trkpt>
      <trkpt lat="45.12591" lon="5.48186">
        <ele>1052.4</ele>
        <time>2015-09-05T14:25:26Z</time>
      </trkpt>
      <trkpt lat="45.12601" lon="5.48186">
        <ele>1052.8</ele>
        <time>2015-09-05T14:25:31Z</time>
      </trkpt>
      <trkpt lat="45.12612" lon="5.48188">
        <ele>1053.2</ele>
        <time>2015-09-05T14:25:36Z</time>
      </trkpt>
      <trkpt lat="45.12621" lon="5.48188">
        <ele>1053.9</ele>
        <time>2015-09-05T14:25:42Z</time>
      </trkpt>
      <trkpt lat="45.12631" lon="5.48188">
        <ele>1055.8</ele>
        <time>2015-09-05T14:26:10Z</time>
      </trkpt>
      <trkpt lat="45.1264" lon="5.4819">
        <ele>1056.3</ele>
        <time>2015-09-05T14:26:19Z</time>
      </trkpt>
      <trkpt lat="45.1265" lon="5.48189">
        <ele>1057.3</ele>
        <time>2015-09-05T14:26:33Z</time>
      </trkpt>
      <trkpt lat="45.12659" lon="5.48183">
        <ele>1057.8</ele>
        <time>2015-09-05T14:26:41Z</time>
      </trkpt>
      <trkpt lat="45.12668" lon="5.48176">
        <ele>1058.2</ele>
        <time>2015-09-05T14:26:47Z</time>
      </trkpt>
      <trkpt lat="45.12675" lon="5.48168">
        <ele>1058.9</ele>
        <time>2015-09-05T14:26:53Z</time>
      </trkpt>
      <trkpt lat="45.12684" lon="5.48161">
        <ele>1060.1</ele>
        <time>2015-09-05T14:27:01Z</time>
      </trkpt>
      <trkpt lat="45.12693" lon="5.48159">
        <ele>1061.2</ele>
        <time>2015-09-05T14:27:09Z</time>
      </trkpt>
      <trkpt lat="45.12702" lon="5.48163">
        <ele>1063.6</ele>
        <time>2015-09-05T14:27:22Z</time>
      </trkpt>
      <trkpt lat="45.1271" lon="5.48171">
        <ele>1066.1</ele>
        <time>2015-09-05T14:27:38Z</time>
      </trkpt>
      <trkpt lat="45.12718" lon="5.48177">
        <ele>1068.8</ele>
        <time>2015-09-05T14:27:55Z</time>
      </trkpt>
      <trkpt lat="45.12726" lon="5.48182">
        <ele>1070.8</ele>
        <time>2015-09-05T14:28:07Z</time>
      </trkpt>
      <trkpt lat="45.12734" lon="5.48188">
        <ele>1073.3</ele>
        <time>2015-09-05T14:28:21Z</time>
      </trkpt>
      <trkpt lat="45.12744" lon="5.48192">
        <ele>1075.5</ele>
        <time>2015-09-05T14:28:34Z</time>
      </trkpt>
      <trkpt lat="45.12751" lon="5.48201">
        <ele>1076.5</ele>
        <time>2015-09-05T14:28:43Z</time>
      </trkpt>
      <trkpt lat="45.12758" lon="5.4821">
        <ele>1077.2</ele>
        <time>2015-09-05T14:28:52Z</time>
      </trkpt>
      <trkpt lat="45.12765" lon="5.48217">
        <ele>1077.6</ele>
        <time>2015-09-05T14:29:00Z</time>
      </trkpt>
      <trkpt lat="45.12773" lon="5.48225">
        <ele>1078</ele>
        <time>2015-09-05T14:29:09Z</time>
      </trkpt>
      <trkpt lat="45.12782" lon="5.4823">
        <ele>1078.2</ele>
        <time>2015-09-05T14:29:18Z</time>
      </trkpt>
      <trkpt lat="45.12791" lon="5.48235">
        <ele>1078.4</ele>
        <time>2015-09-05T14:29:26Z</time>
      </trkpt>
      <trkpt lat="45.12801" lon="5.4824">
        <ele>1078.7</ele>
        <time>2015-09-05T14:29:33Z</time>
      </trkpt>
      <trkpt lat="45.12811" lon="5.48245">
        <ele>1079</ele>
        <time>2015-09-05T14:29:39Z</time>
      </trkpt>
      <trkpt lat="45.12821" lon="5.4825">
        <ele>1079.3</ele>
        <time>2015-09-05T14:29:45Z</time>
      </trkpt>
      <trkpt lat="45.12831" lon="5.48254">
        <ele>1079.7</ele>
        <time>2015-09-05T14:29:51Z</time>
      </trkpt>
      <trkpt lat="45.12841" lon="5.48257">
        <ele>1080.1</ele>
        <time>2015-09-05T14:29:57Z</time>
      </trkpt>
      <trkpt lat="45.12851" lon="5.48259">
        <ele>1080.4</ele>
        <time>2015-09-05T14:30:03Z</time>
      </trkpt>
      <trkpt lat="45.12861" lon="5.48263">
        <ele>1080.7</ele>
        <time>2015-09-05T14:30:09Z</time>
      </trkpt>
      <trkpt lat="45.1287" lon="5.48268">
        <ele>1081</ele>
        <time>2015-09-05T14:30:15Z</time>
      </trkpt>
      <trkpt lat="45.12879" lon="5.48274">
        <ele>1081.6</ele>
        <time>2015-09-05T14:30:21Z</time>
      </trkpt>
      <trkpt lat="45.12887" lon="5.48281">
        <ele>1081.9</ele>
        <time>2015-09-05T14:30:27Z</time>
      </trkpt>
      <trkpt lat="45.12896" lon="5.48288">
        <ele>1082.2</ele>
        <time>2015-09-05T14:30:33Z</time>
      </trkpt>
      <trkpt lat="45.12905" lon="5.48294">
        <ele>1082.3</ele>
        <time>2015-09-05T14:30:39Z</time>
      </trkpt>
      <trkpt lat="45.12915" lon="5.48291">
        <ele>1082.2</ele>
        <time>2015-09-05T14:30:43Z</time>
      </trkpt>
      <trkpt lat="45.12923" lon="5.48284">
        <ele>1082</ele>
        <time>2015-09-05T14:30:47Z</time>
      </trkpt>
      <trkpt lat="45.12931" lon="5.48277">
        <ele>1081.8</ele>
        <time>2015-09-05T14:30:53Z</time>
      </trkpt>
      <trkpt lat="45.12939" lon="5.48272">
        <ele>1081.5</ele>
        <time>2015-09-05T14:31:22Z</time>
      </trkpt>
      <trkpt lat="45.12947" lon="5.48265">
        <ele>1081.6</ele>
        <time>2015-09-05T14:32:05Z</time>
      </trkpt>
      <trkpt lat="45.12957" lon="5.4826">
        <ele>1081.8</ele>
        <time>2015-09-05T14:32:13Z</time>
      </trkpt>
      <trkpt lat="45.12967" lon="5.48254">
        <ele>1081.9</ele>
        <time>2015-09-05T14:32:19Z</time>
      </trkpt>
      <trkpt lat="45.12975" lon="5.4825">
        <ele>1082</ele>
        <time>2015-09-05T14:32:25Z</time>
      </trkpt>
      <trkpt lat="45.12983" lon="5.48243">
        <ele>1081.9</ele>
        <time>2015-09-05T14:32:30Z</time>
      </trkpt>
      <trkpt lat="45.12992" lon="5.48237">
        <ele>1081.9</ele>
        <time>2015-09-05T14:32:35Z</time>
      </trkpt>
      <trkpt lat="45.13002" lon="5.4823">
        <ele>1081.9</ele>
        <time>2015-09-05T14:32:41Z</time>
      </trkpt>
      <trkpt lat="45.13011" lon="5.48223">
        <ele>1082</ele>
        <time>2015-09-05T14:32:47Z</time>
      </trkpt>
      <trkpt lat="45.13019" lon="5.48217">
        <ele>1082.3</ele>
        <time>2015-09-05T14:32:53Z</time>
      </trkpt>
      <trkpt lat="45.13029" lon="5.48211">
        <ele>1082.4</ele>
        <time>2015-09-05T14:32:59Z</time>
      </trkpt>
      <trkpt lat="45.13038" lon="5.48203">
        <ele>1082.8</ele>
        <time>2015-09-05T14:33:05Z</time>
      </trkpt>
      <trkpt lat="45.13045" lon="5.48193">
        <ele>1083</ele>
        <time>2015-09-05T14:33:10Z</time>
      </trkpt>
      <trkpt lat="45.13051" lon="5.48183">
        <ele>1083</ele>
        <time>2015-09-05T14:33:14Z</time>
      </trkpt>
      <trkpt lat="45.13057" lon="5.48173">
        <ele>1082.8</ele>
        <time>2015-09-05T14:33:18Z</time>
      </trkpt>
      <trkpt lat="45.13064" lon="5.48164">
        <ele>1082.8</ele>
        <time>2015-09-05T14:33:22Z</time>
      </trkpt>
      <trkpt lat="45.13072" lon="5.48154">
        <ele>1082.8</ele>
        <time>2015-09-05T14:33:27Z</time>
      </trkpt>
      <trkpt lat="45.1308" lon="5.48147">
        <ele>1082.7</ele>
        <time>2015-09-05T14:33:31Z</time>
      </trkpt>
      <trkpt lat="45.13089" lon="5.48141">
        <ele>1082.6</ele>
        <time>2015-09-05T14:33:36Z</time>
      </trkpt>
      <trkpt lat="45.13098" lon="5.48136">
        <ele>1082.6</ele>
        <time>2015-09-05T14:33:41Z</time>
      </trkpt>
      <trkpt lat="45.13109" lon="5.48128">
        <ele>1082.6</ele>
        <time>2015-09-05T14:33:45Z</time>
      </trkpt>
      <trkpt lat="45.13119" lon="5.48123">
        <ele>1082.5</ele>
        <time>2015-09-05T14:33:48Z</time>
      </trkpt>
      <trkpt lat="45.13128" lon="5.48119">
        <ele>1082.5</ele>
        <time>2015-09-05T14:33:51Z</time>
      </trkpt>
      <trkpt lat="45.13138" lon="5.48116">
        <ele>1082.2</ele>
        <time>2015-09-05T14:33:55Z</time>
      </trkpt>
      <trkpt lat="45.13147" lon="5.48113">
        <ele>1082</ele>
        <time>2015-09-05T14:33:59Z</time>
      </trkpt>
      <trkpt lat="45.13157" lon="5.48113">
        <ele>1081.9</ele>
        <time>2015-09-05T14:34:03Z</time>
      </trkpt>
      <trkpt lat="45.13167" lon="5.48113">
        <ele>1081.7</ele>
        <time>2015-09-05T14:34:08Z</time>
      </trkpt>
      <trkpt lat="45.13178" lon="5.48113">
        <ele>1081.5</ele>
        <time>2015-09-05T14:34:13Z</time>
      </trkpt>
      <trkpt lat="45.13188" lon="5.48113">
        <ele>1081.3</ele>
        <time>2015-09-05T14:34:17Z</time>
      </trkpt>
      <trkpt lat="45.13198" lon="5.48114">
        <ele>1081</ele>
        <time>2015-09-05T14:34:22Z</time>
      </trkpt>
      <trkpt lat="45.1321" lon="5.48114">
        <ele>1080.7</ele>
        <time>2015-09-05T14:34:27Z</time>
      </trkpt>
      <trkpt lat="45.13222" lon="5.48113">
        <ele>1080.3</ele>
        <time>2015-09-05T14:34:31Z</time>
      </trkpt>
      <trkpt lat="45.13232" lon="5.48115">
        <ele>1080</ele>
        <time>2015-09-05T14:34:35Z</time>
      </trkpt>
      <trkpt lat="45.13243" lon="5.48116">
        <ele>1079.8</ele>
        <time>2015-09-05T14:34:40Z</time>
      </trkpt>
      <trkpt lat="45.13253" lon="5.48117">
        <ele>1079.7</ele>
        <time>2015-09-05T14:34:45Z</time>
      </trkpt>
      <trkpt lat="45.13264" lon="5.48118">
        <ele>1079.6</ele>
        <time>2015-09-05T14:34:49Z</time>
      </trkpt>
      <trkpt lat="45.13274" lon="5.48121">
        <ele>1079.2</ele>
        <time>2015-09-05T14:34:52Z</time>
      </trkpt>
      <trkpt lat="45.13283" lon="5.48128">
        <ele>1078.8</ele>
        <time>2015-09-05T14:34:55Z</time>
      </trkpt>
      <trkpt lat="45.13291" lon="5.48139">
        <ele>1078.1</ele>
        <time>2015-09-05T14:34:58Z</time>
      </trkpt>
      <trkpt lat="45.13299" lon="5.48147">
        <ele>1077.4</ele>
        <time>2015-09-05T14:35:01Z</time>
      </trkpt>
      <trkpt lat="45.13308" lon="5.48152">
        <ele>1076.9</ele>
        <time>2015-09-05T14:35:04Z</time>
      </trkpt>
      <trkpt lat="45.13317" lon="5.48157">
        <ele>1076.5</ele>
        <time>2015-09-05T14:35:07Z</time>
      </trkpt>
      <trkpt lat="45.13328" lon="5.4816">
        <ele>1076.3</ele>
        <time>2015-09-05T14:35:10Z</time>
      </trkpt>
      <trkpt lat="45.13337" lon="5.48161">
        <ele>1075.9</ele>
        <time>2015-09-05T14:35:13Z</time>
      </trkpt>
      <trkpt lat="45.13347" lon="5.4816">
        <ele>1075.5</ele>
        <time>2015-09-05T14:35:16Z</time>
      </trkpt>
      <trkpt lat="45.13357" lon="5.48157">
        <ele>1074.8</ele>
        <time>2015-09-05T14:35:20Z</time>
      </trkpt>
      <trkpt lat="45.13365" lon="5.4815">
        <ele>1074.1</ele>
        <time>2015-09-05T14:35:25Z</time>
      </trkpt>
      <trkpt lat="45.13374" lon="5.48147">
        <ele>1073.8</ele>
        <time>2015-09-05T14:35:31Z</time>
      </trkpt>
      <trkpt lat="45.13384" lon="5.48147">
        <ele>1074.2</ele>
        <time>2015-09-05T14:35:38Z</time>
      </trkpt>
      <trkpt lat="45.13393" lon="5.48145">
        <ele>1074.7</ele>
        <time>2015-09-05T14:35:44Z</time>
      </trkpt>
      <trkpt lat="45.13402" lon="5.48145">
        <ele>1075.1</ele>
        <time>2015-09-05T14:35:50Z</time>
      </trkpt>
      <trkpt lat="45.13411" lon="5.48148">
        <ele>1075.7</ele>
        <time>2015-09-05T14:35:57Z</time>
      </trkpt>
      <trkpt lat="45.13422" lon="5.4815">
        <ele>1076.4</ele>
        <time>2015-09-05T14:36:04Z</time>
      </trkpt>
      <trkpt lat="45.13431" lon="5.48154">
        <ele>1077.3</ele>
        <time>2015-09-05T14:36:11Z</time>
      </trkpt>
      <trkpt lat="45.13441" lon="5.48156">
        <ele>1078.2</ele>
        <time>2015-09-05T14:36:18Z</time>
      </trkpt>
      <trkpt lat="45.1345" lon="5.48159">
        <ele>1078.8</ele>
        <time>2015-09-05T14:36:25Z</time>
      </trkpt>
      <trkpt lat="45.1346" lon="5.48158">
        <ele>1079.3</ele>
        <time>2015-09-05T14:36:31Z</time>
      </trkpt>
      <trkpt lat="45.13469" lon="5.4816">
        <ele>1079.6</ele>
        <time>2015-09-05T14:36:38Z</time>
      </trkpt>
      <trkpt lat="45.13477" lon="5.48167">
        <ele>1079.9</ele>
        <time>2015-09-05T14:36:45Z</time>
      </trkpt>
      <trkpt lat="45.13486" lon="5.48173">
        <ele>1080.5</ele>
        <time>2015-09-05T14:36:53Z</time>
      </trkpt>
      <trkpt lat="45.13495" lon="5.48176">
        <ele>1081.1</ele>
        <time>2015-09-05T14:37:00Z</time>
      </trkpt>
      <trkpt lat="45.13504" lon="5.48179">
        <ele>1083.1</ele>
        <time>2015-09-05T14:37:13Z</time>
      </trkpt>
      <trkpt lat="45.13513" lon="5.48181">
        <ele>1083.8</ele>
        <time>2015-09-05T14:37:18Z</time>
      </trkpt>
      <trkpt lat="45.13523" lon="5.48185">
        <ele>1084.4</ele>
        <time>2015-09-05T14:37:24Z</time>
      </trkpt>
      <trkpt lat="45.13532" lon="5.48186">
        <ele>1085.2</ele>
        <time>2015-09-05T14:37:30Z</time>
      </trkpt>
      <trkpt lat="45.13542" lon="5.48186">
        <ele>1086.2</ele>
        <time>2015-09-05T14:37:37Z</time>
      </trkpt>
      <trkpt lat="45.13552" lon="5.48184">
        <ele>1086.8</ele>
        <time>2015-09-05T14:37:43Z</time>
      </trkpt>
      <trkpt lat="45.13562" lon="5.48186">
        <ele>1087.2</ele>
        <time>2015-09-05T14:37:48Z</time>
      </trkpt>
      <trkpt lat="45.13571" lon="5.48188">
        <ele>1087.6</ele>
        <time>2015-09-05T14:37:54Z</time>
      </trkpt>
      <trkpt lat="45.13581" lon="5.4819">
        <ele>1087.8</ele>
        <time>2015-09-05T14:37:59Z</time>
      </trkpt>
      <trkpt lat="45.13592" lon="5.48194">
        <ele>1088</ele>
        <time>2015-09-05T14:38:04Z</time>
      </trkpt>
      <trkpt lat="45.13601" lon="5.48198">
        <ele>1088.5</ele>
        <time>2015-09-05T14:38:09Z</time>
      </trkpt>
      <trkpt lat="45.1361" lon="5.48201">
        <ele>1089</ele>
        <time>2015-09-05T14:38:13Z</time>
      </trkpt>
      <trkpt lat="45.13619" lon="5.48204">
        <ele>1089.4</ele>
        <time>2015-09-05T14:38:17Z</time>
      </trkpt>
      <trkpt lat="45.13629" lon="5.48209">
        <ele>1090</ele>
        <time>2015-09-05T14:38:22Z</time>
      </trkpt>
      <trkpt lat="45.13637" lon="5.48216">
        <ele>1090.4</ele>
        <time>2015-09-05T14:38:27Z</time>
      </trkpt>
      <trkpt lat="45.13647" lon="5.4822">
        <ele>1090.8</ele>
        <time>2015-09-05T14:38:32Z</time>
      </trkpt>
      <trkpt lat="45.13656" lon="5.48226">
        <ele>1091</ele>
        <time>2015-09-05T14:38:36Z</time>
      </trkpt>
      <trkpt lat="45.13664" lon="5.48232">
        <ele>1091.2</ele>
        <time>2015-09-05T14:38:40Z</time>
      </trkpt>
      <trkpt lat="45.13672" lon="5.48238">
        <ele>1091.4</ele>
        <time>2015-09-05T14:38:44Z</time>
      </trkpt>
      <trkpt lat="45.13681" lon="5.48248">
        <ele>1091.7</ele>
        <time>2015-09-05T14:38:50Z</time>
      </trkpt>
      <trkpt lat="45.13686" lon="5.48259">
        <ele>1091.8</ele>
        <time>2015-09-05T14:38:54Z</time>
      </trkpt>
      <trkpt lat="45.13694" lon="5.48266">
        <ele>1088.1</ele>
        <time>2015-09-05T14:38:59Z</time>
      </trkpt>
      <trkpt lat="45.13703" lon="5.48274">
        <ele>1089</ele>
        <time>2015-09-05T14:39:04Z</time>
      </trkpt>
      <trkpt lat="45.13713" lon="5.48279">
        <ele>1089.5</ele>
        <time>2015-09-05T14:39:08Z</time>
      </trkpt>
      <trkpt lat="45.13721" lon="5.48288">
        <ele>1090</ele>
        <time>2015-09-05T14:39:12Z</time>
      </trkpt>
      <trkpt lat="45.13727" lon="5.48298">
        <ele>1090.3</ele>
        <time>2015-09-05T14:39:16Z</time>
      </trkpt>
      <trkpt lat="45.13734" lon="5.48311">
        <ele>1090.3</ele>
        <time>2015-09-05T14:39:20Z</time>
      </trkpt>
      <trkpt lat="45.13739" lon="5.48323">
        <ele>1090.3</ele>
        <time>2015-09-05T14:39:23Z</time>
      </trkpt>
      <trkpt lat="45.13744" lon="5.48336">
        <ele>1090.3</ele>
        <time>2015-09-05T14:39:28Z</time>
      </trkpt>
      <trkpt lat="45.1375" lon="5.48346">
        <ele>1090.3</ele>
        <time>2015-09-05T14:39:33Z</time>
      </trkpt>
      <trkpt lat="45.13756" lon="5.48359">
        <ele>1090.3</ele>
        <time>2015-09-05T14:39:37Z</time>
      </trkpt>
      <trkpt lat="45.13762" lon="5.48369">
        <ele>1090.3</ele>
        <time>2015-09-05T14:39:41Z</time>
      </trkpt>
      <trkpt lat="45.13769" lon="5.48379">
        <ele>1090.3</ele>
        <time>2015-09-05T14:39:45Z</time>
      </trkpt>
      <trkpt lat="45.13776" lon="5.48388">
        <ele>1090.4</ele>
        <time>2015-09-05T14:39:49Z</time>
      </trkpt>
      <trkpt lat="45.13786" lon="5.48396">
        <ele>1090.5</ele>
        <time>2015-09-05T14:39:54Z</time>
      </trkpt>
      <trkpt lat="45.13795" lon="5.48404">
        <ele>1090.7</ele>
        <time>2015-09-05T14:39:59Z</time>
      </trkpt>
      <trkpt lat="45.13804" lon="5.48411">
        <ele>1090.9</ele>
        <time>2015-09-05T14:40:05Z</time>
      </trkpt>
      <trkpt lat="45.13812" lon="5.48419">
        <ele>1091.2</ele>
        <time>2015-09-05T14:40:12Z</time>
      </trkpt>
      <trkpt lat="45.13821" lon="5.48424">
        <ele>1091.6</ele>
        <time>2015-09-05T14:40:18Z</time>
      </trkpt>
      <trkpt lat="45.13828" lon="5.48432">
        <ele>1092</ele>
        <time>2015-09-05T14:40:24Z</time>
      </trkpt>
      <trkpt lat="45.13835" lon="5.48441">
        <ele>1092.8</ele>
        <time>2015-09-05T14:40:31Z</time>
      </trkpt>
      <trkpt lat="45.13844" lon="5.48445">
        <ele>1094.2</ele>
        <time>2015-09-05T14:40:40Z</time>
      </trkpt>
      <trkpt lat="45.13853" lon="5.48441">
        <ele>1095.3</ele>
        <time>2015-09-05T14:40:47Z</time>
      </trkpt>
      <trkpt lat="45.13862" lon="5.48435">
        <ele>1096.1</ele>
        <time>2015-09-05T14:40:53Z</time>
      </trkpt>
      <trkpt lat="45.13871" lon="5.48431">
        <ele>1097</ele>
        <time>2015-09-05T14:41:00Z</time>
      </trkpt>
      <trkpt lat="45.13881" lon="5.48434">
        <ele>1097.7</ele>
        <time>2015-09-05T14:41:07Z</time>
      </trkpt>
      <trkpt lat="45.13891" lon="5.48436">
        <ele>1098.3</ele>
        <time>2015-09-05T14:41:13Z</time>
      </trkpt>
      <trkpt lat="45.139" lon="5.48433">
        <ele>1099</ele>
        <time>2015-09-05T14:41:19Z</time>
      </trkpt>
      <trkpt lat="45.13909" lon="5.48426">
        <ele>1099.5</ele>
        <time>2015-09-05T14:41:25Z</time>
      </trkpt>
      <trkpt lat="45.13919" lon="5.48427">
        <ele>1100.1</ele>
        <time>2015-09-05T14:41:31Z</time>
      </trkpt>
      <trkpt lat="45.13929" lon="5.48424">
        <ele>1100.6</ele>
        <time>2015-09-05T14:41:36Z</time>
      </trkpt>
      <trkpt lat="45.13938" lon="5.4842">
        <ele>1100.9</ele>
        <time>2015-09-05T14:41:41Z</time>
      </trkpt>
      <trkpt lat="45.13947" lon="5.48417">
        <ele>1101.4</ele>
        <time>2015-09-05T14:41:47Z</time>
      </trkpt>
      <trkpt lat="45.13957" lon="5.48415">
        <ele>1102</ele>
        <time>2015-09-05T14:41:52Z</time>
      </trkpt>
      <trkpt lat="45.13967" lon="5.48416">
        <ele>1102.8</ele>
        <time>2015-09-05T14:41:58Z</time>
      </trkpt>
      <trkpt lat="45.13977" lon="5.48418">
        <ele>1103.9</ele>
        <time>2015-09-05T14:42:05Z</time>
      </trkpt>
      <trkpt lat="45.13987" lon="5.48422">
        <ele>1105</ele>
        <time>2015-09-05T14:42:11Z</time>
      </trkpt>
      <trkpt lat="45.13996" lon="5.48426">
        <ele>1106</ele>
        <time>2015-09-05T14:42:17Z</time>
      </trkpt>
      <trkpt lat="45.14006" lon="5.48431">
        <ele>1106.9</ele>
        <time>2015-09-05T14:42:23Z</time>
      </trkpt>
      <trkpt lat="45.14016" lon="5.48437">
        <ele>1108</ele>
        <time>2015-09-05T14:42:31Z</time>
      </trkpt>
      <trkpt lat="45.14025" lon="5.48441">
        <ele>1108.9</ele>
        <time>2015-09-05T14:42:39Z</time>
      </trkpt>
      <trkpt lat="45.14035" lon="5.48446">
        <ele>1109.6</ele>
        <time>2015-09-05T14:42:45Z</time>
      </trkpt>
      <trkpt lat="45.14044" lon="5.48448">
        <ele>1110.3</ele>
        <time>2015-09-05T14:42:50Z</time>
      </trkpt>
      <trkpt lat="45.14055" lon="5.48447">
        <ele>1110.9</ele>
        <time>2015-09-05T14:42:55Z</time>
      </trkpt>
      <trkpt lat="45.14065" lon="5.48449">
        <ele>1112</ele>
        <time>2015-09-05T14:43:02Z</time>
      </trkpt>
      <trkpt lat="45.14075" lon="5.4845">
        <ele>1112.9</ele>
        <time>2015-09-05T14:43:08Z</time>
      </trkpt>
      <trkpt lat="45.14084" lon="5.48452">
        <ele>1113.7</ele>
        <time>2015-09-05T14:43:14Z</time>
      </trkpt>
      <trkpt lat="45.14093" lon="5.48456">
        <ele>1114.7</ele>
        <time>2015-09-05T14:43:21Z</time>
      </trkpt>
      <trkpt lat="45.14102" lon="5.48462">
        <ele>1115.8</ele>
        <time>2015-09-05T14:43:29Z</time>
      </trkpt>
      <trkpt lat="45.14112" lon="5.48465">
        <ele>1117</ele>
        <time>2015-09-05T14:43:36Z</time>
      </trkpt>
      <trkpt lat="45.14121" lon="5.48468">
        <ele>1118</ele>
        <time>2015-09-05T14:43:42Z</time>
      </trkpt>
      <trkpt lat="45.14131" lon="5.48472">
        <ele>1118.8</ele>
        <time>2015-09-05T14:43:49Z</time>
      </trkpt>
      <trkpt lat="45.14142" lon="5.48473">
        <ele>1119.6</ele>
        <time>2015-09-05T14:43:56Z</time>
      </trkpt>
      <trkpt lat="45.14151" lon="5.48472">
        <ele>1120.3</ele>
        <time>2015-09-05T14:44:02Z</time>
      </trkpt>
      <trkpt lat="45.1416" lon="5.48474">
        <ele>1121</ele>
        <time>2015-09-05T14:44:08Z</time>
      </trkpt>
      <trkpt lat="45.14169" lon="5.48478">
        <ele>1121.5</ele>
        <time>2015-09-05T14:44:15Z</time>
      </trkpt>
      <trkpt lat="45.14178" lon="5.48484">
        <ele>1122.1</ele>
        <time>2015-09-05T14:44:22Z</time>
      </trkpt>
      <trkpt lat="45.14187" lon="5.4849">
        <ele>1122.5</ele>
        <time>2015-09-05T14:44:29Z</time>
      </trkpt>
      <trkpt lat="45.14196" lon="5.48495">
        <ele>1122.8</ele>
        <time>2015-09-05T14:44:35Z</time>
      </trkpt>
      <trkpt lat="45.14205" lon="5.485">
        <ele>1123.1</ele>
        <time>2015-09-05T14:44:41Z</time>
      </trkpt>
      <trkpt lat="45.14214" lon="5.48506">
        <ele>1123.5</ele>
        <time>2015-09-05T14:44:47Z</time>
      </trkpt>
      <trkpt lat="45.14222" lon="5.48512">
        <ele>1124</ele>
        <time>2015-09-05T14:44:53Z</time>
      </trkpt>
      <trkpt lat="45.14232" lon="5.48517">
        <ele>1124.7</ele>
        <time>2015-09-05T14:45:00Z</time>
      </trkpt>
      <trkpt lat="45.14241" lon="5.48519">
        <ele>1125.3</ele>
        <time>2015-09-05T14:45:07Z</time>
      </trkpt>
      <trkpt lat="45.1425" lon="5.4852">
        <ele>1125.9</ele>
        <time>2015-09-05T14:45:14Z</time>
      </trkpt>
      <trkpt lat="45.1426" lon="5.48521">
        <ele>1126.7</ele>
        <time>2015-09-05T14:45:21Z</time>
      </trkpt>
      <trkpt lat="45.14269" lon="5.48526">
        <ele>1127.4</ele>
        <time>2015-09-05T14:45:28Z</time>
      </trkpt>
      <trkpt lat="45.14278" lon="5.48533">
        <ele>1127.9</ele>
        <time>2015-09-05T14:45:35Z</time>
      </trkpt>
      <trkpt lat="45.14286" lon="5.48541">
        <ele>1128.4</ele>
        <time>2015-09-05T14:45:43Z</time>
      </trkpt>
      <trkpt lat="45.14294" lon="5.48547">
        <ele>1129</ele>
        <time>2015-09-05T14:45:52Z</time>
      </trkpt>
      <trkpt lat="45.14303" lon="5.48542">
        <ele>1128.9</ele>
        <time>2015-09-05T14:45:56Z</time>
      </trkpt>
      <trkpt lat="45.14314" lon="5.48537">
        <ele>1128.7</ele>
        <time>2015-09-05T14:45:59Z</time>
      </trkpt>
      <trkpt lat="45.14326" lon="5.48532">
        <ele>1128</ele>
        <time>2015-09-05T14:46:02Z</time>
      </trkpt>
      <trkpt lat="45.14335" lon="5.48531">
        <ele>1127.5</ele>
        <time>2015-09-05T14:46:04Z</time>
      </trkpt>
      <trkpt lat="45.14344" lon="5.4853">
        <ele>1127.1</ele>
        <time>2015-09-05T14:46:06Z</time>
      </trkpt>
      <trkpt lat="45.14353" lon="5.48529">
        <ele>1126.7</ele>
        <time>2015-09-05T14:46:08Z</time>
      </trkpt>
      <trkpt lat="45.14362" lon="5.48528">
        <ele>1126.3</ele>
        <time>2015-09-05T14:46:10Z</time>
      </trkpt>
      <trkpt lat="45.14372" lon="5.48528">
        <ele>1126</ele>
        <time>2015-09-05T14:46:12Z</time>
      </trkpt>
      <trkpt lat="45.14382" lon="5.48526">
        <ele>1125.6</ele>
        <time>2015-09-05T14:46:14Z</time>
      </trkpt>
      <trkpt lat="45.14395" lon="5.48522">
        <ele>1125.3</ele>
        <time>2015-09-05T14:46:16Z</time>
      </trkpt>
      <trkpt lat="45.14408" lon="5.48519">
        <ele>1124.8</ele>
        <time>2015-09-05T14:46:18Z</time>
      </trkpt>
      <trkpt lat="45.14421" lon="5.48518">
        <ele>1124.1</ele>
        <time>2015-09-05T14:46:20Z</time>
      </trkpt>
      <trkpt lat="45.14434" lon="5.48521">
        <ele>1123.4</ele>
        <time>2015-09-05T14:46:22Z</time>
      </trkpt>
      <trkpt lat="45.14445" lon="5.48526">
        <ele>1122.9</ele>
        <time>2015-09-05T14:46:24Z</time>
      </trkpt>
      <trkpt lat="45.14456" lon="5.48532">
        <ele>1122.3</ele>
        <time>2015-09-05T14:46:26Z</time>
      </trkpt>
      <trkpt lat="45.14469" lon="5.48528">
        <ele>1121.6</ele>
        <time>2015-09-05T14:46:29Z</time>
      </trkpt>
      <trkpt lat="45.14473" lon="5.48516">
        <ele>1121</ele>
        <time>2015-09-05T14:46:31Z</time>
      </trkpt>
      <trkpt lat="45.14472" lon="5.48502">
        <ele>1120.3</ele>
        <time>2015-09-05T14:46:33Z</time>
      </trkpt>
      <trkpt lat="45.14469" lon="5.48484">
        <ele>1119.6</ele>
        <time>2015-09-05T14:46:35Z</time>
      </trkpt>
      <trkpt lat="45.14463" lon="5.48465">
        <ele>1118.9</ele>
        <time>2015-09-05T14:46:37Z</time>
      </trkpt>
      <trkpt lat="45.14462" lon="5.48443">
        <ele>1117.9</ele>
        <time>2015-09-05T14:46:39Z</time>
      </trkpt>
      <trkpt lat="45.14463" lon="5.48418">
        <ele>1116.8</ele>
        <time>2015-09-05T14:46:41Z</time>
      </trkpt>
      <trkpt lat="45.14463" lon="5.48404">
        <ele>1116.1</ele>
        <time>2015-09-05T14:46:42Z</time>
      </trkpt>
      <trkpt lat="45.14463" lon="5.4839">
        <ele>1115.4</ele>
        <time>2015-09-05T14:46:43Z</time>
      </trkpt>
      <trkpt lat="45.14463" lon="5.48376">
        <ele>1114.7</ele>
        <time>2015-09-05T14:46:44Z</time>
      </trkpt>
      <trkpt lat="45.14463" lon="5.48362">
        <ele>1113.9</ele>
        <time>2015-09-05T14:46:45Z</time>
      </trkpt>
      <trkpt lat="45.14463" lon="5.48347">
        <ele>1113.1</ele>
        <time>2015-09-05T14:46:46Z</time>
      </trkpt>
      <trkpt lat="45.14464" lon="5.48332">
        <ele>1112.3</ele>
        <time>2015-09-05T14:46:47Z</time>
      </trkpt>
      <trkpt lat="45.14463" lon="5.48318">
        <ele>1111.5</ele>
        <time>2015-09-05T14:46:48Z</time>
      </trkpt>
      <trkpt lat="45.14463" lon="5.48304">
        <ele>1110.6</ele>
        <time>2015-09-05T14:46:49Z</time>
      </trkpt>
      <trkpt lat="45.14464" lon="5.4829">
        <ele>1109.7</ele>
        <time>2015-09-05T14:46:50Z</time>
      </trkpt>
      <trkpt lat="45.14464" lon="5.48276">
        <ele>1108.7</ele>
        <time>2015-09-05T14:46:51Z</time>
      </trkpt>
      <trkpt lat="45.14465" lon="5.48263">
        <ele>1107.8</ele>
        <time>2015-09-05T14:46:52Z</time>
      </trkpt>
      <trkpt lat="45.14467" lon="5.48239">
        <ele>1105.8</ele>
        <time>2015-09-05T14:46:54Z</time>
      </trkpt>
      <trkpt lat="45.14469" lon="5.48219">
        <ele>1103.9</ele>
        <time>2015-09-05T14:46:56Z</time>
      </trkpt>
      <trkpt lat="45.14471" lon="5.48198">
        <ele>1102.1</ele>
        <time>2015-09-05T14:46:58Z</time>
      </trkpt>
      <trkpt lat="45.14472" lon="5.48178">
        <ele>1100.3</ele>
        <time>2015-09-05T14:47:00Z</time>
      </trkpt>
      <trkpt lat="45.14474" lon="5.48162">
        <ele>1098.6</ele>
        <time>2015-09-05T14:47:02Z</time>
      </trkpt>
      <trkpt lat="45.14481" lon="5.48146">
        <ele>1096.9</ele>
        <time>2015-09-05T14:47:04Z</time>
      </trkpt>
      <trkpt lat="45.1449" lon="5.48131">
        <ele>1095.1</ele>
        <time>2015-09-05T14:47:06Z</time>
      </trkpt>
      <trkpt lat="45.14496" lon="5.48116">
        <ele>1093.3</ele>
        <time>2015-09-05T14:47:08Z</time>
      </trkpt>
      <trkpt lat="45.145" lon="5.48104">
        <ele>1091.6</ele>
        <time>2015-09-05T14:47:10Z</time>
      </trkpt>
      <trkpt lat="45.14504" lon="5.48091">
        <ele>1089.9</ele>
        <time>2015-09-05T14:47:12Z</time>
      </trkpt>
      <trkpt lat="45.14509" lon="5.48074">
        <ele>1088.3</ele>
        <time>2015-09-05T14:47:14Z</time>
      </trkpt>
      <trkpt lat="45.14513" lon="5.48058">
        <ele>1086.7</ele>
        <time>2015-09-05T14:47:16Z</time>
      </trkpt>
      <trkpt lat="45.14516" lon="5.48044">
        <ele>1085.1</ele>
        <time>2015-09-05T14:47:18Z</time>
      </trkpt>
      <trkpt lat="45.14518" lon="5.48027">
        <ele>1083.1</ele>
        <time>2015-09-05T14:47:21Z</time>
      </trkpt>
      <trkpt lat="45.14521" lon="5.48011">
        <ele>1082.5</ele>
        <time>2015-09-05T14:47:24Z</time>
      </trkpt>
      <trkpt lat="45.14525" lon="5.47995">
        <ele>1080.6</ele>
        <time>2015-09-05T14:47:27Z</time>
      </trkpt>
      <trkpt lat="45.14522" lon="5.47981">
        <ele>1079</ele>
        <time>2015-09-05T14:47:30Z</time>
      </trkpt>
      <trkpt lat="45.14514" lon="5.47973">
        <ele>1077</ele>
        <time>2015-09-05T14:47:35Z</time>
      </trkpt>
      <trkpt lat="45.14504" lon="5.47967">
        <ele>1075.6</ele>
        <time>2015-09-05T14:47:40Z</time>
      </trkpt>
      <trkpt lat="45.14493" lon="5.47965">
        <ele>1074.5</ele>
        <time>2015-09-05T14:47:45Z</time>
      </trkpt>
      <trkpt lat="45.14484" lon="5.47964">
        <ele>1073.9</ele>
        <time>2015-09-05T14:47:49Z</time>
      </trkpt>
      <trkpt lat="45.14475" lon="5.47964">
        <ele>1073.4</ele>
        <time>2015-09-05T14:47:53Z</time>
      </trkpt>
      <trkpt lat="45.14464" lon="5.47965">
        <ele>1073.1</ele>
        <time>2015-09-05T14:47:58Z</time>
      </trkpt>
      <trkpt lat="45.14453" lon="5.47964">
        <ele>1073</ele>
        <time>2015-09-05T14:48:03Z</time>
      </trkpt>
      <trkpt lat="45.14443" lon="5.47964">
        <ele>1072.9</ele>
        <time>2015-09-05T14:48:08Z</time>
      </trkpt>
      <trkpt lat="45.14432" lon="5.47964">
        <ele>1073</ele>
        <time>2015-09-05T14:48:13Z</time>
      </trkpt>
      <trkpt lat="45.14422" lon="5.47964">
        <ele>1073.1</ele>
        <time>2015-09-05T14:48:17Z</time>
      </trkpt>
      <trkpt lat="45.14411" lon="5.47964">
        <ele>1073.2</ele>
        <time>2015-09-05T14:48:21Z</time>
      </trkpt>
      <trkpt lat="45.14401" lon="5.47963">
        <ele>1073.4</ele>
        <time>2015-09-05T14:48:25Z</time>
      </trkpt>
      <trkpt lat="45.1439" lon="5.47964">
        <ele>1073.7</ele>
        <time>2015-09-05T14:48:29Z</time>
      </trkpt>
      <trkpt lat="45.1438" lon="5.47965">
        <ele>1073.9</ele>
        <time>2015-09-05T14:48:33Z</time>
      </trkpt>
      <trkpt lat="45.14371" lon="5.47968">
        <ele>1074.2</ele>
        <time>2015-09-05T14:48:38Z</time>
      </trkpt>
      <trkpt lat="45.14363" lon="5.47958">
        <ele>1075.1</ele>
        <time>2015-09-05T14:48:53Z</time>
      </trkpt>
      <trkpt lat="45.14353" lon="5.47956">
        <ele>1075.3</ele>
        <time>2015-09-05T14:48:57Z</time>
      </trkpt>
      <trkpt lat="45.14344" lon="5.47954">
        <ele>1075.5</ele>
        <time>2015-09-05T14:49:01Z</time>
      </trkpt>
      <trkpt lat="45.14335" lon="5.47949">
        <ele>1075.6</ele>
        <time>2015-09-05T14:49:05Z</time>
      </trkpt>
      <trkpt lat="45.14325" lon="5.47945">
        <ele>1076.4</ele>
        <time>2015-09-05T14:49:09Z</time>
      </trkpt>
      <trkpt lat="45.14315" lon="5.4794">
        <ele>1076.7</ele>
        <time>2015-09-05T14:49:13Z</time>
      </trkpt>
      <trkpt lat="45.14307" lon="5.47933">
        <ele>1076.8</ele>
        <time>2015-09-05T14:49:16Z</time>
      </trkpt>
      <trkpt lat="45.14299" lon="5.47925">
        <ele>1076.8</ele>
        <time>2015-09-05T14:49:19Z</time>
      </trkpt>
      <trkpt lat="45.14292" lon="5.47916">
        <ele>1076.9</ele>
        <time>2015-09-05T14:49:22Z</time>
      </trkpt>
      <trkpt lat="45.14283" lon="5.47907">
        <ele>1076.9</ele>
        <time>2015-09-05T14:49:26Z</time>
      </trkpt>
      <trkpt lat="45.14275" lon="5.47898">
        <ele>1076.9</ele>
        <time>2015-09-05T14:49:29Z</time>
      </trkpt>
      <trkpt lat="45.14267" lon="5.47886">
        <ele>1076.9</ele>
        <time>2015-09-05T14:49:33Z</time>
      </trkpt>
      <trkpt lat="45.14261" lon="5.47876">
        <ele>1076.9</ele>
        <time>2015-09-05T14:49:36Z</time>
      </trkpt>
      <trkpt lat="45.14254" lon="5.47867">
        <ele>1076.9</ele>
        <time>2015-09-05T14:49:39Z</time>
      </trkpt>
      <trkpt lat="45.14245" lon="5.47856">
        <ele>1076.9</ele>
        <time>2015-09-05T14:49:43Z</time>
      </trkpt>
      <trkpt lat="45.14238" lon="5.47847">
        <ele>1076.9</ele>
        <time>2015-09-05T14:49:48Z</time>
      </trkpt>
      <trkpt lat="45.1423" lon="5.47839">
        <ele>1077.2</ele>
        <time>2015-09-05T14:49:54Z</time>
      </trkpt>
      <trkpt lat="45.14223" lon="5.47831">
        <ele>1077.5</ele>
        <time>2015-09-05T14:50:00Z</time>
      </trkpt>
      <trkpt lat="45.14214" lon="5.47824">
        <ele>1078.1</ele>
        <time>2015-09-05T14:50:06Z</time>
      </trkpt>
      <trkpt lat="45.14205" lon="5.4782">
        <ele>1078.7</ele>
        <time>2015-09-05T14:50:12Z</time>
      </trkpt>
      <trkpt lat="45.14195" lon="5.47816">
        <ele>1079.5</ele>
        <time>2015-09-05T14:50:18Z</time>
      </trkpt>
      <trkpt lat="45.14186" lon="5.47814">
        <ele>1080.2</ele>
        <time>2015-09-05T14:50:24Z</time>
      </trkpt>
      <trkpt lat="45.14177" lon="5.47809">
        <ele>1081.1</ele>
        <time>2015-09-05T14:50:30Z</time>
      </trkpt>
      <trkpt lat="45.14167" lon="5.47806">
        <ele>1081.8</ele>
        <time>2015-09-05T14:50:36Z</time>
      </trkpt>
      <trkpt lat="45.14158" lon="5.47801">
        <ele>1082.4</ele>
        <time>2015-09-05T14:50:41Z</time>
      </trkpt>
      <trkpt lat="45.1415" lon="5.47796">
        <ele>1083.2</ele>
        <time>2015-09-05T14:50:47Z</time>
      </trkpt>
      <trkpt lat="45.14141" lon="5.4779">
        <ele>1084</ele>
        <time>2015-09-05T14:50:53Z</time>
      </trkpt>
      <trkpt lat="45.14132" lon="5.47785">
        <ele>1084.8</ele>
        <time>2015-09-05T14:50:59Z</time>
      </trkpt>
      <trkpt lat="45.14122" lon="5.47783">
        <ele>1085.5</ele>
        <time>2015-09-05T14:51:05Z</time>
      </trkpt>
      <trkpt lat="45.14112" lon="5.47778">
        <ele>1086.2</ele>
        <time>2015-09-05T14:51:11Z</time>
      </trkpt>
      <trkpt lat="45.14103" lon="5.47774">
        <ele>1086.9</ele>
        <time>2015-09-05T14:51:16Z</time>
      </trkpt>
      <trkpt lat="45.14094" lon="5.47768">
        <ele>1087.6</ele>
        <time>2015-09-05T14:51:22Z</time>
      </trkpt>
      <trkpt lat="45.14086" lon="5.47761">
        <ele>1088.4</ele>
        <time>2015-09-05T14:51:28Z</time>
      </trkpt>
      <trkpt lat="45.14077" lon="5.47754">
        <ele>1089.2</ele>
        <time>2015-09-05T14:51:34Z</time>
      </trkpt>
      <trkpt lat="45.14068" lon="5.47748">
        <ele>1090.2</ele>
        <time>2015-09-05T14:51:40Z</time>
      </trkpt>
      <trkpt lat="45.14058" lon="5.47742">
        <ele>1091</ele>
        <time>2015-09-05T14:51:46Z</time>
      </trkpt>
      <trkpt lat="45.14049" lon="5.47737">
        <ele>1091.7</ele>
        <time>2015-09-05T14:51:52Z</time>
      </trkpt>
      <trkpt lat="45.14039" lon="5.47734">
        <ele>1092.4</ele>
        <time>2015-09-05T14:51:58Z</time>
      </trkpt>
      <trkpt lat="45.1403" lon="5.4773">
        <ele>1093.2</ele>
        <time>2015-09-05T14:52:04Z</time>
      </trkpt>
      <trkpt lat="45.1402" lon="5.47729">
        <ele>1094</ele>
        <time>2015-09-05T14:52:10Z</time>
      </trkpt>
      <trkpt lat="45.1401" lon="5.47726">
        <ele>1094.7</ele>
        <time>2015-09-05T14:52:16Z</time>
      </trkpt>
      <trkpt lat="45.14" lon="5.47721">
        <ele>1095.5</ele>
        <time>2015-09-05T14:52:22Z</time>
      </trkpt>
      <trkpt lat="45.1399" lon="5.47718">
        <ele>1096.2</ele>
        <time>2015-09-05T14:52:28Z</time>
      </trkpt>
      <trkpt lat="45.13981" lon="5.47714">
        <ele>1097</ele>
        <time>2015-09-05T14:52:34Z</time>
      </trkpt>
      <trkpt lat="45.13971" lon="5.47707">
        <ele>1097.7</ele>
        <time>2015-09-05T14:52:40Z</time>
      </trkpt>
      <trkpt lat="45.13961" lon="5.47703">
        <ele>1098.5</ele>
        <time>2015-09-05T14:52:46Z</time>
      </trkpt>
      <trkpt lat="45.13951" lon="5.477">
        <ele>1099.2</ele>
        <time>2015-09-05T14:52:52Z</time>
      </trkpt>
      <trkpt lat="45.13943" lon="5.47694">
        <ele>1100.1</ele>
        <time>2015-09-05T14:52:58Z</time>
      </trkpt>
      <trkpt lat="45.13933" lon="5.4769">
        <ele>1100.9</ele>
        <time>2015-09-05T14:53:04Z</time>
      </trkpt>
      <trkpt lat="45.13924" lon="5.47685">
        <ele>1101.7</ele>
        <time>2015-09-05T14:53:10Z</time>
      </trkpt>
      <trkpt lat="45.13915" lon="5.47678">
        <ele>1102.5</ele>
        <time>2015-09-05T14:53:16Z</time>
      </trkpt>
      <trkpt lat="45.13905" lon="5.47673">
        <ele>1103.3</ele>
        <time>2015-09-05T14:53:22Z</time>
      </trkpt>
      <trkpt lat="45.13896" lon="5.47668">
        <ele>1104</ele>
        <time>2015-09-05T14:53:28Z</time>
      </trkpt>
      <trkpt lat="45.13888" lon="5.47661">
        <ele>1104.7</ele>
        <time>2015-09-05T14:53:34Z</time>
      </trkpt>
      <trkpt lat="45.13879" lon="5.47654">
        <ele>1105.5</ele>
        <time>2015-09-05T14:53:40Z</time>
      </trkpt>
      <trkpt lat="45.1387" lon="5.47647">
        <ele>1106.4</ele>
        <time>2015-09-05T14:53:46Z</time>
      </trkpt>
      <trkpt lat="45.13861" lon="5.4764">
        <ele>1107.2</ele>
        <time>2015-09-05T14:53:52Z</time>
      </trkpt>
      <trkpt lat="45.13851" lon="5.47635">
        <ele>1108</ele>
        <time>2015-09-05T14:53:58Z</time>
      </trkpt>
      <trkpt lat="45.13842" lon="5.4763">
        <ele>1108.7</ele>
        <time>2015-09-05T14:54:04Z</time>
      </trkpt>
      <trkpt lat="45.13832" lon="5.47625">
        <ele>1109.6</ele>
        <time>2015-09-05T14:54:10Z</time>
      </trkpt>
      <trkpt lat="45.13823" lon="5.47619">
        <ele>1110.3</ele>
        <time>2015-09-05T14:54:16Z</time>
      </trkpt>
      <trkpt lat="45.13814" lon="5.47613">
        <ele>1111</ele>
        <time>2015-09-05T14:54:22Z</time>
      </trkpt>
      <trkpt lat="45.13804" lon="5.47609">
        <ele>1111.9</ele>
        <time>2015-09-05T14:54:28Z</time>
      </trkpt>
      <trkpt lat="45.13795" lon="5.47602">
        <ele>1112.8</ele>
        <time>2015-09-05T14:54:34Z</time>
      </trkpt>
      <trkpt lat="45.13787" lon="5.47594">
        <ele>1113.7</ele>
        <time>2015-09-05T14:54:39Z</time>
      </trkpt>
      <trkpt lat="45.13778" lon="5.47585">
        <ele>1114.6</ele>
        <time>2015-09-05T14:54:45Z</time>
      </trkpt>
      <trkpt lat="45.13771" lon="5.47576">
        <ele>1115.4</ele>
        <time>2015-09-05T14:54:50Z</time>
      </trkpt>
      <trkpt lat="45.13763" lon="5.47568">
        <ele>1116.2</ele>
        <time>2015-09-05T14:54:55Z</time>
      </trkpt>
      <trkpt lat="45.13756" lon="5.47562">
        <ele>1117</ele>
        <time>2015-09-05T14:55:00Z</time>
      </trkpt>
      <trkpt lat="45.13746" lon="5.47557">
        <ele>1117.9</ele>
        <time>2015-09-05T14:55:05Z</time>
      </trkpt>
      <trkpt lat="45.13736" lon="5.47553">
        <ele>1118.6</ele>
        <time>2015-09-05T14:55:10Z</time>
      </trkpt>
      <trkpt lat="45.13727" lon="5.47547">
        <ele>1119.5</ele>
        <time>2015-09-05T14:55:15Z</time>
      </trkpt>
      <trkpt lat="45.13718" lon="5.4754">
        <ele>1120.4</ele>
        <time>2015-09-05T14:55:20Z</time>
      </trkpt>
      <trkpt lat="45.1371" lon="5.47532">
        <ele>1121.3</ele>
        <time>2015-09-05T14:55:25Z</time>
      </trkpt>
      <trkpt lat="45.13702" lon="5.47524">
        <ele>1121.9</ele>
        <time>2015-09-05T14:55:30Z</time>
      </trkpt>
      <trkpt lat="45.13694" lon="5.47517">
        <ele>1122.8</ele>
        <time>2015-09-05T14:55:35Z</time>
      </trkpt>
      <trkpt lat="45.13686" lon="5.4751">
        <ele>1123.6</ele>
        <time>2015-09-05T14:55:40Z</time>
      </trkpt>
      <trkpt lat="45.13677" lon="5.47504">
        <ele>1124.3</ele>
        <time>2015-09-05T14:55:45Z</time>
      </trkpt>
      <trkpt lat="45.13669" lon="5.47498">
        <ele>1125.1</ele>
        <time>2015-09-05T14:55:50Z</time>
      </trkpt>
      <trkpt lat="45.1366" lon="5.4749">
        <ele>1125.9</ele>
        <time>2015-09-05T14:55:55Z</time>
      </trkpt>
      <trkpt lat="45.13652" lon="5.47481">
        <ele>1126.7</ele>
        <time>2015-09-05T14:56:00Z</time>
      </trkpt>
      <trkpt lat="45.13643" lon="5.47474">
        <ele>1127.6</ele>
        <time>2015-09-05T14:56:05Z</time>
      </trkpt>
      <trkpt lat="45.13634" lon="5.47467">
        <ele>1128.3</ele>
        <time>2015-09-05T14:56:10Z</time>
      </trkpt>
      <trkpt lat="45.13625" lon="5.4746">
        <ele>1129.1</ele>
        <time>2015-09-05T14:56:15Z</time>
      </trkpt>
      <trkpt lat="45.13616" lon="5.47453">
        <ele>1129.8</ele>
        <time>2015-09-05T14:56:20Z</time>
      </trkpt>
      <trkpt lat="45.13608" lon="5.47447">
        <ele>1130.7</ele>
        <time>2015-09-05T14:56:25Z</time>
      </trkpt>
      <trkpt lat="45.13599" lon="5.4744">
        <ele>1131.4</ele>
        <time>2015-09-05T14:56:30Z</time>
      </trkpt>
      <trkpt lat="45.13591" lon="5.47432">
        <ele>1132.3</ele>
        <time>2015-09-05T14:56:35Z</time>
      </trkpt>
      <trkpt lat="45.13582" lon="5.47425">
        <ele>1133.2</ele>
        <time>2015-09-05T14:56:40Z</time>
      </trkpt>
      <trkpt lat="45.13574" lon="5.47417">
        <ele>1134</ele>
        <time>2015-09-05T14:56:45Z</time>
      </trkpt>
      <trkpt lat="45.13566" lon="5.47409">
        <ele>1135</ele>
        <time>2015-09-05T14:56:50Z</time>
      </trkpt>
      <trkpt lat="45.1356" lon="5.47399">
        <ele>1136</ele>
        <time>2015-09-05T14:56:55Z</time>
      </trkpt>
      <trkpt lat="45.13554" lon="5.47388">
        <ele>1136.9</ele>
        <time>2015-09-05T14:57:00Z</time>
      </trkpt>
      <trkpt lat="45.13547" lon="5.47378">
        <ele>1137.8</ele>
        <time>2015-09-05T14:57:05Z</time>
      </trkpt>
      <trkpt lat="45.1354" lon="5.47368">
        <ele>1138.7</ele>
        <time>2015-09-05T14:57:10Z</time>
      </trkpt>
      <trkpt lat="45.13534" lon="5.47357">
        <ele>1139.5</ele>
        <time>2015-09-05T14:57:15Z</time>
      </trkpt>
      <trkpt lat="45.13526" lon="5.47348">
        <ele>1140.6</ele>
        <time>2015-09-05T14:57:20Z</time>
      </trkpt>
      <trkpt lat="45.13518" lon="5.4734">
        <ele>1141.2</ele>
        <time>2015-09-05T14:57:24Z</time>
      </trkpt>
      <trkpt lat="45.1351" lon="5.4733">
        <ele>1142.1</ele>
        <time>2015-09-05T14:57:29Z</time>
      </trkpt>
      <trkpt lat="45.13502" lon="5.47323">
        <ele>1142.9</ele>
        <time>2015-09-05T14:57:34Z</time>
      </trkpt>
      <trkpt lat="45.13495" lon="5.47315">
        <ele>1143.7</ele>
        <time>2015-09-05T14:57:39Z</time>
      </trkpt>
      <trkpt lat="45.13485" lon="5.47307">
        <ele>1144.5</ele>
        <time>2015-09-05T14:57:44Z</time>
      </trkpt>
      <trkpt lat="45.13476" lon="5.473">
        <ele>1145.5</ele>
        <time>2015-09-05T14:57:49Z</time>
      </trkpt>
      <trkpt lat="45.13468" lon="5.47291">
        <ele>1146.3</ele>
        <time>2015-09-05T14:57:54Z</time>
      </trkpt>
      <trkpt lat="45.1346" lon="5.47282">
        <ele>1147.1</ele>
        <time>2015-09-05T14:57:59Z</time>
      </trkpt>
      <trkpt lat="45.13452" lon="5.47273">
        <ele>1147.8</ele>
        <time>2015-09-05T14:58:04Z</time>
      </trkpt>
      <trkpt lat="45.13444" lon="5.47264">
        <ele>1148.6</ele>
        <time>2015-09-05T14:58:09Z</time>
      </trkpt>
      <trkpt lat="45.13435" lon="5.47257">
        <ele>1149.4</ele>
        <time>2015-09-05T14:58:14Z</time>
      </trkpt>
      <trkpt lat="45.13427" lon="5.47248">
        <ele>1150.2</ele>
        <time>2015-09-05T14:58:19Z</time>
      </trkpt>
      <trkpt lat="45.13419" lon="5.47239">
        <ele>1151</ele>
        <time>2015-09-05T14:58:24Z</time>
      </trkpt>
      <trkpt lat="45.13412" lon="5.47229">
        <ele>1151.7</ele>
        <time>2015-09-05T14:58:29Z</time>
      </trkpt>
      <trkpt lat="45.13409" lon="5.47217">
        <ele>1152.4</ele>
        <time>2015-09-05T14:58:34Z</time>
      </trkpt>
      <trkpt lat="45.13408" lon="5.47202">
        <ele>1153.2</ele>
        <time>2015-09-05T14:58:39Z</time>
      </trkpt>
      <trkpt lat="45.1341" lon="5.47188">
        <ele>1154</ele>
        <time>2015-09-05T14:58:44Z</time>
      </trkpt>
      <trkpt lat="45.13414" lon="5.47175">
        <ele>1154.9</ele>
        <time>2015-09-05T14:58:50Z</time>
      </trkpt>
      <trkpt lat="45.13423" lon="5.47173">
        <ele>1158.1</ele>
        <time>2015-09-05T14:59:30Z</time>
      </trkpt>
      <trkpt lat="45.13433" lon="5.47171">
        <ele>1158.1</ele>
        <time>2015-09-05T14:59:35Z</time>
      </trkpt>
      <trkpt lat="45.13442" lon="5.47167">
        <ele>1158.5</ele>
        <time>2015-09-05T14:59:40Z</time>
      </trkpt>
      <trkpt lat="45.13453" lon="5.47164">
        <ele>1159.1</ele>
        <time>2015-09-05T14:59:46Z</time>
      </trkpt>
      <trkpt lat="45.13461" lon="5.4716">
        <ele>1159.8</ele>
        <time>2015-09-05T14:59:51Z</time>
      </trkpt>
      <trkpt lat="45.13472" lon="5.47157">
        <ele>1160.7</ele>
        <time>2015-09-05T14:59:57Z</time>
      </trkpt>
      <trkpt lat="45.1348" lon="5.47149">
        <ele>1161.5</ele>
        <time>2015-09-05T15:00:02Z</time>
      </trkpt>
      <trkpt lat="45.13488" lon="5.47142">
        <ele>1162.2</ele>
        <time>2015-09-05T15:00:07Z</time>
      </trkpt>
      <trkpt lat="45.13496" lon="5.47139">
        <ele>1163</ele>
        <time>2015-09-05T15:00:12Z</time>
      </trkpt>
      <trkpt lat="45.13504" lon="5.47131">
        <ele>1164.9</ele>
        <time>2015-09-05T15:00:17Z</time>
      </trkpt>
      <trkpt lat="45.1351" lon="5.47121">
        <ele>1165.6</ele>
        <time>2015-09-05T15:00:22Z</time>
      </trkpt>
      <trkpt lat="45.13518" lon="5.47113">
        <ele>1166.2</ele>
        <time>2015-09-05T15:00:27Z</time>
      </trkpt>
      <trkpt lat="45.13525" lon="5.47105">
        <ele>1166.8</ele>
        <time>2015-09-05T15:00:32Z</time>
      </trkpt>
      <trkpt lat="45.13531" lon="5.47096">
        <ele>1167.4</ele>
        <time>2015-09-05T15:00:37Z</time>
      </trkpt>
      <trkpt lat="45.13539" lon="5.47089">
        <ele>1168.1</ele>
        <time>2015-09-05T15:00:42Z</time>
      </trkpt>
      <trkpt lat="45.13547" lon="5.47083">
        <ele>1168.9</ele>
        <time>2015-09-05T15:00:47Z</time>
      </trkpt>
      <trkpt lat="45.13555" lon="5.47076">
        <ele>1169.7</ele>
        <time>2015-09-05T15:00:52Z</time>
      </trkpt>
      <trkpt lat="45.13564" lon="5.47071">
        <ele>1170.5</ele>
        <time>2015-09-05T15:00:57Z</time>
      </trkpt>
      <trkpt lat="45.13573" lon="5.47065">
        <ele>1171.4</ele>
        <time>2015-09-05T15:01:02Z</time>
      </trkpt>
      <trkpt lat="45.13583" lon="5.47063">
        <ele>1172.5</ele>
        <time>2015-09-05T15:01:08Z</time>
      </trkpt>
      <trkpt lat="45.13593" lon="5.47058">
        <ele>1170.2</ele>
        <time>2015-09-05T15:01:14Z</time>
      </trkpt>
      <trkpt lat="45.13602" lon="5.47056">
        <ele>1172.6</ele>
        <time>2015-09-05T15:01:21Z</time>
      </trkpt>
      <trkpt lat="45.13612" lon="5.47059">
        <ele>1174.3</ele>
        <time>2015-09-05T15:01:27Z</time>
      </trkpt>
      <trkpt lat="45.1362" lon="5.47064">
        <ele>1175.6</ele>
        <time>2015-09-05T15:01:32Z</time>
      </trkpt>
      <trkpt lat="45.1363" lon="5.47067">
        <ele>1177.1</ele>
        <time>2015-09-05T15:01:38Z</time>
      </trkpt>
      <trkpt lat="45.13639" lon="5.47072">
        <ele>1178.2</ele>
        <time>2015-09-05T15:01:43Z</time>
      </trkpt>
      <trkpt lat="45.13648" lon="5.47077">
        <ele>1179.3</ele>
        <time>2015-09-05T15:01:48Z</time>
      </trkpt>
      <trkpt lat="45.13658" lon="5.47081">
        <ele>1180.3</ele>
        <time>2015-09-05T15:01:53Z</time>
      </trkpt>
      <trkpt lat="45.13666" lon="5.47086">
        <ele>1181.2</ele>
        <time>2015-09-05T15:01:58Z</time>
      </trkpt>
      <trkpt lat="45.13676" lon="5.47087">
        <ele>1182.3</ele>
        <time>2015-09-05T15:02:03Z</time>
      </trkpt>
      <trkpt lat="45.13685" lon="5.47086">
        <ele>1183.5</ele>
        <time>2015-09-05T15:02:08Z</time>
      </trkpt>
      <trkpt lat="45.13694" lon="5.47081">
        <ele>1184.7</ele>
        <time>2015-09-05T15:02:13Z</time>
      </trkpt>
      <trkpt lat="45.13701" lon="5.47073">
        <ele>1185.7</ele>
        <time>2015-09-05T15:02:18Z</time>
      </trkpt>
      <trkpt lat="45.13709" lon="5.47066">
        <ele>1186.7</ele>
        <time>2015-09-05T15:02:23Z</time>
      </trkpt>
      <trkpt lat="45.13717" lon="5.47058">
        <ele>1187.6</ele>
        <time>2015-09-05T15:02:28Z</time>
      </trkpt>
      <trkpt lat="45.13725" lon="5.47051">
        <ele>1188.6</ele>
        <time>2015-09-05T15:02:33Z</time>
      </trkpt>
      <trkpt lat="45.13734" lon="5.47045">
        <ele>1189.6</ele>
        <time>2015-09-05T15:02:38Z</time>
      </trkpt>
      <trkpt lat="45.13743" lon="5.47041">
        <ele>1190.6</ele>
        <time>2015-09-05T15:02:43Z</time>
      </trkpt>
      <trkpt lat="45.13752" lon="5.4704">
        <ele>1191.5</ele>
        <time>2015-09-05T15:02:48Z</time>
      </trkpt>
      <trkpt lat="45.13762" lon="5.47038">
        <ele>1193.7</ele>
        <time>2015-09-05T15:02:53Z</time>
      </trkpt>
      <trkpt lat="45.13771" lon="5.47033">
        <ele>1194.7</ele>
        <time>2015-09-05T15:02:58Z</time>
      </trkpt>
      <trkpt lat="45.13772" lon="5.4702">
        <ele>1195.9</ele>
        <time>2015-09-05T15:03:06Z</time>
      </trkpt>
      <trkpt lat="45.13771" lon="5.47007">
        <ele>1196.7</ele>
        <time>2015-09-05T15:03:11Z</time>
      </trkpt>
      <trkpt lat="45.13769" lon="5.46994">
        <ele>1197.5</ele>
        <time>2015-09-05T15:03:16Z</time>
      </trkpt>
      <trkpt lat="45.13763" lon="5.46981">
        <ele>1198.5</ele>
        <time>2015-09-05T15:03:22Z</time>
      </trkpt>
      <trkpt lat="45.13756" lon="5.4697">
        <ele>1199.2</ele>
        <time>2015-09-05T15:03:27Z</time>
      </trkpt>
      <trkpt lat="45.13747" lon="5.46962">
        <ele>1199.9</ele>
        <time>2015-09-05T15:03:32Z</time>
      </trkpt>
      <trkpt lat="45.13738" lon="5.46953">
        <ele>1200.6</ele>
        <time>2015-09-05T15:03:37Z</time>
      </trkpt>
      <trkpt lat="45.1373" lon="5.46943">
        <ele>1201.4</ele>
        <time>2015-09-05T15:03:42Z</time>
      </trkpt>
      <trkpt lat="45.13724" lon="5.46932">
        <ele>1202.2</ele>
        <time>2015-09-05T15:03:47Z</time>
      </trkpt>
      <trkpt lat="45.1372" lon="5.4692">
        <ele>1203.2</ele>
        <time>2015-09-05T15:03:52Z</time>
      </trkpt>
      <trkpt lat="45.1372" lon="5.46905">
        <ele>1204.2</ele>
        <time>2015-09-05T15:03:57Z</time>
      </trkpt>
      <trkpt lat="45.1372" lon="5.46891">
        <ele>1205.2</ele>
        <time>2015-09-05T15:04:02Z</time>
      </trkpt>
      <trkpt lat="45.13718" lon="5.46877">
        <ele>1206.1</ele>
        <time>2015-09-05T15:04:07Z</time>
      </trkpt>
      <trkpt lat="45.13716" lon="5.46864">
        <ele>1207.1</ele>
        <time>2015-09-05T15:04:12Z</time>
      </trkpt>
      <trkpt lat="45.13713" lon="5.4685">
        <ele>1208</ele>
        <time>2015-09-05T15:04:17Z</time>
      </trkpt>
      <trkpt lat="45.13711" lon="5.46836">
        <ele>1208.8</ele>
        <time>2015-09-05T15:04:22Z</time>
      </trkpt>
      <trkpt lat="45.1371" lon="5.46822">
        <ele>1209.6</ele>
        <time>2015-09-05T15:04:27Z</time>
      </trkpt>
      <trkpt lat="45.13707" lon="5.46809">
        <ele>1210.5</ele>
        <time>2015-09-05T15:04:32Z</time>
      </trkpt>
      <trkpt lat="45.13705" lon="5.46794">
        <ele>1211.4</ele>
        <time>2015-09-05T15:04:38Z</time>
      </trkpt>
      <trkpt lat="45.13701" lon="5.4678">
        <ele>1212.1</ele>
        <time>2015-09-05T15:04:43Z</time>
      </trkpt>
      <trkpt lat="45.13698" lon="5.46768">
        <ele>1212.8</ele>
        <time>2015-09-05T15:04:47Z</time>
      </trkpt>
      <trkpt lat="45.13696" lon="5.46755">
        <ele>1213.5</ele>
        <time>2015-09-05T15:04:52Z</time>
      </trkpt>
      <trkpt lat="45.13692" lon="5.46742">
        <ele>1214.3</ele>
        <time>2015-09-05T15:04:57Z</time>
      </trkpt>
      <trkpt lat="45.13689" lon="5.46728">
        <ele>1215.2</ele>
        <time>2015-09-05T15:05:02Z</time>
      </trkpt>
      <trkpt lat="45.13684" lon="5.46714">
        <ele>1216.1</ele>
        <time>2015-09-05T15:05:08Z</time>
      </trkpt>
      <trkpt lat="45.1368" lon="5.46702">
        <ele>1216.7</ele>
        <time>2015-09-05T15:05:12Z</time>
      </trkpt>
      <trkpt lat="45.13675" lon="5.46691">
        <ele>1217.6</ele>
        <time>2015-09-05T15:05:17Z</time>
      </trkpt>
      <trkpt lat="45.13669" lon="5.46679">
        <ele>1218.3</ele>
        <time>2015-09-05T15:05:22Z</time>
      </trkpt>
      <trkpt lat="45.13662" lon="5.46669">
        <ele>1219.1</ele>
        <time>2015-09-05T15:05:27Z</time>
      </trkpt>
      <trkpt lat="45.13654" lon="5.4666">
        <ele>1219.9</ele>
        <time>2015-09-05T15:05:32Z</time>
      </trkpt>
      <trkpt lat="45.13646" lon="5.46651">
        <ele>1220.7</ele>
        <time>2015-09-05T15:05:37Z</time>
      </trkpt>
      <trkpt lat="45.13638" lon="5.46642">
        <ele>1221.6</ele>
        <time>2015-09-05T15:05:42Z</time>
      </trkpt>
      <trkpt lat="45.1363" lon="5.46633">
        <ele>1222.6</ele>
        <time>2015-09-05T15:05:47Z</time>
      </trkpt>
      <trkpt lat="45.13622" lon="5.46624">
        <ele>1223.5</ele>
        <time>2015-09-05T15:05:52Z</time>
      </trkpt>
      <trkpt lat="45.13614" lon="5.46615">
        <ele>1224.5</ele>
        <time>2015-09-05T15:05:57Z</time>
      </trkpt>
      <trkpt lat="45.13607" lon="5.46606">
        <ele>1225.6</ele>
        <time>2015-09-05T15:06:02Z</time>
      </trkpt>
      <trkpt lat="45.136" lon="5.46596">
        <ele>1226.5</ele>
        <time>2015-09-05T15:06:07Z</time>
      </trkpt>
      <trkpt lat="45.13593" lon="5.46586">
        <ele>1227.5</ele>
        <time>2015-09-05T15:06:12Z</time>
      </trkpt>
      <trkpt lat="45.13585" lon="5.46577">
        <ele>1228.4</ele>
        <time>2015-09-05T15:06:17Z</time>
      </trkpt>
      <trkpt lat="45.13577" lon="5.46567">
        <ele>1229.4</ele>
        <time>2015-09-05T15:06:22Z</time>
      </trkpt>
      <trkpt lat="45.13569" lon="5.46557">
        <ele>1230.5</ele>
        <time>2015-09-05T15:06:27Z</time>
      </trkpt>
      <trkpt lat="45.13561" lon="5.46547">
        <ele>1231.5</ele>
        <time>2015-09-05T15:06:32Z</time>
      </trkpt>
      <trkpt lat="45.13553" lon="5.4654">
        <ele>1232.3</ele>
        <time>2015-09-05T15:06:36Z</time>
      </trkpt>
      <trkpt lat="45.13545" lon="5.46532">
        <ele>1233</ele>
        <time>2015-09-05T15:06:40Z</time>
      </trkpt>
      <trkpt lat="45.13535" lon="5.46525">
        <ele>1233.7</ele>
        <time>2015-09-05T15:06:44Z</time>
      </trkpt>
      <trkpt lat="45.13526" lon="5.46518">
        <ele>1234.4</ele>
        <time>2015-09-05T15:06:48Z</time>
      </trkpt>
      <trkpt lat="45.13517" lon="5.46511">
        <ele>1235</ele>
        <time>2015-09-05T15:06:52Z</time>
      </trkpt>
      <trkpt lat="45.13507" lon="5.46504">
        <ele>1235.5</ele>
        <time>2015-09-05T15:06:56Z</time>
      </trkpt>
      <trkpt lat="45.13496" lon="5.46497">
        <ele>1236.1</ele>
        <time>2015-09-05T15:07:00Z</time>
      </trkpt>
      <trkpt lat="45.13487" lon="5.46489">
        <ele>1236.7</ele>
        <time>2015-09-05T15:07:04Z</time>
      </trkpt>
      <trkpt lat="45.13479" lon="5.46484">
        <ele>1237.2</ele>
        <time>2015-09-05T15:07:07Z</time>
      </trkpt>
      <trkpt lat="45.1347" lon="5.46477">
        <ele>1237.6</ele>
        <time>2015-09-05T15:07:10Z</time>
      </trkpt>
      <trkpt lat="45.13461" lon="5.46471">
        <ele>1237.9</ele>
        <time>2015-09-05T15:07:13Z</time>
      </trkpt>
      <trkpt lat="45.13452" lon="5.46465">
        <ele>1238.3</ele>
        <time>2015-09-05T15:07:16Z</time>
      </trkpt>
      <trkpt lat="45.13444" lon="5.46459">
        <ele>1238.7</ele>
        <time>2015-09-05T15:07:19Z</time>
      </trkpt>
      <trkpt lat="45.13435" lon="5.46454">
        <ele>1239.1</ele>
        <time>2015-09-05T15:07:22Z</time>
      </trkpt>
      <trkpt lat="45.13426" lon="5.46449">
        <ele>1239.5</ele>
        <time>2015-09-05T15:07:25Z</time>
      </trkpt>
      <trkpt lat="45.13417" lon="5.46444">
        <ele>1239.9</ele>
        <time>2015-09-05T15:07:28Z</time>
      </trkpt>
      <trkpt lat="45.13407" lon="5.4644">
        <ele>1240.2</ele>
        <time>2015-09-05T15:07:31Z</time>
      </trkpt>
      <trkpt lat="45.13397" lon="5.46437">
        <ele>1240.6</ele>
        <time>2015-09-05T15:07:34Z</time>
      </trkpt>
      <trkpt lat="45.13388" lon="5.46433">
        <ele>1241</ele>
        <time>2015-09-05T15:07:37Z</time>
      </trkpt>
      <trkpt lat="45.13379" lon="5.46427">
        <ele>1241.4</ele>
        <time>2015-09-05T15:07:40Z</time>
      </trkpt>
      <trkpt lat="45.1337" lon="5.46421">
        <ele>1241.8</ele>
        <time>2015-09-05T15:07:43Z</time>
      </trkpt>
      <trkpt lat="45.13362" lon="5.46415">
        <ele>1242.3</ele>
        <time>2015-09-05T15:07:46Z</time>
      </trkpt>
      <trkpt lat="45.13354" lon="5.46409">
        <ele>1242.7</ele>
        <time>2015-09-05T15:07:49Z</time>
      </trkpt>
      <trkpt lat="45.13344" lon="5.464">
        <ele>1243.4</ele>
        <time>2015-09-05T15:07:53Z</time>
      </trkpt>
      <trkpt lat="45.13334" lon="5.46393">
        <ele>1244.1</ele>
        <time>2015-09-05T15:07:57Z</time>
      </trkpt>
      <trkpt lat="45.13324" lon="5.46384">
        <ele>1244.7</ele>
        <time>2015-09-05T15:08:01Z</time>
      </trkpt>
      <trkpt lat="45.13315" lon="5.46375">
        <ele>1245.3</ele>
        <time>2015-09-05T15:08:05Z</time>
      </trkpt>
      <trkpt lat="45.13307" lon="5.46366">
        <ele>1245.7</ele>
        <time>2015-09-05T15:08:08Z</time>
      </trkpt>
      <trkpt lat="45.133" lon="5.46358">
        <ele>1246.1</ele>
        <time>2015-09-05T15:08:11Z</time>
      </trkpt>
      <trkpt lat="45.13291" lon="5.46349">
        <ele>1246.6</ele>
        <time>2015-09-05T15:08:14Z</time>
      </trkpt>
      <trkpt lat="45.13283" lon="5.46341">
        <ele>1247.1</ele>
        <time>2015-09-05T15:08:17Z</time>
      </trkpt>
      <trkpt lat="45.13273" lon="5.46335">
        <ele>1247.5</ele>
        <time>2015-09-05T15:08:20Z</time>
      </trkpt>
      <trkpt lat="45.13265" lon="5.46325">
        <ele>1247.9</ele>
        <time>2015-09-05T15:08:23Z</time>
      </trkpt>
      <trkpt lat="45.13257" lon="5.46316">
        <ele>1248.2</ele>
        <time>2015-09-05T15:08:26Z</time>
      </trkpt>
      <trkpt lat="45.13251" lon="5.46307">
        <ele>1248.5</ele>
        <time>2015-09-05T15:08:29Z</time>
      </trkpt>
      <trkpt lat="45.13244" lon="5.46298">
        <ele>1248.9</ele>
        <time>2015-09-05T15:08:33Z</time>
      </trkpt>
      <trkpt lat="45.13237" lon="5.46289">
        <ele>1249.4</ele>
        <time>2015-09-05T15:08:37Z</time>
      </trkpt>
      <trkpt lat="45.13228" lon="5.46278">
        <ele>1250.2</ele>
        <time>2015-09-05T15:08:42Z</time>
      </trkpt>
      <trkpt lat="45.1322" lon="5.46269">
        <ele>1250.7</ele>
        <time>2015-09-05T15:08:46Z</time>
      </trkpt>
      <trkpt lat="45.13212" lon="5.46259">
        <ele>1251.2</ele>
        <time>2015-09-05T15:08:50Z</time>
      </trkpt>
      <trkpt lat="45.13204" lon="5.46251">
        <ele>1251.7</ele>
        <time>2015-09-05T15:08:54Z</time>
      </trkpt>
      <trkpt lat="45.13195" lon="5.46243">
        <ele>1252.5</ele>
        <time>2015-09-05T15:08:59Z</time>
      </trkpt>
      <trkpt lat="45.13186" lon="5.46235">
        <ele>1253.2</ele>
        <time>2015-09-05T15:09:04Z</time>
      </trkpt>
      <trkpt lat="45.13178" lon="5.46226">
        <ele>1253.8</ele>
        <time>2015-09-05T15:09:09Z</time>
      </trkpt>
      <trkpt lat="45.13169" lon="5.46218">
        <ele>1254.5</ele>
        <time>2015-09-05T15:09:14Z</time>
      </trkpt>
      <trkpt lat="45.13161" lon="5.46208">
        <ele>1255.5</ele>
        <time>2015-09-05T15:09:19Z</time>
      </trkpt>
      <trkpt lat="45.13153" lon="5.46199">
        <ele>1256.3</ele>
        <time>2015-09-05T15:09:24Z</time>
      </trkpt>
      <trkpt lat="45.13144" lon="5.4619">
        <ele>1257.4</ele>
        <time>2015-09-05T15:09:29Z</time>
      </trkpt>
      <trkpt lat="45.13136" lon="5.46181">
        <ele>1258.3</ele>
        <time>2015-09-05T15:09:34Z</time>
      </trkpt>
      <trkpt lat="45.13127" lon="5.46172">
        <ele>1259.2</ele>
        <time>2015-09-05T15:09:39Z</time>
      </trkpt>
      <trkpt lat="45.13118" lon="5.46164">
        <ele>1260.2</ele>
        <time>2015-09-05T15:09:44Z</time>
      </trkpt>
      <trkpt lat="45.13109" lon="5.46155">
        <ele>1261.2</ele>
        <time>2015-09-05T15:09:49Z</time>
      </trkpt>
      <trkpt lat="45.131" lon="5.46146">
        <ele>1262.1</ele>
        <time>2015-09-05T15:09:54Z</time>
      </trkpt>
      <trkpt lat="45.13091" lon="5.46138">
        <ele>1263.1</ele>
        <time>2015-09-05T15:09:59Z</time>
      </trkpt>
      <trkpt lat="45.13082" lon="5.46131">
        <ele>1264</ele>
        <time>2015-09-05T15:10:04Z</time>
      </trkpt>
      <trkpt lat="45.13074" lon="5.46122">
        <ele>1264.8</ele>
        <time>2015-09-05T15:10:09Z</time>
      </trkpt>
      <trkpt lat="45.13066" lon="5.46112">
        <ele>1265.7</ele>
        <time>2015-09-05T15:10:14Z</time>
      </trkpt>
      <trkpt lat="45.13059" lon="5.46101">
        <ele>1266.6</ele>
        <time>2015-09-05T15:10:19Z</time>
      </trkpt>
      <trkpt lat="45.13053" lon="5.46089">
        <ele>1267.7</ele>
        <time>2015-09-05T15:10:24Z</time>
      </trkpt>
      <trkpt lat="45.13047" lon="5.46078">
        <ele>1268.7</ele>
        <time>2015-09-05T15:10:29Z</time>
      </trkpt>
      <trkpt lat="45.13042" lon="5.46065">
        <ele>1269.7</ele>
        <time>2015-09-05T15:10:34Z</time>
      </trkpt>
      <trkpt lat="45.13038" lon="5.46051">
        <ele>1270.6</ele>
        <time>2015-09-05T15:10:39Z</time>
      </trkpt>
      <trkpt lat="45.13035" lon="5.46039">
        <ele>1271.3</ele>
        <time>2015-09-05T15:10:43Z</time>
      </trkpt>
      <trkpt lat="45.13034" lon="5.46025">
        <ele>1272.2</ele>
        <time>2015-09-05T15:10:48Z</time>
      </trkpt>
      <trkpt lat="45.13034" lon="5.4601">
        <ele>1273.1</ele>
        <time>2015-09-05T15:10:53Z</time>
      </trkpt>
      <trkpt lat="45.13036" lon="5.45997">
        <ele>1273.9</ele>
        <time>2015-09-05T15:10:58Z</time>
      </trkpt>
      <trkpt lat="45.13038" lon="5.45983">
        <ele>1274.8</ele>
        <time>2015-09-05T15:11:03Z</time>
      </trkpt>
      <trkpt lat="45.13039" lon="5.4597">
        <ele>1275.6</ele>
        <time>2015-09-05T15:11:08Z</time>
      </trkpt>
      <trkpt lat="45.1304" lon="5.45957">
        <ele>1276.2</ele>
        <time>2015-09-05T15:11:12Z</time>
      </trkpt>
      <trkpt lat="45.13041" lon="5.45941">
        <ele>1277</ele>
        <time>2015-09-05T15:11:17Z</time>
      </trkpt>
      <trkpt lat="45.13042" lon="5.45925">
        <ele>1277.7</ele>
        <time>2015-09-05T15:11:22Z</time>
      </trkpt>
      <trkpt lat="45.13043" lon="5.45909">
        <ele>1278.5</ele>
        <time>2015-09-05T15:11:27Z</time>
      </trkpt>
      <trkpt lat="45.13048" lon="5.45896">
        <ele>1279.4</ele>
        <time>2015-09-05T15:11:32Z</time>
      </trkpt>
      <trkpt lat="45.13053" lon="5.45884">
        <ele>1280.3</ele>
        <time>2015-09-05T15:11:36Z</time>
      </trkpt>
      <trkpt lat="45.13057" lon="5.45872">
        <ele>1281.2</ele>
        <time>2015-09-05T15:11:40Z</time>
      </trkpt>
      <trkpt lat="45.13059" lon="5.45859">
        <ele>1281.9</ele>
        <time>2015-09-05T15:11:44Z</time>
      </trkpt>
      <trkpt lat="45.13062" lon="5.45845">
        <ele>1282.9</ele>
        <time>2015-09-05T15:11:49Z</time>
      </trkpt>
      <trkpt lat="45.13063" lon="5.45832">
        <ele>1284</ele>
        <time>2015-09-05T15:11:55Z</time>
      </trkpt>
      <trkpt lat="45.13061" lon="5.45818">
        <ele>1284.8</ele>
        <time>2015-09-05T15:12:00Z</time>
      </trkpt>
      <trkpt lat="45.13059" lon="5.45804">
        <ele>1285.5</ele>
        <time>2015-09-05T15:12:05Z</time>
      </trkpt>
      <trkpt lat="45.13053" lon="5.45791">
        <ele>1286.2</ele>
        <time>2015-09-05T15:12:10Z</time>
      </trkpt>
      <trkpt lat="45.13047" lon="5.45779">
        <ele>1287</ele>
        <time>2015-09-05T15:12:15Z</time>
      </trkpt>
      <trkpt lat="45.1304" lon="5.45768">
        <ele>1287.7</ele>
        <time>2015-09-05T15:12:20Z</time>
      </trkpt>
      <trkpt lat="45.13032" lon="5.4576">
        <ele>1288.6</ele>
        <time>2015-09-05T15:12:26Z</time>
      </trkpt>
      <trkpt lat="45.13042" lon="5.45764">
        <ele>1290</ele>
        <time>2015-09-05T15:12:39Z</time>
      </trkpt>
      <trkpt lat="45.13051" lon="5.4577">
        <ele>1290.9</ele>
        <time>2015-09-05T15:12:48Z</time>
      </trkpt>
      <trkpt lat="45.13058" lon="5.45778">
        <ele>1291.7</ele>
        <time>2015-09-05T15:12:56Z</time>
      </trkpt>
      <trkpt lat="45.13067" lon="5.45786">
        <ele>1292.5</ele>
        <time>2015-09-05T15:13:04Z</time>
      </trkpt>
      <trkpt lat="45.13075" lon="5.45793">
        <ele>1293.8</ele>
        <time>2015-09-05T15:13:13Z</time>
      </trkpt>
      <trkpt lat="45.13081" lon="5.45802">
        <ele>1295.3</ele>
        <time>2015-09-05T15:13:22Z</time>
      </trkpt>
      <trkpt lat="45.13087" lon="5.45813">
        <ele>1296.7</ele>
        <time>2015-09-05T15:13:33Z</time>
      </trkpt>
      <trkpt lat="45.13093" lon="5.45824">
        <ele>1297.5</ele>
        <time>2015-09-05T15:13:41Z</time>
      </trkpt>
      <trkpt lat="45.13097" lon="5.45837">
        <ele>1298</ele>
        <time>2015-09-05T15:13:47Z</time>
      </trkpt>
      <trkpt lat="45.13098" lon="5.45849">
        <ele>1298.9</ele>
        <time>2015-09-05T15:13:55Z</time>
      </trkpt>
      <trkpt lat="45.13098" lon="5.45862">
        <ele>1299.8</ele>
        <time>2015-09-05T15:14:02Z</time>
      </trkpt>
      <trkpt lat="45.13096" lon="5.45876">
        <ele>1301.2</ele>
        <time>2015-09-05T15:14:12Z</time>
      </trkpt>
      <trkpt lat="45.13097" lon="5.4589">
        <ele>1303</ele>
        <time>2015-09-05T15:14:21Z</time>
      </trkpt>
      <trkpt lat="45.131" lon="5.45902">
        <ele>1304.7</ele>
        <time>2015-09-05T15:14:31Z</time>
      </trkpt>
      <trkpt lat="45.13106" lon="5.45913">
        <ele>1305.8</ele>
        <time>2015-09-05T15:14:40Z</time>
      </trkpt>
      <trkpt lat="45.13112" lon="5.45924">
        <ele>1307.9</ele>
        <time>2015-09-05T15:14:49Z</time>
      </trkpt>
      <trkpt lat="45.13119" lon="5.45933">
        <ele>1308.6</ele>
        <time>2015-09-05T15:15:00Z</time>
      </trkpt>
      <trkpt lat="45.13126" lon="5.45943">
        <ele>1309.1</ele>
        <time>2015-09-05T15:15:09Z</time>
      </trkpt>
      <trkpt lat="45.13132" lon="5.45955">
        <ele>1310.1</ele>
        <time>2015-09-05T15:15:18Z</time>
      </trkpt>
      <trkpt lat="45.13137" lon="5.45966">
        <ele>1311.7</ele>
        <time>2015-09-05T15:15:28Z</time>
      </trkpt>
      <trkpt lat="45.1314" lon="5.45979">
        <ele>1314.4</ele>
        <time>2015-09-05T15:15:48Z</time>
      </trkpt>
      <trkpt lat="45.13145" lon="5.45991">
        <ele>1316.4</ele>
        <time>2015-09-05T15:16:05Z</time>
      </trkpt>
      <trkpt lat="45.1315" lon="5.46003">
        <ele>1317</ele>
        <time>2015-09-05T15:16:13Z</time>
      </trkpt>
      <trkpt lat="45.13156" lon="5.46013">
        <ele>1317.4</ele>
        <time>2015-09-05T15:16:19Z</time>
      </trkpt>
      <trkpt lat="45.13164" lon="5.46022">
        <ele>1317.6</ele>
        <time>2015-09-05T15:16:25Z</time>
      </trkpt>
      <trkpt lat="45.13172" lon="5.46027">
        <ele>1317.9</ele>
        <time>2015-09-05T15:16:31Z</time>
      </trkpt>
      <trkpt lat="45.13182" lon="5.46032">
        <ele>1319</ele>
        <time>2015-09-05T15:16:39Z</time>
      </trkpt>
      <trkpt lat="45.13191" lon="5.46036">
        <ele>1320.1</ele>
        <time>2015-09-05T15:16:45Z</time>
      </trkpt>
      <trkpt lat="45.13201" lon="5.4604">
        <ele>1321.4</ele>
        <time>2015-09-05T15:16:52Z</time>
      </trkpt>
      <trkpt lat="45.1321" lon="5.46046">
        <ele>1322.6</ele>
        <time>2015-09-05T15:17:00Z</time>
      </trkpt>
      <trkpt lat="45.13219" lon="5.4605">
        <ele>1323.6</ele>
        <time>2015-09-05T15:17:06Z</time>
      </trkpt>
      <trkpt lat="45.13227" lon="5.46056">
        <ele>1324.7</ele>
        <time>2015-09-05T15:17:13Z</time>
      </trkpt>
      <trkpt lat="45.13235" lon="5.46063">
        <ele>1325.6</ele>
        <time>2015-09-05T15:17:19Z</time>
      </trkpt>
      <trkpt lat="45.13244" lon="5.46069">
        <ele>1326.2</ele>
        <time>2015-09-05T15:17:24Z</time>
      </trkpt>
      <trkpt lat="45.13252" lon="5.46075">
        <ele>1326.6</ele>
        <time>2015-09-05T15:17:29Z</time>
      </trkpt>
      <trkpt lat="45.13261" lon="5.46083">
        <ele>1327.1</ele>
        <time>2015-09-05T15:17:35Z</time>
      </trkpt>
      <trkpt lat="45.13271" lon="5.46091">
        <ele>1327.1</ele>
        <time>2015-09-05T15:17:39Z</time>
      </trkpt>
      <trkpt lat="45.13279" lon="5.461">
        <ele>1327.3</ele>
        <time>2015-09-05T15:17:45Z</time>
      </trkpt>
      <trkpt lat="45.13287" lon="5.46107">
        <ele>1327.4</ele>
        <time>2015-09-05T15:17:50Z</time>
      </trkpt>
      <trkpt lat="45.13295" lon="5.46112">
        <ele>1327.6</ele>
        <time>2015-09-05T15:17:57Z</time>
      </trkpt>
      <trkpt lat="45.13305" lon="5.46115">
        <ele>1328.3</ele>
        <time>2015-09-05T15:18:05Z</time>
      </trkpt>
      <trkpt lat="45.13314" lon="5.46118">
        <ele>1329.8</ele>
        <time>2015-09-05T15:18:12Z</time>
      </trkpt>
      <trkpt lat="45.13323" lon="5.4612">
        <ele>1331.5</ele>
        <time>2015-09-05T15:18:19Z</time>
      </trkpt>
      <trkpt lat="45.13331" lon="5.46126">
        <ele>1332.9</ele>
        <time>2015-09-05T15:18:24Z</time>
      </trkpt>
      <trkpt lat="45.13339" lon="5.46121">
        <ele>1334.7</ele>
        <time>2015-09-05T15:18:31Z</time>
      </trkpt>
      <trkpt lat="45.13349" lon="5.46121">
        <ele>1337.2</ele>
        <time>2015-09-05T15:18:40Z</time>
      </trkpt>
      <trkpt lat="45.13358" lon="5.46122">
        <ele>1339.9</ele>
        <time>2015-09-05T15:18:49Z</time>
      </trkpt>
      <trkpt lat="45.13368" lon="5.46123">
        <ele>1341.6</ele>
        <time>2015-09-05T15:18:57Z</time>
      </trkpt>
      <trkpt lat="45.13377" lon="5.46122">
        <ele>1343.2</ele>
        <time>2015-09-05T15:19:06Z</time>
      </trkpt>
      <trkpt lat="45.13387" lon="5.46122">
        <ele>1344.4</ele>
        <time>2015-09-05T15:19:14Z</time>
      </trkpt>
      <trkpt lat="45.13396" lon="5.46125">
        <ele>1346</ele>
        <time>2015-09-05T15:19:23Z</time>
      </trkpt>
      <trkpt lat="45.13406" lon="5.46127">
        <ele>1347.7</ele>
        <time>2015-09-05T15:19:32Z</time>
      </trkpt>
      <trkpt lat="45.13416" lon="5.46131">
        <ele>1349.3</ele>
        <time>2015-09-05T15:19:42Z</time>
      </trkpt>
      <trkpt lat="45.13425" lon="5.46134">
        <ele>1350.3</ele>
        <time>2015-09-05T15:19:49Z</time>
      </trkpt>
      <trkpt lat="45.13434" lon="5.46139">
        <ele>1351.4</ele>
        <time>2015-09-05T15:19:58Z</time>
      </trkpt>
      <trkpt lat="45.1344" lon="5.46149">
        <ele>1352.3</ele>
        <time>2015-09-05T15:20:06Z</time>
      </trkpt>
      <trkpt lat="45.13449" lon="5.46156">
        <ele>1353.3</ele>
        <time>2015-09-05T15:20:14Z</time>
      </trkpt>
      <trkpt lat="45.13459" lon="5.4616">
        <ele>1353.9</ele>
        <time>2015-09-05T15:20:21Z</time>
      </trkpt>
      <trkpt lat="45.13469" lon="5.46165">
        <ele>1354.4</ele>
        <time>2015-09-05T15:20:28Z</time>
      </trkpt>
      <trkpt lat="45.13479" lon="5.46166">
        <ele>1354.8</ele>
        <time>2015-09-05T15:20:35Z</time>
      </trkpt>
      <trkpt lat="45.13488" lon="5.46165">
        <ele>1355.2</ele>
        <time>2015-09-05T15:20:43Z</time>
      </trkpt>
      <trkpt lat="45.13498" lon="5.46166">
        <ele>1355.9</ele>
        <time>2015-09-05T15:20:50Z</time>
      </trkpt>
      <trkpt lat="45.13502" lon="5.46155">
        <ele>1358.1</ele>
        <time>2015-09-05T15:21:03Z</time>
      </trkpt>
      <trkpt lat="45.135" lon="5.46142">
        <ele>1360.7</ele>
        <time>2015-09-05T15:21:19Z</time>
      </trkpt>
      <trkpt lat="45.13491" lon="5.46133">
        <ele>1363.4</ele>
        <time>2015-09-05T15:21:36Z</time>
      </trkpt>
      <trkpt lat="45.13483" lon="5.46128">
        <ele>1364.1</ele>
        <time>2015-09-05T15:21:44Z</time>
      </trkpt>
      <trkpt lat="45.13473" lon="5.46125">
        <ele>1364.5</ele>
        <time>2015-09-05T15:21:52Z</time>
      </trkpt>
      <trkpt lat="45.13465" lon="5.46116">
        <ele>1365.1</ele>
        <time>2015-09-05T15:22:00Z</time>
      </trkpt>
      <trkpt lat="45.13457" lon="5.46109">
        <ele>1365.4</ele>
        <time>2015-09-05T15:22:06Z</time>
      </trkpt>
      <trkpt lat="45.1345" lon="5.46099">
        <ele>1365.9</ele>
        <time>2015-09-05T15:22:13Z</time>
      </trkpt>
      <trkpt lat="45.13443" lon="5.46091">
        <ele>1367.3</ele>
        <time>2015-09-05T15:22:21Z</time>
      </trkpt>
      <trkpt lat="45.13435" lon="5.46084">
        <ele>1368.9</ele>
        <time>2015-09-05T15:22:28Z</time>
      </trkpt>
      <trkpt lat="45.13426" lon="5.46075">
        <ele>1369.8</ele>
        <time>2015-09-05T15:22:35Z</time>
      </trkpt>
      <trkpt lat="45.13419" lon="5.46066">
        <ele>1370.6</ele>
        <time>2015-09-05T15:22:41Z</time>
      </trkpt>
      <trkpt lat="45.13412" lon="5.46057">
        <ele>1371.6</ele>
        <time>2015-09-05T15:22:48Z</time>
      </trkpt>
      <trkpt lat="45.13405" lon="5.4605">
        <ele>1372.5</ele>
        <time>2015-09-05T15:22:55Z</time>
      </trkpt>
      <trkpt lat="45.13397" lon="5.46042">
        <ele>1373.1</ele>
        <time>2015-09-05T15:23:02Z</time>
      </trkpt>
      <trkpt lat="45.13388" lon="5.46032">
        <ele>1373.6</ele>
        <time>2015-09-05T15:23:09Z</time>
      </trkpt>
      <trkpt lat="45.1338" lon="5.46023">
        <ele>1374.4</ele>
        <time>2015-09-05T15:23:16Z</time>
      </trkpt>
      <trkpt lat="45.13372" lon="5.46015">
        <ele>1375.5</ele>
        <time>2015-09-05T15:23:25Z</time>
      </trkpt>
      <trkpt lat="45.13372" lon="5.46002">
        <ele>1377.2</ele>
        <time>2015-09-05T15:23:35Z</time>
      </trkpt>
      <trkpt lat="45.13382" lon="5.46001">
        <ele>1378.2</ele>
        <time>2015-09-05T15:23:44Z</time>
      </trkpt>
      <trkpt lat="45.13391" lon="5.46007">
        <ele>1378.9</ele>
        <time>2015-09-05T15:23:52Z</time>
      </trkpt>
      <trkpt lat="45.134" lon="5.46009">
        <ele>1380.1</ele>
        <time>2015-09-05T15:23:59Z</time>
      </trkpt>
      <trkpt lat="45.13409" lon="5.46014">
        <ele>1381.5</ele>
        <time>2015-09-05T15:24:07Z</time>
      </trkpt>
      <trkpt lat="45.13418" lon="5.4602">
        <ele>1382.5</ele>
        <time>2015-09-05T15:24:15Z</time>
      </trkpt>
      <trkpt lat="45.13428" lon="5.46023">
        <ele>1383.1</ele>
        <time>2015-09-05T15:24:22Z</time>
      </trkpt>
      <trkpt lat="45.13438" lon="5.46025">
        <ele>1383.6</ele>
        <time>2015-09-05T15:24:28Z</time>
      </trkpt>
      <trkpt lat="45.13447" lon="5.46028">
        <ele>1383.7</ele>
        <time>2015-09-05T15:24:33Z</time>
      </trkpt>
      <trkpt lat="45.13456" lon="5.46033">
        <ele>1383.8</ele>
        <time>2015-09-05T15:24:38Z</time>
      </trkpt>
      <trkpt lat="45.13465" lon="5.46039">
        <ele>1383.9</ele>
        <time>2015-09-05T15:24:43Z</time>
      </trkpt>
      <trkpt lat="45.13475" lon="5.46046">
        <ele>1384</ele>
        <time>2015-09-05T15:24:50Z</time>
      </trkpt>
      <trkpt lat="45.13484" lon="5.46053">
        <ele>1384</ele>
        <time>2015-09-05T15:24:56Z</time>
      </trkpt>
      <trkpt lat="45.13493" lon="5.46058">
        <ele>1384.3</ele>
        <time>2015-09-05T15:25:02Z</time>
      </trkpt>
      <trkpt lat="45.13502" lon="5.46057">
        <ele>1385.6</ele>
        <time>2015-09-05T15:25:17Z</time>
      </trkpt>
      <trkpt lat="45.13512" lon="5.46057">
        <ele>1386.4</ele>
        <time>2015-09-05T15:25:34Z</time>
      </trkpt>
      <trkpt lat="45.13523" lon="5.46056">
        <ele>1387</ele>
        <time>2015-09-05T15:25:41Z</time>
      </trkpt>
      <trkpt lat="45.13533" lon="5.46054">
        <ele>1388.3</ele>
        <time>2015-09-05T15:25:48Z</time>
      </trkpt>
      <trkpt lat="45.13542" lon="5.46055">
        <ele>1389.7</ele>
        <time>2015-09-05T15:25:56Z</time>
      </trkpt>
      <trkpt lat="45.13552" lon="5.46055">
        <ele>1391</ele>
        <time>2015-09-05T15:26:04Z</time>
      </trkpt>
      <trkpt lat="45.13562" lon="5.46056">
        <ele>1392</ele>
        <time>2015-09-05T15:26:11Z</time>
      </trkpt>
      <trkpt lat="45.13571" lon="5.46056">
        <ele>1392.8</ele>
        <time>2015-09-05T15:26:17Z</time>
      </trkpt>
      <trkpt lat="45.13581" lon="5.46056">
        <ele>1393.2</ele>
        <time>2015-09-05T15:26:23Z</time>
      </trkpt>
      <trkpt lat="45.13591" lon="5.46057">
        <ele>1393.8</ele>
        <time>2015-09-05T15:26:31Z</time>
      </trkpt>
      <trkpt lat="45.136" lon="5.46061">
        <ele>1394.7</ele>
        <time>2015-09-05T15:26:39Z</time>
      </trkpt>
      <trkpt lat="45.1361" lon="5.46064">
        <ele>1395.8</ele>
        <time>2015-09-05T15:26:47Z</time>
      </trkpt>
      <trkpt lat="45.13619" lon="5.46068">
        <ele>1396.9</ele>
        <time>2015-09-05T15:26:55Z</time>
      </trkpt>
      <trkpt lat="45.13627" lon="5.46074">
        <ele>1398.4</ele>
        <time>2015-09-05T15:27:03Z</time>
      </trkpt>
      <trkpt lat="45.13636" lon="5.4608">
        <ele>1400.4</ele>
        <time>2015-09-05T15:27:12Z</time>
      </trkpt>
      <trkpt lat="45.13645" lon="5.46085">
        <ele>1401.8</ele>
        <time>2015-09-05T15:27:20Z</time>
      </trkpt>
      <trkpt lat="45.13653" lon="5.46091">
        <ele>1402.8</ele>
        <time>2015-09-05T15:27:28Z</time>
      </trkpt>
      <trkpt lat="45.13662" lon="5.46096">
        <ele>1403.7</ele>
        <time>2015-09-05T15:27:36Z</time>
      </trkpt>
      <trkpt lat="45.13671" lon="5.46102">
        <ele>1404.5</ele>
        <time>2015-09-05T15:27:43Z</time>
      </trkpt>
      <trkpt lat="45.13681" lon="5.46105">
        <ele>1406</ele>
        <time>2015-09-05T15:27:52Z</time>
      </trkpt>
      <trkpt lat="45.1369" lon="5.46105">
        <ele>1406.9</ele>
        <time>2015-09-05T15:27:59Z</time>
      </trkpt>
      <trkpt lat="45.13699" lon="5.46102">
        <ele>1408</ele>
        <time>2015-09-05T15:28:08Z</time>
      </trkpt>
      <trkpt lat="45.13708" lon="5.46097">
        <ele>1409.9</ele>
        <time>2015-09-05T15:28:19Z</time>
      </trkpt>
      <trkpt lat="45.13717" lon="5.46103">
        <ele>1411.7</ele>
        <time>2015-09-05T15:28:30Z</time>
      </trkpt>
      <trkpt lat="45.13726" lon="5.46109">
        <ele>1412.7</ele>
        <time>2015-09-05T15:28:38Z</time>
      </trkpt>
      <trkpt lat="45.13735" lon="5.46114">
        <ele>1413.3</ele>
        <time>2015-09-05T15:28:44Z</time>
      </trkpt>
      <trkpt lat="45.13744" lon="5.46119">
        <ele>1413.9</ele>
        <time>2015-09-05T15:28:50Z</time>
      </trkpt>
      <trkpt lat="45.13751" lon="5.46125">
        <ele>1414.4</ele>
        <time>2015-09-05T15:28:56Z</time>
      </trkpt>
      <trkpt lat="45.13762" lon="5.46127">
        <ele>1414.8</ele>
        <time>2015-09-05T15:29:02Z</time>
      </trkpt>
      <trkpt lat="45.13772" lon="5.46128">
        <ele>1415</ele>
        <time>2015-09-05T15:29:07Z</time>
      </trkpt>
      <trkpt lat="45.13783" lon="5.46133">
        <ele>1415.6</ele>
        <time>2015-09-05T15:29:13Z</time>
      </trkpt>
      <trkpt lat="45.13793" lon="5.46137">
        <ele>1416</ele>
        <time>2015-09-05T15:29:19Z</time>
      </trkpt>
      <trkpt lat="45.13805" lon="5.4614">
        <ele>1415.9</ele>
        <time>2015-09-05T15:29:23Z</time>
      </trkpt>
      <trkpt lat="45.13815" lon="5.46142">
        <ele>1415.6</ele>
        <time>2015-09-05T15:29:26Z</time>
      </trkpt>
      <trkpt lat="45.13826" lon="5.46143">
        <ele>1415.2</ele>
        <time>2015-09-05T15:29:30Z</time>
      </trkpt>
      <trkpt lat="45.13834" lon="5.46135">
        <ele>1414.7</ele>
        <time>2015-09-05T15:29:35Z</time>
      </trkpt>
      <trkpt lat="45.13842" lon="5.46128">
        <ele>1414.2</ele>
        <time>2015-09-05T15:29:38Z</time>
      </trkpt>
      <trkpt lat="45.13853" lon="5.46118">
        <ele>1413.7</ele>
        <time>2015-09-05T15:29:41Z</time>
      </trkpt>
      <trkpt lat="45.1386" lon="5.46107">
        <ele>1413.2</ele>
        <time>2015-09-05T15:29:43Z</time>
      </trkpt>
      <trkpt lat="45.13868" lon="5.46099">
        <ele>1412.6</ele>
        <time>2015-09-05T15:29:46Z</time>
      </trkpt>
      <trkpt lat="45.13877" lon="5.46101">
        <ele>1411.5</ele>
        <time>2015-09-05T15:29:50Z</time>
      </trkpt>
      <trkpt lat="45.13885" lon="5.46107">
        <ele>1410.6</ele>
        <time>2015-09-05T15:29:55Z</time>
      </trkpt>
      <trkpt lat="45.13892" lon="5.46115">
        <ele>1410.1</ele>
        <time>2015-09-05T15:30:02Z</time>
      </trkpt>
      <trkpt lat="45.13901" lon="5.46123">
        <ele>1409.2</ele>
        <time>2015-09-05T15:30:10Z</time>
      </trkpt>
      <trkpt lat="45.1391" lon="5.4613">
        <ele>1409.2</ele>
        <time>2015-09-05T15:30:15Z</time>
      </trkpt>
      <trkpt lat="45.13918" lon="5.46136">
        <ele>1407.8</ele>
        <time>2015-09-05T15:30:22Z</time>
      </trkpt>
      <trkpt lat="45.13929" lon="5.4614">
        <ele>1407.6</ele>
        <time>2015-09-05T15:30:28Z</time>
      </trkpt>
      <trkpt lat="45.13938" lon="5.4614">
        <ele>1409.2</ele>
        <time>2015-09-05T15:30:35Z</time>
      </trkpt>
      <trkpt lat="45.13947" lon="5.46145">
        <ele>1408.5</ele>
        <time>2015-09-05T15:31:01Z</time>
      </trkpt>
      <trkpt lat="45.13957" lon="5.46136">
        <ele>1408.2</ele>
        <time>2015-09-05T15:31:09Z</time>
      </trkpt>
      <trkpt lat="45.13963" lon="5.46127">
        <ele>1407.7</ele>
        <time>2015-09-05T15:31:12Z</time>
      </trkpt>
      <trkpt lat="45.13967" lon="5.46114">
        <ele>1407.3</ele>
        <time>2015-09-05T15:31:15Z</time>
      </trkpt>
      <trkpt lat="45.13971" lon="5.46103">
        <ele>1406.4</ele>
        <time>2015-09-05T15:31:21Z</time>
      </trkpt>
      <trkpt lat="45.13973" lon="5.46088">
        <ele>1406.1</ele>
        <time>2015-09-05T15:31:28Z</time>
      </trkpt>
      <trkpt lat="45.13979" lon="5.46077">
        <ele>1406.4</ele>
        <time>2015-09-05T15:31:33Z</time>
      </trkpt>
      <trkpt lat="45.13981" lon="5.46063">
        <ele>1406.7</ele>
        <time>2015-09-05T15:31:39Z</time>
      </trkpt>
      <trkpt lat="45.13985" lon="5.4605">
        <ele>1406.7</ele>
        <time>2015-09-05T15:31:43Z</time>
      </trkpt>
      <trkpt lat="45.13993" lon="5.46039">
        <ele>1406.2</ele>
        <time>2015-09-05T15:31:46Z</time>
      </trkpt>
      <trkpt lat="45.13999" lon="5.46029">
        <ele>1405.6</ele>
        <time>2015-09-05T15:31:48Z</time>
      </trkpt>
      <trkpt lat="45.14009" lon="5.46016">
        <ele>1404.5</ele>
        <time>2015-09-05T15:31:51Z</time>
      </trkpt>
      <trkpt lat="45.14015" lon="5.46">
        <ele>1403.3</ele>
        <time>2015-09-05T15:31:53Z</time>
      </trkpt>
      <trkpt lat="45.14019" lon="5.45988">
        <ele>1402.2</ele>
        <time>2015-09-05T15:31:55Z</time>
      </trkpt>
      <trkpt lat="45.14016" lon="5.45974">
        <ele>1400.4</ele>
        <time>2015-09-05T15:31:59Z</time>
      </trkpt>
      <trkpt lat="45.14008" lon="5.45963">
        <ele>1399.3</ele>
        <time>2015-09-05T15:32:02Z</time>
      </trkpt>
      <trkpt lat="45.14" lon="5.4595">
        <ele>1398.2</ele>
        <time>2015-09-05T15:32:06Z</time>
      </trkpt>
      <trkpt lat="45.13994" lon="5.45939">
        <ele>1397.5</ele>
        <time>2015-09-05T15:32:09Z</time>
      </trkpt>
      <trkpt lat="45.13986" lon="5.45929">
        <ele>1396.8</ele>
        <time>2015-09-05T15:32:13Z</time>
      </trkpt>
      <trkpt lat="45.13977" lon="5.45924">
        <ele>1396.4</ele>
        <time>2015-09-05T15:32:18Z</time>
      </trkpt>
      <trkpt lat="45.13968" lon="5.4592">
        <ele>1396.1</ele>
        <time>2015-09-05T15:32:23Z</time>
      </trkpt>
      <trkpt lat="45.13959" lon="5.45915">
        <ele>1396.1</ele>
        <time>2015-09-05T15:32:27Z</time>
      </trkpt>
      <trkpt lat="45.13949" lon="5.45909">
        <ele>1396.1</ele>
        <time>2015-09-05T15:32:31Z</time>
      </trkpt>
      <trkpt lat="45.13939" lon="5.45906">
        <ele>1396.1</ele>
        <time>2015-09-05T15:32:35Z</time>
      </trkpt>
      <trkpt lat="45.1393" lon="5.45903">
        <ele>1396.1</ele>
        <time>2015-09-05T15:32:38Z</time>
      </trkpt>
      <trkpt lat="45.13919" lon="5.45899">
        <ele>1396.1</ele>
        <time>2015-09-05T15:32:42Z</time>
      </trkpt>
      <trkpt lat="45.13912" lon="5.45891">
        <ele>1396.1</ele>
        <time>2015-09-05T15:32:46Z</time>
      </trkpt>
      <trkpt lat="45.13909" lon="5.45878">
        <ele>1396.2</ele>
        <time>2015-09-05T15:32:50Z</time>
      </trkpt>
      <trkpt lat="45.13907" lon="5.45863">
        <ele>1396.7</ele>
        <time>2015-09-05T15:32:57Z</time>
      </trkpt>
      <trkpt lat="45.13905" lon="5.4585">
        <ele>1397.8</ele>
        <time>2015-09-05T15:33:05Z</time>
      </trkpt>
      <trkpt lat="45.13906" lon="5.45836">
        <ele>1399.4</ele>
        <time>2015-09-05T15:33:23Z</time>
      </trkpt>
      <trkpt lat="45.13903" lon="5.45823">
        <ele>1399.7</ele>
        <time>2015-09-05T15:33:27Z</time>
      </trkpt>
      <trkpt lat="45.13898" lon="5.4581">
        <ele>1400.7</ele>
        <time>2015-09-05T15:33:35Z</time>
      </trkpt>
      <trkpt lat="45.13893" lon="5.45797">
        <ele>1401.8</ele>
        <time>2015-09-05T15:33:43Z</time>
      </trkpt>
      <trkpt lat="45.13889" lon="5.45784">
        <ele>1403.1</ele>
        <time>2015-09-05T15:33:52Z</time>
      </trkpt>
      <trkpt lat="45.13885" lon="5.45773">
        <ele>1403.8</ele>
        <time>2015-09-05T15:33:57Z</time>
      </trkpt>
      <trkpt lat="45.13878" lon="5.45764">
        <ele>1405.1</ele>
        <time>2015-09-05T15:34:06Z</time>
      </trkpt>
      <trkpt lat="45.1387" lon="5.45757">
        <ele>1405.9</ele>
        <time>2015-09-05T15:34:12Z</time>
      </trkpt>
      <trkpt lat="45.13862" lon="5.45749">
        <ele>1407.3</ele>
        <time>2015-09-05T15:34:21Z</time>
      </trkpt>
      <trkpt lat="45.13852" lon="5.45742">
        <ele>1408.6</ele>
        <time>2015-09-05T15:34:28Z</time>
      </trkpt>
      <trkpt lat="45.13843" lon="5.45736">
        <ele>1410.1</ele>
        <time>2015-09-05T15:34:36Z</time>
      </trkpt>
      <trkpt lat="45.13834" lon="5.45733">
        <ele>1411.5</ele>
        <time>2015-09-05T15:34:44Z</time>
      </trkpt>
      <trkpt lat="45.13824" lon="5.45734">
        <ele>1412.3</ele>
        <time>2015-09-05T15:34:50Z</time>
      </trkpt>
      <trkpt lat="45.13813" lon="5.45735">
        <ele>1413.1</ele>
        <time>2015-09-05T15:34:56Z</time>
      </trkpt>
      <trkpt lat="45.13804" lon="5.45735">
        <ele>1413.4</ele>
        <time>2015-09-05T15:34:59Z</time>
      </trkpt>
      <trkpt lat="45.13794" lon="5.45738">
        <ele>1413.9</ele>
        <time>2015-09-05T15:35:03Z</time>
      </trkpt>
      <trkpt lat="45.13786" lon="5.4573">
        <ele>1414.7</ele>
        <time>2015-09-05T15:35:10Z</time>
      </trkpt>
      <trkpt lat="45.13777" lon="5.45725">
        <ele>1415.1</ele>
        <time>2015-09-05T15:35:16Z</time>
      </trkpt>
      <trkpt lat="45.13768" lon="5.45725">
        <ele>1415.4</ele>
        <time>2015-09-05T15:35:20Z</time>
      </trkpt>
      <trkpt lat="45.13756" lon="5.45722">
        <ele>1415.1</ele>
        <time>2015-09-05T15:35:24Z</time>
      </trkpt>
      <trkpt lat="45.13747" lon="5.45721">
        <ele>1414.8</ele>
        <time>2015-09-05T15:35:28Z</time>
      </trkpt>
      <trkpt lat="45.13739" lon="5.45711">
        <ele>1413.4</ele>
        <time>2015-09-05T15:35:47Z</time>
      </trkpt>
      <trkpt lat="45.13734" lon="5.457">
        <ele>1412.5</ele>
        <time>2015-09-05T15:35:56Z</time>
      </trkpt>
      <trkpt lat="45.13729" lon="5.45689">
        <ele>1411.2</ele>
        <time>2015-09-05T15:36:02Z</time>
      </trkpt>
      <trkpt lat="45.1372" lon="5.45686">
        <ele>1409.6</ele>
        <time>2015-09-05T15:36:07Z</time>
      </trkpt>
      <trkpt lat="45.13713" lon="5.45675">
        <ele>1407.9</ele>
        <time>2015-09-05T15:36:12Z</time>
      </trkpt>
      <trkpt lat="45.13708" lon="5.45664">
        <ele>1405.9</ele>
        <time>2015-09-05T15:36:20Z</time>
      </trkpt>
      <trkpt lat="45.13716" lon="5.45657">
        <ele>1404.7</ele>
        <time>2015-09-05T15:36:36Z</time>
      </trkpt>
      <trkpt lat="45.13718" lon="5.45644">
        <ele>1405.9</ele>
        <time>2015-09-05T15:36:49Z</time>
      </trkpt>
      <trkpt lat="45.13713" lon="5.45634">
        <ele>1407.4</ele>
        <time>2015-09-05T15:36:59Z</time>
      </trkpt>
      <trkpt lat="45.13706" lon="5.45625">
        <ele>1408.9</ele>
        <time>2015-09-05T15:37:09Z</time>
      </trkpt>
      <trkpt lat="45.137" lon="5.45616">
        <ele>1410.8</ele>
        <time>2015-09-05T15:37:20Z</time>
      </trkpt>
      <trkpt lat="45.13693" lon="5.45607">
        <ele>1412.9</ele>
        <time>2015-09-05T15:37:34Z</time>
      </trkpt>
      <trkpt lat="45.13685" lon="5.456">
        <ele>1413.9</ele>
        <time>2015-09-05T15:37:43Z</time>
      </trkpt>
      <trkpt lat="45.13676" lon="5.45594">
        <ele>1414.5</ele>
        <time>2015-09-05T15:37:49Z</time>
      </trkpt>
      <trkpt lat="45.13672" lon="5.4558">
        <ele>1414.9</ele>
        <time>2015-09-05T15:37:55Z</time>
      </trkpt>
      <trkpt lat="45.13665" lon="5.45569">
        <ele>1414.8</ele>
        <time>2015-09-05T15:37:59Z</time>
      </trkpt>
      <trkpt lat="45.13656" lon="5.45564">
        <ele>1414.5</ele>
        <time>2015-09-05T15:38:10Z</time>
      </trkpt>
      <trkpt lat="45.13649" lon="5.45554">
        <ele>1414.2</ele>
        <time>2015-09-05T15:38:15Z</time>
      </trkpt>
      <trkpt lat="45.13639" lon="5.45553">
        <ele>1413.7</ele>
        <time>2015-09-05T15:38:26Z</time>
      </trkpt>
      <trkpt lat="45.13631" lon="5.45559">
        <ele>1413.9</ele>
        <time>2015-09-05T15:44:41Z</time>
      </trkpt>
      <trkpt lat="45.13622" lon="5.45563">
        <ele>1414</ele>
        <time>2015-09-05T15:44:48Z</time>
      </trkpt>
      <trkpt lat="45.13612" lon="5.45563">
        <ele>1414.3</ele>
        <time>2015-09-05T15:44:52Z</time>
      </trkpt>
      <trkpt lat="45.13602" lon="5.45564">
        <ele>1414.8</ele>
        <time>2015-09-05T15:44:57Z</time>
      </trkpt>
      <trkpt lat="45.13593" lon="5.45563">
        <ele>1415.3</ele>
        <time>2015-09-05T15:45:02Z</time>
      </trkpt>
      <trkpt lat="45.13583" lon="5.45566">
        <ele>1416.1</ele>
        <time>2015-09-05T15:45:08Z</time>
      </trkpt>
      <trkpt lat="45.13573" lon="5.45565">
        <ele>1416.7</ele>
        <time>2015-09-05T15:45:13Z</time>
      </trkpt>
      <trkpt lat="45.13563" lon="5.45564">
        <ele>1417</ele>
        <time>2015-09-05T15:45:17Z</time>
      </trkpt>
      <trkpt lat="45.13553" lon="5.4556">
        <ele>1417.2</ele>
        <time>2015-09-05T15:45:22Z</time>
      </trkpt>
      <trkpt lat="45.13544" lon="5.45555">
        <ele>1417.3</ele>
        <time>2015-09-05T15:45:28Z</time>
      </trkpt>
      <trkpt lat="45.13534" lon="5.4555">
        <ele>1417.4</ele>
        <time>2015-09-05T15:45:32Z</time>
      </trkpt>
      <trkpt lat="45.13523" lon="5.45549">
        <ele>1417.3</ele>
        <time>2015-09-05T15:45:36Z</time>
      </trkpt>
      <trkpt lat="45.13514" lon="5.45545">
        <ele>1417.2</ele>
        <time>2015-09-05T15:45:39Z</time>
      </trkpt>
      <trkpt lat="45.13503" lon="5.45539">
        <ele>1417.1</ele>
        <time>2015-09-05T15:45:43Z</time>
      </trkpt>
      <trkpt lat="45.13494" lon="5.45534">
        <ele>1417.1</ele>
        <time>2015-09-05T15:45:46Z</time>
      </trkpt>
      <trkpt lat="45.13483" lon="5.45526">
        <ele>1417</ele>
        <time>2015-09-05T15:45:50Z</time>
      </trkpt>
      <trkpt lat="45.13474" lon="5.45518">
        <ele>1417</ele>
        <time>2015-09-05T15:45:54Z</time>
      </trkpt>
      <trkpt lat="45.13466" lon="5.45511">
        <ele>1416.9</ele>
        <time>2015-09-05T15:45:57Z</time>
      </trkpt>
      <trkpt lat="45.13457" lon="5.45502">
        <ele>1416.8</ele>
        <time>2015-09-05T15:46:00Z</time>
      </trkpt>
      <trkpt lat="45.13449" lon="5.45495">
        <ele>1416.7</ele>
        <time>2015-09-05T15:46:03Z</time>
      </trkpt>
      <trkpt lat="45.13441" lon="5.45488">
        <ele>1416.6</ele>
        <time>2015-09-05T15:46:06Z</time>
      </trkpt>
      <trkpt lat="45.13433" lon="5.45483">
        <ele>1416.7</ele>
        <time>2015-09-05T15:46:10Z</time>
      </trkpt>
      <trkpt lat="45.13424" lon="5.45475">
        <ele>1416.8</ele>
        <time>2015-09-05T15:46:16Z</time>
      </trkpt>
      <trkpt lat="45.13415" lon="5.45468">
        <ele>1417.4</ele>
        <time>2015-09-05T15:46:22Z</time>
      </trkpt>
      <trkpt lat="45.13407" lon="5.45461">
        <ele>1418.1</ele>
        <time>2015-09-05T15:46:28Z</time>
      </trkpt>
      <trkpt lat="45.13399" lon="5.45452">
        <ele>1418.9</ele>
        <time>2015-09-05T15:46:34Z</time>
      </trkpt>
      <trkpt lat="45.13391" lon="5.45445">
        <ele>1420</ele>
        <time>2015-09-05T15:46:41Z</time>
      </trkpt>
      <trkpt lat="45.13382" lon="5.45439">
        <ele>1421.5</ele>
        <time>2015-09-05T15:46:49Z</time>
      </trkpt>
      <trkpt lat="45.13374" lon="5.45431">
        <ele>1423.1</ele>
        <time>2015-09-05T15:46:57Z</time>
      </trkpt>
      <trkpt lat="45.13367" lon="5.45424">
        <ele>1424.4</ele>
        <time>2015-09-05T15:47:04Z</time>
      </trkpt>
      <trkpt lat="45.13361" lon="5.45414">
        <ele>1425.6</ele>
        <time>2015-09-05T15:47:11Z</time>
      </trkpt>
      <trkpt lat="45.13355" lon="5.45402">
        <ele>1427.3</ele>
        <time>2015-09-05T15:47:19Z</time>
      </trkpt>
      <trkpt lat="45.1335" lon="5.4539">
        <ele>1428.7</ele>
        <time>2015-09-05T15:47:26Z</time>
      </trkpt>
      <trkpt lat="45.13345" lon="5.45377">
        <ele>1429.1</ele>
        <time>2015-09-05T15:47:29Z</time>
      </trkpt>
      <trkpt lat="45.1334" lon="5.45367">
        <ele>1429.4</ele>
        <time>2015-09-05T15:47:31Z</time>
      </trkpt>
      <trkpt lat="45.13332" lon="5.45358">
        <ele>1429.6</ele>
        <time>2015-09-05T15:47:34Z</time>
      </trkpt>
      <trkpt lat="45.13324" lon="5.45347">
        <ele>1430</ele>
        <time>2015-09-05T15:47:40Z</time>
      </trkpt>
      <trkpt lat="45.13316" lon="5.45338">
        <ele>1430.2</ele>
        <time>2015-09-05T15:47:44Z</time>
      </trkpt>
      <trkpt lat="45.13308" lon="5.4533">
        <ele>1430.3</ele>
        <time>2015-09-05T15:47:47Z</time>
      </trkpt>
      <trkpt lat="45.13299" lon="5.45323">
        <ele>1430.4</ele>
        <time>2015-09-05T15:47:50Z</time>
      </trkpt>
      <trkpt lat="45.13292" lon="5.45314">
        <ele>1430.5</ele>
        <time>2015-09-05T15:47:53Z</time>
      </trkpt>
      <trkpt lat="45.13285" lon="5.45304">
        <ele>1430.7</ele>
        <time>2015-09-05T15:47:56Z</time>
      </trkpt>
      <trkpt lat="45.13277" lon="5.45295">
        <ele>1430.8</ele>
        <time>2015-09-05T15:47:59Z</time>
      </trkpt>
      <trkpt lat="45.13268" lon="5.45289">
        <ele>1430.9</ele>
        <time>2015-09-05T15:48:02Z</time>
      </trkpt>
      <trkpt lat="45.1326" lon="5.45283">
        <ele>1431.2</ele>
        <time>2015-09-05T15:48:06Z</time>
      </trkpt>
      <trkpt lat="45.13254" lon="5.45273">
        <ele>1431.5</ele>
        <time>2015-09-05T15:48:09Z</time>
      </trkpt>
      <trkpt lat="45.13248" lon="5.45262">
        <ele>1431.7</ele>
        <time>2015-09-05T15:48:12Z</time>
      </trkpt>
      <trkpt lat="45.1324" lon="5.45252">
        <ele>1432.1</ele>
        <time>2015-09-05T15:48:16Z</time>
      </trkpt>
      <trkpt lat="45.13229" lon="5.45249">
        <ele>1431.9</ele>
        <time>2015-09-05T15:48:19Z</time>
      </trkpt>
      <trkpt lat="45.13219" lon="5.45246">
        <ele>1431.7</ele>
        <time>2015-09-05T15:48:21Z</time>
      </trkpt>
      <trkpt lat="45.13209" lon="5.45242">
        <ele>1431.6</ele>
        <time>2015-09-05T15:48:25Z</time>
      </trkpt>
      <trkpt lat="45.13198" lon="5.45236">
        <ele>1431.7</ele>
        <time>2015-09-05T15:48:29Z</time>
      </trkpt>
      <trkpt lat="45.13189" lon="5.45232">
        <ele>1432</ele>
        <time>2015-09-05T15:48:32Z</time>
      </trkpt>
      <trkpt lat="45.13178" lon="5.45226">
        <ele>1432.3</ele>
        <time>2015-09-05T15:48:36Z</time>
      </trkpt>
      <trkpt lat="45.13169" lon="5.45221">
        <ele>1432.9</ele>
        <time>2015-09-05T15:48:39Z</time>
      </trkpt>
      <trkpt lat="45.13158" lon="5.45215">
        <ele>1433.5</ele>
        <time>2015-09-05T15:48:43Z</time>
      </trkpt>
      <trkpt lat="45.13148" lon="5.45207">
        <ele>1433.9</ele>
        <time>2015-09-05T15:48:47Z</time>
      </trkpt>
      <trkpt lat="45.1314" lon="5.452">
        <ele>1434.1</ele>
        <time>2015-09-05T15:48:50Z</time>
      </trkpt>
      <trkpt lat="45.13133" lon="5.4519">
        <ele>1433.8</ele>
        <time>2015-09-05T15:48:53Z</time>
      </trkpt>
      <trkpt lat="45.13126" lon="5.45178">
        <ele>1433.7</ele>
        <time>2015-09-05T15:48:56Z</time>
      </trkpt>
      <trkpt lat="45.13119" lon="5.45166">
        <ele>1433.4</ele>
        <time>2015-09-05T15:48:58Z</time>
      </trkpt>
      <trkpt lat="45.1311" lon="5.45155">
        <ele>1433.1</ele>
        <time>2015-09-05T15:49:00Z</time>
      </trkpt>
      <trkpt lat="45.13103" lon="5.45148">
        <ele>1432.6</ele>
        <time>2015-09-05T15:49:02Z</time>
      </trkpt>
      <trkpt lat="45.13093" lon="5.45139">
        <ele>1432</ele>
        <time>2015-09-05T15:49:05Z</time>
      </trkpt>
      <trkpt lat="45.13085" lon="5.4513">
        <ele>1431.5</ele>
        <time>2015-09-05T15:49:08Z</time>
      </trkpt>
      <trkpt lat="45.1308" lon="5.45119">
        <ele>1431.1</ele>
        <time>2015-09-05T15:49:11Z</time>
      </trkpt>
      <trkpt lat="45.13074" lon="5.45108">
        <ele>1430.6</ele>
        <time>2015-09-05T15:49:14Z</time>
      </trkpt>
      <trkpt lat="45.13068" lon="5.45096">
        <ele>1430.3</ele>
        <time>2015-09-05T15:49:17Z</time>
      </trkpt>
      <trkpt lat="45.13062" lon="5.45085">
        <ele>1430.3</ele>
        <time>2015-09-05T15:49:20Z</time>
      </trkpt>
      <trkpt lat="45.13057" lon="5.45074">
        <ele>1430.1</ele>
        <time>2015-09-05T15:49:23Z</time>
      </trkpt>
      <trkpt lat="45.13055" lon="5.4506">
        <ele>1430.1</ele>
        <time>2015-09-05T15:49:26Z</time>
      </trkpt>
      <trkpt lat="45.13057" lon="5.45047">
        <ele>1430.2</ele>
        <time>2015-09-05T15:49:29Z</time>
      </trkpt>
      <trkpt lat="45.1306" lon="5.45034">
        <ele>1430.4</ele>
        <time>2015-09-05T15:49:32Z</time>
      </trkpt>
      <trkpt lat="45.13062" lon="5.45022">
        <ele>1430.7</ele>
        <time>2015-09-05T15:49:35Z</time>
      </trkpt>
      <trkpt lat="45.13064" lon="5.45007">
        <ele>1430.9</ele>
        <time>2015-09-05T15:49:39Z</time>
      </trkpt>
      <trkpt lat="45.13067" lon="5.44994">
        <ele>1431.1</ele>
        <time>2015-09-05T15:49:42Z</time>
      </trkpt>
      <trkpt lat="45.13072" lon="5.44981">
        <ele>1431.2</ele>
        <time>2015-09-05T15:49:45Z</time>
      </trkpt>
      <trkpt lat="45.13076" lon="5.44969">
        <ele>1431</ele>
        <time>2015-09-05T15:49:47Z</time>
      </trkpt>
      <trkpt lat="45.13081" lon="5.44952">
        <ele>1430.7</ele>
        <time>2015-09-05T15:49:50Z</time>
      </trkpt>
      <trkpt lat="45.13091" lon="5.44942">
        <ele>1430.5</ele>
        <time>2015-09-05T15:49:53Z</time>
      </trkpt>
      <trkpt lat="45.13104" lon="5.44937">
        <ele>1430.1</ele>
        <time>2015-09-05T15:49:56Z</time>
      </trkpt>
      <trkpt lat="45.13114" lon="5.44928">
        <ele>1429.2</ele>
        <time>2015-09-05T15:49:59Z</time>
      </trkpt>
      <trkpt lat="45.1312" lon="5.44916">
        <ele>1428.5</ele>
        <time>2015-09-05T15:50:01Z</time>
      </trkpt>
      <trkpt lat="45.13123" lon="5.44898">
        <ele>1427.9</ele>
        <time>2015-09-05T15:50:03Z</time>
      </trkpt>
      <trkpt lat="45.13125" lon="5.44884">
        <ele>1427.3</ele>
        <time>2015-09-05T15:50:05Z</time>
      </trkpt>
      <trkpt lat="45.13125" lon="5.44868">
        <ele>1426.5</ele>
        <time>2015-09-05T15:50:08Z</time>
      </trkpt>
      <trkpt lat="45.13125" lon="5.44854">
        <ele>1426</ele>
        <time>2015-09-05T15:50:11Z</time>
      </trkpt>
      <trkpt lat="45.13124" lon="5.44841">
        <ele>1425.3</ele>
        <time>2015-09-05T15:50:17Z</time>
      </trkpt>
      <trkpt lat="45.13121" lon="5.44827">
        <ele>1425</ele>
        <time>2015-09-05T15:50:21Z</time>
      </trkpt>
      <trkpt lat="45.13121" lon="5.44812">
        <ele>1424.8</ele>
        <time>2015-09-05T15:50:25Z</time>
      </trkpt>
      <trkpt lat="45.1312" lon="5.44796">
        <ele>1424.5</ele>
        <time>2015-09-05T15:50:34Z</time>
      </trkpt>
      <trkpt lat="45.13113" lon="5.44784">
        <ele>1424.3</ele>
        <time>2015-09-05T15:50:38Z</time>
      </trkpt>
      <trkpt lat="45.13106" lon="5.44775">
        <ele>1424.2</ele>
        <time>2015-09-05T15:50:41Z</time>
      </trkpt>
      <trkpt lat="45.131" lon="5.44761">
        <ele>1423.9</ele>
        <time>2015-09-05T15:50:45Z</time>
      </trkpt>
      <trkpt lat="45.13095" lon="5.44747">
        <ele>1423.3</ele>
        <time>2015-09-05T15:50:49Z</time>
      </trkpt>
      <trkpt lat="45.13089" lon="5.44734">
        <ele>1423.1</ele>
        <time>2015-09-05T15:50:53Z</time>
      </trkpt>
      <trkpt lat="45.13088" lon="5.44721">
        <ele>1423</ele>
        <time>2015-09-05T15:50:57Z</time>
      </trkpt>
      <trkpt lat="45.13087" lon="5.44705">
        <ele>1422.7</ele>
        <time>2015-09-05T15:51:00Z</time>
      </trkpt>
      <trkpt lat="45.13085" lon="5.44689">
        <ele>1422.5</ele>
        <time>2015-09-05T15:51:03Z</time>
      </trkpt>
      <trkpt lat="45.1308" lon="5.44673">
        <ele>1422.3</ele>
        <time>2015-09-05T15:51:06Z</time>
      </trkpt>
      <trkpt lat="45.13077" lon="5.44657">
        <ele>1422.1</ele>
        <time>2015-09-05T15:51:09Z</time>
      </trkpt>
      <trkpt lat="45.13075" lon="5.44644">
        <ele>1422</ele>
        <time>2015-09-05T15:51:12Z</time>
      </trkpt>
      <trkpt lat="45.13069" lon="5.4463">
        <ele>1421.6</ele>
        <time>2015-09-05T15:51:16Z</time>
      </trkpt>
      <trkpt lat="45.13063" lon="5.44619">
        <ele>1420.8</ele>
        <time>2015-09-05T15:51:19Z</time>
      </trkpt>
      <trkpt lat="45.13058" lon="5.44604">
        <ele>1419.6</ele>
        <time>2015-09-05T15:51:23Z</time>
      </trkpt>
      <trkpt lat="45.13054" lon="5.44592">
        <ele>1417.9</ele>
        <time>2015-09-05T15:51:26Z</time>
      </trkpt>
      <trkpt lat="45.13051" lon="5.44577">
        <ele>1416</ele>
        <time>2015-09-05T15:51:29Z</time>
      </trkpt>
      <trkpt lat="45.13041" lon="5.44565">
        <ele>1414.4</ele>
        <time>2015-09-05T15:51:32Z</time>
      </trkpt>
      <trkpt lat="45.13035" lon="5.44555">
        <ele>1412.7</ele>
        <time>2015-09-05T15:51:34Z</time>
      </trkpt>
      <trkpt lat="45.13028" lon="5.44542">
        <ele>1411</ele>
        <time>2015-09-05T15:51:36Z</time>
      </trkpt>
      <trkpt lat="45.13025" lon="5.44527">
        <ele>1409.1</ele>
        <time>2015-09-05T15:51:38Z</time>
      </trkpt>
      <trkpt lat="45.13019" lon="5.44514">
        <ele>1406.4</ele>
        <time>2015-09-05T15:51:41Z</time>
      </trkpt>
      <trkpt lat="45.13009" lon="5.44506">
        <ele>1404.2</ele>
        <time>2015-09-05T15:51:44Z</time>
      </trkpt>
      <trkpt lat="45.13004" lon="5.44496">
        <ele>1402.6</ele>
        <time>2015-09-05T15:51:46Z</time>
      </trkpt>
      <trkpt lat="45.12997" lon="5.44486">
        <ele>1401</ele>
        <time>2015-09-05T15:51:48Z</time>
      </trkpt>
      <trkpt lat="45.12991" lon="5.44472">
        <ele>1398.8</ele>
        <time>2015-09-05T15:51:51Z</time>
      </trkpt>
      <trkpt lat="45.12987" lon="5.44461">
        <ele>1397.6</ele>
        <time>2015-09-05T15:51:53Z</time>
      </trkpt>
      <trkpt lat="45.1298" lon="5.44451">
        <ele>1396</ele>
        <time>2015-09-05T15:51:55Z</time>
      </trkpt>
      <trkpt lat="45.12972" lon="5.4444">
        <ele>1393.7</ele>
        <time>2015-09-05T15:51:58Z</time>
      </trkpt>
      <trkpt lat="45.12966" lon="5.4443">
        <ele>1391</ele>
        <time>2015-09-05T15:52:02Z</time>
      </trkpt>
      <trkpt lat="45.1296" lon="5.44416">
        <ele>1388.5</ele>
        <time>2015-09-05T15:52:06Z</time>
      </trkpt>
      <trkpt lat="45.12954" lon="5.44405">
        <ele>1387.5</ele>
        <time>2015-09-05T15:52:08Z</time>
      </trkpt>
      <trkpt lat="45.12947" lon="5.44391">
        <ele>1386.2</ele>
        <time>2015-09-05T15:52:10Z</time>
      </trkpt>
      <trkpt lat="45.1294" lon="5.44376">
        <ele>1384.9</ele>
        <time>2015-09-05T15:52:12Z</time>
      </trkpt>
      <trkpt lat="45.12932" lon="5.44362">
        <ele>1383.8</ele>
        <time>2015-09-05T15:52:14Z</time>
      </trkpt>
      <trkpt lat="45.12924" lon="5.44348">
        <ele>1382.4</ele>
        <time>2015-09-05T15:52:16Z</time>
      </trkpt>
      <trkpt lat="45.12918" lon="5.44334">
        <ele>1381.5</ele>
        <time>2015-09-05T15:52:18Z</time>
      </trkpt>
      <trkpt lat="45.1291" lon="5.4432">
        <ele>1380.5</ele>
        <time>2015-09-05T15:52:20Z</time>
      </trkpt>
      <trkpt lat="45.12902" lon="5.44307">
        <ele>1378.8</ele>
        <time>2015-09-05T15:52:22Z</time>
      </trkpt>
      <trkpt lat="45.12894" lon="5.44294">
        <ele>1377.7</ele>
        <time>2015-09-05T15:52:24Z</time>
      </trkpt>
      <trkpt lat="45.12887" lon="5.44285">
        <ele>1376.6</ele>
        <time>2015-09-05T15:52:26Z</time>
      </trkpt>
      <trkpt lat="45.12878" lon="5.44274">
        <ele>1375.2</ele>
        <time>2015-09-05T15:52:29Z</time>
      </trkpt>
      <trkpt lat="45.12866" lon="5.4427">
        <ele>1374</ele>
        <time>2015-09-05T15:52:32Z</time>
      </trkpt>
      <trkpt lat="45.12856" lon="5.44267">
        <ele>1373.1</ele>
        <time>2015-09-05T15:52:34Z</time>
      </trkpt>
      <trkpt lat="45.12847" lon="5.44265">
        <ele>1372.2</ele>
        <time>2015-09-05T15:52:36Z</time>
      </trkpt>
      <trkpt lat="45.12836" lon="5.44262">
        <ele>1371.3</ele>
        <time>2015-09-05T15:52:38Z</time>
      </trkpt>
      <trkpt lat="45.12825" lon="5.44258">
        <ele>1370.4</ele>
        <time>2015-09-05T15:52:40Z</time>
      </trkpt>
      <trkpt lat="45.12814" lon="5.44254">
        <ele>1369.5</ele>
        <time>2015-09-05T15:52:42Z</time>
      </trkpt>
      <trkpt lat="45.1281" lon="5.44242">
        <ele>1368.2</ele>
        <time>2015-09-05T15:52:45Z</time>
      </trkpt>
      <trkpt lat="45.12805" lon="5.44226">
        <ele>1366.7</ele>
        <time>2015-09-05T15:52:48Z</time>
      </trkpt>
      <trkpt lat="45.128" lon="5.44212">
        <ele>1365.3</ele>
        <time>2015-09-05T15:52:51Z</time>
      </trkpt>
      <trkpt lat="45.12799" lon="5.4419">
        <ele>1363.5</ele>
        <time>2015-09-05T15:52:54Z</time>
      </trkpt>
      <trkpt lat="45.12799" lon="5.44175">
        <ele>1362.8</ele>
        <time>2015-09-05T15:52:56Z</time>
      </trkpt>
      <trkpt lat="45.12801" lon="5.44159">
        <ele>1362</ele>
        <time>2015-09-05T15:52:59Z</time>
      </trkpt>
      <trkpt lat="45.12802" lon="5.44146">
        <ele>1361.2</ele>
        <time>2015-09-05T15:53:03Z</time>
      </trkpt>
      <trkpt lat="45.12798" lon="5.44134">
        <ele>1359.7</ele>
        <time>2015-09-05T15:53:08Z</time>
      </trkpt>
      <trkpt lat="45.12794" lon="5.44119">
        <ele>1359</ele>
        <time>2015-09-05T15:53:12Z</time>
      </trkpt>
      <trkpt lat="45.1279" lon="5.44106">
        <ele>1358.4</ele>
        <time>2015-09-05T15:53:16Z</time>
      </trkpt>
      <trkpt lat="45.12784" lon="5.44093">
        <ele>1357.9</ele>
        <time>2015-09-05T15:53:21Z</time>
      </trkpt>
      <trkpt lat="45.12778" lon="5.44082">
        <ele>1357.7</ele>
        <time>2015-09-05T15:53:25Z</time>
      </trkpt>
      <trkpt lat="45.12771" lon="5.44072">
        <ele>1357.5</ele>
        <time>2015-09-05T15:53:29Z</time>
      </trkpt>
      <trkpt lat="45.12766" lon="5.44061">
        <ele>1357.4</ele>
        <time>2015-09-05T15:53:34Z</time>
      </trkpt>
      <trkpt lat="45.12758" lon="5.44053">
        <ele>1357.6</ele>
        <time>2015-09-05T15:53:39Z</time>
      </trkpt>
      <trkpt lat="45.12749" lon="5.44044">
        <ele>1357.8</ele>
        <time>2015-09-05T15:53:44Z</time>
      </trkpt>
      <trkpt lat="45.12741" lon="5.44034">
        <ele>1357.9</ele>
        <time>2015-09-05T15:53:48Z</time>
      </trkpt>
      <trkpt lat="45.1274" lon="5.44018">
        <ele>1357.9</ele>
        <time>2015-09-05T15:53:52Z</time>
      </trkpt>
      <trkpt lat="45.12743" lon="5.44004">
        <ele>1357.9</ele>
        <time>2015-09-05T15:53:55Z</time>
      </trkpt>
      <trkpt lat="45.12744" lon="5.43991">
        <ele>1357.8</ele>
        <time>2015-09-05T15:53:58Z</time>
      </trkpt>
      <trkpt lat="45.12747" lon="5.43977">
        <ele>1357.8</ele>
        <time>2015-09-05T15:54:02Z</time>
      </trkpt>
      <trkpt lat="45.12748" lon="5.43964">
        <ele>1358</ele>
        <time>2015-09-05T15:54:06Z</time>
      </trkpt>
      <trkpt lat="45.12749" lon="5.43948">
        <ele>1358.1</ele>
        <time>2015-09-05T15:54:10Z</time>
      </trkpt>
      <trkpt lat="45.12749" lon="5.43934">
        <ele>1358.1</ele>
        <time>2015-09-05T15:54:13Z</time>
      </trkpt>
      <trkpt lat="45.12752" lon="5.4392">
        <ele>1357.8</ele>
        <time>2015-09-05T15:54:17Z</time>
      </trkpt>
      <trkpt lat="45.12754" lon="5.43906">
        <ele>1356.7</ele>
        <time>2015-09-05T15:54:22Z</time>
      </trkpt>
      <trkpt lat="45.12756" lon="5.43893">
        <ele>1355.9</ele>
        <time>2015-09-05T15:54:26Z</time>
      </trkpt>
      <trkpt lat="45.12753" lon="5.43881">
        <ele>1354.7</ele>
        <time>2015-09-05T15:54:31Z</time>
      </trkpt>
      <trkpt lat="45.12753" lon="5.43866">
        <ele>1353.4</ele>
        <time>2015-09-05T15:54:35Z</time>
      </trkpt>
      <trkpt lat="45.12758" lon="5.43853">
        <ele>1351.3</ele>
        <time>2015-09-05T15:54:40Z</time>
      </trkpt>
      <trkpt lat="45.12764" lon="5.4384">
        <ele>1349.4</ele>
        <time>2015-09-05T15:54:44Z</time>
      </trkpt>
      <trkpt lat="45.12769" lon="5.43827">
        <ele>1347.5</ele>
        <time>2015-09-05T15:54:49Z</time>
      </trkpt>
      <trkpt lat="45.12773" lon="5.43814">
        <ele>1346.2</ele>
        <time>2015-09-05T15:54:53Z</time>
      </trkpt>
      <trkpt lat="45.12777" lon="5.43796">
        <ele>1344.8</ele>
        <time>2015-09-05T15:54:56Z</time>
      </trkpt>
      <trkpt lat="45.12774" lon="5.4378">
        <ele>1343.4</ele>
        <time>2015-09-05T15:54:59Z</time>
      </trkpt>
      <trkpt lat="45.12765" lon="5.43775">
        <ele>1341.9</ele>
        <time>2015-09-05T15:55:02Z</time>
      </trkpt>
      <trkpt lat="45.12757" lon="5.43768">
        <ele>1340</ele>
        <time>2015-09-05T15:55:04Z</time>
      </trkpt>
      <trkpt lat="45.12748" lon="5.43758">
        <ele>1338.3</ele>
        <time>2015-09-05T15:55:06Z</time>
      </trkpt>
      <trkpt lat="45.12741" lon="5.43748">
        <ele>1336.9</ele>
        <time>2015-09-05T15:55:08Z</time>
      </trkpt>
      <trkpt lat="45.12733" lon="5.43736">
        <ele>1335.4</ele>
        <time>2015-09-05T15:55:10Z</time>
      </trkpt>
      <trkpt lat="45.12727" lon="5.43724">
        <ele>1334.1</ele>
        <time>2015-09-05T15:55:12Z</time>
      </trkpt>
      <trkpt lat="45.12717" lon="5.43711">
        <ele>1332.7</ele>
        <time>2015-09-05T15:55:14Z</time>
      </trkpt>
      <trkpt lat="45.1271" lon="5.43698">
        <ele>1331.4</ele>
        <time>2015-09-05T15:55:16Z</time>
      </trkpt>
      <trkpt lat="45.12706" lon="5.43686">
        <ele>1330.2</ele>
        <time>2015-09-05T15:55:18Z</time>
      </trkpt>
      <trkpt lat="45.12709" lon="5.43673">
        <ele>1328.7</ele>
        <time>2015-09-05T15:55:21Z</time>
      </trkpt>
      <trkpt lat="45.12712" lon="5.43658">
        <ele>1327.3</ele>
        <time>2015-09-05T15:55:24Z</time>
      </trkpt>
      <trkpt lat="45.12719" lon="5.43646">
        <ele>1325.8</ele>
        <time>2015-09-05T15:55:28Z</time>
      </trkpt>
      <trkpt lat="45.12729" lon="5.43639">
        <ele>1324.1</ele>
        <time>2015-09-05T15:55:33Z</time>
      </trkpt>
      <trkpt lat="45.12738" lon="5.43635">
        <ele>1323.3</ele>
        <time>2015-09-05T15:55:36Z</time>
      </trkpt>
      <trkpt lat="45.12748" lon="5.43631">
        <ele>1321.9</ele>
        <time>2015-09-05T15:55:41Z</time>
      </trkpt>
      <trkpt lat="45.12738" lon="5.43637">
        <ele>1319.8</ele>
        <time>2015-09-05T15:55:53Z</time>
      </trkpt>
      <trkpt lat="45.1273" lon="5.43642">
        <ele>1319.4</ele>
        <time>2015-09-05T15:55:58Z</time>
      </trkpt>
      <trkpt lat="45.1272" lon="5.43646">
        <ele>1319.2</ele>
        <time>2015-09-05T15:56:03Z</time>
      </trkpt>
      <trkpt lat="45.12717" lon="5.43633">
        <ele>1319.1</ele>
        <time>2015-09-05T15:56:10Z</time>
      </trkpt>
      <trkpt lat="45.12723" lon="5.4362">
        <ele>1318.8</ele>
        <time>2015-09-05T15:56:24Z</time>
      </trkpt>
      <trkpt lat="45.12728" lon="5.43605">
        <ele>1317.7</ele>
        <time>2015-09-05T15:56:28Z</time>
      </trkpt>
      <trkpt lat="45.12734" lon="5.43592">
        <ele>1316.7</ele>
        <time>2015-09-05T15:56:32Z</time>
      </trkpt>
      <trkpt lat="45.12745" lon="5.43585">
        <ele>1314.9</ele>
        <time>2015-09-05T15:56:36Z</time>
      </trkpt>
      <trkpt lat="45.12755" lon="5.43576">
        <ele>1313.8</ele>
        <time>2015-09-05T15:56:38Z</time>
      </trkpt>
      <trkpt lat="45.12765" lon="5.43569">
        <ele>1312.8</ele>
        <time>2015-09-05T15:56:40Z</time>
      </trkpt>
      <trkpt lat="45.12773" lon="5.43564">
        <ele>1311.6</ele>
        <time>2015-09-05T15:56:42Z</time>
      </trkpt>
      <trkpt lat="45.12783" lon="5.43557">
        <ele>1310.3</ele>
        <time>2015-09-05T15:56:44Z</time>
      </trkpt>
      <trkpt lat="45.12792" lon="5.43548">
        <ele>1309.1</ele>
        <time>2015-09-05T15:56:46Z</time>
      </trkpt>
      <trkpt lat="45.12802" lon="5.43537">
        <ele>1307.2</ele>
        <time>2015-09-05T15:56:49Z</time>
      </trkpt>
      <trkpt lat="45.12813" lon="5.43531">
        <ele>1305.9</ele>
        <time>2015-09-05T15:56:51Z</time>
      </trkpt>
      <trkpt lat="45.12828" lon="5.43527">
        <ele>1304.4</ele>
        <time>2015-09-05T15:56:53Z</time>
      </trkpt>
      <trkpt lat="45.12837" lon="5.43524">
        <ele>1303.7</ele>
        <time>2015-09-05T15:56:54Z</time>
      </trkpt>
      <trkpt lat="45.12847" lon="5.43521">
        <ele>1303</ele>
        <time>2015-09-05T15:56:55Z</time>
      </trkpt>
      <trkpt lat="45.12857" lon="5.43518">
        <ele>1302.1</ele>
        <time>2015-09-05T15:56:56Z</time>
      </trkpt>
      <trkpt lat="45.12866" lon="5.43514">
        <ele>1301.4</ele>
        <time>2015-09-05T15:56:57Z</time>
      </trkpt>
      <trkpt lat="45.12876" lon="5.4351">
        <ele>1300.8</ele>
        <time>2015-09-05T15:56:58Z</time>
      </trkpt>
      <trkpt lat="45.12885" lon="5.43505">
        <ele>1299.9</ele>
        <time>2015-09-05T15:56:59Z</time>
      </trkpt>
      <trkpt lat="45.12894" lon="5.43502">
        <ele>1299.2</ele>
        <time>2015-09-05T15:57:00Z</time>
      </trkpt>
      <trkpt lat="45.12903" lon="5.43498">
        <ele>1298.4</ele>
        <time>2015-09-05T15:57:01Z</time>
      </trkpt>
      <trkpt lat="45.12918" lon="5.43494">
        <ele>1297.5</ele>
        <time>2015-09-05T15:57:03Z</time>
      </trkpt>
      <trkpt lat="45.12929" lon="5.43492">
        <ele>1296.7</ele>
        <time>2015-09-05T15:57:05Z</time>
      </trkpt>
      <trkpt lat="45.12941" lon="5.4349">
        <ele>1295.7</ele>
        <time>2015-09-05T15:57:08Z</time>
      </trkpt>
      <trkpt lat="45.12951" lon="5.43489">
        <ele>1294.8</ele>
        <time>2015-09-05T15:57:11Z</time>
      </trkpt>
      <trkpt lat="45.12962" lon="5.43485">
        <ele>1294.2</ele>
        <time>2015-09-05T15:57:14Z</time>
      </trkpt>
      <trkpt lat="45.12973" lon="5.43476">
        <ele>1293.8</ele>
        <time>2015-09-05T15:57:17Z</time>
      </trkpt>
      <trkpt lat="45.12982" lon="5.43466">
        <ele>1293.6</ele>
        <time>2015-09-05T15:57:20Z</time>
      </trkpt>
      <trkpt lat="45.1299" lon="5.43459">
        <ele>1293.4</ele>
        <time>2015-09-05T15:57:23Z</time>
      </trkpt>
      <trkpt lat="45.13" lon="5.43456">
        <ele>1293.3</ele>
        <time>2015-09-05T15:57:27Z</time>
      </trkpt>
      <trkpt lat="45.13009" lon="5.43449">
        <ele>1293.1</ele>
        <time>2015-09-05T15:57:31Z</time>
      </trkpt>
      <trkpt lat="45.13019" lon="5.43443">
        <ele>1293</ele>
        <time>2015-09-05T15:57:35Z</time>
      </trkpt>
      <trkpt lat="45.13028" lon="5.43439">
        <ele>1292.8</ele>
        <time>2015-09-05T15:57:39Z</time>
      </trkpt>
      <trkpt lat="45.13039" lon="5.4344">
        <ele>1292.3</ele>
        <time>2015-09-05T15:57:43Z</time>
      </trkpt>
      <trkpt lat="45.13047" lon="5.43444">
        <ele>1291.1</ele>
        <time>2015-09-05T15:57:49Z</time>
      </trkpt>
      <trkpt lat="45.13054" lon="5.43434">
        <ele>1289.8</ele>
        <time>2015-09-05T15:57:57Z</time>
      </trkpt>
      <trkpt lat="45.13064" lon="5.43436">
        <ele>1288.3</ele>
        <time>2015-09-05T15:58:04Z</time>
      </trkpt>
      <trkpt lat="45.13074" lon="5.43435">
        <ele>1287.3</ele>
        <time>2015-09-05T15:58:09Z</time>
      </trkpt>
      <trkpt lat="45.13084" lon="5.43435">
        <ele>1285.5</ele>
        <time>2015-09-05T15:58:18Z</time>
      </trkpt>
      <trkpt lat="45.13093" lon="5.43433">
        <ele>1284.6</ele>
        <time>2015-09-05T15:58:25Z</time>
      </trkpt>
      <trkpt lat="45.13089" lon="5.43446">
        <ele>1284.2</ele>
        <time>2015-09-05T15:58:41Z</time>
      </trkpt>
      <trkpt lat="45.13082" lon="5.43457">
        <ele>1284.6</ele>
        <time>2015-09-05T15:58:49Z</time>
      </trkpt>
      <trkpt lat="45.13087" lon="5.43468">
        <ele>1285.6</ele>
        <time>2015-09-05T15:59:01Z</time>
      </trkpt>
      <trkpt lat="45.13082" lon="5.43482">
        <ele>1290.9</ele>
        <time>2015-09-05T16:05:23Z</time>
      </trkpt>
      <trkpt lat="45.13082" lon="5.43495">
        <ele>1291</ele>
        <time>2015-09-05T16:05:28Z</time>
      </trkpt>
      <trkpt lat="45.13091" lon="5.435">
        <ele>1291.1</ele>
        <time>2015-09-05T16:05:35Z</time>
      </trkpt>
      <trkpt lat="45.13099" lon="5.43505">
        <ele>1291.6</ele>
        <time>2015-09-05T16:05:40Z</time>
      </trkpt>
      <trkpt lat="45.1311" lon="5.43501">
        <ele>1292.5</ele>
        <time>2015-09-05T16:05:46Z</time>
      </trkpt>
      <trkpt lat="45.13118" lon="5.43493">
        <ele>1293.4</ele>
        <time>2015-09-05T16:05:52Z</time>
      </trkpt>
      <trkpt lat="45.13126" lon="5.43484">
        <ele>1294.1</ele>
        <time>2015-09-05T16:05:58Z</time>
      </trkpt>
      <trkpt lat="45.13135" lon="5.43476">
        <ele>1294.6</ele>
        <time>2015-09-05T16:06:04Z</time>
      </trkpt>
      <trkpt lat="45.13127" lon="5.43483">
        <ele>1296.6</ele>
        <time>2015-09-05T16:07:09Z</time>
      </trkpt>
      <trkpt lat="45.13119" lon="5.43492">
        <ele>1296.6</ele>
        <time>2015-09-05T16:07:14Z</time>
      </trkpt>
      <trkpt lat="45.1311" lon="5.43499">
        <ele>1296.6</ele>
        <time>2015-09-05T16:07:18Z</time>
      </trkpt>
      <trkpt lat="45.13098" lon="5.43501">
        <ele>1296.5</ele>
        <time>2015-09-05T16:07:22Z</time>
      </trkpt>
      <trkpt lat="45.1309" lon="5.43496">
        <ele>1296.1</ele>
        <time>2015-09-05T16:07:25Z</time>
      </trkpt>
      <trkpt lat="45.13083" lon="5.43486">
        <ele>1295.4</ele>
        <time>2015-09-05T16:07:29Z</time>
      </trkpt>
      <trkpt lat="45.13075" lon="5.4348">
        <ele>1294.2</ele>
        <time>2015-09-05T16:07:35Z</time>
      </trkpt>
      <trkpt lat="45.13076" lon="5.43465">
        <ele>1292.9</ele>
        <time>2015-09-05T16:07:43Z</time>
      </trkpt>
      <trkpt lat="45.13085" lon="5.43456">
        <ele>1292.1</ele>
        <time>2015-09-05T16:07:49Z</time>
      </trkpt>
      <trkpt lat="45.13092" lon="5.43447">
        <ele>1291.6</ele>
        <time>2015-09-05T16:07:53Z</time>
      </trkpt>
      <trkpt lat="45.13098" lon="5.43437">
        <ele>1291.1</ele>
        <time>2015-09-05T16:07:56Z</time>
      </trkpt>
      <trkpt lat="45.13106" lon="5.43422">
        <ele>1290.5</ele>
        <time>2015-09-05T16:07:59Z</time>
      </trkpt>
      <trkpt lat="45.13113" lon="5.43406">
        <ele>1289.8</ele>
        <time>2015-09-05T16:08:02Z</time>
      </trkpt>
      <trkpt lat="45.13118" lon="5.43394">
        <ele>1289.3</ele>
        <time>2015-09-05T16:08:04Z</time>
      </trkpt>
      <trkpt lat="45.13124" lon="5.4338">
        <ele>1289.2</ele>
        <time>2015-09-05T16:08:07Z</time>
      </trkpt>
      <trkpt lat="45.13131" lon="5.43365">
        <ele>1288.2</ele>
        <time>2015-09-05T16:08:10Z</time>
      </trkpt>
      <trkpt lat="45.13136" lon="5.43352">
        <ele>1287.2</ele>
        <time>2015-09-05T16:08:13Z</time>
      </trkpt>
      <trkpt lat="45.13141" lon="5.4334">
        <ele>1283.5</ele>
        <time>2015-09-05T16:08:24Z</time>
      </trkpt>
      <trkpt lat="45.13146" lon="5.43329">
        <ele>1282.9</ele>
        <time>2015-09-05T16:08:28Z</time>
      </trkpt>
      <trkpt lat="45.13153" lon="5.43314">
        <ele>1282.5</ele>
        <time>2015-09-05T16:08:31Z</time>
      </trkpt>
      <trkpt lat="45.13158" lon="5.43303">
        <ele>1282</ele>
        <time>2015-09-05T16:08:33Z</time>
      </trkpt>
      <trkpt lat="45.13165" lon="5.43292">
        <ele>1281.6</ele>
        <time>2015-09-05T16:08:35Z</time>
      </trkpt>
      <trkpt lat="45.13172" lon="5.4328">
        <ele>1280.9</ele>
        <time>2015-09-05T16:08:37Z</time>
      </trkpt>
      <trkpt lat="45.13172" lon="5.4328">
        <ele>1280.9</ele>
        <time>2015-09-05T16:08:37Z</time>
      </trkpt>
      <trkpt lat="45.13206" lon="5.43218">
        <ele>1273.4</ele>
        <time>2015-09-05T16:10:15Z</time>
      </trkpt>
      <trkpt lat="45.13205" lon="5.43218">
        <ele>1272.7</ele>
        <time>2015-09-05T16:10:16Z</time>
      </trkpt>
      <trkpt lat="45.13215" lon="5.43221">
        <ele>1262.2</ele>
        <time>2015-09-05T16:11:23Z</time>
      </trkpt>
      <trkpt lat="45.13223" lon="5.43212">
        <ele>1262.2</ele>
        <time>2015-09-05T16:11:26Z</time>
      </trkpt>
      <trkpt lat="45.1323" lon="5.43203">
        <ele>1262.2</ele>
        <time>2015-09-05T16:11:28Z</time>
      </trkpt>
      <trkpt lat="45.1324" lon="5.43194">
        <ele>1262.1</ele>
        <time>2015-09-05T16:11:30Z</time>
      </trkpt>
      <trkpt lat="45.1325" lon="5.43186">
        <ele>1261.8</ele>
        <time>2015-09-05T16:11:32Z</time>
      </trkpt>
      <trkpt lat="45.13262" lon="5.43181">
        <ele>1261.5</ele>
        <time>2015-09-05T16:11:34Z</time>
      </trkpt>
      <trkpt lat="45.13274" lon="5.43178">
        <ele>1261</ele>
        <time>2015-09-05T16:11:36Z</time>
      </trkpt>
      <trkpt lat="45.13287" lon="5.43176">
        <ele>1260.4</ele>
        <time>2015-09-05T16:11:38Z</time>
      </trkpt>
      <trkpt lat="45.13301" lon="5.43174">
        <ele>1259.8</ele>
        <time>2015-09-05T16:11:40Z</time>
      </trkpt>
      <trkpt lat="45.13316" lon="5.43172">
        <ele>1259.1</ele>
        <time>2015-09-05T16:11:42Z</time>
      </trkpt>
      <trkpt lat="45.13331" lon="5.43171">
        <ele>1258.2</ele>
        <time>2015-09-05T16:11:44Z</time>
      </trkpt>
      <trkpt lat="45.13346" lon="5.4317">
        <ele>1257.3</ele>
        <time>2015-09-05T16:11:46Z</time>
      </trkpt>
      <trkpt lat="45.1336" lon="5.4317">
        <ele>1256.2</ele>
        <time>2015-09-05T16:11:48Z</time>
      </trkpt>
      <trkpt lat="45.1337" lon="5.4317">
        <ele>1255.2</ele>
        <time>2015-09-05T16:11:50Z</time>
      </trkpt>
      <trkpt lat="45.13381" lon="5.43171">
        <ele>1254.2</ele>
        <time>2015-09-05T16:11:52Z</time>
      </trkpt>
      <trkpt lat="45.13391" lon="5.4317">
        <ele>1253.1</ele>
        <time>2015-09-05T16:11:54Z</time>
      </trkpt>
      <trkpt lat="45.13402" lon="5.43168">
        <ele>1252.1</ele>
        <time>2015-09-05T16:11:56Z</time>
      </trkpt>
      <trkpt lat="45.13414" lon="5.43167">
        <ele>1250.3</ele>
        <time>2015-09-05T16:11:58Z</time>
      </trkpt>
      <trkpt lat="45.13426" lon="5.4317">
        <ele>1248.9</ele>
        <time>2015-09-05T16:12:01Z</time>
      </trkpt>
      <trkpt lat="45.13436" lon="5.43165">
        <ele>1247</ele>
        <time>2015-09-05T16:12:06Z</time>
      </trkpt>
      <trkpt lat="45.13443" lon="5.43153">
        <ele>1245.9</ele>
        <time>2015-09-05T16:12:10Z</time>
      </trkpt>
      <trkpt lat="45.13443" lon="5.43139">
        <ele>1243.9</ele>
        <time>2015-09-05T16:12:17Z</time>
      </trkpt>
      <trkpt lat="45.13453" lon="5.43138">
        <ele>1242.3</ele>
        <time>2015-09-05T16:12:24Z</time>
      </trkpt>
      <trkpt lat="45.13463" lon="5.43136">
        <ele>1241.7</ele>
        <time>2015-09-05T16:12:28Z</time>
      </trkpt>
      <trkpt lat="45.13472" lon="5.43134">
        <ele>1241.5</ele>
        <time>2015-09-05T16:12:32Z</time>
      </trkpt>
      <trkpt lat="45.13483" lon="5.43134">
        <ele>1241.4</ele>
        <time>2015-09-05T16:12:36Z</time>
      </trkpt>
      <trkpt lat="45.13495" lon="5.43129">
        <ele>1241.5</ele>
        <time>2015-09-05T16:12:40Z</time>
      </trkpt>
      <trkpt lat="45.13506" lon="5.43126">
        <ele>1241.6</ele>
        <time>2015-09-05T16:12:43Z</time>
      </trkpt>
      <trkpt lat="45.13515" lon="5.43121">
        <ele>1241.9</ele>
        <time>2015-09-05T16:12:46Z</time>
      </trkpt>
      <trkpt lat="45.13524" lon="5.43114">
        <ele>1242.3</ele>
        <time>2015-09-05T16:12:50Z</time>
      </trkpt>
      <trkpt lat="45.13535" lon="5.43108">
        <ele>1242.7</ele>
        <time>2015-09-05T16:12:54Z</time>
      </trkpt>
      <trkpt lat="45.13545" lon="5.43107">
        <ele>1242.9</ele>
        <time>2015-09-05T16:12:57Z</time>
      </trkpt>
      <trkpt lat="45.13556" lon="5.43108">
        <ele>1243.5</ele>
        <time>2015-09-05T16:13:02Z</time>
      </trkpt>
      <trkpt lat="45.13565" lon="5.43106">
        <ele>1244.3</ele>
        <time>2015-09-05T16:13:08Z</time>
      </trkpt>
      <trkpt lat="45.13576" lon="5.43102">
        <ele>1244.8</ele>
        <time>2015-09-05T16:13:13Z</time>
      </trkpt>
      <trkpt lat="45.13585" lon="5.43097">
        <ele>1245.1</ele>
        <time>2015-09-05T16:13:16Z</time>
      </trkpt>
      <trkpt lat="45.13594" lon="5.43096">
        <ele>1245.3</ele>
        <time>2015-09-05T16:13:19Z</time>
      </trkpt>
      <trkpt lat="45.13605" lon="5.43096">
        <ele>1245.4</ele>
        <time>2015-09-05T16:13:22Z</time>
      </trkpt>
      <trkpt lat="45.13615" lon="5.43098">
        <ele>1245.6</ele>
        <time>2015-09-05T16:13:25Z</time>
      </trkpt>
      <trkpt lat="45.13624" lon="5.431">
        <ele>1245.8</ele>
        <time>2015-09-05T16:13:28Z</time>
      </trkpt>
      <trkpt lat="45.13635" lon="5.43104">
        <ele>1246.2</ele>
        <time>2015-09-05T16:13:32Z</time>
      </trkpt>
      <trkpt lat="45.13646" lon="5.43106">
        <ele>1246.7</ele>
        <time>2015-09-05T16:13:36Z</time>
      </trkpt>
      <trkpt lat="45.13657" lon="5.43107">
        <ele>1247.1</ele>
        <time>2015-09-05T16:13:40Z</time>
      </trkpt>
      <trkpt lat="45.13667" lon="5.43105">
        <ele>1247.3</ele>
        <time>2015-09-05T16:13:43Z</time>
      </trkpt>
      <trkpt lat="45.13677" lon="5.43101">
        <ele>1247.3</ele>
        <time>2015-09-05T16:13:46Z</time>
      </trkpt>
      <trkpt lat="45.13687" lon="5.43095">
        <ele>1246.9</ele>
        <time>2015-09-05T16:13:49Z</time>
      </trkpt>
      <trkpt lat="45.13696" lon="5.43089">
        <ele>1246.6</ele>
        <time>2015-09-05T16:13:51Z</time>
      </trkpt>
      <trkpt lat="45.13704" lon="5.43083">
        <ele>1246.1</ele>
        <time>2015-09-05T16:13:53Z</time>
      </trkpt>
      <trkpt lat="45.13713" lon="5.43077">
        <ele>1245.2</ele>
        <time>2015-09-05T16:13:56Z</time>
      </trkpt>
      <trkpt lat="45.13724" lon="5.43076">
        <ele>1243.8</ele>
        <time>2015-09-05T16:14:01Z</time>
      </trkpt>
      <trkpt lat="45.13732" lon="5.43072">
        <ele>1242.9</ele>
        <time>2015-09-05T16:14:05Z</time>
      </trkpt>
      <trkpt lat="45.13741" lon="5.43065">
        <ele>1242.1</ele>
        <time>2015-09-05T16:14:08Z</time>
      </trkpt>
      <trkpt lat="45.13752" lon="5.43057">
        <ele>1241.1</ele>
        <time>2015-09-05T16:14:11Z</time>
      </trkpt>
      <trkpt lat="45.1376" lon="5.4305">
        <ele>1240.5</ele>
        <time>2015-09-05T16:14:13Z</time>
      </trkpt>
      <trkpt lat="45.13767" lon="5.43041">
        <ele>1240</ele>
        <time>2015-09-05T16:14:15Z</time>
      </trkpt>
      <trkpt lat="45.13774" lon="5.43031">
        <ele>1239.3</ele>
        <time>2015-09-05T16:14:18Z</time>
      </trkpt>
      <trkpt lat="45.13782" lon="5.43021">
        <ele>1238.5</ele>
        <time>2015-09-05T16:14:22Z</time>
      </trkpt>
      <trkpt lat="45.13791" lon="5.43012">
        <ele>1238</ele>
        <time>2015-09-05T16:14:26Z</time>
      </trkpt>
      <trkpt lat="45.13799" lon="5.43004">
        <ele>1237.5</ele>
        <time>2015-09-05T16:14:31Z</time>
      </trkpt>
      <trkpt lat="45.13798" lon="5.42991">
        <ele>1237.3</ele>
        <time>2015-09-05T16:14:36Z</time>
      </trkpt>
      <trkpt lat="45.13792" lon="5.42979">
        <ele>1237.3</ele>
        <time>2015-09-05T16:14:41Z</time>
      </trkpt>
      <trkpt lat="45.13786" lon="5.42967">
        <ele>1237.3</ele>
        <time>2015-09-05T16:14:46Z</time>
      </trkpt>
      <trkpt lat="45.13787" lon="5.42953">
        <ele>1237.5</ele>
        <time>2015-09-05T16:14:53Z</time>
      </trkpt>
      <trkpt lat="45.13788" lon="5.42968">
        <ele>1239.5</ele>
        <time>2015-09-05T16:15:26Z</time>
      </trkpt>
      <trkpt lat="45.13779" lon="5.42974">
        <ele>1238.9</ele>
        <time>2015-09-05T16:15:37Z</time>
      </trkpt>
      <trkpt lat="45.1377" lon="5.42972">
        <ele>1238</ele>
        <time>2015-09-05T16:15:55Z</time>
      </trkpt>
      <trkpt lat="45.13761" lon="5.4297">
        <ele>1237.7</ele>
        <time>2015-09-05T16:16:06Z</time>
      </trkpt>
      <trkpt lat="45.13751" lon="5.4297">
        <ele>1237.4</ele>
        <time>2015-09-05T16:16:13Z</time>
      </trkpt>
      <trkpt lat="45.1374" lon="5.42974">
        <ele>1237.1</ele>
        <time>2015-09-05T16:16:18Z</time>
      </trkpt>
      <trkpt lat="45.13731" lon="5.42976">
        <ele>1236.8</ele>
        <time>2015-09-05T16:16:22Z</time>
      </trkpt>
      <trkpt lat="45.13721" lon="5.42978">
        <ele>1236.4</ele>
        <time>2015-09-05T16:16:25Z</time>
      </trkpt>
      <trkpt lat="45.13711" lon="5.42981">
        <ele>1235.8</ele>
        <time>2015-09-05T16:16:28Z</time>
      </trkpt>
      <trkpt lat="45.13702" lon="5.42985">
        <ele>1235.3</ele>
        <time>2015-09-05T16:16:31Z</time>
      </trkpt>
      <trkpt lat="45.13691" lon="5.42986">
        <ele>1234.9</ele>
        <time>2015-09-05T16:16:34Z</time>
      </trkpt>
      <trkpt lat="45.13679" lon="5.42987">
        <ele>1234.4</ele>
        <time>2015-09-05T16:16:37Z</time>
      </trkpt>
      <trkpt lat="45.13668" lon="5.42987">
        <ele>1234</ele>
        <time>2015-09-05T16:16:40Z</time>
      </trkpt>
      <trkpt lat="45.13656" lon="5.42982">
        <ele>1233.4</ele>
        <time>2015-09-05T16:16:43Z</time>
      </trkpt>
      <trkpt lat="45.13647" lon="5.42979">
        <ele>1232.9</ele>
        <time>2015-09-05T16:16:45Z</time>
      </trkpt>
      <trkpt lat="45.13637" lon="5.42976">
        <ele>1232.4</ele>
        <time>2015-09-05T16:16:47Z</time>
      </trkpt>
      <trkpt lat="45.13626" lon="5.42975">
        <ele>1232</ele>
        <time>2015-09-05T16:16:49Z</time>
      </trkpt>
      <trkpt lat="45.13614" lon="5.42973">
        <ele>1231.3</ele>
        <time>2015-09-05T16:16:51Z</time>
      </trkpt>
      <trkpt lat="45.13601" lon="5.42971">
        <ele>1230.6</ele>
        <time>2015-09-05T16:16:53Z</time>
      </trkpt>
      <trkpt lat="45.13588" lon="5.42968">
        <ele>1229.8</ele>
        <time>2015-09-05T16:16:55Z</time>
      </trkpt>
      <trkpt lat="45.13574" lon="5.42966">
        <ele>1229</ele>
        <time>2015-09-05T16:16:57Z</time>
      </trkpt>
      <trkpt lat="45.13559" lon="5.42966">
        <ele>1228.2</ele>
        <time>2015-09-05T16:16:59Z</time>
      </trkpt>
      <trkpt lat="45.13545" lon="5.42967">
        <ele>1227.5</ele>
        <time>2015-09-05T16:17:01Z</time>
      </trkpt>
      <trkpt lat="45.1353" lon="5.42965">
        <ele>1226.6</ele>
        <time>2015-09-05T16:17:03Z</time>
      </trkpt>
      <trkpt lat="45.13515" lon="5.42963">
        <ele>1225.5</ele>
        <time>2015-09-05T16:17:05Z</time>
      </trkpt>
      <trkpt lat="45.13501" lon="5.42959">
        <ele>1224.6</ele>
        <time>2015-09-05T16:17:07Z</time>
      </trkpt>
      <trkpt lat="45.13487" lon="5.42958">
        <ele>1223.8</ele>
        <time>2015-09-05T16:17:09Z</time>
      </trkpt>
      <trkpt lat="45.13476" lon="5.42954">
        <ele>1223.1</ele>
        <time>2015-09-05T16:17:11Z</time>
      </trkpt>
      <trkpt lat="45.13466" lon="5.42949">
        <ele>1222.4</ele>
        <time>2015-09-05T16:17:13Z</time>
      </trkpt>
      <trkpt lat="45.13455" lon="5.4294">
        <ele>1221.8</ele>
        <time>2015-09-05T16:17:15Z</time>
      </trkpt>
      <trkpt lat="45.13443" lon="5.42931">
        <ele>1221.2</ele>
        <time>2015-09-05T16:17:17Z</time>
      </trkpt>
      <trkpt lat="45.13431" lon="5.42924">
        <ele>1220.4</ele>
        <time>2015-09-05T16:17:19Z</time>
      </trkpt>
      <trkpt lat="45.13421" lon="5.42915">
        <ele>1219.6</ele>
        <time>2015-09-05T16:17:21Z</time>
      </trkpt>
      <trkpt lat="45.1341" lon="5.42907">
        <ele>1219</ele>
        <time>2015-09-05T16:17:23Z</time>
      </trkpt>
      <trkpt lat="45.13398" lon="5.429">
        <ele>1218.2</ele>
        <time>2015-09-05T16:17:26Z</time>
      </trkpt>
      <trkpt lat="45.13388" lon="5.42893">
        <ele>1217.7</ele>
        <time>2015-09-05T16:17:29Z</time>
      </trkpt>
      <trkpt lat="45.1338" lon="5.42884">
        <ele>1217.3</ele>
        <time>2015-09-05T16:17:32Z</time>
      </trkpt>
      <trkpt lat="45.13369" lon="5.42874">
        <ele>1216.8</ele>
        <time>2015-09-05T16:17:35Z</time>
      </trkpt>
      <trkpt lat="45.1336" lon="5.4287">
        <ele>1216.5</ele>
        <time>2015-09-05T16:17:37Z</time>
      </trkpt>
      <trkpt lat="45.13349" lon="5.42867">
        <ele>1216.2</ele>
        <time>2015-09-05T16:17:39Z</time>
      </trkpt>
      <trkpt lat="45.13338" lon="5.42864">
        <ele>1215.9</ele>
        <time>2015-09-05T16:17:41Z</time>
      </trkpt>
      <trkpt lat="45.13328" lon="5.42858">
        <ele>1215.2</ele>
        <time>2015-09-05T16:17:43Z</time>
      </trkpt>
      <trkpt lat="45.13317" lon="5.42855">
        <ele>1214.6</ele>
        <time>2015-09-05T16:17:45Z</time>
      </trkpt>
      <trkpt lat="45.13306" lon="5.42849">
        <ele>1213.9</ele>
        <time>2015-09-05T16:17:47Z</time>
      </trkpt>
      <trkpt lat="45.13297" lon="5.42841">
        <ele>1212.9</ele>
        <time>2015-09-05T16:17:49Z</time>
      </trkpt>
      <trkpt lat="45.1329" lon="5.42831">
        <ele>1211.9</ele>
        <time>2015-09-05T16:17:51Z</time>
      </trkpt>
      <trkpt lat="45.13282" lon="5.42816">
        <ele>1210.8</ele>
        <time>2015-09-05T16:17:53Z</time>
      </trkpt>
      <trkpt lat="45.13274" lon="5.42799">
        <ele>1209.6</ele>
        <time>2015-09-05T16:17:55Z</time>
      </trkpt>
      <trkpt lat="45.13267" lon="5.42788">
        <ele>1208.5</ele>
        <time>2015-09-05T16:17:57Z</time>
      </trkpt>
      <trkpt lat="45.13258" lon="5.42783">
        <ele>1207.6</ele>
        <time>2015-09-05T16:17:59Z</time>
      </trkpt>
      <trkpt lat="45.1325" lon="5.42773">
        <ele>1206.6</ele>
        <time>2015-09-05T16:18:01Z</time>
      </trkpt>
      <trkpt lat="45.13244" lon="5.42761">
        <ele>1205.6</ele>
        <time>2015-09-05T16:18:03Z</time>
      </trkpt>
      <trkpt lat="45.13238" lon="5.42749">
        <ele>1204.7</ele>
        <time>2015-09-05T16:18:05Z</time>
      </trkpt>
      <trkpt lat="45.13232" lon="5.42738">
        <ele>1203.9</ele>
        <time>2015-09-05T16:18:07Z</time>
      </trkpt>
      <trkpt lat="45.13226" lon="5.42727">
        <ele>1203.2</ele>
        <time>2015-09-05T16:18:09Z</time>
      </trkpt>
      <trkpt lat="45.13218" lon="5.42719">
        <ele>1202.4</ele>
        <time>2015-09-05T16:18:11Z</time>
      </trkpt>
      <trkpt lat="45.1321" lon="5.42711">
        <ele>1201.7</ele>
        <time>2015-09-05T16:18:13Z</time>
      </trkpt>
      <trkpt lat="45.13202" lon="5.42704">
        <ele>1201.1</ele>
        <time>2015-09-05T16:18:15Z</time>
      </trkpt>
      <trkpt lat="45.13192" lon="5.42692">
        <ele>1200.2</ele>
        <time>2015-09-05T16:18:18Z</time>
      </trkpt>
      <trkpt lat="45.13182" lon="5.42678">
        <ele>1199.5</ele>
        <time>2015-09-05T16:18:21Z</time>
      </trkpt>
      <trkpt lat="45.13177" lon="5.42668">
        <ele>1199</ele>
        <time>2015-09-05T16:18:23Z</time>
      </trkpt>
      <trkpt lat="45.13173" lon="5.42655">
        <ele>1198.5</ele>
        <time>2015-09-05T16:18:25Z</time>
      </trkpt>
      <trkpt lat="45.13167" lon="5.42641">
        <ele>1197.8</ele>
        <time>2015-09-05T16:18:28Z</time>
      </trkpt>
      <trkpt lat="45.13158" lon="5.42632">
        <ele>1197.2</ele>
        <time>2015-09-05T16:18:31Z</time>
      </trkpt>
      <trkpt lat="45.13148" lon="5.42625">
        <ele>1196.7</ele>
        <time>2015-09-05T16:18:34Z</time>
      </trkpt>
      <trkpt lat="45.13137" lon="5.42617">
        <ele>1196.2</ele>
        <time>2015-09-05T16:18:37Z</time>
      </trkpt>
      <trkpt lat="45.13128" lon="5.42605">
        <ele>1195.6</ele>
        <time>2015-09-05T16:18:40Z</time>
      </trkpt>
      <trkpt lat="45.13121" lon="5.42595">
        <ele>1194.9</ele>
        <time>2015-09-05T16:18:43Z</time>
      </trkpt>
      <trkpt lat="45.13108" lon="5.4259">
        <ele>1194</ele>
        <time>2015-09-05T16:18:46Z</time>
      </trkpt>
      <trkpt lat="45.13096" lon="5.4259">
        <ele>1193.2</ele>
        <time>2015-09-05T16:18:48Z</time>
      </trkpt>
      <trkpt lat="45.13086" lon="5.4258">
        <ele>1192.4</ele>
        <time>2015-09-05T16:18:50Z</time>
      </trkpt>
      <trkpt lat="45.13078" lon="5.42567">
        <ele>1191.5</ele>
        <time>2015-09-05T16:18:52Z</time>
      </trkpt>
      <trkpt lat="45.1307" lon="5.42557">
        <ele>1190.7</ele>
        <time>2015-09-05T16:18:54Z</time>
      </trkpt>
      <trkpt lat="45.13063" lon="5.42546">
        <ele>1189.7</ele>
        <time>2015-09-05T16:18:57Z</time>
      </trkpt>
      <trkpt lat="45.13064" lon="5.42532">
        <ele>1188.5</ele>
        <time>2015-09-05T16:19:02Z</time>
      </trkpt>
      <trkpt lat="45.13061" lon="5.42517">
        <ele>1187.7</ele>
        <time>2015-09-05T16:19:08Z</time>
      </trkpt>
      <trkpt lat="45.13062" lon="5.42504">
        <ele>1187.7</ele>
        <time>2015-09-05T16:19:15Z</time>
      </trkpt>
      <trkpt lat="45.13062" lon="5.42489">
        <ele>1187.9</ele>
        <time>2015-09-05T16:19:21Z</time>
      </trkpt>
      <trkpt lat="45.13057" lon="5.42479">
        <ele>1188.4</ele>
        <time>2015-09-05T16:19:28Z</time>
      </trkpt>
      <trkpt lat="45.13048" lon="5.42477">
        <ele>1189.1</ele>
        <time>2015-09-05T16:19:33Z</time>
      </trkpt>
      <trkpt lat="45.13039" lon="5.42475">
        <ele>1189.9</ele>
        <time>2015-09-05T16:19:38Z</time>
      </trkpt>
      <trkpt lat="45.1303" lon="5.4247">
        <ele>1191.3</ele>
        <time>2015-09-05T16:19:47Z</time>
      </trkpt>
      <trkpt lat="45.1302" lon="5.42467">
        <ele>1192.7</ele>
        <time>2015-09-05T16:19:54Z</time>
      </trkpt>
      <trkpt lat="45.13011" lon="5.42464">
        <ele>1193.8</ele>
        <time>2015-09-05T16:20:00Z</time>
      </trkpt>
      <trkpt lat="45.13001" lon="5.42464">
        <ele>1194.8</ele>
        <time>2015-09-05T16:20:09Z</time>
      </trkpt>
      <trkpt lat="45.12991" lon="5.42461">
        <ele>1194.6</ele>
        <time>2015-09-05T16:20:12Z</time>
      </trkpt>
      <trkpt lat="45.12981" lon="5.42452">
        <ele>1194.1</ele>
        <time>2015-09-05T16:20:15Z</time>
      </trkpt>
      <trkpt lat="45.12974" lon="5.42444">
        <ele>1193.8</ele>
        <time>2015-09-05T16:20:17Z</time>
      </trkpt>
      <trkpt lat="45.12967" lon="5.42433">
        <ele>1193.6</ele>
        <time>2015-09-05T16:20:19Z</time>
      </trkpt>
      <trkpt lat="45.12958" lon="5.42426">
        <ele>1193.4</ele>
        <time>2015-09-05T16:20:21Z</time>
      </trkpt>
      <trkpt lat="45.12949" lon="5.42419">
        <ele>1193.1</ele>
        <time>2015-09-05T16:20:23Z</time>
      </trkpt>
      <trkpt lat="45.12939" lon="5.42409">
        <ele>1192.6</ele>
        <time>2015-09-05T16:20:26Z</time>
      </trkpt>
      <trkpt lat="45.12934" lon="5.42397">
        <ele>1192.1</ele>
        <time>2015-09-05T16:20:31Z</time>
      </trkpt>
      <trkpt lat="45.12929" lon="5.42385">
        <ele>1191.6</ele>
        <time>2015-09-05T16:20:37Z</time>
      </trkpt>
      <trkpt lat="45.12926" lon="5.42372">
        <ele>1191.3</ele>
        <time>2015-09-05T16:20:44Z</time>
      </trkpt>
      <trkpt lat="45.12924" lon="5.42359">
        <ele>1191.5</ele>
        <time>2015-09-05T16:20:51Z</time>
      </trkpt>
      <trkpt lat="45.12921" lon="5.42346">
        <ele>1191.9</ele>
        <time>2015-09-05T16:20:58Z</time>
      </trkpt>
      <trkpt lat="45.12916" lon="5.42335">
        <ele>1192.8</ele>
        <time>2015-09-05T16:21:06Z</time>
      </trkpt>
      <trkpt lat="45.12908" lon="5.42328">
        <ele>1193.9</ele>
        <time>2015-09-05T16:21:14Z</time>
      </trkpt>
      <trkpt lat="45.12899" lon="5.42324">
        <ele>1195.1</ele>
        <time>2015-09-05T16:21:22Z</time>
      </trkpt>
      <trkpt lat="45.1289" lon="5.42317">
        <ele>1196.2</ele>
        <time>2015-09-05T16:21:30Z</time>
      </trkpt>
      <trkpt lat="45.12883" lon="5.42309">
        <ele>1197.2</ele>
        <time>2015-09-05T16:21:37Z</time>
      </trkpt>
      <trkpt lat="45.12876" lon="5.42299">
        <ele>1198.1</ele>
        <time>2015-09-05T16:21:43Z</time>
      </trkpt>
      <trkpt lat="45.12869" lon="5.42289">
        <ele>1199.3</ele>
        <time>2015-09-05T16:21:51Z</time>
      </trkpt>
      <trkpt lat="45.12866" lon="5.42277">
        <ele>1202.1</ele>
        <time>2015-09-05T16:25:20Z</time>
      </trkpt>
      <trkpt lat="45.1286" lon="5.42267">
        <ele>1202</ele>
        <time>2015-09-05T16:25:24Z</time>
      </trkpt>
      <trkpt lat="45.12853" lon="5.42255">
        <ele>1201.7</ele>
        <time>2015-09-05T16:25:27Z</time>
      </trkpt>
      <trkpt lat="45.12842" lon="5.42243">
        <ele>1201.1</ele>
        <time>2015-09-05T16:25:30Z</time>
      </trkpt>
      <trkpt lat="45.12836" lon="5.42232">
        <ele>1200.6</ele>
        <time>2015-09-05T16:25:32Z</time>
      </trkpt>
      <trkpt lat="45.12831" lon="5.42219">
        <ele>1200</ele>
        <time>2015-09-05T16:25:34Z</time>
      </trkpt>
      <trkpt lat="45.12824" lon="5.42207">
        <ele>1199.6</ele>
        <time>2015-09-05T16:25:36Z</time>
      </trkpt>
      <trkpt lat="45.12816" lon="5.42193">
        <ele>1199.1</ele>
        <time>2015-09-05T16:25:38Z</time>
      </trkpt>
      <trkpt lat="45.12811" lon="5.42178">
        <ele>1198.6</ele>
        <time>2015-09-05T16:25:40Z</time>
      </trkpt>
      <trkpt lat="45.12807" lon="5.42164">
        <ele>1198.2</ele>
        <time>2015-09-05T16:25:42Z</time>
      </trkpt>
      <trkpt lat="45.12803" lon="5.42152">
        <ele>1197.7</ele>
        <time>2015-09-05T16:25:44Z</time>
      </trkpt>
      <trkpt lat="45.12799" lon="5.42139">
        <ele>1197.2</ele>
        <time>2015-09-05T16:25:46Z</time>
      </trkpt>
      <trkpt lat="45.12795" lon="5.42123">
        <ele>1196.6</ele>
        <time>2015-09-05T16:25:49Z</time>
      </trkpt>
      <trkpt lat="45.1279" lon="5.4211">
        <ele>1195.9</ele>
        <time>2015-09-05T16:25:53Z</time>
      </trkpt>
      <trkpt lat="45.12787" lon="5.42098">
        <ele>1195.4</ele>
        <time>2015-09-05T16:25:56Z</time>
      </trkpt>
      <trkpt lat="45.12782" lon="5.42086">
        <ele>1195.1</ele>
        <time>2015-09-05T16:25:59Z</time>
      </trkpt>
      <trkpt lat="45.12776" lon="5.42073">
        <ele>1194.8</ele>
        <time>2015-09-05T16:26:02Z</time>
      </trkpt>
      <trkpt lat="45.1277" lon="5.42062">
        <ele>1194.7</ele>
        <time>2015-09-05T16:26:05Z</time>
      </trkpt>
      <trkpt lat="45.12763" lon="5.4205">
        <ele>1194.5</ele>
        <time>2015-09-05T16:26:08Z</time>
      </trkpt>
      <trkpt lat="45.12755" lon="5.42038">
        <ele>1194.2</ele>
        <time>2015-09-05T16:26:11Z</time>
      </trkpt>
      <trkpt lat="45.12746" lon="5.42025">
        <ele>1194</ele>
        <time>2015-09-05T16:26:14Z</time>
      </trkpt>
      <trkpt lat="45.12737" lon="5.42014">
        <ele>1193.8</ele>
        <time>2015-09-05T16:26:17Z</time>
      </trkpt>
      <trkpt lat="45.12728" lon="5.42007">
        <ele>1193.6</ele>
        <time>2015-09-05T16:26:20Z</time>
      </trkpt>
      <trkpt lat="45.12718" lon="5.41999">
        <ele>1193.6</ele>
        <time>2015-09-05T16:26:24Z</time>
      </trkpt>
      <trkpt lat="45.12708" lon="5.41992">
        <ele>1193.7</ele>
        <time>2015-09-05T16:26:28Z</time>
      </trkpt>
      <trkpt lat="45.12701" lon="5.41983">
        <ele>1193.9</ele>
        <time>2015-09-05T16:26:31Z</time>
      </trkpt>
      <trkpt lat="45.12694" lon="5.41975">
        <ele>1194.1</ele>
        <time>2015-09-05T16:26:34Z</time>
      </trkpt>
      <trkpt lat="45.12684" lon="5.41966">
        <ele>1194.5</ele>
        <time>2015-09-05T16:26:38Z</time>
      </trkpt>
      <trkpt lat="45.12677" lon="5.41955">
        <ele>1194.9</ele>
        <time>2015-09-05T16:26:42Z</time>
      </trkpt>
      <trkpt lat="45.12668" lon="5.41945">
        <ele>1195.6</ele>
        <time>2015-09-05T16:26:47Z</time>
      </trkpt>
      <trkpt lat="45.12663" lon="5.41935">
        <ele>1196.5</ele>
        <time>2015-09-05T16:26:54Z</time>
      </trkpt>
      <trkpt lat="45.12667" lon="5.4192">
        <ele>1196.9</ele>
        <time>2015-09-05T16:26:59Z</time>
      </trkpt>
      <trkpt lat="45.1267" lon="5.41907">
        <ele>1197.3</ele>
        <time>2015-09-05T16:27:03Z</time>
      </trkpt>
      <trkpt lat="45.12672" lon="5.41894">
        <ele>1197.7</ele>
        <time>2015-09-05T16:27:07Z</time>
      </trkpt>
      <trkpt lat="45.12674" lon="5.41878">
        <ele>1198.1</ele>
        <time>2015-09-05T16:27:12Z</time>
      </trkpt>
      <trkpt lat="45.12678" lon="5.41866">
        <ele>1198.8</ele>
        <time>2015-09-05T16:27:17Z</time>
      </trkpt>
      <trkpt lat="45.12684" lon="5.41855">
        <ele>1199.5</ele>
        <time>2015-09-05T16:27:22Z</time>
      </trkpt>
      <trkpt lat="45.12689" lon="5.41841">
        <ele>1200</ele>
        <time>2015-09-05T16:27:26Z</time>
      </trkpt>
      <trkpt lat="45.12692" lon="5.41826">
        <ele>1200.8</ele>
        <time>2015-09-05T16:27:32Z</time>
      </trkpt>
      <trkpt lat="45.1269" lon="5.41813">
        <ele>1201.2</ele>
        <time>2015-09-05T16:27:37Z</time>
      </trkpt>
      <trkpt lat="45.12696" lon="5.41799">
        <ele>1202</ele>
        <time>2015-09-05T16:27:51Z</time>
      </trkpt>
      <trkpt lat="45.12702" lon="5.41785">
        <ele>1202.4</ele>
        <time>2015-09-05T16:27:56Z</time>
      </trkpt>
      <trkpt lat="45.12703" lon="5.41769">
        <ele>1202.6</ele>
        <time>2015-09-05T16:28:00Z</time>
      </trkpt>
      <trkpt lat="45.12704" lon="5.41756">
        <ele>1202.8</ele>
        <time>2015-09-05T16:28:04Z</time>
      </trkpt>
      <trkpt lat="45.12699" lon="5.41741">
        <ele>1202.5</ele>
        <time>2015-09-05T16:28:08Z</time>
      </trkpt>
      <trkpt lat="45.12693" lon="5.41728">
        <ele>1202.2</ele>
        <time>2015-09-05T16:28:11Z</time>
      </trkpt>
      <trkpt lat="45.1269" lon="5.41713">
        <ele>1201.9</ele>
        <time>2015-09-05T16:28:15Z</time>
      </trkpt>
      <trkpt lat="45.12689" lon="5.41697">
        <ele>1201.7</ele>
        <time>2015-09-05T16:28:20Z</time>
      </trkpt>
      <trkpt lat="45.12691" lon="5.41683">
        <ele>1201.5</ele>
        <time>2015-09-05T16:28:24Z</time>
      </trkpt>
      <trkpt lat="45.12692" lon="5.41668">
        <ele>1201.6</ele>
        <time>2015-09-05T16:28:30Z</time>
      </trkpt>
      <trkpt lat="45.12691" lon="5.41652">
        <ele>1202.1</ele>
        <time>2015-09-05T16:28:35Z</time>
      </trkpt>
      <trkpt lat="45.12688" lon="5.41638">
        <ele>1202.8</ele>
        <time>2015-09-05T16:28:40Z</time>
      </trkpt>
      <trkpt lat="45.12685" lon="5.41626">
        <ele>1203.6</ele>
        <time>2015-09-05T16:28:45Z</time>
      </trkpt>
      <trkpt lat="45.12681" lon="5.41615">
        <ele>1205.6</ele>
        <time>2015-09-05T16:28:59Z</time>
      </trkpt>
      <trkpt lat="45.12677" lon="5.41602">
        <ele>1207.8</ele>
        <time>2015-09-05T16:29:12Z</time>
      </trkpt>
      <trkpt lat="45.12671" lon="5.41591">
        <ele>1209.4</ele>
        <time>2015-09-05T16:29:21Z</time>
      </trkpt>
      <trkpt lat="45.12667" lon="5.41578">
        <ele>1210.9</ele>
        <time>2015-09-05T16:29:30Z</time>
      </trkpt>
      <trkpt lat="45.12665" lon="5.41565">
        <ele>1211.7</ele>
        <time>2015-09-05T16:29:37Z</time>
      </trkpt>
      <trkpt lat="45.1266" lon="5.41554">
        <ele>1212.6</ele>
        <time>2015-09-05T16:29:44Z</time>
      </trkpt>
      <trkpt lat="45.12656" lon="5.41542">
        <ele>1214.2</ele>
        <time>2015-09-05T16:29:54Z</time>
      </trkpt>
      <trkpt lat="45.12649" lon="5.41533">
        <ele>1215.9</ele>
        <time>2015-09-05T16:30:03Z</time>
      </trkpt>
      <trkpt lat="45.12642" lon="5.41523">
        <ele>1217.2</ele>
        <time>2015-09-05T16:30:11Z</time>
      </trkpt>
      <trkpt lat="45.12635" lon="5.41516">
        <ele>1218</ele>
        <time>2015-09-05T16:30:17Z</time>
      </trkpt>
      <trkpt lat="45.12624" lon="5.41509">
        <ele>1218.1</ele>
        <time>2015-09-05T16:30:21Z</time>
      </trkpt>
      <trkpt lat="45.12614" lon="5.41506">
        <ele>1218</ele>
        <time>2015-09-05T16:30:24Z</time>
      </trkpt>
      <trkpt lat="45.12602" lon="5.41504">
        <ele>1217.6</ele>
        <time>2015-09-05T16:30:27Z</time>
      </trkpt>
      <trkpt lat="45.12591" lon="5.41502">
        <ele>1217</ele>
        <time>2015-09-05T16:30:29Z</time>
      </trkpt>
      <trkpt lat="45.12581" lon="5.41499">
        <ele>1216.4</ele>
        <time>2015-09-05T16:30:31Z</time>
      </trkpt>
      <trkpt lat="45.1257" lon="5.41493">
        <ele>1215.9</ele>
        <time>2015-09-05T16:30:33Z</time>
      </trkpt>
      <trkpt lat="45.12559" lon="5.41491">
        <ele>1215.4</ele>
        <time>2015-09-05T16:30:35Z</time>
      </trkpt>
      <trkpt lat="45.1255" lon="5.41489">
        <ele>1214.9</ele>
        <time>2015-09-05T16:30:37Z</time>
      </trkpt>
      <trkpt lat="45.1254" lon="5.41486">
        <ele>1214.4</ele>
        <time>2015-09-05T16:30:39Z</time>
      </trkpt>
      <trkpt lat="45.12532" lon="5.41482">
        <ele>1213.8</ele>
        <time>2015-09-05T16:30:41Z</time>
      </trkpt>
      <trkpt lat="45.12523" lon="5.41477">
        <ele>1213.2</ele>
        <time>2015-09-05T16:30:43Z</time>
      </trkpt>
      <trkpt lat="45.12514" lon="5.41472">
        <ele>1212.6</ele>
        <time>2015-09-05T16:30:45Z</time>
      </trkpt>
      <trkpt lat="45.12503" lon="5.4146">
        <ele>1211.3</ele>
        <time>2015-09-05T16:30:48Z</time>
      </trkpt>
      <trkpt lat="45.12493" lon="5.41449">
        <ele>1210.4</ele>
        <time>2015-09-05T16:30:50Z</time>
      </trkpt>
      <trkpt lat="45.12484" lon="5.41437">
        <ele>1209.4</ele>
        <time>2015-09-05T16:30:52Z</time>
      </trkpt>
      <trkpt lat="45.12475" lon="5.41425">
        <ele>1207.9</ele>
        <time>2015-09-05T16:30:55Z</time>
      </trkpt>
      <trkpt lat="45.12469" lon="5.41412">
        <ele>1206.4</ele>
        <time>2015-09-05T16:30:58Z</time>
      </trkpt>
      <trkpt lat="45.12462" lon="5.41403">
        <ele>1204.8</ele>
        <time>2015-09-05T16:31:01Z</time>
      </trkpt>
      <trkpt lat="45.12451" lon="5.41397">
        <ele>1203</ele>
        <time>2015-09-05T16:31:04Z</time>
      </trkpt>
      <trkpt lat="45.1244" lon="5.41392">
        <ele>1201.8</ele>
        <time>2015-09-05T16:31:06Z</time>
      </trkpt>
      <trkpt lat="45.12428" lon="5.4139">
        <ele>1200.7</ele>
        <time>2015-09-05T16:31:08Z</time>
      </trkpt>
      <trkpt lat="45.12418" lon="5.41389">
        <ele>1199.7</ele>
        <time>2015-09-05T16:31:10Z</time>
      </trkpt>
      <trkpt lat="45.12405" lon="5.41393">
        <ele>1198.4</ele>
        <time>2015-09-05T16:31:13Z</time>
      </trkpt>
      <trkpt lat="45.12395" lon="5.41395">
        <ele>1197.6</ele>
        <time>2015-09-05T16:31:15Z</time>
      </trkpt>
      <trkpt lat="45.12385" lon="5.41394">
        <ele>1196.3</ele>
        <time>2015-09-05T16:31:18Z</time>
      </trkpt>
      <trkpt lat="45.12375" lon="5.41389">
        <ele>1192.2</ele>
        <time>2015-09-05T16:31:31Z</time>
      </trkpt>
      <trkpt lat="45.12369" lon="5.41379">
        <ele>1191.4</ele>
        <time>2015-09-05T16:31:35Z</time>
      </trkpt>
      <trkpt lat="45.12364" lon="5.41366">
        <ele>1190.5</ele>
        <time>2015-09-05T16:31:38Z</time>
      </trkpt>
      <trkpt lat="45.1236" lon="5.41348">
        <ele>1189</ele>
        <time>2015-09-05T16:31:41Z</time>
      </trkpt>
      <trkpt lat="45.1236" lon="5.41329">
        <ele>1187.8</ele>
        <time>2015-09-05T16:31:44Z</time>
      </trkpt>
      <trkpt lat="45.12361" lon="5.41313">
        <ele>1186.9</ele>
        <time>2015-09-05T16:31:46Z</time>
      </trkpt>
      <trkpt lat="45.12364" lon="5.41301">
        <ele>1185.8</ele>
        <time>2015-09-05T16:31:48Z</time>
      </trkpt>
      <trkpt lat="45.12371" lon="5.4129">
        <ele>1184.3</ele>
        <time>2015-09-05T16:31:51Z</time>
      </trkpt>
      <trkpt lat="45.12379" lon="5.41277">
        <ele>1182.8</ele>
        <time>2015-09-05T16:31:54Z</time>
      </trkpt>
      <trkpt lat="45.12384" lon="5.41262">
        <ele>1180.7</ele>
        <time>2015-09-05T16:31:57Z</time>
      </trkpt>
      <trkpt lat="45.12382" lon="5.41244">
        <ele>1178.5</ele>
        <time>2015-09-05T16:32:00Z</time>
      </trkpt>
      <trkpt lat="45.12374" lon="5.4123">
        <ele>1176.3</ele>
        <time>2015-09-05T16:32:03Z</time>
      </trkpt>
      <trkpt lat="45.12364" lon="5.41223">
        <ele>1173.9</ele>
        <time>2015-09-05T16:32:06Z</time>
      </trkpt>
      <trkpt lat="45.12351" lon="5.41218">
        <ele>1171.3</ele>
        <time>2015-09-05T16:32:09Z</time>
      </trkpt>
      <trkpt lat="45.12342" lon="5.41212">
        <ele>1169</ele>
        <time>2015-09-05T16:32:12Z</time>
      </trkpt>
      <trkpt lat="45.12332" lon="5.41207">
        <ele>1166.7</ele>
        <time>2015-09-05T16:32:15Z</time>
      </trkpt>
      <trkpt lat="45.12319" lon="5.41209">
        <ele>1164.4</ele>
        <time>2015-09-05T16:32:18Z</time>
      </trkpt>
      <trkpt lat="45.1231" lon="5.41213">
        <ele>1162.8</ele>
        <time>2015-09-05T16:32:20Z</time>
      </trkpt>
      <trkpt lat="45.12299" lon="5.41218">
        <ele>1160.2</ele>
        <time>2015-09-05T16:32:23Z</time>
      </trkpt>
      <trkpt lat="45.12287" lon="5.41218">
        <ele>1157.6</ele>
        <time>2015-09-05T16:32:26Z</time>
      </trkpt>
      <trkpt lat="45.12276" lon="5.41216">
        <ele>1155.1</ele>
        <time>2015-09-05T16:32:29Z</time>
      </trkpt>
      <trkpt lat="45.12265" lon="5.41214">
        <ele>1152.7</ele>
        <time>2015-09-05T16:32:32Z</time>
      </trkpt>
      <trkpt lat="45.12253" lon="5.41214">
        <ele>1150</ele>
        <time>2015-09-05T16:32:35Z</time>
      </trkpt>
      <trkpt lat="45.12245" lon="5.41219">
        <ele>1148.2</ele>
        <time>2015-09-05T16:32:37Z</time>
      </trkpt>
      <trkpt lat="45.12235" lon="5.41222">
        <ele>1146.4</ele>
        <time>2015-09-05T16:32:39Z</time>
      </trkpt>
      <trkpt lat="45.12224" lon="5.41225">
        <ele>1143.9</ele>
        <time>2015-09-05T16:32:42Z</time>
      </trkpt>
      <trkpt lat="45.12213" lon="5.41227">
        <ele>1141.5</ele>
        <time>2015-09-05T16:32:45Z</time>
      </trkpt>
      <trkpt lat="45.12203" lon="5.4123">
        <ele>1139.9</ele>
        <time>2015-09-05T16:32:47Z</time>
      </trkpt>
      <trkpt lat="45.12194" lon="5.41232">
        <ele>1138.3</ele>
        <time>2015-09-05T16:32:49Z</time>
      </trkpt>
      <trkpt lat="45.12184" lon="5.41236">
        <ele>1129.3</ele>
        <time>2015-09-05T16:33:08Z</time>
      </trkpt>
      <trkpt lat="45.12172" lon="5.41235">
        <ele>1128.3</ele>
        <time>2015-09-05T16:33:12Z</time>
      </trkpt>
      <trkpt lat="45.12161" lon="5.41234">
        <ele>1127.5</ele>
        <time>2015-09-05T16:33:15Z</time>
      </trkpt>
      <trkpt lat="45.1215" lon="5.41234">
        <ele>1126.4</ele>
        <time>2015-09-05T16:33:18Z</time>
      </trkpt>
      <trkpt lat="45.12141" lon="5.41231">
        <ele>1125.8</ele>
        <time>2015-09-05T16:33:20Z</time>
      </trkpt>
      <trkpt lat="45.1213" lon="5.41226">
        <ele>1125.1</ele>
        <time>2015-09-05T16:33:22Z</time>
      </trkpt>
      <trkpt lat="45.1212" lon="5.41222">
        <ele>1124.4</ele>
        <time>2015-09-05T16:33:24Z</time>
      </trkpt>
      <trkpt lat="45.12107" lon="5.41219">
        <ele>1123.2</ele>
        <time>2015-09-05T16:33:27Z</time>
      </trkpt>
      <trkpt lat="45.12094" lon="5.41214">
        <ele>1121.7</ele>
        <time>2015-09-05T16:33:30Z</time>
      </trkpt>
      <trkpt lat="45.12085" lon="5.41212">
        <ele>1121</ele>
        <time>2015-09-05T16:33:32Z</time>
      </trkpt>
      <trkpt lat="45.12073" lon="5.41207">
        <ele>1120</ele>
        <time>2015-09-05T16:33:35Z</time>
      </trkpt>
      <trkpt lat="45.12063" lon="5.41206">
        <ele>1119.2</ele>
        <time>2015-09-05T16:33:37Z</time>
      </trkpt>
      <trkpt lat="45.1205" lon="5.41201">
        <ele>1118.4</ele>
        <time>2015-09-05T16:33:39Z</time>
      </trkpt>
      <trkpt lat="45.12038" lon="5.41198">
        <ele>1117.6</ele>
        <time>2015-09-05T16:33:41Z</time>
      </trkpt>
      <trkpt lat="45.12028" lon="5.41193">
        <ele>1116.9</ele>
        <time>2015-09-05T16:33:43Z</time>
      </trkpt>
      <trkpt lat="45.12017" lon="5.41187">
        <ele>1115.3</ele>
        <time>2015-09-05T16:33:46Z</time>
      </trkpt>
      <trkpt lat="45.12008" lon="5.41182">
        <ele>1113.7</ele>
        <time>2015-09-05T16:33:49Z</time>
      </trkpt>
      <trkpt lat="45.11997" lon="5.41174">
        <ele>1111.9</ele>
        <time>2015-09-05T16:33:52Z</time>
      </trkpt>
      <trkpt lat="45.11987" lon="5.41164">
        <ele>1110.2</ele>
        <time>2015-09-05T16:33:55Z</time>
      </trkpt>
      <trkpt lat="45.1198" lon="5.41151">
        <ele>1108.5</ele>
        <time>2015-09-05T16:33:58Z</time>
      </trkpt>
      <trkpt lat="45.11975" lon="5.41138">
        <ele>1106.3</ele>
        <time>2015-09-05T16:34:02Z</time>
      </trkpt>
      <trkpt lat="45.11966" lon="5.41126">
        <ele>1103.9</ele>
        <time>2015-09-05T16:34:06Z</time>
      </trkpt>
      <trkpt lat="45.11959" lon="5.41116">
        <ele>1102.1</ele>
        <time>2015-09-05T16:34:09Z</time>
      </trkpt>
      <trkpt lat="45.11951" lon="5.41107">
        <ele>1099.8</ele>
        <time>2015-09-05T16:34:13Z</time>
      </trkpt>
      <trkpt lat="45.11945" lon="5.41096">
        <ele>1096.8</ele>
        <time>2015-09-05T16:34:19Z</time>
      </trkpt>
      <trkpt lat="45.11937" lon="5.41082">
        <ele>1094.1</ele>
        <time>2015-09-05T16:34:24Z</time>
      </trkpt>
      <trkpt lat="45.11933" lon="5.41069">
        <ele>1092.7</ele>
        <time>2015-09-05T16:34:27Z</time>
      </trkpt>
      <trkpt lat="45.11928" lon="5.41058">
        <ele>1091.1</ele>
        <time>2015-09-05T16:34:30Z</time>
      </trkpt>
      <trkpt lat="45.1192" lon="5.41048">
        <ele>1089.5</ele>
        <time>2015-09-05T16:34:33Z</time>
      </trkpt>
      <trkpt lat="45.11909" lon="5.41045">
        <ele>1087.7</ele>
        <time>2015-09-05T16:34:36Z</time>
      </trkpt>
      <trkpt lat="45.11898" lon="5.41044">
        <ele>1085.8</ele>
        <time>2015-09-05T16:34:39Z</time>
      </trkpt>
      <trkpt lat="45.11887" lon="5.4104">
        <ele>1083.7</ele>
        <time>2015-09-05T16:34:42Z</time>
      </trkpt>
      <trkpt lat="45.11874" lon="5.41037">
        <ele>1081.6</ele>
        <time>2015-09-05T16:34:45Z</time>
      </trkpt>
      <trkpt lat="45.11862" lon="5.41028">
        <ele>1079.3</ele>
        <time>2015-09-05T16:34:48Z</time>
      </trkpt>
      <trkpt lat="45.11853" lon="5.41021">
        <ele>1077.7</ele>
        <time>2015-09-05T16:34:50Z</time>
      </trkpt>
      <trkpt lat="45.11845" lon="5.41016">
        <ele>1076</ele>
        <time>2015-09-05T16:34:52Z</time>
      </trkpt>
      <trkpt lat="45.11834" lon="5.41007">
        <ele>1073.8</ele>
        <time>2015-09-05T16:34:55Z</time>
      </trkpt>
      <trkpt lat="45.11824" lon="5.41002">
        <ele>1072.1</ele>
        <time>2015-09-05T16:34:57Z</time>
      </trkpt>
      <trkpt lat="45.11815" lon="5.40995">
        <ele>1070.4</ele>
        <time>2015-09-05T16:34:59Z</time>
      </trkpt>
      <trkpt lat="45.11809" lon="5.40984">
        <ele>1068.8</ele>
        <time>2015-09-05T16:35:01Z</time>
      </trkpt>
      <trkpt lat="45.11802" lon="5.40971">
        <ele>1067.3</ele>
        <time>2015-09-05T16:35:03Z</time>
      </trkpt>
      <trkpt lat="45.11796" lon="5.40959">
        <ele>1065.6</ele>
        <time>2015-09-05T16:35:05Z</time>
      </trkpt>
      <trkpt lat="45.11789" lon="5.40947">
        <ele>1063.2</ele>
        <time>2015-09-05T16:35:08Z</time>
      </trkpt>
      <trkpt lat="45.11779" lon="5.40939">
        <ele>1060.8</ele>
        <time>2015-09-05T16:35:11Z</time>
      </trkpt>
      <trkpt lat="45.11769" lon="5.40931">
        <ele>1058.5</ele>
        <time>2015-09-05T16:35:14Z</time>
      </trkpt>
      <trkpt lat="45.11762" lon="5.40918">
        <ele>1056.3</ele>
        <time>2015-09-05T16:35:17Z</time>
      </trkpt>
      <trkpt lat="45.11752" lon="5.40909">
        <ele>1053.9</ele>
        <time>2015-09-05T16:35:20Z</time>
      </trkpt>
      <trkpt lat="45.1174" lon="5.40908">
        <ele>1051.7</ele>
        <time>2015-09-05T16:35:23Z</time>
      </trkpt>
      <trkpt lat="45.11731" lon="5.40908">
        <ele>1049.3</ele>
        <time>2015-09-05T16:35:26Z</time>
      </trkpt>
      <trkpt lat="45.11722" lon="5.40902">
        <ele>1045.7</ele>
        <time>2015-09-05T16:35:31Z</time>
      </trkpt>
      <trkpt lat="45.11713" lon="5.409">
        <ele>1043.5</ele>
        <time>2015-09-05T16:35:34Z</time>
      </trkpt>
      <trkpt lat="45.11704" lon="5.40895">
        <ele>1041.6</ele>
        <time>2015-09-05T16:35:37Z</time>
      </trkpt>
      <trkpt lat="45.11693" lon="5.40887">
        <ele>1039.5</ele>
        <time>2015-09-05T16:35:40Z</time>
      </trkpt>
      <trkpt lat="45.11684" lon="5.40873">
        <ele>1037.3</ele>
        <time>2015-09-05T16:35:43Z</time>
      </trkpt>
      <trkpt lat="45.11677" lon="5.40863">
        <ele>1035.9</ele>
        <time>2015-09-05T16:35:45Z</time>
      </trkpt>
      <trkpt lat="45.11671" lon="5.40846">
        <ele>1034.3</ele>
        <time>2015-09-05T16:35:47Z</time>
      </trkpt>
      <trkpt lat="45.11668" lon="5.40829">
        <ele>1032.9</ele>
        <time>2015-09-05T16:35:49Z</time>
      </trkpt>
      <trkpt lat="45.11667" lon="5.40812">
        <ele>1031.5</ele>
        <time>2015-09-05T16:35:51Z</time>
      </trkpt>
      <trkpt lat="45.11669" lon="5.40796">
        <ele>1030.1</ele>
        <time>2015-09-05T16:35:53Z</time>
      </trkpt>
      <trkpt lat="45.11672" lon="5.4078">
        <ele>1028.9</ele>
        <time>2015-09-05T16:35:55Z</time>
      </trkpt>
      <trkpt lat="45.11674" lon="5.40762">
        <ele>1027.7</ele>
        <time>2015-09-05T16:35:57Z</time>
      </trkpt>
      <trkpt lat="45.11674" lon="5.40745">
        <ele>1026.6</ele>
        <time>2015-09-05T16:35:59Z</time>
      </trkpt>
      <trkpt lat="45.11673" lon="5.40727">
        <ele>1025.6</ele>
        <time>2015-09-05T16:36:01Z</time>
      </trkpt>
      <trkpt lat="45.11672" lon="5.40711">
        <ele>1024.6</ele>
        <time>2015-09-05T16:36:03Z</time>
      </trkpt>
      <trkpt lat="45.11671" lon="5.40696">
        <ele>1023.8</ele>
        <time>2015-09-05T16:36:05Z</time>
      </trkpt>
      <trkpt lat="45.11669" lon="5.40681">
        <ele>1022.9</ele>
        <time>2015-09-05T16:36:07Z</time>
      </trkpt>
      <trkpt lat="45.11668" lon="5.40666">
        <ele>1022.1</ele>
        <time>2015-09-05T16:36:09Z</time>
      </trkpt>
      <trkpt lat="45.11667" lon="5.40652">
        <ele>1021.4</ele>
        <time>2015-09-05T16:36:11Z</time>
      </trkpt>
      <trkpt lat="45.11665" lon="5.40638">
        <ele>1020.8</ele>
        <time>2015-09-05T16:36:13Z</time>
      </trkpt>
      <trkpt lat="45.11664" lon="5.40625">
        <ele>1020.3</ele>
        <time>2015-09-05T16:36:15Z</time>
      </trkpt>
      <trkpt lat="45.11663" lon="5.40612">
        <ele>1019.8</ele>
        <time>2015-09-05T16:36:17Z</time>
      </trkpt>
      <trkpt lat="45.11662" lon="5.40593">
        <ele>1019.2</ele>
        <time>2015-09-05T16:36:20Z</time>
      </trkpt>
      <trkpt lat="45.11662" lon="5.4058">
        <ele>1018.7</ele>
        <time>2015-09-05T16:36:22Z</time>
      </trkpt>
      <trkpt lat="45.11661" lon="5.40567">
        <ele>1018.2</ele>
        <time>2015-09-05T16:36:24Z</time>
      </trkpt>
      <trkpt lat="45.1166" lon="5.40548">
        <ele>1017.6</ele>
        <time>2015-09-05T16:36:27Z</time>
      </trkpt>
      <trkpt lat="45.11658" lon="5.40529">
        <ele>1017.1</ele>
        <time>2015-09-05T16:36:30Z</time>
      </trkpt>
      <trkpt lat="45.11657" lon="5.4051">
        <ele>1016.6</ele>
        <time>2015-09-05T16:36:33Z</time>
      </trkpt>
      <trkpt lat="45.11656" lon="5.40497">
        <ele>1016.4</ele>
        <time>2015-09-05T16:36:35Z</time>
      </trkpt>
      <trkpt lat="45.11653" lon="5.40479">
        <ele>1016</ele>
        <time>2015-09-05T16:36:38Z</time>
      </trkpt>
      <trkpt lat="45.11649" lon="5.40463">
        <ele>1015.7</ele>
        <time>2015-09-05T16:36:41Z</time>
      </trkpt>
      <trkpt lat="45.11644" lon="5.40449">
        <ele>1015.5</ele>
        <time>2015-09-05T16:36:44Z</time>
      </trkpt>
      <trkpt lat="45.11639" lon="5.40435">
        <ele>1015.3</ele>
        <time>2015-09-05T16:36:47Z</time>
      </trkpt>
      <trkpt lat="45.11636" lon="5.40419">
        <ele>1015.1</ele>
        <time>2015-09-05T16:36:50Z</time>
      </trkpt>
      <trkpt lat="45.11635" lon="5.40402">
        <ele>1015</ele>
        <time>2015-09-05T16:36:53Z</time>
      </trkpt>
      <trkpt lat="45.11632" lon="5.40386">
        <ele>1014.9</ele>
        <time>2015-09-05T16:36:56Z</time>
      </trkpt>
      <trkpt lat="45.1163" lon="5.4037">
        <ele>1014.8</ele>
        <time>2015-09-05T16:36:59Z</time>
      </trkpt>
      <trkpt lat="45.11624" lon="5.40356">
        <ele>1014.8</ele>
        <time>2015-09-05T16:37:03Z</time>
      </trkpt>
      <trkpt lat="45.11619" lon="5.40345">
        <ele>1014.7</ele>
        <time>2015-09-05T16:37:08Z</time>
      </trkpt>
      <trkpt lat="45.11617" lon="5.40343">
        <ele>1015.1</ele>
        <time>2015-09-05T16:37:26Z</time>
      </trkpt>
    </trkseg>
  </trk>
</gpx>